<?xml version="1.0" encoding="UTF-8" standalone="no" ?>
<gpx xmlns="http://www.topografix.com/GPX/1/1" xmlns:xsi="http://www.w3.org/2001/XMLSchema-instance" xsi:schemaLocation="http://www.topografix.com/GPX/1/1 http://www.topografix.com/GPX/1/1/gpx.xsd" version="1.1" creator="VisuGPX - https://www.visugpx.com">
  <metadata>
    <name>002SG74-8024728</name>
    <desc><![CDATA[
01]]></desc>
  </metadata>
  <trk>
    <name><![CDATA[002SG74-8024728]]></name>
    <trkseg>
      <trkpt lat="46.69908" lon="-1.93383">
        <ele>4</ele>
        <time>2018-01-05T21:52:50Z</time>
      </trkpt>
      <trkpt lat="46.69907" lon="-1.93379">
        <ele>5</ele>
        <time>2018-01-05T21:53:50Z</time>
      </trkpt>
      <trkpt lat="46.69908" lon="-1.93377">
        <ele>5</ele>
        <time>2018-01-05T21:54:50Z</time>
      </trkpt>
      <trkpt lat="46.69908" lon="-1.93376">
        <ele>5</ele>
        <time>2018-01-05T21:55:50Z</time>
      </trkpt>
      <trkpt lat="46.69909" lon="-1.93375">
        <ele>5</ele>
        <time>2018-01-05T21:56:50Z</time>
      </trkpt>
      <trkpt lat="46.69911" lon="-1.93375">
        <ele>5</ele>
        <time>2018-01-05T21:57:50Z</time>
      </trkpt>
      <trkpt lat="46.69912" lon="-1.93375">
        <ele>5</ele>
        <time>2018-01-05T21:58:50Z</time>
      </trkpt>
      <trkpt lat="46.69914" lon="-1.93375">
        <ele>5</ele>
        <time>2018-01-05T21:59:50Z</time>
      </trkpt>
      <trkpt lat="46.69915" lon="-1.93376">
        <ele>5</ele>
        <time>2018-01-05T22:00:50Z</time>
      </trkpt>
      <trkpt lat="46.69915" lon="-1.93377">
        <ele>4</ele>
        <time>2018-01-05T22:01:50Z</time>
      </trkpt>
      <trkpt lat="46.69916" lon="-1.93379">
        <ele>4</ele>
        <time>2018-01-05T22:02:50Z</time>
      </trkpt>
      <trkpt lat="46.69916" lon="-1.93382">
        <ele>4</ele>
        <time>2018-01-05T22:03:50Z</time>
      </trkpt>
      <trkpt lat="46.69915" lon="-1.93383">
        <ele>4</ele>
        <time>2018-01-05T22:04:50Z</time>
      </trkpt>
      <trkpt lat="46.69915" lon="-1.93383">
        <ele>4</ele>
        <time>2018-01-05T22:05:50Z</time>
      </trkpt>
      <trkpt lat="46.69922" lon="-1.93383">
        <ele>4</ele>
        <time>2018-01-05T22:06:50Z</time>
      </trkpt>
      <trkpt lat="46.69925" lon="-1.93383">
        <ele>4</ele>
        <time>2018-01-05T22:07:50Z</time>
      </trkpt>
      <trkpt lat="46.69935" lon="-1.93382">
        <ele>4</ele>
        <time>2018-01-05T22:08:50Z</time>
      </trkpt>
      <trkpt lat="46.69944" lon="-1.93381">
        <ele>4</ele>
        <time>2018-01-05T22:09:50Z</time>
      </trkpt>
      <trkpt lat="46.69949" lon="-1.93379">
        <ele>4</ele>
        <time>2018-01-05T22:10:50Z</time>
      </trkpt>
      <trkpt lat="46.69953" lon="-1.93377">
        <ele>4</ele>
        <time>2018-01-05T22:11:50Z</time>
      </trkpt>
      <trkpt lat="46.69958" lon="-1.93375">
        <ele>4</ele>
        <time>2018-01-05T22:12:50Z</time>
      </trkpt>
      <trkpt lat="46.69963" lon="-1.93373">
        <ele>4</ele>
        <time>2018-01-05T22:13:50Z</time>
      </trkpt>
      <trkpt lat="46.69969" lon="-1.9337">
        <ele>4</ele>
        <time>2018-01-05T22:14:50Z</time>
      </trkpt>
      <trkpt lat="46.69973" lon="-1.93367">
        <ele>4</ele>
        <time>2018-01-05T22:15:50Z</time>
      </trkpt>
      <trkpt lat="46.69976" lon="-1.93367">
        <ele>4</ele>
        <time>2018-01-05T22:16:50Z</time>
      </trkpt>
      <trkpt lat="46.69978" lon="-1.93366">
        <ele>3</ele>
        <time>2018-01-05T22:17:50Z</time>
      </trkpt>
      <trkpt lat="46.69979" lon="-1.93366">
        <ele>3</ele>
        <time>2018-01-05T22:18:50Z</time>
      </trkpt>
      <trkpt lat="46.69982" lon="-1.93367">
        <ele>3</ele>
        <time>2018-01-05T22:19:50Z</time>
      </trkpt>
      <trkpt lat="46.69987" lon="-1.93369">
        <ele>3</ele>
        <time>2018-01-05T22:20:50Z</time>
      </trkpt>
      <trkpt lat="46.70002" lon="-1.93375">
        <ele>3</ele>
        <time>2018-01-05T22:21:50Z</time>
      </trkpt>
      <trkpt lat="46.70015" lon="-1.9338">
        <ele>3</ele>
        <time>2018-01-05T22:22:50Z</time>
      </trkpt>
      <trkpt lat="46.7002" lon="-1.93382">
        <ele>3</ele>
        <time>2018-01-05T22:23:50Z</time>
      </trkpt>
      <trkpt lat="46.70023" lon="-1.93384">
        <ele>3</ele>
        <time>2018-01-05T22:24:50Z</time>
      </trkpt>
      <trkpt lat="46.70025" lon="-1.93386">
        <ele>3</ele>
        <time>2018-01-05T22:25:50Z</time>
      </trkpt>
      <trkpt lat="46.70028" lon="-1.93388">
        <ele>3</ele>
        <time>2018-01-05T22:26:50Z</time>
      </trkpt>
      <trkpt lat="46.7003" lon="-1.93391">
        <ele>3</ele>
        <time>2018-01-05T22:27:50Z</time>
      </trkpt>
      <trkpt lat="46.70033" lon="-1.93394">
        <ele>2</ele>
        <time>2018-01-05T22:28:50Z</time>
      </trkpt>
      <trkpt lat="46.70036" lon="-1.93397">
        <ele>2</ele>
        <time>2018-01-05T22:29:50Z</time>
      </trkpt>
      <trkpt lat="46.70038" lon="-1.93398">
        <ele>2</ele>
        <time>2018-01-05T22:30:50Z</time>
      </trkpt>
      <trkpt lat="46.70041" lon="-1.934">
        <ele>2</ele>
        <time>2018-01-05T22:31:50Z</time>
      </trkpt>
      <trkpt lat="46.70043" lon="-1.93401">
        <ele>2</ele>
        <time>2018-01-05T22:32:50Z</time>
      </trkpt>
      <trkpt lat="46.70046" lon="-1.93402">
        <ele>2</ele>
        <time>2018-01-05T22:33:50Z</time>
      </trkpt>
      <trkpt lat="46.70052" lon="-1.93405">
        <ele>2</ele>
        <time>2018-01-05T22:34:50Z</time>
      </trkpt>
      <trkpt lat="46.70052" lon="-1.93404">
        <ele>2</ele>
        <time>2018-01-05T22:35:50Z</time>
      </trkpt>
      <trkpt lat="46.70052" lon="-1.93403">
        <ele>2</ele>
        <time>2018-01-05T22:36:50Z</time>
      </trkpt>
      <trkpt lat="46.70052" lon="-1.93402">
        <ele>2</ele>
        <time>2018-01-05T22:37:50Z</time>
      </trkpt>
      <trkpt lat="46.70052" lon="-1.93401">
        <ele>2</ele>
        <time>2018-01-05T22:38:50Z</time>
      </trkpt>
      <trkpt lat="46.70053" lon="-1.93401">
        <ele>2</ele>
        <time>2018-01-05T22:39:50Z</time>
      </trkpt>
      <trkpt lat="46.70053" lon="-1.934">
        <ele>2</ele>
        <time>2018-01-05T22:40:50Z</time>
      </trkpt>
      <trkpt lat="46.70053" lon="-1.93399">
        <ele>2</ele>
        <time>2018-01-05T22:41:50Z</time>
      </trkpt>
      <trkpt lat="46.70054" lon="-1.93399">
        <ele>2</ele>
        <time>2018-01-05T22:42:50Z</time>
      </trkpt>
      <trkpt lat="46.70054" lon="-1.93398">
        <ele>2</ele>
        <time>2018-01-05T22:43:50Z</time>
      </trkpt>
      <trkpt lat="46.70055" lon="-1.93398">
        <ele>2</ele>
        <time>2018-01-05T22:44:50Z</time>
      </trkpt>
      <trkpt lat="46.70056" lon="-1.93398">
        <ele>2</ele>
        <time>2018-01-05T22:45:50Z</time>
      </trkpt>
      <trkpt lat="46.70056" lon="-1.93397">
        <ele>2</ele>
        <time>2018-01-05T22:46:50Z</time>
      </trkpt>
      <trkpt lat="46.70057" lon="-1.93397">
        <ele>2</ele>
        <time>2018-01-05T22:47:50Z</time>
      </trkpt>
      <trkpt lat="46.70058" lon="-1.93397">
        <ele>2</ele>
        <time>2018-01-05T22:48:50Z</time>
      </trkpt>
      <trkpt lat="46.70059" lon="-1.93398">
        <ele>2</ele>
        <time>2018-01-05T22:49:50Z</time>
      </trkpt>
      <trkpt lat="46.7006" lon="-1.93398">
        <ele>2</ele>
        <time>2018-01-05T22:50:50Z</time>
      </trkpt>
      <trkpt lat="46.7006" lon="-1.93399">
        <ele>2</ele>
        <time>2018-01-05T22:51:50Z</time>
      </trkpt>
      <trkpt lat="46.70061" lon="-1.93399">
        <ele>2</ele>
        <time>2018-01-05T22:52:50Z</time>
      </trkpt>
      <trkpt lat="46.70061" lon="-1.934">
        <ele>2</ele>
        <time>2018-01-05T22:53:50Z</time>
      </trkpt>
      <trkpt lat="46.70061" lon="-1.93401">
        <ele>2</ele>
        <time>2018-01-05T22:54:50Z</time>
      </trkpt>
      <trkpt lat="46.70062" lon="-1.93401">
        <ele>2</ele>
        <time>2018-01-05T22:55:50Z</time>
      </trkpt>
      <trkpt lat="46.70062" lon="-1.93402">
        <ele>2</ele>
        <time>2018-01-05T22:56:50Z</time>
      </trkpt>
      <trkpt lat="46.70062" lon="-1.93403">
        <ele>2</ele>
        <time>2018-01-05T22:57:50Z</time>
      </trkpt>
      <trkpt lat="46.70062" lon="-1.93404">
        <ele>2</ele>
        <time>2018-01-05T22:58:50Z</time>
      </trkpt>
      <trkpt lat="46.70062" lon="-1.93405">
        <ele>2</ele>
        <time>2018-01-05T22:59:50Z</time>
      </trkpt>
      <trkpt lat="46.70083" lon="-1.93405">
        <ele>2</ele>
        <time>2018-01-05T23:00:50Z</time>
      </trkpt>
      <trkpt lat="46.70093" lon="-1.934">
        <ele>2</ele>
        <time>2018-01-05T23:01:50Z</time>
      </trkpt>
      <trkpt lat="46.70098" lon="-1.93397">
        <ele>2</ele>
        <time>2018-01-05T23:02:50Z</time>
      </trkpt>
      <trkpt lat="46.70102" lon="-1.93395">
        <ele>2</ele>
        <time>2018-01-05T23:03:50Z</time>
      </trkpt>
      <trkpt lat="46.70107" lon="-1.93391">
        <ele>2</ele>
        <time>2018-01-05T23:04:50Z</time>
      </trkpt>
      <trkpt lat="46.70111" lon="-1.93388">
        <ele>2</ele>
        <time>2018-01-05T23:05:50Z</time>
      </trkpt>
      <trkpt lat="46.70114" lon="-1.93384">
        <ele>2</ele>
        <time>2018-01-05T23:06:50Z</time>
      </trkpt>
      <trkpt lat="46.70114" lon="-1.93384">
        <ele>2</ele>
        <time>2018-01-05T23:07:50Z</time>
      </trkpt>
      <trkpt lat="46.70115" lon="-1.93383">
        <ele>2</ele>
        <time>2018-01-05T23:08:50Z</time>
      </trkpt>
      <trkpt lat="46.70115" lon="-1.93382">
        <ele>2</ele>
        <time>2018-01-05T23:09:50Z</time>
      </trkpt>
      <trkpt lat="46.70115" lon="-1.93381">
        <ele>2</ele>
        <time>2018-01-05T23:10:50Z</time>
      </trkpt>
      <trkpt lat="46.70116" lon="-1.9338">
        <ele>2</ele>
        <time>2018-01-05T23:11:50Z</time>
      </trkpt>
      <trkpt lat="46.70116" lon="-1.93378">
        <ele>2</ele>
        <time>2018-01-05T23:12:50Z</time>
      </trkpt>
      <trkpt lat="46.70116" lon="-1.93377">
        <ele>2</ele>
        <time>2018-01-05T23:13:50Z</time>
      </trkpt>
      <trkpt lat="46.70117" lon="-1.93376">
        <ele>2</ele>
        <time>2018-01-05T23:14:50Z</time>
      </trkpt>
      <trkpt lat="46.70117" lon="-1.93375">
        <ele>2</ele>
        <time>2018-01-05T23:15:50Z</time>
      </trkpt>
      <trkpt lat="46.70118" lon="-1.93374">
        <ele>1</ele>
        <time>2018-01-05T23:16:50Z</time>
      </trkpt>
      <trkpt lat="46.70119" lon="-1.93373">
        <ele>1</ele>
        <time>2018-01-05T23:17:50Z</time>
      </trkpt>
      <trkpt lat="46.70119" lon="-1.93372">
        <ele>1</ele>
        <time>2018-01-05T23:18:50Z</time>
      </trkpt>
      <trkpt lat="46.7012" lon="-1.93372">
        <ele>1</ele>
        <time>2018-01-05T23:19:50Z</time>
      </trkpt>
      <trkpt lat="46.70121" lon="-1.93371">
        <ele>1</ele>
        <time>2018-01-05T23:20:50Z</time>
      </trkpt>
      <trkpt lat="46.70122" lon="-1.9337">
        <ele>1</ele>
        <time>2018-01-05T23:21:50Z</time>
      </trkpt>
      <trkpt lat="46.70123" lon="-1.93369">
        <ele>1</ele>
        <time>2018-01-05T23:22:50Z</time>
      </trkpt>
      <trkpt lat="46.70124" lon="-1.93369">
        <ele>1</ele>
        <time>2018-01-05T23:23:50Z</time>
      </trkpt>
      <trkpt lat="46.70125" lon="-1.93368">
        <ele>2</ele>
        <time>2018-01-05T23:24:50Z</time>
      </trkpt>
      <trkpt lat="46.70126" lon="-1.93368">
        <ele>2</ele>
        <time>2018-01-05T23:25:50Z</time>
      </trkpt>
      <trkpt lat="46.70127" lon="-1.93368">
        <ele>2</ele>
        <time>2018-01-05T23:26:50Z</time>
      </trkpt>
      <trkpt lat="46.70128" lon="-1.93368">
        <ele>2</ele>
        <time>2018-01-05T23:27:50Z</time>
      </trkpt>
      <trkpt lat="46.70129" lon="-1.93368">
        <ele>2</ele>
        <time>2018-01-05T23:28:50Z</time>
      </trkpt>
      <trkpt lat="46.7013" lon="-1.93368">
        <ele>2</ele>
        <time>2018-01-05T23:29:50Z</time>
      </trkpt>
      <trkpt lat="46.70131" lon="-1.93369">
        <ele>2</ele>
        <time>2018-01-05T23:30:50Z</time>
      </trkpt>
      <trkpt lat="46.70132" lon="-1.93369">
        <ele>2</ele>
        <time>2018-01-05T23:31:50Z</time>
      </trkpt>
      <trkpt lat="46.70132" lon="-1.9337">
        <ele>2</ele>
        <time>2018-01-05T23:32:50Z</time>
      </trkpt>
      <trkpt lat="46.70133" lon="-1.9337">
        <ele>2</ele>
        <time>2018-01-05T23:33:50Z</time>
      </trkpt>
      <trkpt lat="46.70134" lon="-1.93371">
        <ele>2</ele>
        <time>2018-01-05T23:34:50Z</time>
      </trkpt>
      <trkpt lat="46.70135" lon="-1.93372">
        <ele>2</ele>
        <time>2018-01-05T23:35:50Z</time>
      </trkpt>
      <trkpt lat="46.70136" lon="-1.93373">
        <ele>2</ele>
        <time>2018-01-05T23:36:50Z</time>
      </trkpt>
      <trkpt lat="46.70136" lon="-1.93374">
        <ele>2</ele>
        <time>2018-01-05T23:37:50Z</time>
      </trkpt>
      <trkpt lat="46.70137" lon="-1.93374">
        <ele>2</ele>
        <time>2018-01-05T23:38:50Z</time>
      </trkpt>
      <trkpt lat="46.70137" lon="-1.93375">
        <ele>1</ele>
        <time>2018-01-05T23:39:50Z</time>
      </trkpt>
      <trkpt lat="46.70138" lon="-1.93376">
        <ele>1</ele>
        <time>2018-01-05T23:40:50Z</time>
      </trkpt>
      <trkpt lat="46.70138" lon="-1.93377">
        <ele>1</ele>
        <time>2018-01-05T23:41:50Z</time>
      </trkpt>
      <trkpt lat="46.70138" lon="-1.93378">
        <ele>1</ele>
        <time>2018-01-05T23:42:50Z</time>
      </trkpt>
      <trkpt lat="46.70165" lon="-1.93375">
        <ele>1</ele>
        <time>2018-01-05T23:43:50Z</time>
      </trkpt>
      <trkpt lat="46.7017" lon="-1.93374">
        <ele>1</ele>
        <time>2018-01-05T23:44:50Z</time>
      </trkpt>
      <trkpt lat="46.70173" lon="-1.93372">
        <ele>1</ele>
        <time>2018-01-05T23:45:50Z</time>
      </trkpt>
      <trkpt lat="46.70181" lon="-1.93366">
        <ele>2</ele>
        <time>2018-01-05T23:46:50Z</time>
      </trkpt>
      <trkpt lat="46.70194" lon="-1.93356">
        <ele>1</ele>
        <time>2018-01-05T23:47:50Z</time>
      </trkpt>
      <trkpt lat="46.70205" lon="-1.93347">
        <ele>1</ele>
        <time>2018-01-05T23:48:50Z</time>
      </trkpt>
      <trkpt lat="46.70211" lon="-1.9334">
        <ele>1</ele>
        <time>2018-01-05T23:49:50Z</time>
      </trkpt>
      <trkpt lat="46.70216" lon="-1.93332">
        <ele>1</ele>
        <time>2018-01-05T23:50:50Z</time>
      </trkpt>
      <trkpt lat="46.70224" lon="-1.9332">
        <ele>1</ele>
        <time>2018-01-05T23:51:50Z</time>
      </trkpt>
      <trkpt lat="46.70239" lon="-1.93295">
        <ele>2</ele>
        <time>2018-01-05T23:52:50Z</time>
      </trkpt>
      <trkpt lat="46.70251" lon="-1.9328">
        <ele>2</ele>
        <time>2018-01-05T23:53:50Z</time>
      </trkpt>
      <trkpt lat="46.70263" lon="-1.93271">
        <ele>2</ele>
        <time>2018-01-05T23:54:50Z</time>
      </trkpt>
      <trkpt lat="46.70276" lon="-1.93263">
        <ele>2</ele>
        <time>2018-01-05T23:55:50Z</time>
      </trkpt>
      <trkpt lat="46.7028" lon="-1.9326">
        <ele>2</ele>
        <time>2018-01-05T23:56:50Z</time>
      </trkpt>
      <trkpt lat="46.70288" lon="-1.93253">
        <ele>2</ele>
        <time>2018-01-05T23:57:50Z</time>
      </trkpt>
      <trkpt lat="46.70295" lon="-1.93245">
        <ele>2</ele>
        <time>2018-01-05T23:58:50Z</time>
      </trkpt>
      <trkpt lat="46.70304" lon="-1.9323">
        <ele>2</ele>
        <time>2018-01-05T23:59:50Z</time>
      </trkpt>
      <trkpt lat="46.70304" lon="-1.9323">
        <ele>2</ele>
        <time>2018-01-06T00:00:50Z</time>
      </trkpt>
      <trkpt lat="46.70328" lon="-1.93232">
        <ele>2</ele>
        <time>2018-01-06T00:01:50Z</time>
      </trkpt>
      <trkpt lat="46.70362" lon="-1.9324">
        <ele>2</ele>
        <time>2018-01-06T00:02:50Z</time>
      </trkpt>
      <trkpt lat="46.70398" lon="-1.93249">
        <ele>3</ele>
        <time>2018-01-06T00:03:50Z</time>
      </trkpt>
      <trkpt lat="46.70419" lon="-1.93258">
        <ele>3</ele>
        <time>2018-01-06T00:04:50Z</time>
      </trkpt>
      <trkpt lat="46.70429" lon="-1.93262">
        <ele>3</ele>
        <time>2018-01-06T00:05:50Z</time>
      </trkpt>
      <trkpt lat="46.70439" lon="-1.93265">
        <ele>3</ele>
        <time>2018-01-06T00:06:50Z</time>
      </trkpt>
      <trkpt lat="46.70449" lon="-1.93267">
        <ele>3</ele>
        <time>2018-01-06T00:07:50Z</time>
      </trkpt>
      <trkpt lat="46.70458" lon="-1.93268">
        <ele>3</ele>
        <time>2018-01-06T00:08:50Z</time>
      </trkpt>
      <trkpt lat="46.70465" lon="-1.93267">
        <ele>3</ele>
        <time>2018-01-06T00:09:50Z</time>
      </trkpt>
      <trkpt lat="46.70472" lon="-1.93265">
        <ele>3</ele>
        <time>2018-01-06T00:10:50Z</time>
      </trkpt>
      <trkpt lat="46.7048" lon="-1.9326">
        <ele>4</ele>
        <time>2018-01-06T00:11:50Z</time>
      </trkpt>
      <trkpt lat="46.70489" lon="-1.93253">
        <ele>4</ele>
        <time>2018-01-06T00:12:50Z</time>
      </trkpt>
      <trkpt lat="46.70503" lon="-1.93244">
        <ele>4</ele>
        <time>2018-01-06T00:13:50Z</time>
      </trkpt>
      <trkpt lat="46.7052" lon="-1.93232">
        <ele>5</ele>
        <time>2018-01-06T00:14:50Z</time>
      </trkpt>
      <trkpt lat="46.70533" lon="-1.93223">
        <ele>5</ele>
        <time>2018-01-06T00:15:50Z</time>
      </trkpt>
      <trkpt lat="46.70548" lon="-1.93216">
        <ele>5</ele>
        <time>2018-01-06T00:16:50Z</time>
      </trkpt>
      <trkpt lat="46.70566" lon="-1.93211">
        <ele>6</ele>
        <time>2018-01-06T00:17:50Z</time>
      </trkpt>
      <trkpt lat="46.70588" lon="-1.93206">
        <ele>6</ele>
        <time>2018-01-06T00:18:50Z</time>
      </trkpt>
      <trkpt lat="46.7061" lon="-1.93202">
        <ele>7</ele>
        <time>2018-01-06T00:19:50Z</time>
      </trkpt>
      <trkpt lat="46.7063" lon="-1.93198">
        <ele>7</ele>
        <time>2018-01-06T00:20:50Z</time>
      </trkpt>
      <trkpt lat="46.70648" lon="-1.93197">
        <ele>8</ele>
        <time>2018-01-06T00:21:50Z</time>
      </trkpt>
      <trkpt lat="46.70659" lon="-1.93197">
        <ele>8</ele>
        <time>2018-01-06T00:22:50Z</time>
      </trkpt>
      <trkpt lat="46.70671" lon="-1.932">
        <ele>8</ele>
        <time>2018-01-06T00:23:50Z</time>
      </trkpt>
      <trkpt lat="46.70691" lon="-1.93205">
        <ele>8</ele>
        <time>2018-01-06T00:24:50Z</time>
      </trkpt>
      <trkpt lat="46.7071" lon="-1.93211">
        <ele>8</ele>
        <time>2018-01-06T00:25:50Z</time>
      </trkpt>
      <trkpt lat="46.70712" lon="-1.93212">
        <ele>8</ele>
        <time>2018-01-06T00:26:50Z</time>
      </trkpt>
      <trkpt lat="46.70729" lon="-1.93213">
        <ele>8</ele>
        <time>2018-01-06T00:27:50Z</time>
      </trkpt>
      <trkpt lat="46.70745" lon="-1.93212">
        <ele>8</ele>
        <time>2018-01-06T00:28:50Z</time>
      </trkpt>
      <trkpt lat="46.70752" lon="-1.9321">
        <ele>8</ele>
        <time>2018-01-06T00:29:50Z</time>
      </trkpt>
      <trkpt lat="46.70758" lon="-1.93207">
        <ele>8</ele>
        <time>2018-01-06T00:30:50Z</time>
      </trkpt>
      <trkpt lat="46.70766" lon="-1.93202">
        <ele>8</ele>
        <time>2018-01-06T00:31:50Z</time>
      </trkpt>
      <trkpt lat="46.70772" lon="-1.93197">
        <ele>8</ele>
        <time>2018-01-06T00:32:50Z</time>
      </trkpt>
      <trkpt lat="46.70785" lon="-1.93186">
        <ele>9</ele>
        <time>2018-01-06T00:33:50Z</time>
      </trkpt>
      <trkpt lat="46.70795" lon="-1.93179">
        <ele>9</ele>
        <time>2018-01-06T00:34:50Z</time>
      </trkpt>
      <trkpt lat="46.70804" lon="-1.93173">
        <ele>9</ele>
        <time>2018-01-06T00:35:50Z</time>
      </trkpt>
      <trkpt lat="46.70813" lon="-1.9317">
        <ele>9</ele>
        <time>2018-01-06T00:36:50Z</time>
      </trkpt>
      <trkpt lat="46.70821" lon="-1.93168">
        <ele>9</ele>
        <time>2018-01-06T00:37:50Z</time>
      </trkpt>
      <trkpt lat="46.70829" lon="-1.93167">
        <ele>9</ele>
        <time>2018-01-06T00:38:50Z</time>
      </trkpt>
      <trkpt lat="46.70835" lon="-1.93168">
        <ele>9</ele>
        <time>2018-01-06T00:39:50Z</time>
      </trkpt>
      <trkpt lat="46.70844" lon="-1.93169">
        <ele>9</ele>
        <time>2018-01-06T00:40:50Z</time>
      </trkpt>
      <trkpt lat="46.70877" lon="-1.93174">
        <ele>8</ele>
        <time>2018-01-06T00:41:50Z</time>
      </trkpt>
      <trkpt lat="46.70916" lon="-1.93179">
        <ele>7</ele>
        <time>2018-01-06T00:42:50Z</time>
      </trkpt>
      <trkpt lat="46.70936" lon="-1.93181">
        <ele>7</ele>
        <time>2018-01-06T00:43:50Z</time>
      </trkpt>
      <trkpt lat="46.70956" lon="-1.93184">
        <ele>7</ele>
        <time>2018-01-06T00:44:50Z</time>
      </trkpt>
      <trkpt lat="46.70974" lon="-1.93184">
        <ele>7</ele>
        <time>2018-01-06T00:45:50Z</time>
      </trkpt>
      <trkpt lat="46.71007" lon="-1.9318">
        <ele>7</ele>
        <time>2018-01-06T00:46:50Z</time>
      </trkpt>
      <trkpt lat="46.71025" lon="-1.93175">
        <ele>7</ele>
        <time>2018-01-06T00:47:50Z</time>
      </trkpt>
      <trkpt lat="46.71038" lon="-1.93168">
        <ele>7</ele>
        <time>2018-01-06T00:48:50Z</time>
      </trkpt>
      <trkpt lat="46.71048" lon="-1.93158">
        <ele>7</ele>
        <time>2018-01-06T00:49:50Z</time>
      </trkpt>
      <trkpt lat="46.71062" lon="-1.93143">
        <ele>7</ele>
        <time>2018-01-06T00:50:50Z</time>
      </trkpt>
      <trkpt lat="46.7109" lon="-1.93111">
        <ele>7</ele>
        <time>2018-01-06T00:51:50Z</time>
      </trkpt>
      <trkpt lat="46.71123" lon="-1.93073">
        <ele>7</ele>
        <time>2018-01-06T00:52:50Z</time>
      </trkpt>
      <trkpt lat="46.71124" lon="-1.93072">
        <ele>7</ele>
        <time>2018-01-06T00:53:50Z</time>
      </trkpt>
      <trkpt lat="46.71141" lon="-1.93051">
        <ele>7</ele>
        <time>2018-01-06T00:54:50Z</time>
      </trkpt>
      <trkpt lat="46.7115" lon="-1.93042">
        <ele>7</ele>
        <time>2018-01-06T00:55:50Z</time>
      </trkpt>
      <trkpt lat="46.71159" lon="-1.93035">
        <ele>8</ele>
        <time>2018-01-06T00:56:50Z</time>
      </trkpt>
      <trkpt lat="46.71167" lon="-1.93032">
        <ele>8</ele>
        <time>2018-01-06T00:57:50Z</time>
      </trkpt>
      <trkpt lat="46.71178" lon="-1.9303">
        <ele>7</ele>
        <time>2018-01-06T00:58:50Z</time>
      </trkpt>
      <trkpt lat="46.71195" lon="-1.93028">
        <ele>7</ele>
        <time>2018-01-06T00:59:50Z</time>
      </trkpt>
      <trkpt lat="46.71215" lon="-1.93028">
        <ele>6</ele>
        <time>2018-01-06T01:00:50Z</time>
      </trkpt>
      <trkpt lat="46.71225" lon="-1.93026">
        <ele>6</ele>
        <time>2018-01-06T01:01:50Z</time>
      </trkpt>
      <trkpt lat="46.71236" lon="-1.93024">
        <ele>5</ele>
        <time>2018-01-06T01:02:50Z</time>
      </trkpt>
      <trkpt lat="46.71243" lon="-1.93018">
        <ele>5</ele>
        <time>2018-01-06T01:03:50Z</time>
      </trkpt>
      <trkpt lat="46.71246" lon="-1.93012">
        <ele>5</ele>
        <time>2018-01-06T01:04:50Z</time>
      </trkpt>
      <trkpt lat="46.71249" lon="-1.93002">
        <ele>5</ele>
        <time>2018-01-06T01:05:50Z</time>
      </trkpt>
      <trkpt lat="46.71252" lon="-1.92988">
        <ele>5</ele>
        <time>2018-01-06T01:06:50Z</time>
      </trkpt>
      <trkpt lat="46.71256" lon="-1.92969">
        <ele>5</ele>
        <time>2018-01-06T01:07:50Z</time>
      </trkpt>
      <trkpt lat="46.71259" lon="-1.92949">
        <ele>5</ele>
        <time>2018-01-06T01:08:50Z</time>
      </trkpt>
      <trkpt lat="46.71259" lon="-1.92949">
        <ele>5</ele>
        <time>2018-01-06T01:09:50Z</time>
      </trkpt>
      <trkpt lat="46.71261" lon="-1.92937">
        <ele>4</ele>
        <time>2018-01-06T01:10:50Z</time>
      </trkpt>
      <trkpt lat="46.71265" lon="-1.92901">
        <ele>3</ele>
        <time>2018-01-06T01:11:50Z</time>
      </trkpt>
      <trkpt lat="46.71269" lon="-1.9287">
        <ele>3</ele>
        <time>2018-01-06T01:12:50Z</time>
      </trkpt>
      <trkpt lat="46.71269" lon="-1.92869">
        <ele>3</ele>
        <time>2018-01-06T01:13:50Z</time>
      </trkpt>
      <trkpt lat="46.71274" lon="-1.92841">
        <ele>3</ele>
        <time>2018-01-06T01:14:50Z</time>
      </trkpt>
      <trkpt lat="46.71281" lon="-1.92808">
        <ele>4</ele>
        <time>2018-01-06T01:15:50Z</time>
      </trkpt>
      <trkpt lat="46.71289" lon="-1.92771">
        <ele>4</ele>
        <time>2018-01-06T01:16:50Z</time>
      </trkpt>
      <trkpt lat="46.71299" lon="-1.92726">
        <ele>5</ele>
        <time>2018-01-06T01:17:50Z</time>
      </trkpt>
      <trkpt lat="46.71299" lon="-1.92723">
        <ele>5</ele>
        <time>2018-01-06T01:18:50Z</time>
      </trkpt>
      <trkpt lat="46.71306" lon="-1.927">
        <ele>6</ele>
        <time>2018-01-06T01:19:50Z</time>
      </trkpt>
      <trkpt lat="46.71306" lon="-1.92696">
        <ele>6</ele>
        <time>2018-01-06T01:20:50Z</time>
      </trkpt>
      <trkpt lat="46.71307" lon="-1.92691">
        <ele>6</ele>
        <time>2018-01-06T01:21:50Z</time>
      </trkpt>
      <trkpt lat="46.71308" lon="-1.92684">
        <ele>6</ele>
        <time>2018-01-06T01:22:50Z</time>
      </trkpt>
      <trkpt lat="46.71308" lon="-1.92681">
        <ele>7</ele>
        <time>2018-01-06T01:23:50Z</time>
      </trkpt>
      <trkpt lat="46.71307" lon="-1.92661">
        <ele>7</ele>
        <time>2018-01-06T01:24:50Z</time>
      </trkpt>
      <trkpt lat="46.71305" lon="-1.92644">
        <ele>8</ele>
        <time>2018-01-06T01:25:50Z</time>
      </trkpt>
      <trkpt lat="46.71305" lon="-1.9264">
        <ele>8</ele>
        <time>2018-01-06T01:26:50Z</time>
      </trkpt>
      <trkpt lat="46.71305" lon="-1.92636">
        <ele>8</ele>
        <time>2018-01-06T01:27:50Z</time>
      </trkpt>
      <trkpt lat="46.71305" lon="-1.92629">
        <ele>8</ele>
        <time>2018-01-06T01:28:50Z</time>
      </trkpt>
      <trkpt lat="46.71306" lon="-1.92623">
        <ele>8</ele>
        <time>2018-01-06T01:29:50Z</time>
      </trkpt>
      <trkpt lat="46.71307" lon="-1.92618">
        <ele>8</ele>
        <time>2018-01-06T01:30:50Z</time>
      </trkpt>
      <trkpt lat="46.71311" lon="-1.92597">
        <ele>8</ele>
        <time>2018-01-06T01:31:50Z</time>
      </trkpt>
      <trkpt lat="46.71325" lon="-1.92544">
        <ele>8</ele>
        <time>2018-01-06T01:32:50Z</time>
      </trkpt>
      <trkpt lat="46.7133" lon="-1.92521">
        <ele>8</ele>
        <time>2018-01-06T01:33:50Z</time>
      </trkpt>
      <trkpt lat="46.71331" lon="-1.92518">
        <ele>8</ele>
        <time>2018-01-06T01:34:50Z</time>
      </trkpt>
      <trkpt lat="46.71332" lon="-1.92515">
        <ele>8</ele>
        <time>2018-01-06T01:35:50Z</time>
      </trkpt>
      <trkpt lat="46.71333" lon="-1.92509">
        <ele>8</ele>
        <time>2018-01-06T01:36:50Z</time>
      </trkpt>
      <trkpt lat="46.71333" lon="-1.92502">
        <ele>8</ele>
        <time>2018-01-06T01:37:50Z</time>
      </trkpt>
      <trkpt lat="46.71332" lon="-1.92476">
        <ele>8</ele>
        <time>2018-01-06T01:38:50Z</time>
      </trkpt>
      <trkpt lat="46.7133" lon="-1.92445">
        <ele>9</ele>
        <time>2018-01-06T01:39:50Z</time>
      </trkpt>
      <trkpt lat="46.71327" lon="-1.92413">
        <ele>9</ele>
        <time>2018-01-06T01:40:50Z</time>
      </trkpt>
      <trkpt lat="46.71326" lon="-1.92402">
        <ele>9</ele>
        <time>2018-01-06T01:41:50Z</time>
      </trkpt>
      <trkpt lat="46.71323" lon="-1.92389">
        <ele>9</ele>
        <time>2018-01-06T01:42:50Z</time>
      </trkpt>
      <trkpt lat="46.71322" lon="-1.92385">
        <ele>9</ele>
        <time>2018-01-06T01:43:50Z</time>
      </trkpt>
      <trkpt lat="46.71321" lon="-1.9238">
        <ele>9</ele>
        <time>2018-01-06T01:44:50Z</time>
      </trkpt>
      <trkpt lat="46.71318" lon="-1.9237">
        <ele>9</ele>
        <time>2018-01-06T01:45:50Z</time>
      </trkpt>
      <trkpt lat="46.71315" lon="-1.92363">
        <ele>9</ele>
        <time>2018-01-06T01:46:50Z</time>
      </trkpt>
      <trkpt lat="46.71311" lon="-1.92355">
        <ele>9</ele>
        <time>2018-01-06T01:47:50Z</time>
      </trkpt>
      <trkpt lat="46.71306" lon="-1.92347">
        <ele>9</ele>
        <time>2018-01-06T01:48:50Z</time>
      </trkpt>
      <trkpt lat="46.71306" lon="-1.92347">
        <ele>9</ele>
        <time>2018-01-06T01:49:50Z</time>
      </trkpt>
      <trkpt lat="46.71322" lon="-1.92344">
        <ele>8</ele>
        <time>2018-01-06T01:50:50Z</time>
      </trkpt>
      <trkpt lat="46.71334" lon="-1.9234">
        <ele>8</ele>
        <time>2018-01-06T01:51:50Z</time>
      </trkpt>
      <trkpt lat="46.71352" lon="-1.92336">
        <ele>7</ele>
        <time>2018-01-06T01:52:50Z</time>
      </trkpt>
      <trkpt lat="46.71383" lon="-1.92327">
        <ele>6</ele>
        <time>2018-01-06T01:53:50Z</time>
      </trkpt>
      <trkpt lat="46.71414" lon="-1.92316">
        <ele>5</ele>
        <time>2018-01-06T01:54:50Z</time>
      </trkpt>
      <trkpt lat="46.71418" lon="-1.92313">
        <ele>5</ele>
        <time>2018-01-06T01:55:50Z</time>
      </trkpt>
      <trkpt lat="46.71421" lon="-1.92311">
        <ele>5</ele>
        <time>2018-01-06T01:56:50Z</time>
      </trkpt>
      <trkpt lat="46.71423" lon="-1.92308">
        <ele>5</ele>
        <time>2018-01-06T01:57:50Z</time>
      </trkpt>
      <trkpt lat="46.71426" lon="-1.92303">
        <ele>5</ele>
        <time>2018-01-06T01:58:50Z</time>
      </trkpt>
      <trkpt lat="46.71429" lon="-1.92297">
        <ele>5</ele>
        <time>2018-01-06T01:59:50Z</time>
      </trkpt>
      <trkpt lat="46.71432" lon="-1.92285">
        <ele>5</ele>
        <time>2018-01-06T02:00:50Z</time>
      </trkpt>
      <trkpt lat="46.71432" lon="-1.92282">
        <ele>5</ele>
        <time>2018-01-06T02:01:50Z</time>
      </trkpt>
      <trkpt lat="46.7144" lon="-1.92252">
        <ele>6</ele>
        <time>2018-01-06T02:02:50Z</time>
      </trkpt>
      <trkpt lat="46.71448" lon="-1.92225">
        <ele>6</ele>
        <time>2018-01-06T02:03:50Z</time>
      </trkpt>
      <trkpt lat="46.71456" lon="-1.92198">
        <ele>6</ele>
        <time>2018-01-06T02:04:50Z</time>
      </trkpt>
      <trkpt lat="46.71459" lon="-1.92185">
        <ele>6</ele>
        <time>2018-01-06T02:05:50Z</time>
      </trkpt>
      <trkpt lat="46.7146" lon="-1.92183">
        <ele>6</ele>
        <time>2018-01-06T02:06:50Z</time>
      </trkpt>
      <trkpt lat="46.71466" lon="-1.92164">
        <ele>6</ele>
        <time>2018-01-06T02:07:50Z</time>
      </trkpt>
      <trkpt lat="46.71469" lon="-1.9215">
        <ele>6</ele>
        <time>2018-01-06T02:08:50Z</time>
      </trkpt>
      <trkpt lat="46.71474" lon="-1.92129">
        <ele>6</ele>
        <time>2018-01-06T02:09:50Z</time>
      </trkpt>
      <trkpt lat="46.7148" lon="-1.92105">
        <ele>6</ele>
        <time>2018-01-06T02:10:50Z</time>
      </trkpt>
      <trkpt lat="46.71484" lon="-1.92081">
        <ele>5</ele>
        <time>2018-01-06T02:11:50Z</time>
      </trkpt>
      <trkpt lat="46.71491" lon="-1.9204">
        <ele>6</ele>
        <time>2018-01-06T02:12:50Z</time>
      </trkpt>
      <trkpt lat="46.71492" lon="-1.92037">
        <ele>6</ele>
        <time>2018-01-06T02:13:50Z</time>
      </trkpt>
      <trkpt lat="46.715" lon="-1.91985">
        <ele>7</ele>
        <time>2018-01-06T02:14:50Z</time>
      </trkpt>
      <trkpt lat="46.71504" lon="-1.91966">
        <ele>7</ele>
        <time>2018-01-06T02:15:50Z</time>
      </trkpt>
      <trkpt lat="46.71508" lon="-1.9194">
        <ele>7</ele>
        <time>2018-01-06T02:16:50Z</time>
      </trkpt>
      <trkpt lat="46.71511" lon="-1.91921">
        <ele>7</ele>
        <time>2018-01-06T02:17:50Z</time>
      </trkpt>
      <trkpt lat="46.71515" lon="-1.91902">
        <ele>7</ele>
        <time>2018-01-06T02:18:50Z</time>
      </trkpt>
      <trkpt lat="46.71518" lon="-1.91883">
        <ele>8</ele>
        <time>2018-01-06T02:19:50Z</time>
      </trkpt>
      <trkpt lat="46.71523" lon="-1.91865">
        <ele>8</ele>
        <time>2018-01-06T02:20:50Z</time>
      </trkpt>
      <trkpt lat="46.71528" lon="-1.91847">
        <ele>8</ele>
        <time>2018-01-06T02:21:50Z</time>
      </trkpt>
      <trkpt lat="46.71534" lon="-1.91828">
        <ele>8</ele>
        <time>2018-01-06T02:22:50Z</time>
      </trkpt>
      <trkpt lat="46.71548" lon="-1.91786">
        <ele>7</ele>
        <time>2018-01-06T02:23:50Z</time>
      </trkpt>
      <trkpt lat="46.71559" lon="-1.91759">
        <ele>7</ele>
        <time>2018-01-06T02:24:50Z</time>
      </trkpt>
      <trkpt lat="46.71565" lon="-1.91742">
        <ele>7</ele>
        <time>2018-01-06T02:25:50Z</time>
      </trkpt>
      <trkpt lat="46.71573" lon="-1.91722">
        <ele>7</ele>
        <time>2018-01-06T02:26:50Z</time>
      </trkpt>
      <trkpt lat="46.71589" lon="-1.91683">
        <ele>7</ele>
        <time>2018-01-06T02:27:50Z</time>
      </trkpt>
      <trkpt lat="46.71614" lon="-1.91622">
        <ele>5</ele>
        <time>2018-01-06T02:28:50Z</time>
      </trkpt>
      <trkpt lat="46.71624" lon="-1.91596">
        <ele>5</ele>
        <time>2018-01-06T02:29:50Z</time>
      </trkpt>
      <trkpt lat="46.71632" lon="-1.9158">
        <ele>4</ele>
        <time>2018-01-06T02:30:50Z</time>
      </trkpt>
      <trkpt lat="46.71641" lon="-1.9157">
        <ele>4</ele>
        <time>2018-01-06T02:31:50Z</time>
      </trkpt>
      <trkpt lat="46.71648" lon="-1.91565">
        <ele>4</ele>
        <time>2018-01-06T02:32:50Z</time>
      </trkpt>
      <trkpt lat="46.71664" lon="-1.91556">
        <ele>3</ele>
        <time>2018-01-06T02:33:50Z</time>
      </trkpt>
      <trkpt lat="46.71674" lon="-1.91552">
        <ele>3</ele>
        <time>2018-01-06T02:34:50Z</time>
      </trkpt>
      <trkpt lat="46.71699" lon="-1.9154">
        <ele>2</ele>
        <time>2018-01-06T02:35:50Z</time>
      </trkpt>
      <trkpt lat="46.71723" lon="-1.91529">
        <ele>2</ele>
        <time>2018-01-06T02:36:50Z</time>
      </trkpt>
      <trkpt lat="46.7174" lon="-1.91519">
        <ele>2</ele>
        <time>2018-01-06T02:37:50Z</time>
      </trkpt>
      <trkpt lat="46.7175" lon="-1.91512">
        <ele>2</ele>
        <time>2018-01-06T02:38:50Z</time>
      </trkpt>
      <trkpt lat="46.7176" lon="-1.91502">
        <ele>2</ele>
        <time>2018-01-06T02:39:50Z</time>
      </trkpt>
      <trkpt lat="46.71765" lon="-1.91492">
        <ele>2</ele>
        <time>2018-01-06T02:40:50Z</time>
      </trkpt>
      <trkpt lat="46.71768" lon="-1.91484">
        <ele>2</ele>
        <time>2018-01-06T02:41:50Z</time>
      </trkpt>
      <trkpt lat="46.7177" lon="-1.91473">
        <ele>2</ele>
        <time>2018-01-06T02:42:50Z</time>
      </trkpt>
      <trkpt lat="46.71777" lon="-1.91414">
        <ele>1</ele>
        <time>2018-01-06T02:43:50Z</time>
      </trkpt>
      <trkpt lat="46.7178" lon="-1.91384">
        <ele>1</ele>
        <time>2018-01-06T02:44:50Z</time>
      </trkpt>
      <trkpt lat="46.71785" lon="-1.91362">
        <ele>1</ele>
        <time>2018-01-06T02:45:50Z</time>
      </trkpt>
      <trkpt lat="46.71792" lon="-1.91336">
        <ele>1</ele>
        <time>2018-01-06T02:46:50Z</time>
      </trkpt>
      <trkpt lat="46.71809" lon="-1.91278">
        <ele>2</ele>
        <time>2018-01-06T02:47:50Z</time>
      </trkpt>
      <trkpt lat="46.71822" lon="-1.91229">
        <ele>3</ele>
        <time>2018-01-06T02:48:50Z</time>
      </trkpt>
      <trkpt lat="46.71834" lon="-1.91176">
        <ele>3</ele>
        <time>2018-01-06T02:49:50Z</time>
      </trkpt>
      <trkpt lat="46.71839" lon="-1.91152">
        <ele>3</ele>
        <time>2018-01-06T02:50:50Z</time>
      </trkpt>
      <trkpt lat="46.71847" lon="-1.91107">
        <ele>2</ele>
        <time>2018-01-06T02:51:50Z</time>
      </trkpt>
      <trkpt lat="46.71851" lon="-1.91083">
        <ele>2</ele>
        <time>2018-01-06T02:52:50Z</time>
      </trkpt>
      <trkpt lat="46.71852" lon="-1.91064">
        <ele>2</ele>
        <time>2018-01-06T02:53:50Z</time>
      </trkpt>
      <trkpt lat="46.71852" lon="-1.91047">
        <ele>2</ele>
        <time>2018-01-06T02:54:50Z</time>
      </trkpt>
      <trkpt lat="46.71851" lon="-1.9102">
        <ele>3</ele>
        <time>2018-01-06T02:55:50Z</time>
      </trkpt>
      <trkpt lat="46.71846" lon="-1.90978">
        <ele>3</ele>
        <time>2018-01-06T02:56:50Z</time>
      </trkpt>
      <trkpt lat="46.71837" lon="-1.90885">
        <ele>5</ele>
        <time>2018-01-06T02:57:50Z</time>
      </trkpt>
      <trkpt lat="46.71832" lon="-1.90833">
        <ele>6</ele>
        <time>2018-01-06T02:58:50Z</time>
      </trkpt>
      <trkpt lat="46.71827" lon="-1.90802">
        <ele>6</ele>
        <time>2018-01-06T02:59:50Z</time>
      </trkpt>
      <trkpt lat="46.71821" lon="-1.90766">
        <ele>6</ele>
        <time>2018-01-06T03:00:50Z</time>
      </trkpt>
      <trkpt lat="46.7182" lon="-1.90764">
        <ele>6</ele>
        <time>2018-01-06T03:01:50Z</time>
      </trkpt>
      <trkpt lat="46.71811" lon="-1.90722">
        <ele>6</ele>
        <time>2018-01-06T03:02:50Z</time>
      </trkpt>
      <trkpt lat="46.71801" lon="-1.90668">
        <ele>5</ele>
        <time>2018-01-06T03:03:50Z</time>
      </trkpt>
      <trkpt lat="46.71797" lon="-1.90646">
        <ele>5</ele>
        <time>2018-01-06T03:04:50Z</time>
      </trkpt>
      <trkpt lat="46.71795" lon="-1.90616">
        <ele>6</ele>
        <time>2018-01-06T03:05:50Z</time>
      </trkpt>
      <trkpt lat="46.71795" lon="-1.90597">
        <ele>7</ele>
        <time>2018-01-06T03:06:50Z</time>
      </trkpt>
      <trkpt lat="46.71795" lon="-1.90578">
        <ele>7</ele>
        <time>2018-01-06T03:07:50Z</time>
      </trkpt>
      <trkpt lat="46.71798" lon="-1.90553">
        <ele>7</ele>
        <time>2018-01-06T03:08:50Z</time>
      </trkpt>
      <trkpt lat="46.71806" lon="-1.90529">
        <ele>7</ele>
        <time>2018-01-06T03:09:50Z</time>
      </trkpt>
      <trkpt lat="46.71818" lon="-1.90502">
        <ele>6</ele>
        <time>2018-01-06T03:10:50Z</time>
      </trkpt>
      <trkpt lat="46.71819" lon="-1.90499">
        <ele>6</ele>
        <time>2018-01-06T03:11:50Z</time>
      </trkpt>
      <trkpt lat="46.7183" lon="-1.90473">
        <ele>5</ele>
        <time>2018-01-06T03:12:50Z</time>
      </trkpt>
      <trkpt lat="46.71842" lon="-1.90449">
        <ele>5</ele>
        <time>2018-01-06T03:13:50Z</time>
      </trkpt>
      <trkpt lat="46.71845" lon="-1.90439">
        <ele>4</ele>
        <time>2018-01-06T03:14:50Z</time>
      </trkpt>
      <trkpt lat="46.71846" lon="-1.90435">
        <ele>4</ele>
        <time>2018-01-06T03:15:50Z</time>
      </trkpt>
      <trkpt lat="46.71847" lon="-1.90431">
        <ele>4</ele>
        <time>2018-01-06T03:16:50Z</time>
      </trkpt>
      <trkpt lat="46.71848" lon="-1.90421">
        <ele>4</ele>
        <time>2018-01-06T03:17:50Z</time>
      </trkpt>
      <trkpt lat="46.71851" lon="-1.90389">
        <ele>5</ele>
        <time>2018-01-06T03:18:50Z</time>
      </trkpt>
      <trkpt lat="46.71852" lon="-1.90384">
        <ele>5</ele>
        <time>2018-01-06T03:19:50Z</time>
      </trkpt>
      <trkpt lat="46.71852" lon="-1.9038">
        <ele>5</ele>
        <time>2018-01-06T03:20:50Z</time>
      </trkpt>
      <trkpt lat="46.71851" lon="-1.90377">
        <ele>5</ele>
        <time>2018-01-06T03:21:50Z</time>
      </trkpt>
      <trkpt lat="46.71851" lon="-1.90375">
        <ele>5</ele>
        <time>2018-01-06T03:22:50Z</time>
      </trkpt>
      <trkpt lat="46.7185" lon="-1.90372">
        <ele>5</ele>
        <time>2018-01-06T03:23:50Z</time>
      </trkpt>
      <trkpt lat="46.7185" lon="-1.9037">
        <ele>5</ele>
        <time>2018-01-06T03:24:50Z</time>
      </trkpt>
      <trkpt lat="46.71848" lon="-1.90366">
        <ele>5</ele>
        <time>2018-01-06T03:25:50Z</time>
      </trkpt>
      <trkpt lat="46.71844" lon="-1.90358">
        <ele>6</ele>
        <time>2018-01-06T03:26:50Z</time>
      </trkpt>
      <trkpt lat="46.71839" lon="-1.90349">
        <ele>6</ele>
        <time>2018-01-06T03:27:50Z</time>
      </trkpt>
      <trkpt lat="46.71839" lon="-1.90349">
        <ele>6</ele>
        <time>2018-01-06T03:28:50Z</time>
      </trkpt>
      <trkpt lat="46.71865" lon="-1.90316">
        <ele>6</ele>
        <time>2018-01-06T03:29:50Z</time>
      </trkpt>
      <trkpt lat="46.71869" lon="-1.90308">
        <ele>6</ele>
        <time>2018-01-06T03:30:50Z</time>
      </trkpt>
      <trkpt lat="46.71872" lon="-1.90301">
        <ele>6</ele>
        <time>2018-01-06T03:31:50Z</time>
      </trkpt>
      <trkpt lat="46.71876" lon="-1.90283">
        <ele>7</ele>
        <time>2018-01-06T03:32:50Z</time>
      </trkpt>
      <trkpt lat="46.71879" lon="-1.90274">
        <ele>7</ele>
        <time>2018-01-06T03:33:50Z</time>
      </trkpt>
      <trkpt lat="46.71883" lon="-1.90267">
        <ele>7</ele>
        <time>2018-01-06T03:34:50Z</time>
      </trkpt>
      <trkpt lat="46.71886" lon="-1.90263">
        <ele>7</ele>
        <time>2018-01-06T03:35:50Z</time>
      </trkpt>
      <trkpt lat="46.7189" lon="-1.9026">
        <ele>7</ele>
        <time>2018-01-06T03:36:50Z</time>
      </trkpt>
      <trkpt lat="46.71896" lon="-1.90256">
        <ele>7</ele>
        <time>2018-01-06T03:37:50Z</time>
      </trkpt>
      <trkpt lat="46.719" lon="-1.90254">
        <ele>7</ele>
        <time>2018-01-06T03:38:50Z</time>
      </trkpt>
      <trkpt lat="46.71914" lon="-1.90248">
        <ele>6</ele>
        <time>2018-01-06T03:39:50Z</time>
      </trkpt>
      <trkpt lat="46.71927" lon="-1.9024">
        <ele>6</ele>
        <time>2018-01-06T03:40:50Z</time>
      </trkpt>
      <trkpt lat="46.71934" lon="-1.90235">
        <ele>6</ele>
        <time>2018-01-06T03:41:50Z</time>
      </trkpt>
      <trkpt lat="46.71941" lon="-1.90227">
        <ele>6</ele>
        <time>2018-01-06T03:42:50Z</time>
      </trkpt>
      <trkpt lat="46.71946" lon="-1.90218">
        <ele>6</ele>
        <time>2018-01-06T03:43:50Z</time>
      </trkpt>
      <trkpt lat="46.71949" lon="-1.90211">
        <ele>6</ele>
        <time>2018-01-06T03:44:50Z</time>
      </trkpt>
      <trkpt lat="46.71953" lon="-1.90203">
        <ele>6</ele>
        <time>2018-01-06T03:45:50Z</time>
      </trkpt>
      <trkpt lat="46.71953" lon="-1.90201">
        <ele>6</ele>
        <time>2018-01-06T03:46:50Z</time>
      </trkpt>
      <trkpt lat="46.71956" lon="-1.90191">
        <ele>6</ele>
        <time>2018-01-06T03:47:50Z</time>
      </trkpt>
      <trkpt lat="46.71958" lon="-1.90176">
        <ele>6</ele>
        <time>2018-01-06T03:48:50Z</time>
      </trkpt>
      <trkpt lat="46.71959" lon="-1.90153">
        <ele>6</ele>
        <time>2018-01-06T03:49:50Z</time>
      </trkpt>
      <trkpt lat="46.71962" lon="-1.90125">
        <ele>6</ele>
        <time>2018-01-06T03:50:50Z</time>
      </trkpt>
      <trkpt lat="46.71965" lon="-1.90106">
        <ele>6</ele>
        <time>2018-01-06T03:51:50Z</time>
      </trkpt>
      <trkpt lat="46.71968" lon="-1.9008">
        <ele>6</ele>
        <time>2018-01-06T03:52:50Z</time>
      </trkpt>
      <trkpt lat="46.71973" lon="-1.90062">
        <ele>6</ele>
        <time>2018-01-06T03:53:50Z</time>
      </trkpt>
      <trkpt lat="46.71979" lon="-1.9005">
        <ele>6</ele>
        <time>2018-01-06T03:54:50Z</time>
      </trkpt>
      <trkpt lat="46.7199" lon="-1.90031">
        <ele>6</ele>
        <time>2018-01-06T03:55:50Z</time>
      </trkpt>
      <trkpt lat="46.72002" lon="-1.90007">
        <ele>6</ele>
        <time>2018-01-06T03:56:50Z</time>
      </trkpt>
      <trkpt lat="46.72013" lon="-1.89987">
        <ele>6</ele>
        <time>2018-01-06T03:57:50Z</time>
      </trkpt>
      <trkpt lat="46.7202" lon="-1.89975">
        <ele>7</ele>
        <time>2018-01-06T03:58:50Z</time>
      </trkpt>
      <trkpt lat="46.72029" lon="-1.8996">
        <ele>7</ele>
        <time>2018-01-06T03:59:50Z</time>
      </trkpt>
      <trkpt lat="46.72037" lon="-1.89948">
        <ele>7</ele>
        <time>2018-01-06T04:00:50Z</time>
      </trkpt>
      <trkpt lat="46.72042" lon="-1.89942">
        <ele>7</ele>
        <time>2018-01-06T04:01:50Z</time>
      </trkpt>
      <trkpt lat="46.72056" lon="-1.8993">
        <ele>7</ele>
        <time>2018-01-06T04:02:50Z</time>
      </trkpt>
      <trkpt lat="46.72084" lon="-1.89908">
        <ele>7</ele>
        <time>2018-01-06T04:03:50Z</time>
      </trkpt>
      <trkpt lat="46.72119" lon="-1.89878">
        <ele>8</ele>
        <time>2018-01-06T04:04:50Z</time>
      </trkpt>
      <trkpt lat="46.72143" lon="-1.89859">
        <ele>9</ele>
        <time>2018-01-06T04:05:50Z</time>
      </trkpt>
      <trkpt lat="46.72178" lon="-1.8983">
        <ele>9</ele>
        <time>2018-01-06T04:06:50Z</time>
      </trkpt>
      <trkpt lat="46.72203" lon="-1.89809">
        <ele>8</ele>
        <time>2018-01-06T04:07:50Z</time>
      </trkpt>
      <trkpt lat="46.72225" lon="-1.89792">
        <ele>7</ele>
        <time>2018-01-06T04:08:50Z</time>
      </trkpt>
      <trkpt lat="46.72253" lon="-1.8977">
        <ele>7</ele>
        <time>2018-01-06T04:09:50Z</time>
      </trkpt>
      <trkpt lat="46.72372" lon="-1.89674">
        <ele>4</ele>
        <time>2018-01-06T04:10:50Z</time>
      </trkpt>
      <trkpt lat="46.72402" lon="-1.89652">
        <ele>3</ele>
        <time>2018-01-06T04:11:50Z</time>
      </trkpt>
      <trkpt lat="46.72424" lon="-1.89628">
        <ele>3</ele>
        <time>2018-01-06T04:12:50Z</time>
      </trkpt>
      <trkpt lat="46.72427" lon="-1.89625">
        <ele>3</ele>
        <time>2018-01-06T04:13:50Z</time>
      </trkpt>
      <trkpt lat="46.72442" lon="-1.89608">
        <ele>3</ele>
        <time>2018-01-06T04:14:50Z</time>
      </trkpt>
      <trkpt lat="46.72455" lon="-1.89591">
        <ele>3</ele>
        <time>2018-01-06T04:15:50Z</time>
      </trkpt>
      <trkpt lat="46.7247" lon="-1.89559">
        <ele>4</ele>
        <time>2018-01-06T04:16:50Z</time>
      </trkpt>
      <trkpt lat="46.72476" lon="-1.89546">
        <ele>4</ele>
        <time>2018-01-06T04:17:50Z</time>
      </trkpt>
      <trkpt lat="46.72476" lon="-1.89545">
        <ele>4</ele>
        <time>2018-01-06T04:18:50Z</time>
      </trkpt>
      <trkpt lat="46.72475" lon="-1.89545">
        <ele>4</ele>
        <time>2018-01-06T04:19:50Z</time>
      </trkpt>
      <trkpt lat="46.72475" lon="-1.89544">
        <ele>4</ele>
        <time>2018-01-06T04:20:50Z</time>
      </trkpt>
      <trkpt lat="46.72475" lon="-1.89543">
        <ele>4</ele>
        <time>2018-01-06T04:21:50Z</time>
      </trkpt>
      <trkpt lat="46.72475" lon="-1.89542">
        <ele>4</ele>
        <time>2018-01-06T04:22:50Z</time>
      </trkpt>
      <trkpt lat="46.72475" lon="-1.89541">
        <ele>4</ele>
        <time>2018-01-06T04:23:50Z</time>
      </trkpt>
      <trkpt lat="46.72476" lon="-1.8954">
        <ele>4</ele>
        <time>2018-01-06T04:24:50Z</time>
      </trkpt>
      <trkpt lat="46.72476" lon="-1.89539">
        <ele>4</ele>
        <time>2018-01-06T04:25:50Z</time>
      </trkpt>
      <trkpt lat="46.72476" lon="-1.89538">
        <ele>4</ele>
        <time>2018-01-06T04:26:50Z</time>
      </trkpt>
      <trkpt lat="46.72476" lon="-1.89537">
        <ele>4</ele>
        <time>2018-01-06T04:27:50Z</time>
      </trkpt>
      <trkpt lat="46.72477" lon="-1.89537">
        <ele>4</ele>
        <time>2018-01-06T04:28:50Z</time>
      </trkpt>
      <trkpt lat="46.72477" lon="-1.89536">
        <ele>4</ele>
        <time>2018-01-06T04:29:50Z</time>
      </trkpt>
      <trkpt lat="46.72478" lon="-1.89536">
        <ele>4</ele>
        <time>2018-01-06T04:30:50Z</time>
      </trkpt>
      <trkpt lat="46.72478" lon="-1.89535">
        <ele>4</ele>
        <time>2018-01-06T04:31:50Z</time>
      </trkpt>
      <trkpt lat="46.72479" lon="-1.89534">
        <ele>4</ele>
        <time>2018-01-06T04:32:50Z</time>
      </trkpt>
      <trkpt lat="46.7248" lon="-1.89534">
        <ele>4</ele>
        <time>2018-01-06T04:33:50Z</time>
      </trkpt>
      <trkpt lat="46.7248" lon="-1.89533">
        <ele>4</ele>
        <time>2018-01-06T04:34:50Z</time>
      </trkpt>
      <trkpt lat="46.72481" lon="-1.89533">
        <ele>4</ele>
        <time>2018-01-06T04:35:50Z</time>
      </trkpt>
      <trkpt lat="46.72482" lon="-1.89533">
        <ele>4</ele>
        <time>2018-01-06T04:36:50Z</time>
      </trkpt>
      <trkpt lat="46.72483" lon="-1.89533">
        <ele>4</ele>
        <time>2018-01-06T04:37:50Z</time>
      </trkpt>
      <trkpt lat="46.72483" lon="-1.89534">
        <ele>4</ele>
        <time>2018-01-06T04:38:50Z</time>
      </trkpt>
      <trkpt lat="46.72484" lon="-1.89534">
        <ele>4</ele>
        <time>2018-01-06T04:39:50Z</time>
      </trkpt>
      <trkpt lat="46.72485" lon="-1.89534">
        <ele>4</ele>
        <time>2018-01-06T04:40:50Z</time>
      </trkpt>
      <trkpt lat="46.72495" lon="-1.89523">
        <ele>4</ele>
        <time>2018-01-06T04:41:50Z</time>
      </trkpt>
      <trkpt lat="46.72505" lon="-1.89518">
        <ele>4</ele>
        <time>2018-01-06T04:42:50Z</time>
      </trkpt>
      <trkpt lat="46.72523" lon="-1.89491">
        <ele>4</ele>
        <time>2018-01-06T04:43:50Z</time>
      </trkpt>
      <trkpt lat="46.72526" lon="-1.89486">
        <ele>4</ele>
        <time>2018-01-06T04:44:50Z</time>
      </trkpt>
      <trkpt lat="46.72545" lon="-1.89447">
        <ele>4</ele>
        <time>2018-01-06T04:45:50Z</time>
      </trkpt>
      <trkpt lat="46.72554" lon="-1.89428">
        <ele>4</ele>
        <time>2018-01-06T04:46:50Z</time>
      </trkpt>
      <trkpt lat="46.72555" lon="-1.89417">
        <ele>4</ele>
        <time>2018-01-06T04:47:50Z</time>
      </trkpt>
      <trkpt lat="46.72569" lon="-1.89371">
        <ele>5</ele>
        <time>2018-01-06T04:48:50Z</time>
      </trkpt>
      <trkpt lat="46.72573" lon="-1.89367">
        <ele>5</ele>
        <time>2018-01-06T04:49:50Z</time>
      </trkpt>
      <trkpt lat="46.72578" lon="-1.89344">
        <ele>5</ele>
        <time>2018-01-06T04:50:50Z</time>
      </trkpt>
      <trkpt lat="46.72586" lon="-1.89297">
        <ele>5</ele>
        <time>2018-01-06T04:51:50Z</time>
      </trkpt>
      <trkpt lat="46.72595" lon="-1.89253">
        <ele>5</ele>
        <time>2018-01-06T04:52:50Z</time>
      </trkpt>
      <trkpt lat="46.72603" lon="-1.89203">
        <ele>6</ele>
        <time>2018-01-06T04:53:50Z</time>
      </trkpt>
      <trkpt lat="46.72611" lon="-1.89151">
        <ele>6</ele>
        <time>2018-01-06T04:54:50Z</time>
      </trkpt>
      <trkpt lat="46.72615" lon="-1.89119">
        <ele>6</ele>
        <time>2018-01-06T04:55:50Z</time>
      </trkpt>
      <trkpt lat="46.72624" lon="-1.89045">
        <ele>6</ele>
        <time>2018-01-06T04:56:50Z</time>
      </trkpt>
      <trkpt lat="46.72634" lon="-1.88962">
        <ele>6</ele>
        <time>2018-01-06T04:57:50Z</time>
      </trkpt>
      <trkpt lat="46.72641" lon="-1.88904">
        <ele>6</ele>
        <time>2018-01-06T04:58:50Z</time>
      </trkpt>
      <trkpt lat="46.7265" lon="-1.88821">
        <ele>6</ele>
        <time>2018-01-06T04:59:50Z</time>
      </trkpt>
      <trkpt lat="46.72657" lon="-1.88762">
        <ele>6</ele>
        <time>2018-01-06T05:00:50Z</time>
      </trkpt>
      <trkpt lat="46.72667" lon="-1.88649">
        <ele>6</ele>
        <time>2018-01-06T05:01:50Z</time>
      </trkpt>
      <trkpt lat="46.72669" lon="-1.88627">
        <ele>5</ele>
        <time>2018-01-06T05:02:50Z</time>
      </trkpt>
      <trkpt lat="46.72673" lon="-1.88584">
        <ele>5</ele>
        <time>2018-01-06T05:03:50Z</time>
      </trkpt>
      <trkpt lat="46.72678" lon="-1.88523">
        <ele>4</ele>
        <time>2018-01-06T05:04:50Z</time>
      </trkpt>
      <trkpt lat="46.72682" lon="-1.88474">
        <ele>4</ele>
        <time>2018-01-06T05:05:50Z</time>
      </trkpt>
      <trkpt lat="46.72686" lon="-1.88428">
        <ele>5</ele>
        <time>2018-01-06T05:06:50Z</time>
      </trkpt>
      <trkpt lat="46.72687" lon="-1.88419">
        <ele>5</ele>
        <time>2018-01-06T05:07:50Z</time>
      </trkpt>
      <trkpt lat="46.72688" lon="-1.88414">
        <ele>5</ele>
        <time>2018-01-06T05:08:50Z</time>
      </trkpt>
      <trkpt lat="46.72689" lon="-1.88405">
        <ele>5</ele>
        <time>2018-01-06T05:09:50Z</time>
      </trkpt>
      <trkpt lat="46.72694" lon="-1.88384">
        <ele>5</ele>
        <time>2018-01-06T05:10:50Z</time>
      </trkpt>
      <trkpt lat="46.72701" lon="-1.88354">
        <ele>5</ele>
        <time>2018-01-06T05:11:50Z</time>
      </trkpt>
      <trkpt lat="46.72708" lon="-1.88329">
        <ele>5</ele>
        <time>2018-01-06T05:12:50Z</time>
      </trkpt>
      <trkpt lat="46.72718" lon="-1.88298">
        <ele>6</ele>
        <time>2018-01-06T05:13:50Z</time>
      </trkpt>
      <trkpt lat="46.72729" lon="-1.88265">
        <ele>7</ele>
        <time>2018-01-06T05:14:50Z</time>
      </trkpt>
      <trkpt lat="46.72743" lon="-1.88234">
        <ele>8</ele>
        <time>2018-01-06T05:15:50Z</time>
      </trkpt>
      <trkpt lat="46.72753" lon="-1.88214">
        <ele>8</ele>
        <time>2018-01-06T05:16:50Z</time>
      </trkpt>
      <trkpt lat="46.72758" lon="-1.88205">
        <ele>8</ele>
        <time>2018-01-06T05:17:50Z</time>
      </trkpt>
      <trkpt lat="46.72774" lon="-1.88175">
        <ele>9</ele>
        <time>2018-01-06T05:18:50Z</time>
      </trkpt>
      <trkpt lat="46.7278" lon="-1.88165">
        <ele>9</ele>
        <time>2018-01-06T05:19:50Z</time>
      </trkpt>
      <trkpt lat="46.72797" lon="-1.88139">
        <ele>10</ele>
        <time>2018-01-06T05:20:50Z</time>
      </trkpt>
      <trkpt lat="46.72822" lon="-1.88105">
        <ele>12</ele>
        <time>2018-01-06T05:21:50Z</time>
      </trkpt>
      <trkpt lat="46.72845" lon="-1.88074">
        <ele>12</ele>
        <time>2018-01-06T05:22:50Z</time>
      </trkpt>
      <trkpt lat="46.72857" lon="-1.88056">
        <ele>12</ele>
        <time>2018-01-06T05:23:50Z</time>
      </trkpt>
      <trkpt lat="46.72877" lon="-1.88029">
        <ele>12</ele>
        <time>2018-01-06T05:24:50Z</time>
      </trkpt>
      <trkpt lat="46.72901" lon="-1.87996">
        <ele>12</ele>
        <time>2018-01-06T05:25:50Z</time>
      </trkpt>
      <trkpt lat="46.72903" lon="-1.87993">
        <ele>12</ele>
        <time>2018-01-06T05:26:50Z</time>
      </trkpt>
      <trkpt lat="46.72915" lon="-1.87978">
        <ele>12</ele>
        <time>2018-01-06T05:27:50Z</time>
      </trkpt>
      <trkpt lat="46.72931" lon="-1.87954">
        <ele>12</ele>
        <time>2018-01-06T05:28:50Z</time>
      </trkpt>
      <trkpt lat="46.72942" lon="-1.87939">
        <ele>12</ele>
        <time>2018-01-06T05:29:50Z</time>
      </trkpt>
      <trkpt lat="46.72957" lon="-1.87915">
        <ele>12</ele>
        <time>2018-01-06T05:30:50Z</time>
      </trkpt>
      <trkpt lat="46.72971" lon="-1.8789">
        <ele>11</ele>
        <time>2018-01-06T05:31:50Z</time>
      </trkpt>
      <trkpt lat="46.72982" lon="-1.87863">
        <ele>11</ele>
        <time>2018-01-06T05:32:50Z</time>
      </trkpt>
      <trkpt lat="46.7299" lon="-1.87843">
        <ele>11</ele>
        <time>2018-01-06T05:33:50Z</time>
      </trkpt>
      <trkpt lat="46.73" lon="-1.87814">
        <ele>11</ele>
        <time>2018-01-06T05:34:50Z</time>
      </trkpt>
      <trkpt lat="46.73003" lon="-1.87797">
        <ele>11</ele>
        <time>2018-01-06T05:35:50Z</time>
      </trkpt>
      <trkpt lat="46.73005" lon="-1.87792">
        <ele>11</ele>
        <time>2018-01-06T05:36:50Z</time>
      </trkpt>
      <trkpt lat="46.7301" lon="-1.87775">
        <ele>11</ele>
        <time>2018-01-06T05:37:50Z</time>
      </trkpt>
      <trkpt lat="46.73032" lon="-1.87707">
        <ele>11</ele>
        <time>2018-01-06T05:38:50Z</time>
      </trkpt>
      <trkpt lat="46.73037" lon="-1.8769">
        <ele>11</ele>
        <time>2018-01-06T05:39:50Z</time>
      </trkpt>
      <trkpt lat="46.7305" lon="-1.87651">
        <ele>11</ele>
        <time>2018-01-06T05:40:50Z</time>
      </trkpt>
      <trkpt lat="46.73054" lon="-1.87646">
        <ele>11</ele>
        <time>2018-01-06T05:41:50Z</time>
      </trkpt>
      <trkpt lat="46.73065" lon="-1.87612">
        <ele>11</ele>
        <time>2018-01-06T05:42:50Z</time>
      </trkpt>
      <trkpt lat="46.73069" lon="-1.87597">
        <ele>11</ele>
        <time>2018-01-06T05:43:50Z</time>
      </trkpt>
      <trkpt lat="46.73071" lon="-1.87591">
        <ele>11</ele>
        <time>2018-01-06T05:44:50Z</time>
      </trkpt>
      <trkpt lat="46.73084" lon="-1.87547">
        <ele>11</ele>
        <time>2018-01-06T05:45:50Z</time>
      </trkpt>
      <trkpt lat="46.73092" lon="-1.87524">
        <ele>11</ele>
        <time>2018-01-06T05:46:50Z</time>
      </trkpt>
      <trkpt lat="46.73132" lon="-1.87393">
        <ele>12</ele>
        <time>2018-01-06T05:47:50Z</time>
      </trkpt>
      <trkpt lat="46.73159" lon="-1.87307">
        <ele>12</ele>
        <time>2018-01-06T05:48:50Z</time>
      </trkpt>
      <trkpt lat="46.73176" lon="-1.87254">
        <ele>12</ele>
        <time>2018-01-06T05:49:50Z</time>
      </trkpt>
      <trkpt lat="46.73179" lon="-1.87237">
        <ele>12</ele>
        <time>2018-01-06T05:50:50Z</time>
      </trkpt>
      <trkpt lat="46.7318" lon="-1.8723">
        <ele>12</ele>
        <time>2018-01-06T05:51:50Z</time>
      </trkpt>
      <trkpt lat="46.73181" lon="-1.87222">
        <ele>12</ele>
        <time>2018-01-06T05:52:50Z</time>
      </trkpt>
      <trkpt lat="46.73183" lon="-1.87214">
        <ele>12</ele>
        <time>2018-01-06T05:53:50Z</time>
      </trkpt>
      <trkpt lat="46.73183" lon="-1.87205">
        <ele>12</ele>
        <time>2018-01-06T05:54:50Z</time>
      </trkpt>
      <trkpt lat="46.73184" lon="-1.87191">
        <ele>12</ele>
        <time>2018-01-06T05:55:50Z</time>
      </trkpt>
      <trkpt lat="46.73184" lon="-1.87191">
        <ele>12</ele>
        <time>2018-01-06T05:56:50Z</time>
      </trkpt>
      <trkpt lat="46.73183" lon="-1.8719">
        <ele>12</ele>
        <time>2018-01-06T05:57:50Z</time>
      </trkpt>
      <trkpt lat="46.73182" lon="-1.87188">
        <ele>12</ele>
        <time>2018-01-06T05:58:50Z</time>
      </trkpt>
      <trkpt lat="46.73181" lon="-1.87186">
        <ele>12</ele>
        <time>2018-01-06T05:59:50Z</time>
      </trkpt>
      <trkpt lat="46.7318" lon="-1.87184">
        <ele>12</ele>
        <time>2018-01-06T06:00:50Z</time>
      </trkpt>
      <trkpt lat="46.7318" lon="-1.87182">
        <ele>12</ele>
        <time>2018-01-06T06:01:50Z</time>
      </trkpt>
      <trkpt lat="46.73179" lon="-1.8718">
        <ele>12</ele>
        <time>2018-01-06T06:02:50Z</time>
      </trkpt>
      <trkpt lat="46.73179" lon="-1.87178">
        <ele>12</ele>
        <time>2018-01-06T06:03:50Z</time>
      </trkpt>
      <trkpt lat="46.73178" lon="-1.87175">
        <ele>13</ele>
        <time>2018-01-06T06:04:50Z</time>
      </trkpt>
      <trkpt lat="46.73178" lon="-1.87172">
        <ele>13</ele>
        <time>2018-01-06T06:05:50Z</time>
      </trkpt>
      <trkpt lat="46.73178" lon="-1.87169">
        <ele>13</ele>
        <time>2018-01-06T06:06:50Z</time>
      </trkpt>
      <trkpt lat="46.73179" lon="-1.87166">
        <ele>13</ele>
        <time>2018-01-06T06:07:50Z</time>
      </trkpt>
      <trkpt lat="46.73179" lon="-1.87163">
        <ele>12</ele>
        <time>2018-01-06T06:08:50Z</time>
      </trkpt>
      <trkpt lat="46.7318" lon="-1.8716">
        <ele>12</ele>
        <time>2018-01-06T06:09:50Z</time>
      </trkpt>
      <trkpt lat="46.7318" lon="-1.87158">
        <ele>12</ele>
        <time>2018-01-06T06:10:50Z</time>
      </trkpt>
      <trkpt lat="46.73181" lon="-1.87155">
        <ele>12</ele>
        <time>2018-01-06T06:11:50Z</time>
      </trkpt>
      <trkpt lat="46.73182" lon="-1.87152">
        <ele>12</ele>
        <time>2018-01-06T06:12:50Z</time>
      </trkpt>
      <trkpt lat="46.73184" lon="-1.8715">
        <ele>12</ele>
        <time>2018-01-06T06:13:50Z</time>
      </trkpt>
      <trkpt lat="46.73186" lon="-1.87148">
        <ele>12</ele>
        <time>2018-01-06T06:14:50Z</time>
      </trkpt>
      <trkpt lat="46.73187" lon="-1.87148">
        <ele>12</ele>
        <time>2018-01-06T06:15:50Z</time>
      </trkpt>
      <trkpt lat="46.73188" lon="-1.87147">
        <ele>12</ele>
        <time>2018-01-06T06:16:50Z</time>
      </trkpt>
      <trkpt lat="46.73189" lon="-1.87146">
        <ele>12</ele>
        <time>2018-01-06T06:17:50Z</time>
      </trkpt>
      <trkpt lat="46.7319" lon="-1.87145">
        <ele>12</ele>
        <time>2018-01-06T06:18:50Z</time>
      </trkpt>
      <trkpt lat="46.73191" lon="-1.87145">
        <ele>12</ele>
        <time>2018-01-06T06:19:50Z</time>
      </trkpt>
      <trkpt lat="46.73192" lon="-1.87144">
        <ele>12</ele>
        <time>2018-01-06T06:20:50Z</time>
      </trkpt>
      <trkpt lat="46.73194" lon="-1.87144">
        <ele>12</ele>
        <time>2018-01-06T06:21:50Z</time>
      </trkpt>
      <trkpt lat="46.73195" lon="-1.87144">
        <ele>12</ele>
        <time>2018-01-06T06:22:50Z</time>
      </trkpt>
      <trkpt lat="46.73199" lon="-1.87141">
        <ele>11</ele>
        <time>2018-01-06T06:23:50Z</time>
      </trkpt>
      <trkpt lat="46.73203" lon="-1.87137">
        <ele>11</ele>
        <time>2018-01-06T06:24:50Z</time>
      </trkpt>
      <trkpt lat="46.73205" lon="-1.87132">
        <ele>11</ele>
        <time>2018-01-06T06:25:50Z</time>
      </trkpt>
      <trkpt lat="46.73208" lon="-1.87126">
        <ele>11</ele>
        <time>2018-01-06T06:26:50Z</time>
      </trkpt>
      <trkpt lat="46.73209" lon="-1.8712">
        <ele>11</ele>
        <time>2018-01-06T06:27:50Z</time>
      </trkpt>
      <trkpt lat="46.73211" lon="-1.87109">
        <ele>11</ele>
        <time>2018-01-06T06:28:50Z</time>
      </trkpt>
      <trkpt lat="46.7321" lon="-1.871">
        <ele>11</ele>
        <time>2018-01-06T06:29:50Z</time>
      </trkpt>
      <trkpt lat="46.73208" lon="-1.87069">
        <ele>10</ele>
        <time>2018-01-06T06:30:50Z</time>
      </trkpt>
      <trkpt lat="46.73206" lon="-1.87034">
        <ele>10</ele>
        <time>2018-01-06T06:31:50Z</time>
      </trkpt>
      <trkpt lat="46.73204" lon="-1.87006">
        <ele>10</ele>
        <time>2018-01-06T06:32:50Z</time>
      </trkpt>
      <trkpt lat="46.73203" lon="-1.86984">
        <ele>9</ele>
        <time>2018-01-06T06:33:50Z</time>
      </trkpt>
      <trkpt lat="46.73202" lon="-1.86972">
        <ele>9</ele>
        <time>2018-01-06T06:34:50Z</time>
      </trkpt>
      <trkpt lat="46.73198" lon="-1.86945">
        <ele>8</ele>
        <time>2018-01-06T06:35:50Z</time>
      </trkpt>
      <trkpt lat="46.73191" lon="-1.86902">
        <ele>8</ele>
        <time>2018-01-06T06:36:50Z</time>
      </trkpt>
      <trkpt lat="46.7318" lon="-1.86831">
        <ele>7</ele>
        <time>2018-01-06T06:37:50Z</time>
      </trkpt>
      <trkpt lat="46.73167" lon="-1.86748">
        <ele>6</ele>
        <time>2018-01-06T06:38:50Z</time>
      </trkpt>
      <trkpt lat="46.73162" lon="-1.86716">
        <ele>7</ele>
        <time>2018-01-06T06:39:50Z</time>
      </trkpt>
      <trkpt lat="46.73154" lon="-1.86672">
        <ele>8</ele>
        <time>2018-01-06T06:40:50Z</time>
      </trkpt>
      <trkpt lat="46.73145" lon="-1.86608">
        <ele>10</ele>
        <time>2018-01-06T06:41:50Z</time>
      </trkpt>
      <trkpt lat="46.73139" lon="-1.86573">
        <ele>11</ele>
        <time>2018-01-06T06:42:50Z</time>
      </trkpt>
      <trkpt lat="46.73136" lon="-1.86555">
        <ele>11</ele>
        <time>2018-01-06T06:43:50Z</time>
      </trkpt>
      <trkpt lat="46.73135" lon="-1.86543">
        <ele>11</ele>
        <time>2018-01-06T06:44:50Z</time>
      </trkpt>
      <trkpt lat="46.73133" lon="-1.86528">
        <ele>11</ele>
        <time>2018-01-06T06:45:50Z</time>
      </trkpt>
      <trkpt lat="46.73133" lon="-1.8651">
        <ele>10</ele>
        <time>2018-01-06T06:46:50Z</time>
      </trkpt>
      <trkpt lat="46.73133" lon="-1.86486">
        <ele>10</ele>
        <time>2018-01-06T06:47:50Z</time>
      </trkpt>
      <trkpt lat="46.73133" lon="-1.86467">
        <ele>10</ele>
        <time>2018-01-06T06:48:50Z</time>
      </trkpt>
      <trkpt lat="46.73134" lon="-1.86386">
        <ele>9</ele>
        <time>2018-01-06T06:49:50Z</time>
      </trkpt>
      <trkpt lat="46.73136" lon="-1.86309">
        <ele>10</ele>
        <time>2018-01-06T06:50:50Z</time>
      </trkpt>
      <trkpt lat="46.73137" lon="-1.86284">
        <ele>10</ele>
        <time>2018-01-06T06:51:50Z</time>
      </trkpt>
      <trkpt lat="46.7314" lon="-1.86155">
        <ele>11</ele>
        <time>2018-01-06T06:52:50Z</time>
      </trkpt>
      <trkpt lat="46.73141" lon="-1.86123">
        <ele>11</ele>
        <time>2018-01-06T06:53:50Z</time>
      </trkpt>
      <trkpt lat="46.73142" lon="-1.86101">
        <ele>11</ele>
        <time>2018-01-06T06:54:50Z</time>
      </trkpt>
      <trkpt lat="46.73142" lon="-1.86074">
        <ele>11</ele>
        <time>2018-01-06T06:55:50Z</time>
      </trkpt>
      <trkpt lat="46.73142" lon="-1.86052">
        <ele>11</ele>
        <time>2018-01-06T06:56:50Z</time>
      </trkpt>
      <trkpt lat="46.73141" lon="-1.8603">
        <ele>11</ele>
        <time>2018-01-06T06:57:50Z</time>
      </trkpt>
      <trkpt lat="46.73139" lon="-1.86009">
        <ele>11</ele>
        <time>2018-01-06T06:58:50Z</time>
      </trkpt>
      <trkpt lat="46.73136" lon="-1.85988">
        <ele>11</ele>
        <time>2018-01-06T06:59:50Z</time>
      </trkpt>
      <trkpt lat="46.73131" lon="-1.85958">
        <ele>10</ele>
        <time>2018-01-06T07:00:50Z</time>
      </trkpt>
      <trkpt lat="46.73119" lon="-1.85908">
        <ele>10</ele>
        <time>2018-01-06T07:01:50Z</time>
      </trkpt>
      <trkpt lat="46.73101" lon="-1.85837">
        <ele>10</ele>
        <time>2018-01-06T07:02:50Z</time>
      </trkpt>
      <trkpt lat="46.7309" lon="-1.85791">
        <ele>11</ele>
        <time>2018-01-06T07:03:50Z</time>
      </trkpt>
      <trkpt lat="46.73087" lon="-1.85769">
        <ele>12</ele>
        <time>2018-01-06T07:04:50Z</time>
      </trkpt>
      <trkpt lat="46.73084" lon="-1.85756">
        <ele>12</ele>
        <time>2018-01-06T07:05:50Z</time>
      </trkpt>
      <trkpt lat="46.73081" lon="-1.85738">
        <ele>12</ele>
        <time>2018-01-06T07:06:50Z</time>
      </trkpt>
      <trkpt lat="46.73079" lon="-1.85723">
        <ele>12</ele>
        <time>2018-01-06T07:07:50Z</time>
      </trkpt>
      <trkpt lat="46.73075" lon="-1.85694">
        <ele>12</ele>
        <time>2018-01-06T07:08:50Z</time>
      </trkpt>
      <trkpt lat="46.73071" lon="-1.85665">
        <ele>11</ele>
        <time>2018-01-06T07:09:50Z</time>
      </trkpt>
      <trkpt lat="46.73067" lon="-1.85628">
        <ele>12</ele>
        <time>2018-01-06T07:10:50Z</time>
      </trkpt>
      <trkpt lat="46.73061" lon="-1.85588">
        <ele>12</ele>
        <time>2018-01-06T07:11:50Z</time>
      </trkpt>
      <trkpt lat="46.7306" lon="-1.85579">
        <ele>12</ele>
        <time>2018-01-06T07:12:50Z</time>
      </trkpt>
      <trkpt lat="46.73056" lon="-1.85546">
        <ele>12</ele>
        <time>2018-01-06T07:13:50Z</time>
      </trkpt>
      <trkpt lat="46.73055" lon="-1.85538">
        <ele>12</ele>
        <time>2018-01-06T07:14:50Z</time>
      </trkpt>
      <trkpt lat="46.73053" lon="-1.85515">
        <ele>12</ele>
        <time>2018-01-06T07:15:50Z</time>
      </trkpt>
      <trkpt lat="46.73051" lon="-1.85501">
        <ele>12</ele>
        <time>2018-01-06T07:16:50Z</time>
      </trkpt>
      <trkpt lat="46.73051" lon="-1.85486">
        <ele>12</ele>
        <time>2018-01-06T07:17:50Z</time>
      </trkpt>
      <trkpt lat="46.7305" lon="-1.85471">
        <ele>12</ele>
        <time>2018-01-06T07:18:50Z</time>
      </trkpt>
      <trkpt lat="46.73051" lon="-1.85456">
        <ele>12</ele>
        <time>2018-01-06T07:19:50Z</time>
      </trkpt>
      <trkpt lat="46.73051" lon="-1.85439">
        <ele>11</ele>
        <time>2018-01-06T07:20:50Z</time>
      </trkpt>
      <trkpt lat="46.73053" lon="-1.85427">
        <ele>11</ele>
        <time>2018-01-06T07:21:50Z</time>
      </trkpt>
      <trkpt lat="46.73054" lon="-1.85413">
        <ele>11</ele>
        <time>2018-01-06T07:22:50Z</time>
      </trkpt>
      <trkpt lat="46.73056" lon="-1.85399">
        <ele>11</ele>
        <time>2018-01-06T07:23:50Z</time>
      </trkpt>
      <trkpt lat="46.73059" lon="-1.85384">
        <ele>11</ele>
        <time>2018-01-06T07:24:50Z</time>
      </trkpt>
      <trkpt lat="46.73066" lon="-1.85362">
        <ele>11</ele>
        <time>2018-01-06T07:25:50Z</time>
      </trkpt>
      <trkpt lat="46.73076" lon="-1.85329">
        <ele>11</ele>
        <time>2018-01-06T07:26:50Z</time>
      </trkpt>
      <trkpt lat="46.73094" lon="-1.8528">
        <ele>13</ele>
        <time>2018-01-06T07:27:50Z</time>
      </trkpt>
      <trkpt lat="46.73106" lon="-1.85246">
        <ele>14</ele>
        <time>2018-01-06T07:28:50Z</time>
      </trkpt>
      <trkpt lat="46.73125" lon="-1.85192">
        <ele>17</ele>
        <time>2018-01-06T07:29:50Z</time>
      </trkpt>
      <trkpt lat="46.73153" lon="-1.85112">
        <ele>18</ele>
        <time>2018-01-06T07:30:50Z</time>
      </trkpt>
      <trkpt lat="46.73165" lon="-1.85077">
        <ele>18</ele>
        <time>2018-01-06T07:31:50Z</time>
      </trkpt>
      <trkpt lat="46.73182" lon="-1.85028">
        <ele>19</ele>
        <time>2018-01-06T07:32:50Z</time>
      </trkpt>
      <trkpt lat="46.73206" lon="-1.8496">
        <ele>19</ele>
        <time>2018-01-06T07:33:50Z</time>
      </trkpt>
      <trkpt lat="46.73232" lon="-1.84885">
        <ele>20</ele>
        <time>2018-01-06T07:34:50Z</time>
      </trkpt>
      <trkpt lat="46.73257" lon="-1.84813">
        <ele>20</ele>
        <time>2018-01-06T07:35:50Z</time>
      </trkpt>
      <trkpt lat="46.73281" lon="-1.84742">
        <ele>19</ele>
        <time>2018-01-06T07:36:50Z</time>
      </trkpt>
      <trkpt lat="46.7329" lon="-1.84716">
        <ele>19</ele>
        <time>2018-01-06T07:37:50Z</time>
      </trkpt>
      <trkpt lat="46.73296" lon="-1.84697">
        <ele>20</ele>
        <time>2018-01-06T07:38:50Z</time>
      </trkpt>
      <trkpt lat="46.73301" lon="-1.84673">
        <ele>20</ele>
        <time>2018-01-06T07:39:50Z</time>
      </trkpt>
      <trkpt lat="46.73306" lon="-1.84653">
        <ele>20</ele>
        <time>2018-01-06T07:40:50Z</time>
      </trkpt>
      <trkpt lat="46.73311" lon="-1.84629">
        <ele>21</ele>
        <time>2018-01-06T07:41:50Z</time>
      </trkpt>
      <trkpt lat="46.73324" lon="-1.84555">
        <ele>21</ele>
        <time>2018-01-06T07:42:50Z</time>
      </trkpt>
      <trkpt lat="46.73337" lon="-1.84483">
        <ele>20</ele>
        <time>2018-01-06T07:43:50Z</time>
      </trkpt>
      <trkpt lat="46.73346" lon="-1.84431">
        <ele>19</ele>
        <time>2018-01-06T07:44:50Z</time>
      </trkpt>
      <trkpt lat="46.73351" lon="-1.84399">
        <ele>19</ele>
        <time>2018-01-06T07:45:50Z</time>
      </trkpt>
      <trkpt lat="46.73356" lon="-1.84369">
        <ele>20</ele>
        <time>2018-01-06T07:46:50Z</time>
      </trkpt>
      <trkpt lat="46.73358" lon="-1.84353">
        <ele>20</ele>
        <time>2018-01-06T07:47:50Z</time>
      </trkpt>
      <trkpt lat="46.7336" lon="-1.84337">
        <ele>20</ele>
        <time>2018-01-06T07:48:50Z</time>
      </trkpt>
      <trkpt lat="46.73362" lon="-1.84325">
        <ele>20</ele>
        <time>2018-01-06T07:49:50Z</time>
      </trkpt>
      <trkpt lat="46.73362" lon="-1.8431">
        <ele>20</ele>
        <time>2018-01-06T07:50:50Z</time>
      </trkpt>
      <trkpt lat="46.73363" lon="-1.84294">
        <ele>20</ele>
        <time>2018-01-06T07:51:50Z</time>
      </trkpt>
      <trkpt lat="46.73363" lon="-1.8428">
        <ele>21</ele>
        <time>2018-01-06T07:52:50Z</time>
      </trkpt>
      <trkpt lat="46.73363" lon="-1.84257">
        <ele>21</ele>
        <time>2018-01-06T07:53:50Z</time>
      </trkpt>
      <trkpt lat="46.73363" lon="-1.84237">
        <ele>21</ele>
        <time>2018-01-06T07:54:50Z</time>
      </trkpt>
      <trkpt lat="46.73363" lon="-1.84201">
        <ele>21</ele>
        <time>2018-01-06T07:55:50Z</time>
      </trkpt>
      <trkpt lat="46.73362" lon="-1.84127">
        <ele>21</ele>
        <time>2018-01-06T07:56:50Z</time>
      </trkpt>
      <trkpt lat="46.73361" lon="-1.84068">
        <ele>21</ele>
        <time>2018-01-06T07:57:50Z</time>
      </trkpt>
      <trkpt lat="46.7336" lon="-1.83992">
        <ele>20</ele>
        <time>2018-01-06T07:58:50Z</time>
      </trkpt>
      <trkpt lat="46.73359" lon="-1.83933">
        <ele>20</ele>
        <time>2018-01-06T07:59:50Z</time>
      </trkpt>
      <trkpt lat="46.73359" lon="-1.8389">
        <ele>20</ele>
        <time>2018-01-06T08:00:50Z</time>
      </trkpt>
      <trkpt lat="46.7336" lon="-1.83867">
        <ele>20</ele>
        <time>2018-01-06T08:01:50Z</time>
      </trkpt>
      <trkpt lat="46.73361" lon="-1.83842">
        <ele>20</ele>
        <time>2018-01-06T08:02:50Z</time>
      </trkpt>
      <trkpt lat="46.73364" lon="-1.83811">
        <ele>20</ele>
        <time>2018-01-06T08:03:50Z</time>
      </trkpt>
      <trkpt lat="46.73368" lon="-1.83778">
        <ele>20</ele>
        <time>2018-01-06T08:04:50Z</time>
      </trkpt>
      <trkpt lat="46.73374" lon="-1.83726">
        <ele>20</ele>
        <time>2018-01-06T08:05:50Z</time>
      </trkpt>
      <trkpt lat="46.73375" lon="-1.8372">
        <ele>20</ele>
        <time>2018-01-06T08:06:50Z</time>
      </trkpt>
      <trkpt lat="46.73382" lon="-1.83667">
        <ele>21</ele>
        <time>2018-01-06T08:07:50Z</time>
      </trkpt>
      <trkpt lat="46.73387" lon="-1.83626">
        <ele>21</ele>
        <time>2018-01-06T08:08:50Z</time>
      </trkpt>
      <trkpt lat="46.73388" lon="-1.83618">
        <ele>21</ele>
        <time>2018-01-06T08:09:50Z</time>
      </trkpt>
      <trkpt lat="46.73391" lon="-1.83596">
        <ele>21</ele>
        <time>2018-01-06T08:10:50Z</time>
      </trkpt>
      <trkpt lat="46.73391" lon="-1.83594">
        <ele>21</ele>
        <time>2018-01-06T08:11:50Z</time>
      </trkpt>
      <trkpt lat="46.73395" lon="-1.83571">
        <ele>21</ele>
        <time>2018-01-06T08:12:50Z</time>
      </trkpt>
      <trkpt lat="46.73398" lon="-1.83555">
        <ele>21</ele>
        <time>2018-01-06T08:13:50Z</time>
      </trkpt>
      <trkpt lat="46.73404" lon="-1.83535">
        <ele>22</ele>
        <time>2018-01-06T08:14:50Z</time>
      </trkpt>
      <trkpt lat="46.73408" lon="-1.83521">
        <ele>22</ele>
        <time>2018-01-06T08:15:50Z</time>
      </trkpt>
      <trkpt lat="46.73413" lon="-1.83508">
        <ele>22</ele>
        <time>2018-01-06T08:16:50Z</time>
      </trkpt>
      <trkpt lat="46.73419" lon="-1.83496">
        <ele>22</ele>
        <time>2018-01-06T08:17:50Z</time>
      </trkpt>
      <trkpt lat="46.73422" lon="-1.83491">
        <ele>22</ele>
        <time>2018-01-06T08:18:50Z</time>
      </trkpt>
      <trkpt lat="46.73428" lon="-1.83479">
        <ele>22</ele>
        <time>2018-01-06T08:19:50Z</time>
      </trkpt>
      <trkpt lat="46.73438" lon="-1.83464">
        <ele>22</ele>
        <time>2018-01-06T08:20:50Z</time>
      </trkpt>
      <trkpt lat="46.73451" lon="-1.83447">
        <ele>22</ele>
        <time>2018-01-06T08:21:50Z</time>
      </trkpt>
      <trkpt lat="46.73478" lon="-1.83413">
        <ele>22</ele>
        <time>2018-01-06T08:22:50Z</time>
      </trkpt>
      <trkpt lat="46.73522" lon="-1.83358">
        <ele>21</ele>
        <time>2018-01-06T08:23:50Z</time>
      </trkpt>
      <trkpt lat="46.73532" lon="-1.83342">
        <ele>21</ele>
        <time>2018-01-06T08:24:50Z</time>
      </trkpt>
      <trkpt lat="46.7354" lon="-1.83328">
        <ele>21</ele>
        <time>2018-01-06T08:25:50Z</time>
      </trkpt>
      <trkpt lat="46.73548" lon="-1.83311">
        <ele>21</ele>
        <time>2018-01-06T08:26:50Z</time>
      </trkpt>
      <trkpt lat="46.73554" lon="-1.83296">
        <ele>21</ele>
        <time>2018-01-06T08:27:50Z</time>
      </trkpt>
      <trkpt lat="46.73559" lon="-1.83282">
        <ele>21</ele>
        <time>2018-01-06T08:28:50Z</time>
      </trkpt>
      <trkpt lat="46.7356" lon="-1.83276">
        <ele>21</ele>
        <time>2018-01-06T08:29:50Z</time>
      </trkpt>
      <trkpt lat="46.73563" lon="-1.83266">
        <ele>21</ele>
        <time>2018-01-06T08:30:50Z</time>
      </trkpt>
      <trkpt lat="46.73568" lon="-1.83245">
        <ele>21</ele>
        <time>2018-01-06T08:31:50Z</time>
      </trkpt>
      <trkpt lat="46.73578" lon="-1.83204">
        <ele>20</ele>
        <time>2018-01-06T08:32:50Z</time>
      </trkpt>
      <trkpt lat="46.73579" lon="-1.83201">
        <ele>20</ele>
        <time>2018-01-06T08:33:50Z</time>
      </trkpt>
      <trkpt lat="46.73586" lon="-1.83173">
        <ele>20</ele>
        <time>2018-01-06T08:34:50Z</time>
      </trkpt>
      <trkpt lat="46.73591" lon="-1.83152">
        <ele>20</ele>
        <time>2018-01-06T08:35:50Z</time>
      </trkpt>
      <trkpt lat="46.73594" lon="-1.83142">
        <ele>20</ele>
        <time>2018-01-06T08:36:50Z</time>
      </trkpt>
      <trkpt lat="46.73597" lon="-1.8313">
        <ele>20</ele>
        <time>2018-01-06T08:37:50Z</time>
      </trkpt>
      <trkpt lat="46.73603" lon="-1.83115">
        <ele>20</ele>
        <time>2018-01-06T08:38:50Z</time>
      </trkpt>
      <trkpt lat="46.73608" lon="-1.83101">
        <ele>20</ele>
        <time>2018-01-06T08:39:50Z</time>
      </trkpt>
      <trkpt lat="46.7361" lon="-1.83097">
        <ele>20</ele>
        <time>2018-01-06T08:40:50Z</time>
      </trkpt>
      <trkpt lat="46.73615" lon="-1.83087">
        <ele>20</ele>
        <time>2018-01-06T08:41:50Z</time>
      </trkpt>
      <trkpt lat="46.73622" lon="-1.83077">
        <ele>21</ele>
        <time>2018-01-06T08:42:50Z</time>
      </trkpt>
      <trkpt lat="46.73629" lon="-1.83067">
        <ele>21</ele>
        <time>2018-01-06T08:43:50Z</time>
      </trkpt>
      <trkpt lat="46.73632" lon="-1.83063">
        <ele>21</ele>
        <time>2018-01-06T08:44:50Z</time>
      </trkpt>
      <trkpt lat="46.73637" lon="-1.83058">
        <ele>21</ele>
        <time>2018-01-06T08:45:50Z</time>
      </trkpt>
      <trkpt lat="46.73647" lon="-1.83048">
        <ele>21</ele>
        <time>2018-01-06T08:46:50Z</time>
      </trkpt>
      <trkpt lat="46.73658" lon="-1.8304">
        <ele>21</ele>
        <time>2018-01-06T08:47:50Z</time>
      </trkpt>
      <trkpt lat="46.73676" lon="-1.83028">
        <ele>21</ele>
        <time>2018-01-06T08:48:50Z</time>
      </trkpt>
      <trkpt lat="46.73715" lon="-1.83">
        <ele>20</ele>
        <time>2018-01-06T08:49:50Z</time>
      </trkpt>
      <trkpt lat="46.73751" lon="-1.82972">
        <ele>19</ele>
        <time>2018-01-06T08:50:50Z</time>
      </trkpt>
      <trkpt lat="46.73776" lon="-1.82951">
        <ele>18</ele>
        <time>2018-01-06T08:51:50Z</time>
      </trkpt>
      <trkpt lat="46.73788" lon="-1.82939">
        <ele>18</ele>
        <time>2018-01-06T08:52:50Z</time>
      </trkpt>
      <trkpt lat="46.73799" lon="-1.82926">
        <ele>17</ele>
        <time>2018-01-06T08:53:50Z</time>
      </trkpt>
      <trkpt lat="46.73807" lon="-1.82914">
        <ele>17</ele>
        <time>2018-01-06T08:54:50Z</time>
      </trkpt>
      <trkpt lat="46.73814" lon="-1.82901">
        <ele>17</ele>
        <time>2018-01-06T08:55:50Z</time>
      </trkpt>
      <trkpt lat="46.73818" lon="-1.82893">
        <ele>17</ele>
        <time>2018-01-06T08:56:50Z</time>
      </trkpt>
      <trkpt lat="46.73822" lon="-1.82882">
        <ele>17</ele>
        <time>2018-01-06T08:57:50Z</time>
      </trkpt>
      <trkpt lat="46.73826" lon="-1.82869">
        <ele>17</ele>
        <time>2018-01-06T08:58:50Z</time>
      </trkpt>
      <trkpt lat="46.7383" lon="-1.82855">
        <ele>16</ele>
        <time>2018-01-06T08:59:50Z</time>
      </trkpt>
      <trkpt lat="46.73835" lon="-1.82839">
        <ele>16</ele>
        <time>2018-01-06T09:00:50Z</time>
      </trkpt>
      <trkpt lat="46.73839" lon="-1.82823">
        <ele>16</ele>
        <time>2018-01-06T09:01:50Z</time>
      </trkpt>
      <trkpt lat="46.73847" lon="-1.82788">
        <ele>14</ele>
        <time>2018-01-06T09:02:50Z</time>
      </trkpt>
      <trkpt lat="46.73848" lon="-1.82786">
        <ele>14</ele>
        <time>2018-01-06T09:03:50Z</time>
      </trkpt>
      <trkpt lat="46.7386" lon="-1.82741">
        <ele>12</ele>
        <time>2018-01-06T09:04:50Z</time>
      </trkpt>
      <trkpt lat="46.73878" lon="-1.82674">
        <ele>11</ele>
        <time>2018-01-06T09:05:50Z</time>
      </trkpt>
      <trkpt lat="46.73889" lon="-1.82629">
        <ele>10</ele>
        <time>2018-01-06T09:06:50Z</time>
      </trkpt>
      <trkpt lat="46.73897" lon="-1.82601">
        <ele>9</ele>
        <time>2018-01-06T09:07:50Z</time>
      </trkpt>
      <trkpt lat="46.73903" lon="-1.82577">
        <ele>9</ele>
        <time>2018-01-06T09:08:50Z</time>
      </trkpt>
      <trkpt lat="46.73911" lon="-1.82546">
        <ele>10</ele>
        <time>2018-01-06T09:09:50Z</time>
      </trkpt>
      <trkpt lat="46.73926" lon="-1.82489">
        <ele>11</ele>
        <time>2018-01-06T09:10:50Z</time>
      </trkpt>
      <trkpt lat="46.73936" lon="-1.82451">
        <ele>12</ele>
        <time>2018-01-06T09:11:50Z</time>
      </trkpt>
      <trkpt lat="46.73945" lon="-1.82415">
        <ele>13</ele>
        <time>2018-01-06T09:12:50Z</time>
      </trkpt>
      <trkpt lat="46.73951" lon="-1.82393">
        <ele>13</ele>
        <time>2018-01-06T09:13:50Z</time>
      </trkpt>
      <trkpt lat="46.73955" lon="-1.82374">
        <ele>13</ele>
        <time>2018-01-06T09:14:50Z</time>
      </trkpt>
      <trkpt lat="46.73953" lon="-1.82361">
        <ele>14</ele>
        <time>2018-01-06T09:15:50Z</time>
      </trkpt>
      <trkpt lat="46.73952" lon="-1.82357">
        <ele>14</ele>
        <time>2018-01-06T09:16:50Z</time>
      </trkpt>
      <trkpt lat="46.73948" lon="-1.8234">
        <ele>14</ele>
        <time>2018-01-06T09:17:50Z</time>
      </trkpt>
      <trkpt lat="46.73948" lon="-1.8234">
        <ele>14</ele>
        <time>2018-01-06T09:18:50Z</time>
      </trkpt>
      <trkpt lat="46.73947" lon="-1.82339">
        <ele>14</ele>
        <time>2018-01-06T09:19:50Z</time>
      </trkpt>
      <trkpt lat="46.73946" lon="-1.82337">
        <ele>14</ele>
        <time>2018-01-06T09:20:50Z</time>
      </trkpt>
      <trkpt lat="46.73946" lon="-1.82336">
        <ele>14</ele>
        <time>2018-01-06T09:21:50Z</time>
      </trkpt>
      <trkpt lat="46.73945" lon="-1.82332">
        <ele>14</ele>
        <time>2018-01-06T09:22:50Z</time>
      </trkpt>
      <trkpt lat="46.73945" lon="-1.82329">
        <ele>14</ele>
        <time>2018-01-06T09:23:50Z</time>
      </trkpt>
      <trkpt lat="46.73945" lon="-1.82325">
        <ele>14</ele>
        <time>2018-01-06T09:24:50Z</time>
      </trkpt>
      <trkpt lat="46.73946" lon="-1.82322">
        <ele>14</ele>
        <time>2018-01-06T09:25:50Z</time>
      </trkpt>
      <trkpt lat="46.73946" lon="-1.8232">
        <ele>14</ele>
        <time>2018-01-06T09:26:50Z</time>
      </trkpt>
      <trkpt lat="46.73947" lon="-1.82319">
        <ele>14</ele>
        <time>2018-01-06T09:27:50Z</time>
      </trkpt>
      <trkpt lat="46.73949" lon="-1.82318">
        <ele>14</ele>
        <time>2018-01-06T09:28:50Z</time>
      </trkpt>
      <trkpt lat="46.73949" lon="-1.82317">
        <ele>14</ele>
        <time>2018-01-06T09:29:50Z</time>
      </trkpt>
      <trkpt lat="46.73952" lon="-1.82316">
        <ele>14</ele>
        <time>2018-01-06T09:30:50Z</time>
      </trkpt>
      <trkpt lat="46.73954" lon="-1.82315">
        <ele>14</ele>
        <time>2018-01-06T09:31:50Z</time>
      </trkpt>
      <trkpt lat="46.73955" lon="-1.82315">
        <ele>14</ele>
        <time>2018-01-06T09:32:50Z</time>
      </trkpt>
      <trkpt lat="46.73957" lon="-1.82316">
        <ele>14</ele>
        <time>2018-01-06T09:33:50Z</time>
      </trkpt>
      <trkpt lat="46.73959" lon="-1.82317">
        <ele>14</ele>
        <time>2018-01-06T09:34:50Z</time>
      </trkpt>
      <trkpt lat="46.73965" lon="-1.82311">
        <ele>15</ele>
        <time>2018-01-06T09:35:50Z</time>
      </trkpt>
      <trkpt lat="46.73969" lon="-1.82308">
        <ele>15</ele>
        <time>2018-01-06T09:36:50Z</time>
      </trkpt>
      <trkpt lat="46.73971" lon="-1.82307">
        <ele>15</ele>
        <time>2018-01-06T09:37:50Z</time>
      </trkpt>
      <trkpt lat="46.73972" lon="-1.82302">
        <ele>15</ele>
        <time>2018-01-06T09:38:50Z</time>
      </trkpt>
      <trkpt lat="46.73974" lon="-1.82298">
        <ele>15</ele>
        <time>2018-01-06T09:39:50Z</time>
      </trkpt>
      <trkpt lat="46.73978" lon="-1.82285">
        <ele>15</ele>
        <time>2018-01-06T09:40:50Z</time>
      </trkpt>
      <trkpt lat="46.73982" lon="-1.82273">
        <ele>15</ele>
        <time>2018-01-06T09:41:50Z</time>
      </trkpt>
      <trkpt lat="46.73986" lon="-1.82257">
        <ele>16</ele>
        <time>2018-01-06T09:42:50Z</time>
      </trkpt>
      <trkpt lat="46.73997" lon="-1.82214">
        <ele>16</ele>
        <time>2018-01-06T09:43:50Z</time>
      </trkpt>
      <trkpt lat="46.74007" lon="-1.82171">
        <ele>17</ele>
        <time>2018-01-06T09:44:50Z</time>
      </trkpt>
      <trkpt lat="46.74009" lon="-1.82164">
        <ele>17</ele>
        <time>2018-01-06T09:45:50Z</time>
      </trkpt>
      <trkpt lat="46.74012" lon="-1.8216">
        <ele>17</ele>
        <time>2018-01-06T09:46:50Z</time>
      </trkpt>
      <trkpt lat="46.74019" lon="-1.82154">
        <ele>17</ele>
        <time>2018-01-06T09:47:50Z</time>
      </trkpt>
      <trkpt lat="46.74029" lon="-1.82148">
        <ele>17</ele>
        <time>2018-01-06T09:48:50Z</time>
      </trkpt>
      <trkpt lat="46.74033" lon="-1.82145">
        <ele>17</ele>
        <time>2018-01-06T09:49:50Z</time>
      </trkpt>
      <trkpt lat="46.74057" lon="-1.8213">
        <ele>17</ele>
        <time>2018-01-06T09:50:50Z</time>
      </trkpt>
      <trkpt lat="46.74074" lon="-1.82121">
        <ele>17</ele>
        <time>2018-01-06T09:51:50Z</time>
      </trkpt>
      <trkpt lat="46.74078" lon="-1.82118">
        <ele>17</ele>
        <time>2018-01-06T09:52:50Z</time>
      </trkpt>
      <trkpt lat="46.74094" lon="-1.8211">
        <ele>17</ele>
        <time>2018-01-06T09:53:50Z</time>
      </trkpt>
      <trkpt lat="46.74099" lon="-1.82108">
        <ele>17</ele>
        <time>2018-01-06T09:54:50Z</time>
      </trkpt>
      <trkpt lat="46.74104" lon="-1.82105">
        <ele>17</ele>
        <time>2018-01-06T09:55:50Z</time>
      </trkpt>
      <trkpt lat="46.74107" lon="-1.82102">
        <ele>16</ele>
        <time>2018-01-06T09:56:50Z</time>
      </trkpt>
      <trkpt lat="46.74107" lon="-1.82102">
        <ele>16</ele>
        <time>2018-01-06T09:57:50Z</time>
      </trkpt>
      <trkpt lat="46.74107" lon="-1.82099">
        <ele>16</ele>
        <time>2018-01-06T09:58:50Z</time>
      </trkpt>
      <trkpt lat="46.74106" lon="-1.82097">
        <ele>17</ele>
        <time>2018-01-06T09:59:50Z</time>
      </trkpt>
      <trkpt lat="46.74107" lon="-1.82095">
        <ele>16</ele>
        <time>2018-01-06T10:00:50Z</time>
      </trkpt>
      <trkpt lat="46.74107" lon="-1.82093">
        <ele>16</ele>
        <time>2018-01-06T10:01:50Z</time>
      </trkpt>
      <trkpt lat="46.74108" lon="-1.82091">
        <ele>16</ele>
        <time>2018-01-06T10:02:50Z</time>
      </trkpt>
      <trkpt lat="46.74109" lon="-1.8209">
        <ele>16</ele>
        <time>2018-01-06T10:03:50Z</time>
      </trkpt>
      <trkpt lat="46.74111" lon="-1.82089">
        <ele>16</ele>
        <time>2018-01-06T10:04:50Z</time>
      </trkpt>
      <trkpt lat="46.74112" lon="-1.82089">
        <ele>16</ele>
        <time>2018-01-06T10:05:50Z</time>
      </trkpt>
      <trkpt lat="46.74113" lon="-1.82089">
        <ele>16</ele>
        <time>2018-01-06T10:06:50Z</time>
      </trkpt>
      <trkpt lat="46.74114" lon="-1.82089">
        <ele>16</ele>
        <time>2018-01-06T10:07:50Z</time>
      </trkpt>
      <trkpt lat="46.74115" lon="-1.82078">
        <ele>16</ele>
        <time>2018-01-06T10:08:50Z</time>
      </trkpt>
      <trkpt lat="46.74116" lon="-1.82065">
        <ele>16</ele>
        <time>2018-01-06T10:09:50Z</time>
      </trkpt>
      <trkpt lat="46.74115" lon="-1.82049">
        <ele>16</ele>
        <time>2018-01-06T10:10:50Z</time>
      </trkpt>
      <trkpt lat="46.74113" lon="-1.82032">
        <ele>16</ele>
        <time>2018-01-06T10:11:50Z</time>
      </trkpt>
      <trkpt lat="46.74109" lon="-1.8201">
        <ele>16</ele>
        <time>2018-01-06T10:12:50Z</time>
      </trkpt>
      <trkpt lat="46.74099" lon="-1.81956">
        <ele>16</ele>
        <time>2018-01-06T10:13:50Z</time>
      </trkpt>
      <trkpt lat="46.74096" lon="-1.81936">
        <ele>16</ele>
        <time>2018-01-06T10:14:50Z</time>
      </trkpt>
      <trkpt lat="46.74092" lon="-1.81917">
        <ele>16</ele>
        <time>2018-01-06T10:15:50Z</time>
      </trkpt>
      <trkpt lat="46.74089" lon="-1.81896">
        <ele>16</ele>
        <time>2018-01-06T10:16:50Z</time>
      </trkpt>
      <trkpt lat="46.74086" lon="-1.81876">
        <ele>17</ele>
        <time>2018-01-06T10:17:50Z</time>
      </trkpt>
      <trkpt lat="46.74085" lon="-1.81863">
        <ele>17</ele>
        <time>2018-01-06T10:18:50Z</time>
      </trkpt>
      <trkpt lat="46.74084" lon="-1.81849">
        <ele>18</ele>
        <time>2018-01-06T10:19:50Z</time>
      </trkpt>
      <trkpt lat="46.74083" lon="-1.81834">
        <ele>18</ele>
        <time>2018-01-06T10:20:50Z</time>
      </trkpt>
      <trkpt lat="46.74083" lon="-1.81811">
        <ele>18</ele>
        <time>2018-01-06T10:21:50Z</time>
      </trkpt>
      <trkpt lat="46.7408" lon="-1.81702">
        <ele>20</ele>
        <time>2018-01-06T10:22:50Z</time>
      </trkpt>
      <trkpt lat="46.74075" lon="-1.8158">
        <ele>21</ele>
        <time>2018-01-06T10:23:50Z</time>
      </trkpt>
      <trkpt lat="46.74069" lon="-1.81428">
        <ele>22</ele>
        <time>2018-01-06T10:24:50Z</time>
      </trkpt>
      <trkpt lat="46.74068" lon="-1.81396">
        <ele>22</ele>
        <time>2018-01-06T10:25:50Z</time>
      </trkpt>
      <trkpt lat="46.74068" lon="-1.81377">
        <ele>23</ele>
        <time>2018-01-06T10:26:50Z</time>
      </trkpt>
      <trkpt lat="46.74069" lon="-1.81362">
        <ele>23</ele>
        <time>2018-01-06T10:27:50Z</time>
      </trkpt>
      <trkpt lat="46.7407" lon="-1.81348">
        <ele>23</ele>
        <time>2018-01-06T10:28:50Z</time>
      </trkpt>
      <trkpt lat="46.74072" lon="-1.81333">
        <ele>23</ele>
        <time>2018-01-06T10:29:50Z</time>
      </trkpt>
      <trkpt lat="46.74074" lon="-1.8132">
        <ele>23</ele>
        <time>2018-01-06T10:30:50Z</time>
      </trkpt>
      <trkpt lat="46.74078" lon="-1.81305">
        <ele>23</ele>
        <time>2018-01-06T10:31:50Z</time>
      </trkpt>
      <trkpt lat="46.74084" lon="-1.8128">
        <ele>23</ele>
        <time>2018-01-06T10:32:50Z</time>
      </trkpt>
      <trkpt lat="46.7409" lon="-1.81255">
        <ele>23</ele>
        <time>2018-01-06T10:33:50Z</time>
      </trkpt>
      <trkpt lat="46.74099" lon="-1.81217">
        <ele>22</ele>
        <time>2018-01-06T10:34:50Z</time>
      </trkpt>
      <trkpt lat="46.74112" lon="-1.8116">
        <ele>22</ele>
        <time>2018-01-06T10:35:50Z</time>
      </trkpt>
      <trkpt lat="46.74123" lon="-1.8111">
        <ele>22</ele>
        <time>2018-01-06T10:36:50Z</time>
      </trkpt>
      <trkpt lat="46.74133" lon="-1.81068">
        <ele>22</ele>
        <time>2018-01-06T10:37:50Z</time>
      </trkpt>
      <trkpt lat="46.74145" lon="-1.81014">
        <ele>21</ele>
        <time>2018-01-06T10:38:50Z</time>
      </trkpt>
      <trkpt lat="46.74158" lon="-1.8096">
        <ele>21</ele>
        <time>2018-01-06T10:39:50Z</time>
      </trkpt>
      <trkpt lat="46.7417" lon="-1.80911">
        <ele>21</ele>
        <time>2018-01-06T10:40:50Z</time>
      </trkpt>
      <trkpt lat="46.74182" lon="-1.80866">
        <ele>21</ele>
        <time>2018-01-06T10:41:50Z</time>
      </trkpt>
      <trkpt lat="46.74183" lon="-1.8086">
        <ele>21</ele>
        <time>2018-01-06T10:42:50Z</time>
      </trkpt>
      <trkpt lat="46.74185" lon="-1.80851">
        <ele>21</ele>
        <time>2018-01-06T10:43:50Z</time>
      </trkpt>
      <trkpt lat="46.74191" lon="-1.80825">
        <ele>20</ele>
        <time>2018-01-06T10:44:50Z</time>
      </trkpt>
      <trkpt lat="46.74198" lon="-1.80806">
        <ele>20</ele>
        <time>2018-01-06T10:45:50Z</time>
      </trkpt>
      <trkpt lat="46.74204" lon="-1.80789">
        <ele>20</ele>
        <time>2018-01-06T10:46:50Z</time>
      </trkpt>
      <trkpt lat="46.7421" lon="-1.80775">
        <ele>20</ele>
        <time>2018-01-06T10:47:50Z</time>
      </trkpt>
      <trkpt lat="46.74215" lon="-1.80761">
        <ele>19</ele>
        <time>2018-01-06T10:48:50Z</time>
      </trkpt>
      <trkpt lat="46.7422" lon="-1.80751">
        <ele>19</ele>
        <time>2018-01-06T10:49:50Z</time>
      </trkpt>
      <trkpt lat="46.74226" lon="-1.8074">
        <ele>19</ele>
        <time>2018-01-06T10:50:50Z</time>
      </trkpt>
      <trkpt lat="46.74233" lon="-1.80727">
        <ele>19</ele>
        <time>2018-01-06T10:51:50Z</time>
      </trkpt>
      <trkpt lat="46.74254" lon="-1.80694">
        <ele>19</ele>
        <time>2018-01-06T10:52:50Z</time>
      </trkpt>
      <trkpt lat="46.74281" lon="-1.80656">
        <ele>19</ele>
        <time>2018-01-06T10:53:50Z</time>
      </trkpt>
      <trkpt lat="46.74295" lon="-1.80636">
        <ele>19</ele>
        <time>2018-01-06T10:54:50Z</time>
      </trkpt>
      <trkpt lat="46.74303" lon="-1.80624">
        <ele>19</ele>
        <time>2018-01-06T10:55:50Z</time>
      </trkpt>
      <trkpt lat="46.7435" lon="-1.80557">
        <ele>20</ele>
        <time>2018-01-06T10:56:50Z</time>
      </trkpt>
      <trkpt lat="46.74401" lon="-1.80483">
        <ele>20</ele>
        <time>2018-01-06T10:57:50Z</time>
      </trkpt>
      <trkpt lat="46.74446" lon="-1.80418">
        <ele>20</ele>
        <time>2018-01-06T10:58:50Z</time>
      </trkpt>
      <trkpt lat="46.7445" lon="-1.80413">
        <ele>20</ele>
        <time>2018-01-06T10:59:50Z</time>
      </trkpt>
      <trkpt lat="46.7448" lon="-1.80369">
        <ele>19</ele>
        <time>2018-01-06T11:00:50Z</time>
      </trkpt>
      <trkpt lat="46.74508" lon="-1.80327">
        <ele>18</ele>
        <time>2018-01-06T11:01:50Z</time>
      </trkpt>
      <trkpt lat="46.74516" lon="-1.80316">
        <ele>18</ele>
        <time>2018-01-06T11:02:50Z</time>
      </trkpt>
      <trkpt lat="46.7454" lon="-1.80281">
        <ele>18</ele>
        <time>2018-01-06T11:03:50Z</time>
      </trkpt>
      <trkpt lat="46.74557" lon="-1.80255">
        <ele>18</ele>
        <time>2018-01-06T11:04:50Z</time>
      </trkpt>
      <trkpt lat="46.74569" lon="-1.80237">
        <ele>18</ele>
        <time>2018-01-06T11:05:50Z</time>
      </trkpt>
      <trkpt lat="46.74576" lon="-1.80223">
        <ele>18</ele>
        <time>2018-01-06T11:06:50Z</time>
      </trkpt>
      <trkpt lat="46.74582" lon="-1.80208">
        <ele>18</ele>
        <time>2018-01-06T11:07:50Z</time>
      </trkpt>
      <trkpt lat="46.74587" lon="-1.80197">
        <ele>17</ele>
        <time>2018-01-06T11:08:50Z</time>
      </trkpt>
      <trkpt lat="46.74591" lon="-1.80184">
        <ele>17</ele>
        <time>2018-01-06T11:09:50Z</time>
      </trkpt>
      <trkpt lat="46.74594" lon="-1.8017">
        <ele>17</ele>
        <time>2018-01-06T11:10:50Z</time>
      </trkpt>
      <trkpt lat="46.74598" lon="-1.80155">
        <ele>17</ele>
        <time>2018-01-06T11:11:50Z</time>
      </trkpt>
      <trkpt lat="46.74599" lon="-1.80149">
        <ele>17</ele>
        <time>2018-01-06T11:12:50Z</time>
      </trkpt>
      <trkpt lat="46.74601" lon="-1.80134">
        <ele>17</ele>
        <time>2018-01-06T11:13:50Z</time>
      </trkpt>
      <trkpt lat="46.74603" lon="-1.80116">
        <ele>17</ele>
        <time>2018-01-06T11:14:50Z</time>
      </trkpt>
      <trkpt lat="46.74606" lon="-1.80097">
        <ele>17</ele>
        <time>2018-01-06T11:15:50Z</time>
      </trkpt>
      <trkpt lat="46.74608" lon="-1.80068">
        <ele>17</ele>
        <time>2018-01-06T11:16:50Z</time>
      </trkpt>
      <trkpt lat="46.74613" lon="-1.80001">
        <ele>16</ele>
        <time>2018-01-06T11:17:50Z</time>
      </trkpt>
      <trkpt lat="46.74618" lon="-1.79939">
        <ele>15</ele>
        <time>2018-01-06T11:18:50Z</time>
      </trkpt>
      <trkpt lat="46.74621" lon="-1.79889">
        <ele>15</ele>
        <time>2018-01-06T11:19:50Z</time>
      </trkpt>
      <trkpt lat="46.74621" lon="-1.79869">
        <ele>15</ele>
        <time>2018-01-06T11:20:50Z</time>
      </trkpt>
      <trkpt lat="46.74621" lon="-1.79856">
        <ele>15</ele>
        <time>2018-01-06T11:21:50Z</time>
      </trkpt>
      <trkpt lat="46.74621" lon="-1.79854">
        <ele>15</ele>
        <time>2018-01-06T11:22:50Z</time>
      </trkpt>
      <trkpt lat="46.74619" lon="-1.79836">
        <ele>15</ele>
        <time>2018-01-06T11:23:50Z</time>
      </trkpt>
      <trkpt lat="46.74612" lon="-1.79796">
        <ele>15</ele>
        <time>2018-01-06T11:24:50Z</time>
      </trkpt>
      <trkpt lat="46.74607" lon="-1.79767">
        <ele>15</ele>
        <time>2018-01-06T11:25:50Z</time>
      </trkpt>
      <trkpt lat="46.74603" lon="-1.79744">
        <ele>15</ele>
        <time>2018-01-06T11:26:50Z</time>
      </trkpt>
      <trkpt lat="46.74595" lon="-1.79697">
        <ele>16</ele>
        <time>2018-01-06T11:27:50Z</time>
      </trkpt>
      <trkpt lat="46.74587" lon="-1.79644">
        <ele>16</ele>
        <time>2018-01-06T11:28:50Z</time>
      </trkpt>
      <trkpt lat="46.74582" lon="-1.79617">
        <ele>15</ele>
        <time>2018-01-06T11:29:50Z</time>
      </trkpt>
      <trkpt lat="46.7458" lon="-1.79609">
        <ele>15</ele>
        <time>2018-01-06T11:30:50Z</time>
      </trkpt>
      <trkpt lat="46.74577" lon="-1.79599">
        <ele>15</ele>
        <time>2018-01-06T11:31:50Z</time>
      </trkpt>
      <trkpt lat="46.74574" lon="-1.79591">
        <ele>15</ele>
        <time>2018-01-06T11:32:50Z</time>
      </trkpt>
      <trkpt lat="46.74571" lon="-1.79584">
        <ele>15</ele>
        <time>2018-01-06T11:33:50Z</time>
      </trkpt>
      <trkpt lat="46.74566" lon="-1.79571">
        <ele>15</ele>
        <time>2018-01-06T11:34:50Z</time>
      </trkpt>
      <trkpt lat="46.74562" lon="-1.79564">
        <ele>15</ele>
        <time>2018-01-06T11:35:50Z</time>
      </trkpt>
      <trkpt lat="46.74561" lon="-1.7956">
        <ele>15</ele>
        <time>2018-01-06T11:36:50Z</time>
      </trkpt>
      <trkpt lat="46.74559" lon="-1.79553">
        <ele>15</ele>
        <time>2018-01-06T11:37:50Z</time>
      </trkpt>
      <trkpt lat="46.74558" lon="-1.79546">
        <ele>15</ele>
        <time>2018-01-06T11:38:50Z</time>
      </trkpt>
      <trkpt lat="46.74555" lon="-1.79536">
        <ele>15</ele>
        <time>2018-01-06T11:39:50Z</time>
      </trkpt>
      <trkpt lat="46.74553" lon="-1.79525">
        <ele>15</ele>
        <time>2018-01-06T11:40:50Z</time>
      </trkpt>
      <trkpt lat="46.74552" lon="-1.7951">
        <ele>15</ele>
        <time>2018-01-06T11:41:50Z</time>
      </trkpt>
      <trkpt lat="46.74552" lon="-1.7951">
        <ele>15</ele>
        <time>2018-01-06T11:42:50Z</time>
      </trkpt>
      <trkpt lat="46.74548" lon="-1.79503">
        <ele>15</ele>
        <time>2018-01-06T11:43:50Z</time>
      </trkpt>
      <trkpt lat="46.74528" lon="-1.79473">
        <ele>16</ele>
        <time>2018-01-06T11:44:50Z</time>
      </trkpt>
      <trkpt lat="46.7449" lon="-1.79409">
        <ele>17</ele>
        <time>2018-01-06T11:45:50Z</time>
      </trkpt>
      <trkpt lat="46.74469" lon="-1.79377">
        <ele>17</ele>
        <time>2018-01-06T11:46:50Z</time>
      </trkpt>
      <trkpt lat="46.74452" lon="-1.79353">
        <ele>18</ele>
        <time>2018-01-06T11:47:50Z</time>
      </trkpt>
      <trkpt lat="46.74439" lon="-1.79337">
        <ele>18</ele>
        <time>2018-01-06T11:48:50Z</time>
      </trkpt>
      <trkpt lat="46.74426" lon="-1.79323">
        <ele>18</ele>
        <time>2018-01-06T11:49:50Z</time>
      </trkpt>
      <trkpt lat="46.74423" lon="-1.7932">
        <ele>18</ele>
        <time>2018-01-06T11:50:50Z</time>
      </trkpt>
      <trkpt lat="46.7442" lon="-1.79317">
        <ele>19</ele>
        <time>2018-01-06T11:51:50Z</time>
      </trkpt>
      <trkpt lat="46.74416" lon="-1.79313">
        <ele>19</ele>
        <time>2018-01-06T11:52:50Z</time>
      </trkpt>
      <trkpt lat="46.74405" lon="-1.79304">
        <ele>19</ele>
        <time>2018-01-06T11:53:50Z</time>
      </trkpt>
      <trkpt lat="46.74396" lon="-1.79299">
        <ele>19</ele>
        <time>2018-01-06T11:54:50Z</time>
      </trkpt>
      <trkpt lat="46.74387" lon="-1.79294">
        <ele>19</ele>
        <time>2018-01-06T11:55:50Z</time>
      </trkpt>
      <trkpt lat="46.74378" lon="-1.79289">
        <ele>19</ele>
        <time>2018-01-06T11:56:50Z</time>
      </trkpt>
      <trkpt lat="46.74367" lon="-1.79285">
        <ele>20</ele>
        <time>2018-01-06T11:57:50Z</time>
      </trkpt>
      <trkpt lat="46.74356" lon="-1.79281">
        <ele>20</ele>
        <time>2018-01-06T11:58:50Z</time>
      </trkpt>
      <trkpt lat="46.7434" lon="-1.79276">
        <ele>21</ele>
        <time>2018-01-06T11:59:50Z</time>
      </trkpt>
      <trkpt lat="46.74283" lon="-1.79259">
        <ele>22</ele>
        <time>2018-01-06T12:00:50Z</time>
      </trkpt>
      <trkpt lat="46.74255" lon="-1.79251">
        <ele>23</ele>
        <time>2018-01-06T12:01:50Z</time>
      </trkpt>
      <trkpt lat="46.74221" lon="-1.79241">
        <ele>24</ele>
        <time>2018-01-06T12:02:50Z</time>
      </trkpt>
      <trkpt lat="46.74168" lon="-1.79223">
        <ele>24</ele>
        <time>2018-01-06T12:03:50Z</time>
      </trkpt>
      <trkpt lat="46.74136" lon="-1.79214">
        <ele>24</ele>
        <time>2018-01-06T12:04:50Z</time>
      </trkpt>
      <trkpt lat="46.74113" lon="-1.79206">
        <ele>24</ele>
        <time>2018-01-06T12:05:50Z</time>
      </trkpt>
      <trkpt lat="46.74063" lon="-1.7919">
        <ele>23</ele>
        <time>2018-01-06T12:06:50Z</time>
      </trkpt>
      <trkpt lat="46.74042" lon="-1.79183">
        <ele>23</ele>
        <time>2018-01-06T12:07:50Z</time>
      </trkpt>
      <trkpt lat="46.74035" lon="-1.79181">
        <ele>23</ele>
        <time>2018-01-06T12:08:50Z</time>
      </trkpt>
      <trkpt lat="46.74025" lon="-1.79178">
        <ele>23</ele>
        <time>2018-01-06T12:09:50Z</time>
      </trkpt>
      <trkpt lat="46.74023" lon="-1.79177">
        <ele>23</ele>
        <time>2018-01-06T12:10:50Z</time>
      </trkpt>
      <trkpt lat="46.74021" lon="-1.79176">
        <ele>23</ele>
        <time>2018-01-06T12:11:50Z</time>
      </trkpt>
      <trkpt lat="46.74021" lon="-1.79176">
        <ele>23</ele>
        <time>2018-01-06T12:12:50Z</time>
      </trkpt>
      <trkpt lat="46.74022" lon="-1.79166">
        <ele>23</ele>
        <time>2018-01-06T12:13:50Z</time>
      </trkpt>
      <trkpt lat="46.74023" lon="-1.79161">
        <ele>23</ele>
        <time>2018-01-06T12:14:50Z</time>
      </trkpt>
      <trkpt lat="46.74024" lon="-1.79156">
        <ele>23</ele>
        <time>2018-01-06T12:15:50Z</time>
      </trkpt>
      <trkpt lat="46.74026" lon="-1.79136">
        <ele>23</ele>
        <time>2018-01-06T12:16:50Z</time>
      </trkpt>
      <trkpt lat="46.74026" lon="-1.79105">
        <ele>23</ele>
        <time>2018-01-06T12:17:50Z</time>
      </trkpt>
      <trkpt lat="46.74029" lon="-1.7905">
        <ele>23</ele>
        <time>2018-01-06T12:18:50Z</time>
      </trkpt>
      <trkpt lat="46.74029" lon="-1.79017">
        <ele>22</ele>
        <time>2018-01-06T12:19:50Z</time>
      </trkpt>
      <trkpt lat="46.7403" lon="-1.78986">
        <ele>22</ele>
        <time>2018-01-06T12:20:50Z</time>
      </trkpt>
      <trkpt lat="46.74029" lon="-1.78974">
        <ele>22</ele>
        <time>2018-01-06T12:21:50Z</time>
      </trkpt>
      <trkpt lat="46.74029" lon="-1.78959">
        <ele>22</ele>
        <time>2018-01-06T12:22:50Z</time>
      </trkpt>
      <trkpt lat="46.74027" lon="-1.78946">
        <ele>21</ele>
        <time>2018-01-06T12:23:50Z</time>
      </trkpt>
      <trkpt lat="46.74022" lon="-1.78919">
        <ele>21</ele>
        <time>2018-01-06T12:24:50Z</time>
      </trkpt>
      <trkpt lat="46.7401" lon="-1.78872">
        <ele>19</ele>
        <time>2018-01-06T12:25:50Z</time>
      </trkpt>
      <trkpt lat="46.73998" lon="-1.78838">
        <ele>18</ele>
        <time>2018-01-06T12:26:50Z</time>
      </trkpt>
      <trkpt lat="46.73986" lon="-1.78812">
        <ele>17</ele>
        <time>2018-01-06T12:27:50Z</time>
      </trkpt>
      <trkpt lat="46.73985" lon="-1.78809">
        <ele>17</ele>
        <time>2018-01-06T12:28:50Z</time>
      </trkpt>
      <trkpt lat="46.7397" lon="-1.78781">
        <ele>16</ele>
        <time>2018-01-06T12:29:50Z</time>
      </trkpt>
      <trkpt lat="46.73965" lon="-1.7877">
        <ele>16</ele>
        <time>2018-01-06T12:30:50Z</time>
      </trkpt>
      <trkpt lat="46.73959" lon="-1.78761">
        <ele>16</ele>
        <time>2018-01-06T12:31:50Z</time>
      </trkpt>
      <trkpt lat="46.73955" lon="-1.78753">
        <ele>15</ele>
        <time>2018-01-06T12:32:50Z</time>
      </trkpt>
      <trkpt lat="46.73951" lon="-1.78746">
        <ele>15</ele>
        <time>2018-01-06T12:33:50Z</time>
      </trkpt>
      <trkpt lat="46.73949" lon="-1.78739">
        <ele>15</ele>
        <time>2018-01-06T12:34:50Z</time>
      </trkpt>
      <trkpt lat="46.73946" lon="-1.78733">
        <ele>15</ele>
        <time>2018-01-06T12:35:50Z</time>
      </trkpt>
      <trkpt lat="46.73944" lon="-1.78725">
        <ele>15</ele>
        <time>2018-01-06T12:36:50Z</time>
      </trkpt>
      <trkpt lat="46.73943" lon="-1.78717">
        <ele>15</ele>
        <time>2018-01-06T12:37:50Z</time>
      </trkpt>
      <trkpt lat="46.73942" lon="-1.78713">
        <ele>15</ele>
        <time>2018-01-06T12:38:50Z</time>
      </trkpt>
      <trkpt lat="46.73941" lon="-1.78708">
        <ele>15</ele>
        <time>2018-01-06T12:39:50Z</time>
      </trkpt>
      <trkpt lat="46.7394" lon="-1.787">
        <ele>15</ele>
        <time>2018-01-06T12:40:50Z</time>
      </trkpt>
      <trkpt lat="46.73937" lon="-1.7869">
        <ele>15</ele>
        <time>2018-01-06T12:41:50Z</time>
      </trkpt>
      <trkpt lat="46.73933" lon="-1.78681">
        <ele>15</ele>
        <time>2018-01-06T12:42:50Z</time>
      </trkpt>
      <trkpt lat="46.73922" lon="-1.78659">
        <ele>15</ele>
        <time>2018-01-06T12:43:50Z</time>
      </trkpt>
      <trkpt lat="46.73911" lon="-1.78638">
        <ele>15</ele>
        <time>2018-01-06T12:44:50Z</time>
      </trkpt>
      <trkpt lat="46.73901" lon="-1.78617">
        <ele>15</ele>
        <time>2018-01-06T12:45:50Z</time>
      </trkpt>
      <trkpt lat="46.73898" lon="-1.7861">
        <ele>15</ele>
        <time>2018-01-06T12:46:50Z</time>
      </trkpt>
      <trkpt lat="46.73895" lon="-1.78603">
        <ele>15</ele>
        <time>2018-01-06T12:47:50Z</time>
      </trkpt>
      <trkpt lat="46.7389" lon="-1.78591">
        <ele>15</ele>
        <time>2018-01-06T12:48:50Z</time>
      </trkpt>
      <trkpt lat="46.73886" lon="-1.78579">
        <ele>15</ele>
        <time>2018-01-06T12:49:50Z</time>
      </trkpt>
      <trkpt lat="46.73884" lon="-1.78572">
        <ele>15</ele>
        <time>2018-01-06T12:50:50Z</time>
      </trkpt>
      <trkpt lat="46.73879" lon="-1.78557">
        <ele>15</ele>
        <time>2018-01-06T12:51:50Z</time>
      </trkpt>
      <trkpt lat="46.73875" lon="-1.7854">
        <ele>15</ele>
        <time>2018-01-06T12:52:50Z</time>
      </trkpt>
      <trkpt lat="46.73872" lon="-1.78526">
        <ele>15</ele>
        <time>2018-01-06T12:53:50Z</time>
      </trkpt>
      <trkpt lat="46.7387" lon="-1.78512">
        <ele>14</ele>
        <time>2018-01-06T12:54:50Z</time>
      </trkpt>
      <trkpt lat="46.73868" lon="-1.78503">
        <ele>14</ele>
        <time>2018-01-06T12:55:50Z</time>
      </trkpt>
      <trkpt lat="46.73868" lon="-1.78495">
        <ele>14</ele>
        <time>2018-01-06T12:56:50Z</time>
      </trkpt>
      <trkpt lat="46.73866" lon="-1.78483">
        <ele>15</ele>
        <time>2018-01-06T12:57:50Z</time>
      </trkpt>
      <trkpt lat="46.73866" lon="-1.7848">
        <ele>15</ele>
        <time>2018-01-06T12:58:50Z</time>
      </trkpt>
      <trkpt lat="46.73866" lon="-1.78465">
        <ele>15</ele>
        <time>2018-01-06T12:59:50Z</time>
      </trkpt>
      <trkpt lat="46.73866" lon="-1.7845">
        <ele>16</ele>
        <time>2018-01-06T13:00:50Z</time>
      </trkpt>
      <trkpt lat="46.73867" lon="-1.78435">
        <ele>16</ele>
        <time>2018-01-06T13:01:50Z</time>
      </trkpt>
      <trkpt lat="46.73868" lon="-1.78423">
        <ele>16</ele>
        <time>2018-01-06T13:02:50Z</time>
      </trkpt>
      <trkpt lat="46.73869" lon="-1.78415">
        <ele>17</ele>
        <time>2018-01-06T13:03:50Z</time>
      </trkpt>
      <trkpt lat="46.73871" lon="-1.78402">
        <ele>17</ele>
        <time>2018-01-06T13:04:50Z</time>
      </trkpt>
      <trkpt lat="46.73877" lon="-1.78375">
        <ele>19</ele>
        <time>2018-01-06T13:05:50Z</time>
      </trkpt>
      <trkpt lat="46.73884" lon="-1.78341">
        <ele>20</ele>
        <time>2018-01-06T13:06:50Z</time>
      </trkpt>
      <trkpt lat="46.73892" lon="-1.78308">
        <ele>20</ele>
        <time>2018-01-06T13:07:50Z</time>
      </trkpt>
      <trkpt lat="46.73893" lon="-1.78302">
        <ele>20</ele>
        <time>2018-01-06T13:08:50Z</time>
      </trkpt>
      <trkpt lat="46.73895" lon="-1.78298">
        <ele>20</ele>
        <time>2018-01-06T13:09:50Z</time>
      </trkpt>
      <trkpt lat="46.73905" lon="-1.78253">
        <ele>20</ele>
        <time>2018-01-06T13:10:50Z</time>
      </trkpt>
      <trkpt lat="46.73921" lon="-1.78185">
        <ele>20</ele>
        <time>2018-01-06T13:11:50Z</time>
      </trkpt>
      <trkpt lat="46.73925" lon="-1.78164">
        <ele>20</ele>
        <time>2018-01-06T13:12:50Z</time>
      </trkpt>
      <trkpt lat="46.73928" lon="-1.78144">
        <ele>20</ele>
        <time>2018-01-06T13:13:50Z</time>
      </trkpt>
      <trkpt lat="46.73932" lon="-1.78123">
        <ele>20</ele>
        <time>2018-01-06T13:14:50Z</time>
      </trkpt>
      <trkpt lat="46.73933" lon="-1.78105">
        <ele>20</ele>
        <time>2018-01-06T13:15:50Z</time>
      </trkpt>
      <trkpt lat="46.73934" lon="-1.78092">
        <ele>20</ele>
        <time>2018-01-06T13:16:50Z</time>
      </trkpt>
      <trkpt lat="46.73938" lon="-1.78043">
        <ele>20</ele>
        <time>2018-01-06T13:17:50Z</time>
      </trkpt>
      <trkpt lat="46.73939" lon="-1.78038">
        <ele>20</ele>
        <time>2018-01-06T13:18:50Z</time>
      </trkpt>
      <trkpt lat="46.73944" lon="-1.77959">
        <ele>20</ele>
        <time>2018-01-06T13:19:50Z</time>
      </trkpt>
      <trkpt lat="46.7395" lon="-1.77883">
        <ele>19</ele>
        <time>2018-01-06T13:20:50Z</time>
      </trkpt>
      <trkpt lat="46.73954" lon="-1.77822">
        <ele>17</ele>
        <time>2018-01-06T13:21:50Z</time>
      </trkpt>
      <trkpt lat="46.73959" lon="-1.77764">
        <ele>16</ele>
        <time>2018-01-06T13:22:50Z</time>
      </trkpt>
      <trkpt lat="46.73961" lon="-1.77735">
        <ele>16</ele>
        <time>2018-01-06T13:23:50Z</time>
      </trkpt>
      <trkpt lat="46.73965" lon="-1.77681">
        <ele>16</ele>
        <time>2018-01-06T13:24:50Z</time>
      </trkpt>
      <trkpt lat="46.73967" lon="-1.77662">
        <ele>16</ele>
        <time>2018-01-06T13:25:50Z</time>
      </trkpt>
      <trkpt lat="46.73975" lon="-1.77559">
        <ele>16</ele>
        <time>2018-01-06T13:26:50Z</time>
      </trkpt>
      <trkpt lat="46.73977" lon="-1.77528">
        <ele>17</ele>
        <time>2018-01-06T13:27:50Z</time>
      </trkpt>
      <trkpt lat="46.7398" lon="-1.77497">
        <ele>17</ele>
        <time>2018-01-06T13:28:50Z</time>
      </trkpt>
      <trkpt lat="46.73982" lon="-1.7748">
        <ele>17</ele>
        <time>2018-01-06T13:29:50Z</time>
      </trkpt>
      <trkpt lat="46.73986" lon="-1.77462">
        <ele>16</ele>
        <time>2018-01-06T13:30:50Z</time>
      </trkpt>
      <trkpt lat="46.7399" lon="-1.77443">
        <ele>16</ele>
        <time>2018-01-06T13:31:50Z</time>
      </trkpt>
      <trkpt lat="46.73998" lon="-1.77414">
        <ele>16</ele>
        <time>2018-01-06T13:32:50Z</time>
      </trkpt>
      <trkpt lat="46.74017" lon="-1.77356">
        <ele>16</ele>
        <time>2018-01-06T13:33:50Z</time>
      </trkpt>
      <trkpt lat="46.74042" lon="-1.77279">
        <ele>16</ele>
        <time>2018-01-06T13:34:50Z</time>
      </trkpt>
      <trkpt lat="46.74058" lon="-1.77229">
        <ele>16</ele>
        <time>2018-01-06T13:35:50Z</time>
      </trkpt>
      <trkpt lat="46.74079" lon="-1.77166">
        <ele>15</ele>
        <time>2018-01-06T13:36:50Z</time>
      </trkpt>
      <trkpt lat="46.74097" lon="-1.77112">
        <ele>14</ele>
        <time>2018-01-06T13:37:50Z</time>
      </trkpt>
      <trkpt lat="46.74112" lon="-1.77067">
        <ele>12</ele>
        <time>2018-01-06T13:38:50Z</time>
      </trkpt>
      <trkpt lat="46.74122" lon="-1.77035">
        <ele>11</ele>
        <time>2018-01-06T13:39:50Z</time>
      </trkpt>
      <trkpt lat="46.74129" lon="-1.77007">
        <ele>10</ele>
        <time>2018-01-06T13:40:50Z</time>
      </trkpt>
      <trkpt lat="46.74132" lon="-1.76994">
        <ele>10</ele>
        <time>2018-01-06T13:41:50Z</time>
      </trkpt>
      <trkpt lat="46.74135" lon="-1.76981">
        <ele>10</ele>
        <time>2018-01-06T13:42:50Z</time>
      </trkpt>
      <trkpt lat="46.74136" lon="-1.76968">
        <ele>10</ele>
        <time>2018-01-06T13:43:50Z</time>
      </trkpt>
      <trkpt lat="46.74138" lon="-1.76955">
        <ele>10</ele>
        <time>2018-01-06T13:44:50Z</time>
      </trkpt>
      <trkpt lat="46.74139" lon="-1.76937">
        <ele>11</ele>
        <time>2018-01-06T13:45:50Z</time>
      </trkpt>
      <trkpt lat="46.7414" lon="-1.76915">
        <ele>11</ele>
        <time>2018-01-06T13:46:50Z</time>
      </trkpt>
      <trkpt lat="46.7414" lon="-1.76889">
        <ele>11</ele>
        <time>2018-01-06T13:47:50Z</time>
      </trkpt>
      <trkpt lat="46.74139" lon="-1.76781">
        <ele>11</ele>
        <time>2018-01-06T13:48:50Z</time>
      </trkpt>
      <trkpt lat="46.74139" lon="-1.76776">
        <ele>11</ele>
        <time>2018-01-06T13:49:50Z</time>
      </trkpt>
      <trkpt lat="46.74139" lon="-1.76768">
        <ele>10</ele>
        <time>2018-01-06T13:50:50Z</time>
      </trkpt>
      <trkpt lat="46.74139" lon="-1.76723">
        <ele>11</ele>
        <time>2018-01-06T13:51:50Z</time>
      </trkpt>
      <trkpt lat="46.74139" lon="-1.76638">
        <ele>14</ele>
        <time>2018-01-06T13:52:50Z</time>
      </trkpt>
      <trkpt lat="46.74138" lon="-1.76554">
        <ele>16</ele>
        <time>2018-01-06T13:53:50Z</time>
      </trkpt>
      <trkpt lat="46.74139" lon="-1.76446">
        <ele>19</ele>
        <time>2018-01-06T13:54:50Z</time>
      </trkpt>
      <trkpt lat="46.7414" lon="-1.76389">
        <ele>20</ele>
        <time>2018-01-06T13:55:50Z</time>
      </trkpt>
      <trkpt lat="46.74141" lon="-1.7637">
        <ele>21</ele>
        <time>2018-01-06T13:56:50Z</time>
      </trkpt>
      <trkpt lat="46.74141" lon="-1.76353">
        <ele>21</ele>
        <time>2018-01-06T13:57:50Z</time>
      </trkpt>
      <trkpt lat="46.74143" lon="-1.76338">
        <ele>21</ele>
        <time>2018-01-06T13:58:50Z</time>
      </trkpt>
      <trkpt lat="46.74145" lon="-1.76325">
        <ele>22</ele>
        <time>2018-01-06T13:59:50Z</time>
      </trkpt>
      <trkpt lat="46.74146" lon="-1.7631">
        <ele>22</ele>
        <time>2018-01-06T14:00:50Z</time>
      </trkpt>
      <trkpt lat="46.74149" lon="-1.76298">
        <ele>23</ele>
        <time>2018-01-06T14:01:50Z</time>
      </trkpt>
      <trkpt lat="46.74152" lon="-1.76284">
        <ele>23</ele>
        <time>2018-01-06T14:02:50Z</time>
      </trkpt>
      <trkpt lat="46.74156" lon="-1.76271">
        <ele>23</ele>
        <time>2018-01-06T14:03:50Z</time>
      </trkpt>
      <trkpt lat="46.7416" lon="-1.76258">
        <ele>24</ele>
        <time>2018-01-06T14:04:50Z</time>
      </trkpt>
      <trkpt lat="46.74165" lon="-1.76245">
        <ele>24</ele>
        <time>2018-01-06T14:05:50Z</time>
      </trkpt>
      <trkpt lat="46.74169" lon="-1.76234">
        <ele>24</ele>
        <time>2018-01-06T14:06:50Z</time>
      </trkpt>
      <trkpt lat="46.7418" lon="-1.76211">
        <ele>23</ele>
        <time>2018-01-06T14:07:50Z</time>
      </trkpt>
      <trkpt lat="46.74198" lon="-1.76178">
        <ele>22</ele>
        <time>2018-01-06T14:08:50Z</time>
      </trkpt>
      <trkpt lat="46.74218" lon="-1.76144">
        <ele>21</ele>
        <time>2018-01-06T14:09:50Z</time>
      </trkpt>
      <trkpt lat="46.74237" lon="-1.7611">
        <ele>21</ele>
        <time>2018-01-06T14:10:50Z</time>
      </trkpt>
      <trkpt lat="46.7425" lon="-1.76087">
        <ele>21</ele>
        <time>2018-01-06T14:11:50Z</time>
      </trkpt>
      <trkpt lat="46.74262" lon="-1.76064">
        <ele>21</ele>
        <time>2018-01-06T14:12:50Z</time>
      </trkpt>
      <trkpt lat="46.74273" lon="-1.7604">
        <ele>20</ele>
        <time>2018-01-06T14:13:50Z</time>
      </trkpt>
      <trkpt lat="46.74284" lon="-1.76017">
        <ele>20</ele>
        <time>2018-01-06T14:14:50Z</time>
      </trkpt>
      <trkpt lat="46.74294" lon="-1.75991">
        <ele>21</ele>
        <time>2018-01-06T14:15:50Z</time>
      </trkpt>
      <trkpt lat="46.74316" lon="-1.7594">
        <ele>20</ele>
        <time>2018-01-06T14:16:50Z</time>
      </trkpt>
      <trkpt lat="46.74359" lon="-1.75834">
        <ele>20</ele>
        <time>2018-01-06T14:17:50Z</time>
      </trkpt>
      <trkpt lat="46.74383" lon="-1.75777">
        <ele>20</ele>
        <time>2018-01-06T14:18:50Z</time>
      </trkpt>
      <trkpt lat="46.74404" lon="-1.75728">
        <ele>20</ele>
        <time>2018-01-06T14:19:50Z</time>
      </trkpt>
      <trkpt lat="46.74421" lon="-1.75687">
        <ele>20</ele>
        <time>2018-01-06T14:20:50Z</time>
      </trkpt>
      <trkpt lat="46.74438" lon="-1.75646">
        <ele>21</ele>
        <time>2018-01-06T14:21:50Z</time>
      </trkpt>
      <trkpt lat="46.74458" lon="-1.756">
        <ele>20</ele>
        <time>2018-01-06T14:22:50Z</time>
      </trkpt>
      <trkpt lat="46.74503" lon="-1.75493">
        <ele>23</ele>
        <time>2018-01-06T14:23:50Z</time>
      </trkpt>
      <trkpt lat="46.74531" lon="-1.75427">
        <ele>23</ele>
        <time>2018-01-06T14:24:50Z</time>
      </trkpt>
      <trkpt lat="46.74557" lon="-1.75364">
        <ele>24</ele>
        <time>2018-01-06T14:25:50Z</time>
      </trkpt>
      <trkpt lat="46.74569" lon="-1.75336">
        <ele>24</ele>
        <time>2018-01-06T14:26:50Z</time>
      </trkpt>
      <trkpt lat="46.74578" lon="-1.75313">
        <ele>24</ele>
        <time>2018-01-06T14:27:50Z</time>
      </trkpt>
      <trkpt lat="46.74585" lon="-1.75294">
        <ele>24</ele>
        <time>2018-01-06T14:28:50Z</time>
      </trkpt>
      <trkpt lat="46.7459" lon="-1.75279">
        <ele>24</ele>
        <time>2018-01-06T14:29:50Z</time>
      </trkpt>
      <trkpt lat="46.74594" lon="-1.75262">
        <ele>24</ele>
        <time>2018-01-06T14:30:50Z</time>
      </trkpt>
      <trkpt lat="46.74601" lon="-1.75236">
        <ele>24</ele>
        <time>2018-01-06T14:31:50Z</time>
      </trkpt>
      <trkpt lat="46.74608" lon="-1.75205">
        <ele>25</ele>
        <time>2018-01-06T14:32:50Z</time>
      </trkpt>
      <trkpt lat="46.74618" lon="-1.75155">
        <ele>26</ele>
        <time>2018-01-06T14:33:50Z</time>
      </trkpt>
      <trkpt lat="46.74628" lon="-1.751">
        <ele>26</ele>
        <time>2018-01-06T14:34:50Z</time>
      </trkpt>
      <trkpt lat="46.74635" lon="-1.75056">
        <ele>25</ele>
        <time>2018-01-06T14:35:50Z</time>
      </trkpt>
      <trkpt lat="46.7464" lon="-1.75028">
        <ele>24</ele>
        <time>2018-01-06T14:36:50Z</time>
      </trkpt>
      <trkpt lat="46.74643" lon="-1.75013">
        <ele>23</ele>
        <time>2018-01-06T14:37:50Z</time>
      </trkpt>
      <trkpt lat="46.74645" lon="-1.74999">
        <ele>23</ele>
        <time>2018-01-06T14:38:50Z</time>
      </trkpt>
      <trkpt lat="46.74647" lon="-1.74984">
        <ele>23</ele>
        <time>2018-01-06T14:39:50Z</time>
      </trkpt>
      <trkpt lat="46.74648" lon="-1.7497">
        <ele>23</ele>
        <time>2018-01-06T14:40:50Z</time>
      </trkpt>
      <trkpt lat="46.74649" lon="-1.74956">
        <ele>23</ele>
        <time>2018-01-06T14:41:50Z</time>
      </trkpt>
      <trkpt lat="46.7465" lon="-1.74942">
        <ele>22</ele>
        <time>2018-01-06T14:42:50Z</time>
      </trkpt>
      <trkpt lat="46.74651" lon="-1.74928">
        <ele>22</ele>
        <time>2018-01-06T14:43:50Z</time>
      </trkpt>
      <trkpt lat="46.74651" lon="-1.74914">
        <ele>22</ele>
        <time>2018-01-06T14:44:50Z</time>
      </trkpt>
      <trkpt lat="46.7465" lon="-1.749">
        <ele>23</ele>
        <time>2018-01-06T14:45:50Z</time>
      </trkpt>
      <trkpt lat="46.7465" lon="-1.74887">
        <ele>23</ele>
        <time>2018-01-06T14:46:50Z</time>
      </trkpt>
      <trkpt lat="46.74649" lon="-1.74874">
        <ele>23</ele>
        <time>2018-01-06T14:47:50Z</time>
      </trkpt>
      <trkpt lat="46.74647" lon="-1.74852">
        <ele>24</ele>
        <time>2018-01-06T14:48:50Z</time>
      </trkpt>
      <trkpt lat="46.74642" lon="-1.74826">
        <ele>25</ele>
        <time>2018-01-06T14:49:50Z</time>
      </trkpt>
      <trkpt lat="46.74637" lon="-1.74797">
        <ele>25</ele>
        <time>2018-01-06T14:50:50Z</time>
      </trkpt>
      <trkpt lat="46.74631" lon="-1.74766">
        <ele>25</ele>
        <time>2018-01-06T14:51:50Z</time>
      </trkpt>
      <trkpt lat="46.74622" lon="-1.74719">
        <ele>25</ele>
        <time>2018-01-06T14:52:50Z</time>
      </trkpt>
      <trkpt lat="46.74617" lon="-1.74692">
        <ele>25</ele>
        <time>2018-01-06T14:53:50Z</time>
      </trkpt>
      <trkpt lat="46.74611" lon="-1.74666">
        <ele>25</ele>
        <time>2018-01-06T14:54:50Z</time>
      </trkpt>
      <trkpt lat="46.74607" lon="-1.74642">
        <ele>25</ele>
        <time>2018-01-06T14:55:50Z</time>
      </trkpt>
      <trkpt lat="46.74603" lon="-1.74617">
        <ele>24</ele>
        <time>2018-01-06T14:56:50Z</time>
      </trkpt>
      <trkpt lat="46.746" lon="-1.74603">
        <ele>24</ele>
        <time>2018-01-06T14:57:50Z</time>
      </trkpt>
      <trkpt lat="46.74599" lon="-1.74596">
        <ele>24</ele>
        <time>2018-01-06T14:58:50Z</time>
      </trkpt>
      <trkpt lat="46.74597" lon="-1.74586">
        <ele>24</ele>
        <time>2018-01-06T14:59:50Z</time>
      </trkpt>
      <trkpt lat="46.74597" lon="-1.74586">
        <ele>24</ele>
        <time>2018-01-06T15:00:50Z</time>
      </trkpt>
      <trkpt lat="46.74603" lon="-1.74581">
        <ele>24</ele>
        <time>2018-01-06T15:01:50Z</time>
      </trkpt>
      <trkpt lat="46.74606" lon="-1.74576">
        <ele>23</ele>
        <time>2018-01-06T15:02:50Z</time>
      </trkpt>
      <trkpt lat="46.74617" lon="-1.74563">
        <ele>22</ele>
        <time>2018-01-06T15:03:50Z</time>
      </trkpt>
      <trkpt lat="46.74631" lon="-1.74544">
        <ele>21</ele>
        <time>2018-01-06T15:04:50Z</time>
      </trkpt>
      <trkpt lat="46.74667" lon="-1.74493">
        <ele>20</ele>
        <time>2018-01-06T15:05:50Z</time>
      </trkpt>
      <trkpt lat="46.74688" lon="-1.74462">
        <ele>19</ele>
        <time>2018-01-06T15:06:50Z</time>
      </trkpt>
      <trkpt lat="46.74699" lon="-1.74442">
        <ele>18</ele>
        <time>2018-01-06T15:07:50Z</time>
      </trkpt>
      <trkpt lat="46.74707" lon="-1.74428">
        <ele>18</ele>
        <time>2018-01-06T15:08:50Z</time>
      </trkpt>
      <trkpt lat="46.74715" lon="-1.74412">
        <ele>17</ele>
        <time>2018-01-06T15:09:50Z</time>
      </trkpt>
      <trkpt lat="46.74719" lon="-1.74402">
        <ele>17</ele>
        <time>2018-01-06T15:10:50Z</time>
      </trkpt>
      <trkpt lat="46.74724" lon="-1.74388">
        <ele>17</ele>
        <time>2018-01-06T15:11:50Z</time>
      </trkpt>
      <trkpt lat="46.74729" lon="-1.74372">
        <ele>16</ele>
        <time>2018-01-06T15:12:50Z</time>
      </trkpt>
      <trkpt lat="46.74732" lon="-1.74359">
        <ele>16</ele>
        <time>2018-01-06T15:13:50Z</time>
      </trkpt>
      <trkpt lat="46.74735" lon="-1.74347">
        <ele>15</ele>
        <time>2018-01-06T15:14:50Z</time>
      </trkpt>
      <trkpt lat="46.74738" lon="-1.74327">
        <ele>14</ele>
        <time>2018-01-06T15:15:50Z</time>
      </trkpt>
      <trkpt lat="46.74739" lon="-1.74314">
        <ele>14</ele>
        <time>2018-01-06T15:16:50Z</time>
      </trkpt>
      <trkpt lat="46.7474" lon="-1.743">
        <ele>14</ele>
        <time>2018-01-06T15:17:50Z</time>
      </trkpt>
      <trkpt lat="46.74741" lon="-1.74282">
        <ele>14</ele>
        <time>2018-01-06T15:18:50Z</time>
      </trkpt>
      <trkpt lat="46.74742" lon="-1.74239">
        <ele>14</ele>
        <time>2018-01-06T15:19:50Z</time>
      </trkpt>
      <trkpt lat="46.74741" lon="-1.74229">
        <ele>14</ele>
        <time>2018-01-06T15:20:50Z</time>
      </trkpt>
      <trkpt lat="46.7474" lon="-1.74216">
        <ele>13</ele>
        <time>2018-01-06T15:21:50Z</time>
      </trkpt>
      <trkpt lat="46.74738" lon="-1.74205">
        <ele>13</ele>
        <time>2018-01-06T15:22:50Z</time>
      </trkpt>
      <trkpt lat="46.74736" lon="-1.74196">
        <ele>13</ele>
        <time>2018-01-06T15:23:50Z</time>
      </trkpt>
      <trkpt lat="46.74734" lon="-1.74192">
        <ele>13</ele>
        <time>2018-01-06T15:24:50Z</time>
      </trkpt>
      <trkpt lat="46.74732" lon="-1.74188">
        <ele>13</ele>
        <time>2018-01-06T15:25:50Z</time>
      </trkpt>
      <trkpt lat="46.74729" lon="-1.74181">
        <ele>13</ele>
        <time>2018-01-06T15:26:50Z</time>
      </trkpt>
      <trkpt lat="46.74733" lon="-1.74169">
        <ele>13</ele>
        <time>2018-01-06T15:27:50Z</time>
      </trkpt>
      <trkpt lat="46.74735" lon="-1.74165">
        <ele>12</ele>
        <time>2018-01-06T15:28:50Z</time>
      </trkpt>
      <trkpt lat="46.74736" lon="-1.74163">
        <ele>12</ele>
        <time>2018-01-06T15:29:50Z</time>
      </trkpt>
      <trkpt lat="46.74756" lon="-1.74143">
        <ele>11</ele>
        <time>2018-01-06T15:30:50Z</time>
      </trkpt>
      <trkpt lat="46.74762" lon="-1.74138">
        <ele>12</ele>
        <time>2018-01-06T15:31:50Z</time>
      </trkpt>
      <trkpt lat="46.7477" lon="-1.74131">
        <ele>12</ele>
        <time>2018-01-06T15:32:50Z</time>
      </trkpt>
      <trkpt lat="46.74778" lon="-1.74124">
        <ele>13</ele>
        <time>2018-01-06T15:33:50Z</time>
      </trkpt>
      <trkpt lat="46.74787" lon="-1.74117">
        <ele>13</ele>
        <time>2018-01-06T15:34:50Z</time>
      </trkpt>
      <trkpt lat="46.748" lon="-1.74108">
        <ele>14</ele>
        <time>2018-01-06T15:35:50Z</time>
      </trkpt>
      <trkpt lat="46.74805" lon="-1.74105">
        <ele>14</ele>
        <time>2018-01-06T15:36:50Z</time>
      </trkpt>
      <trkpt lat="46.74807" lon="-1.74104">
        <ele>15</ele>
        <time>2018-01-06T15:37:50Z</time>
      </trkpt>
      <trkpt lat="46.7481" lon="-1.74103">
        <ele>15</ele>
        <time>2018-01-06T15:38:50Z</time>
      </trkpt>
      <trkpt lat="46.74816" lon="-1.741">
        <ele>15</ele>
        <time>2018-01-06T15:39:50Z</time>
      </trkpt>
      <trkpt lat="46.74838" lon="-1.7409">
        <ele>17</ele>
        <time>2018-01-06T15:40:50Z</time>
      </trkpt>
      <trkpt lat="46.74839" lon="-1.74089">
        <ele>17</ele>
        <time>2018-01-06T15:41:50Z</time>
      </trkpt>
      <trkpt lat="46.74841" lon="-1.74088">
        <ele>17</ele>
        <time>2018-01-06T15:42:50Z</time>
      </trkpt>
      <trkpt lat="46.74851" lon="-1.74084">
        <ele>18</ele>
        <time>2018-01-06T15:43:50Z</time>
      </trkpt>
      <trkpt lat="46.74855" lon="-1.74083">
        <ele>19</ele>
        <time>2018-01-06T15:44:50Z</time>
      </trkpt>
      <trkpt lat="46.74862" lon="-1.7408">
        <ele>19</ele>
        <time>2018-01-06T15:45:50Z</time>
      </trkpt>
      <trkpt lat="46.74934" lon="-1.74049">
        <ele>25</ele>
        <time>2018-01-06T15:46:50Z</time>
      </trkpt>
      <trkpt lat="46.74938" lon="-1.74047">
        <ele>25</ele>
        <time>2018-01-06T15:47:50Z</time>
      </trkpt>
      <trkpt lat="46.74942" lon="-1.74045">
        <ele>25</ele>
        <time>2018-01-06T15:48:50Z</time>
      </trkpt>
      <trkpt lat="46.74963" lon="-1.74029">
        <ele>27</ele>
        <time>2018-01-06T15:49:50Z</time>
      </trkpt>
      <trkpt lat="46.74966" lon="-1.74027">
        <ele>27</ele>
        <time>2018-01-06T15:50:50Z</time>
      </trkpt>
      <trkpt lat="46.74973" lon="-1.7402">
        <ele>27</ele>
        <time>2018-01-06T15:51:50Z</time>
      </trkpt>
      <trkpt lat="46.74973" lon="-1.7402">
        <ele>27</ele>
        <time>2018-01-06T15:52:50Z</time>
      </trkpt>
      <trkpt lat="46.74944" lon="-1.73979">
        <ele>28</ele>
        <time>2018-01-06T15:53:50Z</time>
      </trkpt>
      <trkpt lat="46.74941" lon="-1.73975">
        <ele>28</ele>
        <time>2018-01-06T15:54:50Z</time>
      </trkpt>
      <trkpt lat="46.74937" lon="-1.73972">
        <ele>28</ele>
        <time>2018-01-06T15:55:50Z</time>
      </trkpt>
      <trkpt lat="46.74933" lon="-1.7397">
        <ele>28</ele>
        <time>2018-01-06T15:56:50Z</time>
      </trkpt>
      <trkpt lat="46.7493" lon="-1.73969">
        <ele>27</ele>
        <time>2018-01-06T15:57:50Z</time>
      </trkpt>
      <trkpt lat="46.74925" lon="-1.73968">
        <ele>27</ele>
        <time>2018-01-06T15:58:50Z</time>
      </trkpt>
      <trkpt lat="46.74921" lon="-1.73967">
        <ele>27</ele>
        <time>2018-01-06T15:59:50Z</time>
      </trkpt>
      <trkpt lat="46.74917" lon="-1.73966">
        <ele>27</ele>
        <time>2018-01-06T16:00:50Z</time>
      </trkpt>
      <trkpt lat="46.74912" lon="-1.73965">
        <ele>27</ele>
        <time>2018-01-06T16:01:50Z</time>
      </trkpt>
      <trkpt lat="46.74908" lon="-1.73962">
        <ele>27</ele>
        <time>2018-01-06T16:02:50Z</time>
      </trkpt>
      <trkpt lat="46.74904" lon="-1.73959">
        <ele>27</ele>
        <time>2018-01-06T16:03:50Z</time>
      </trkpt>
      <trkpt lat="46.74897" lon="-1.73949">
        <ele>28</ele>
        <time>2018-01-06T16:04:50Z</time>
      </trkpt>
      <trkpt lat="46.7489" lon="-1.73938">
        <ele>28</ele>
        <time>2018-01-06T16:05:50Z</time>
      </trkpt>
      <trkpt lat="46.74885" lon="-1.73926">
        <ele>29</ele>
        <time>2018-01-06T16:06:50Z</time>
      </trkpt>
      <trkpt lat="46.74882" lon="-1.7392">
        <ele>29</ele>
        <time>2018-01-06T16:07:50Z</time>
      </trkpt>
      <trkpt lat="46.74876" lon="-1.73908">
        <ele>29</ele>
        <time>2018-01-06T16:08:50Z</time>
      </trkpt>
      <trkpt lat="46.74875" lon="-1.73905">
        <ele>29</ele>
        <time>2018-01-06T16:09:50Z</time>
      </trkpt>
      <trkpt lat="46.74872" lon="-1.73903">
        <ele>29</ele>
        <time>2018-01-06T16:10:50Z</time>
      </trkpt>
      <trkpt lat="46.74871" lon="-1.73902">
        <ele>29</ele>
        <time>2018-01-06T16:11:50Z</time>
      </trkpt>
      <trkpt lat="46.74864" lon="-1.73883">
        <ele>30</ele>
        <time>2018-01-06T16:12:50Z</time>
      </trkpt>
      <trkpt lat="46.74864" lon="-1.73883">
        <ele>30</ele>
        <time>2018-01-06T16:13:50Z</time>
      </trkpt>
      <trkpt lat="46.74863" lon="-1.73883">
        <ele>30</ele>
        <time>2018-01-06T16:14:50Z</time>
      </trkpt>
      <trkpt lat="46.74863" lon="-1.73882">
        <ele>30</ele>
        <time>2018-01-06T16:15:50Z</time>
      </trkpt>
      <trkpt lat="46.74862" lon="-1.73882">
        <ele>30</ele>
        <time>2018-01-06T16:16:50Z</time>
      </trkpt>
      <trkpt lat="46.74861" lon="-1.73881">
        <ele>30</ele>
        <time>2018-01-06T16:17:50Z</time>
      </trkpt>
      <trkpt lat="46.7486" lon="-1.73881">
        <ele>30</ele>
        <time>2018-01-06T16:18:50Z</time>
      </trkpt>
      <trkpt lat="46.7486" lon="-1.7388">
        <ele>30</ele>
        <time>2018-01-06T16:19:50Z</time>
      </trkpt>
      <trkpt lat="46.74859" lon="-1.73879">
        <ele>30</ele>
        <time>2018-01-06T16:20:50Z</time>
      </trkpt>
      <trkpt lat="46.74859" lon="-1.73878">
        <ele>30</ele>
        <time>2018-01-06T16:21:50Z</time>
      </trkpt>
      <trkpt lat="46.74858" lon="-1.73878">
        <ele>30</ele>
        <time>2018-01-06T16:22:50Z</time>
      </trkpt>
      <trkpt lat="46.74858" lon="-1.73877">
        <ele>30</ele>
        <time>2018-01-06T16:23:50Z</time>
      </trkpt>
      <trkpt lat="46.74858" lon="-1.73876">
        <ele>30</ele>
        <time>2018-01-06T16:24:50Z</time>
      </trkpt>
      <trkpt lat="46.74858" lon="-1.73875">
        <ele>30</ele>
        <time>2018-01-06T16:25:50Z</time>
      </trkpt>
      <trkpt lat="46.74857" lon="-1.73875">
        <ele>30</ele>
        <time>2018-01-06T16:26:50Z</time>
      </trkpt>
      <trkpt lat="46.74857" lon="-1.73874">
        <ele>30</ele>
        <time>2018-01-06T16:27:50Z</time>
      </trkpt>
      <trkpt lat="46.74857" lon="-1.73873">
        <ele>30</ele>
        <time>2018-01-06T16:28:50Z</time>
      </trkpt>
      <trkpt lat="46.74857" lon="-1.73872">
        <ele>30</ele>
        <time>2018-01-06T16:29:50Z</time>
      </trkpt>
      <trkpt lat="46.74857" lon="-1.73871">
        <ele>30</ele>
        <time>2018-01-06T16:30:50Z</time>
      </trkpt>
      <trkpt lat="46.74857" lon="-1.7387">
        <ele>30</ele>
        <time>2018-01-06T16:31:50Z</time>
      </trkpt>
      <trkpt lat="46.74858" lon="-1.7387">
        <ele>30</ele>
        <time>2018-01-06T16:32:50Z</time>
      </trkpt>
      <trkpt lat="46.74858" lon="-1.73869">
        <ele>30</ele>
        <time>2018-01-06T16:33:50Z</time>
      </trkpt>
      <trkpt lat="46.74858" lon="-1.73868">
        <ele>30</ele>
        <time>2018-01-06T16:34:50Z</time>
      </trkpt>
      <trkpt lat="46.74858" lon="-1.73867">
        <ele>30</ele>
        <time>2018-01-06T16:35:50Z</time>
      </trkpt>
      <trkpt lat="46.74859" lon="-1.73867">
        <ele>30</ele>
        <time>2018-01-06T16:36:50Z</time>
      </trkpt>
      <trkpt lat="46.74859" lon="-1.73866">
        <ele>30</ele>
        <time>2018-01-06T16:37:50Z</time>
      </trkpt>
      <trkpt lat="46.7486" lon="-1.73865">
        <ele>30</ele>
        <time>2018-01-06T16:38:50Z</time>
      </trkpt>
      <trkpt lat="46.74861" lon="-1.73864">
        <ele>30</ele>
        <time>2018-01-06T16:39:50Z</time>
      </trkpt>
      <trkpt lat="46.74862" lon="-1.73864">
        <ele>30</ele>
        <time>2018-01-06T16:40:50Z</time>
      </trkpt>
      <trkpt lat="46.74862" lon="-1.73863">
        <ele>30</ele>
        <time>2018-01-06T16:41:50Z</time>
      </trkpt>
      <trkpt lat="46.74863" lon="-1.73863">
        <ele>30</ele>
        <time>2018-01-06T16:42:50Z</time>
      </trkpt>
      <trkpt lat="46.74864" lon="-1.73863">
        <ele>30</ele>
        <time>2018-01-06T16:43:50Z</time>
      </trkpt>
      <trkpt lat="46.74865" lon="-1.73863">
        <ele>31</ele>
        <time>2018-01-06T16:44:50Z</time>
      </trkpt>
      <trkpt lat="46.74866" lon="-1.73863">
        <ele>31</ele>
        <time>2018-01-06T16:45:50Z</time>
      </trkpt>
      <trkpt lat="46.74867" lon="-1.73863">
        <ele>31</ele>
        <time>2018-01-06T16:46:50Z</time>
      </trkpt>
      <trkpt lat="46.74868" lon="-1.73863">
        <ele>31</ele>
        <time>2018-01-06T16:47:50Z</time>
      </trkpt>
      <trkpt lat="46.74873" lon="-1.7386">
        <ele>31</ele>
        <time>2018-01-06T16:48:50Z</time>
      </trkpt>
      <trkpt lat="46.74877" lon="-1.73856">
        <ele>31</ele>
        <time>2018-01-06T16:49:50Z</time>
      </trkpt>
      <trkpt lat="46.74883" lon="-1.73854">
        <ele>32</ele>
        <time>2018-01-06T16:50:50Z</time>
      </trkpt>
      <trkpt lat="46.74908" lon="-1.73846">
        <ele>33</ele>
        <time>2018-01-06T16:51:50Z</time>
      </trkpt>
      <trkpt lat="46.74991" lon="-1.73849">
        <ele>38</ele>
        <time>2018-01-06T16:52:50Z</time>
      </trkpt>
      <trkpt lat="46.75012" lon="-1.73852">
        <ele>38</ele>
        <time>2018-01-06T16:53:50Z</time>
      </trkpt>
      <trkpt lat="46.75026" lon="-1.73853">
        <ele>39</ele>
        <time>2018-01-06T16:54:50Z</time>
      </trkpt>
      <trkpt lat="46.75035" lon="-1.73853">
        <ele>39</ele>
        <time>2018-01-06T16:55:50Z</time>
      </trkpt>
      <trkpt lat="46.75041" lon="-1.73853">
        <ele>40</ele>
        <time>2018-01-06T16:56:50Z</time>
      </trkpt>
      <trkpt lat="46.75118" lon="-1.73846">
        <ele>43</ele>
        <time>2018-01-06T16:57:50Z</time>
      </trkpt>
      <trkpt lat="46.75133" lon="-1.73845">
        <ele>44</ele>
        <time>2018-01-06T16:58:50Z</time>
      </trkpt>
      <trkpt lat="46.75153" lon="-1.73848">
        <ele>45</ele>
        <time>2018-01-06T16:59:50Z</time>
      </trkpt>
      <trkpt lat="46.75169" lon="-1.73854">
        <ele>46</ele>
        <time>2018-01-06T17:00:50Z</time>
      </trkpt>
      <trkpt lat="46.75183" lon="-1.73862">
        <ele>46</ele>
        <time>2018-01-06T17:01:50Z</time>
      </trkpt>
      <trkpt lat="46.75201" lon="-1.73873">
        <ele>46</ele>
        <time>2018-01-06T17:02:50Z</time>
      </trkpt>
      <trkpt lat="46.75211" lon="-1.73882">
        <ele>46</ele>
        <time>2018-01-06T17:03:50Z</time>
      </trkpt>
      <trkpt lat="46.75211" lon="-1.73882">
        <ele>46</ele>
        <time>2018-01-06T17:04:50Z</time>
      </trkpt>
      <trkpt lat="46.75216" lon="-1.73867">
        <ele>47</ele>
        <time>2018-01-06T17:05:50Z</time>
      </trkpt>
      <trkpt lat="46.75226" lon="-1.73846">
        <ele>47</ele>
        <time>2018-01-06T17:06:50Z</time>
      </trkpt>
      <trkpt lat="46.75243" lon="-1.7381">
        <ele>48</ele>
        <time>2018-01-06T17:07:50Z</time>
      </trkpt>
      <trkpt lat="46.75247" lon="-1.738">
        <ele>49</ele>
        <time>2018-01-06T17:08:50Z</time>
      </trkpt>
      <trkpt lat="46.75259" lon="-1.73776">
        <ele>50</ele>
        <time>2018-01-06T17:09:50Z</time>
      </trkpt>
      <trkpt lat="46.75268" lon="-1.73759">
        <ele>50</ele>
        <time>2018-01-06T17:10:50Z</time>
      </trkpt>
      <trkpt lat="46.75271" lon="-1.73754">
        <ele>50</ele>
        <time>2018-01-06T17:11:50Z</time>
      </trkpt>
      <trkpt lat="46.75276" lon="-1.73746">
        <ele>50</ele>
        <time>2018-01-06T17:12:50Z</time>
      </trkpt>
      <trkpt lat="46.75285" lon="-1.73733">
        <ele>51</ele>
        <time>2018-01-06T17:13:50Z</time>
      </trkpt>
      <trkpt lat="46.75292" lon="-1.73721">
        <ele>51</ele>
        <time>2018-01-06T17:14:50Z</time>
      </trkpt>
      <trkpt lat="46.75301" lon="-1.73709">
        <ele>51</ele>
        <time>2018-01-06T17:15:50Z</time>
      </trkpt>
      <trkpt lat="46.75305" lon="-1.73703">
        <ele>51</ele>
        <time>2018-01-06T17:16:50Z</time>
      </trkpt>
      <trkpt lat="46.75309" lon="-1.73698">
        <ele>51</ele>
        <time>2018-01-06T17:17:50Z</time>
      </trkpt>
      <trkpt lat="46.75319" lon="-1.73686">
        <ele>52</ele>
        <time>2018-01-06T17:18:50Z</time>
      </trkpt>
      <trkpt lat="46.75329" lon="-1.73675">
        <ele>52</ele>
        <time>2018-01-06T17:19:50Z</time>
      </trkpt>
      <trkpt lat="46.75344" lon="-1.73658">
        <ele>52</ele>
        <time>2018-01-06T17:20:50Z</time>
      </trkpt>
      <trkpt lat="46.7539" lon="-1.73612">
        <ele>53</ele>
        <time>2018-01-06T17:21:50Z</time>
      </trkpt>
      <trkpt lat="46.7541" lon="-1.73592">
        <ele>53</ele>
        <time>2018-01-06T17:22:50Z</time>
      </trkpt>
      <trkpt lat="46.75442" lon="-1.73561">
        <ele>54</ele>
        <time>2018-01-06T17:23:50Z</time>
      </trkpt>
      <trkpt lat="46.75452" lon="-1.7355">
        <ele>54</ele>
        <time>2018-01-06T17:24:50Z</time>
      </trkpt>
      <trkpt lat="46.75488" lon="-1.73511">
        <ele>56</ele>
        <time>2018-01-06T17:25:50Z</time>
      </trkpt>
      <trkpt lat="46.75511" lon="-1.73485">
        <ele>56</ele>
        <time>2018-01-06T17:26:50Z</time>
      </trkpt>
      <trkpt lat="46.75518" lon="-1.73476">
        <ele>56</ele>
        <time>2018-01-06T17:27:50Z</time>
      </trkpt>
      <trkpt lat="46.75524" lon="-1.73468">
        <ele>56</ele>
        <time>2018-01-06T17:28:50Z</time>
      </trkpt>
      <trkpt lat="46.75529" lon="-1.73461">
        <ele>56</ele>
        <time>2018-01-06T17:29:50Z</time>
      </trkpt>
      <trkpt lat="46.75534" lon="-1.73455">
        <ele>56</ele>
        <time>2018-01-06T17:30:50Z</time>
      </trkpt>
      <trkpt lat="46.75538" lon="-1.73448">
        <ele>56</ele>
        <time>2018-01-06T17:31:50Z</time>
      </trkpt>
      <trkpt lat="46.75541" lon="-1.73445">
        <ele>56</ele>
        <time>2018-01-06T17:32:50Z</time>
      </trkpt>
      <trkpt lat="46.75544" lon="-1.73439">
        <ele>56</ele>
        <time>2018-01-06T17:33:50Z</time>
      </trkpt>
      <trkpt lat="46.75553" lon="-1.73423">
        <ele>56</ele>
        <time>2018-01-06T17:34:50Z</time>
      </trkpt>
      <trkpt lat="46.75555" lon="-1.73418">
        <ele>56</ele>
        <time>2018-01-06T17:35:50Z</time>
      </trkpt>
      <trkpt lat="46.75557" lon="-1.73412">
        <ele>56</ele>
        <time>2018-01-06T17:36:50Z</time>
      </trkpt>
      <trkpt lat="46.7556" lon="-1.73403">
        <ele>56</ele>
        <time>2018-01-06T17:37:50Z</time>
      </trkpt>
      <trkpt lat="46.75564" lon="-1.7339">
        <ele>56</ele>
        <time>2018-01-06T17:38:50Z</time>
      </trkpt>
      <trkpt lat="46.75567" lon="-1.73377">
        <ele>56</ele>
        <time>2018-01-06T17:39:50Z</time>
      </trkpt>
      <trkpt lat="46.75575" lon="-1.73341">
        <ele>57</ele>
        <time>2018-01-06T17:40:50Z</time>
      </trkpt>
      <trkpt lat="46.75589" lon="-1.73274">
        <ele>56</ele>
        <time>2018-01-06T17:41:50Z</time>
      </trkpt>
      <trkpt lat="46.75598" lon="-1.73226">
        <ele>55</ele>
        <time>2018-01-06T17:42:50Z</time>
      </trkpt>
      <trkpt lat="46.75608" lon="-1.73181">
        <ele>54</ele>
        <time>2018-01-06T17:43:50Z</time>
      </trkpt>
      <trkpt lat="46.75612" lon="-1.73156">
        <ele>54</ele>
        <time>2018-01-06T17:44:50Z</time>
      </trkpt>
      <trkpt lat="46.75617" lon="-1.73128">
        <ele>54</ele>
        <time>2018-01-06T17:45:50Z</time>
      </trkpt>
      <trkpt lat="46.75616" lon="-1.7312">
        <ele>54</ele>
        <time>2018-01-06T17:46:50Z</time>
      </trkpt>
      <trkpt lat="46.75618" lon="-1.73089">
        <ele>53</ele>
        <time>2018-01-06T17:47:50Z</time>
      </trkpt>
      <trkpt lat="46.75616" lon="-1.73087">
        <ele>53</ele>
        <time>2018-01-06T17:48:50Z</time>
      </trkpt>
      <trkpt lat="46.75615" lon="-1.73085">
        <ele>53</ele>
        <time>2018-01-06T17:49:50Z</time>
      </trkpt>
      <trkpt lat="46.75614" lon="-1.73083">
        <ele>53</ele>
        <time>2018-01-06T17:50:50Z</time>
      </trkpt>
      <trkpt lat="46.75614" lon="-1.73082">
        <ele>53</ele>
        <time>2018-01-06T17:51:50Z</time>
      </trkpt>
      <trkpt lat="46.75614" lon="-1.73081">
        <ele>53</ele>
        <time>2018-01-06T17:52:50Z</time>
      </trkpt>
      <trkpt lat="46.75613" lon="-1.73078">
        <ele>53</ele>
        <time>2018-01-06T17:53:50Z</time>
      </trkpt>
      <trkpt lat="46.75613" lon="-1.73075">
        <ele>53</ele>
        <time>2018-01-06T17:54:50Z</time>
      </trkpt>
      <trkpt lat="46.75614" lon="-1.73071">
        <ele>53</ele>
        <time>2018-01-06T17:55:50Z</time>
      </trkpt>
      <trkpt lat="46.75615" lon="-1.73066">
        <ele>53</ele>
        <time>2018-01-06T17:56:50Z</time>
      </trkpt>
      <trkpt lat="46.75619" lon="-1.73049">
        <ele>54</ele>
        <time>2018-01-06T17:57:50Z</time>
      </trkpt>
      <trkpt lat="46.75623" lon="-1.73038">
        <ele>54</ele>
        <time>2018-01-06T17:58:50Z</time>
      </trkpt>
      <trkpt lat="46.75623" lon="-1.72992">
        <ele>55</ele>
        <time>2018-01-06T17:59:50Z</time>
      </trkpt>
      <trkpt lat="46.75623" lon="-1.72916">
        <ele>55</ele>
        <time>2018-01-06T18:00:50Z</time>
      </trkpt>
      <trkpt lat="46.75623" lon="-1.72887">
        <ele>55</ele>
        <time>2018-01-06T18:01:50Z</time>
      </trkpt>
      <trkpt lat="46.75624" lon="-1.7287">
        <ele>56</ele>
        <time>2018-01-06T18:02:50Z</time>
      </trkpt>
      <trkpt lat="46.75624" lon="-1.72845">
        <ele>56</ele>
        <time>2018-01-06T18:03:50Z</time>
      </trkpt>
      <trkpt lat="46.75625" lon="-1.72834">
        <ele>56</ele>
        <time>2018-01-06T18:04:50Z</time>
      </trkpt>
      <trkpt lat="46.75626" lon="-1.7282">
        <ele>57</ele>
        <time>2018-01-06T18:05:50Z</time>
      </trkpt>
      <trkpt lat="46.75626" lon="-1.72809">
        <ele>57</ele>
        <time>2018-01-06T18:06:50Z</time>
      </trkpt>
      <trkpt lat="46.75627" lon="-1.72797">
        <ele>57</ele>
        <time>2018-01-06T18:07:50Z</time>
      </trkpt>
      <trkpt lat="46.75628" lon="-1.72787">
        <ele>57</ele>
        <time>2018-01-06T18:08:50Z</time>
      </trkpt>
      <trkpt lat="46.75633" lon="-1.72721">
        <ele>58</ele>
        <time>2018-01-06T18:09:50Z</time>
      </trkpt>
      <trkpt lat="46.75638" lon="-1.72663">
        <ele>57</ele>
        <time>2018-01-06T18:10:50Z</time>
      </trkpt>
      <trkpt lat="46.75643" lon="-1.72615">
        <ele>56</ele>
        <time>2018-01-06T18:11:50Z</time>
      </trkpt>
      <trkpt lat="46.7565" lon="-1.72542">
        <ele>56</ele>
        <time>2018-01-06T18:12:50Z</time>
      </trkpt>
      <trkpt lat="46.75656" lon="-1.72493">
        <ele>56</ele>
        <time>2018-01-06T18:13:50Z</time>
      </trkpt>
      <trkpt lat="46.75657" lon="-1.72476">
        <ele>56</ele>
        <time>2018-01-06T18:14:50Z</time>
      </trkpt>
      <trkpt lat="46.75662" lon="-1.72434">
        <ele>56</ele>
        <time>2018-01-06T18:15:50Z</time>
      </trkpt>
      <trkpt lat="46.75661" lon="-1.72416">
        <ele>56</ele>
        <time>2018-01-06T18:16:50Z</time>
      </trkpt>
      <trkpt lat="46.75662" lon="-1.72342">
        <ele>56</ele>
        <time>2018-01-06T18:17:50Z</time>
      </trkpt>
      <trkpt lat="46.7566" lon="-1.72271">
        <ele>56</ele>
        <time>2018-01-06T18:18:50Z</time>
      </trkpt>
      <trkpt lat="46.7566" lon="-1.72244">
        <ele>56</ele>
        <time>2018-01-06T18:19:50Z</time>
      </trkpt>
      <trkpt lat="46.75657" lon="-1.72178">
        <ele>58</ele>
        <time>2018-01-06T18:20:50Z</time>
      </trkpt>
      <trkpt lat="46.75657" lon="-1.72169">
        <ele>58</ele>
        <time>2018-01-06T18:21:50Z</time>
      </trkpt>
      <trkpt lat="46.75651" lon="-1.72101">
        <ele>57</ele>
        <time>2018-01-06T18:22:50Z</time>
      </trkpt>
      <trkpt lat="46.75645" lon="-1.7204">
        <ele>57</ele>
        <time>2018-01-06T18:23:50Z</time>
      </trkpt>
      <trkpt lat="46.75646" lon="-1.72036">
        <ele>57</ele>
        <time>2018-01-06T18:24:50Z</time>
      </trkpt>
      <trkpt lat="46.75633" lon="-1.71906">
        <ele>56</ele>
        <time>2018-01-06T18:25:50Z</time>
      </trkpt>
      <trkpt lat="46.75633" lon="-1.71883">
        <ele>56</ele>
        <time>2018-01-06T18:26:50Z</time>
      </trkpt>
      <trkpt lat="46.75632" lon="-1.71874">
        <ele>56</ele>
        <time>2018-01-06T18:27:50Z</time>
      </trkpt>
      <trkpt lat="46.75632" lon="-1.71858">
        <ele>56</ele>
        <time>2018-01-06T18:28:50Z</time>
      </trkpt>
      <trkpt lat="46.75631" lon="-1.71831">
        <ele>56</ele>
        <time>2018-01-06T18:29:50Z</time>
      </trkpt>
      <trkpt lat="46.75631" lon="-1.71802">
        <ele>56</ele>
        <time>2018-01-06T18:30:50Z</time>
      </trkpt>
      <trkpt lat="46.75631" lon="-1.71789">
        <ele>57</ele>
        <time>2018-01-06T18:31:50Z</time>
      </trkpt>
      <trkpt lat="46.75631" lon="-1.7178">
        <ele>57</ele>
        <time>2018-01-06T18:32:50Z</time>
      </trkpt>
      <trkpt lat="46.75631" lon="-1.71767">
        <ele>57</ele>
        <time>2018-01-06T18:33:50Z</time>
      </trkpt>
      <trkpt lat="46.75632" lon="-1.71751">
        <ele>57</ele>
        <time>2018-01-06T18:34:50Z</time>
      </trkpt>
      <trkpt lat="46.75632" lon="-1.71736">
        <ele>57</ele>
        <time>2018-01-06T18:35:50Z</time>
      </trkpt>
      <trkpt lat="46.75632" lon="-1.71721">
        <ele>57</ele>
        <time>2018-01-06T18:36:50Z</time>
      </trkpt>
      <trkpt lat="46.75633" lon="-1.71706">
        <ele>57</ele>
        <time>2018-01-06T18:37:50Z</time>
      </trkpt>
      <trkpt lat="46.75633" lon="-1.71695">
        <ele>57</ele>
        <time>2018-01-06T18:38:50Z</time>
      </trkpt>
      <trkpt lat="46.75634" lon="-1.7168">
        <ele>57</ele>
        <time>2018-01-06T18:39:50Z</time>
      </trkpt>
      <trkpt lat="46.75635" lon="-1.71651">
        <ele>57</ele>
        <time>2018-01-06T18:40:50Z</time>
      </trkpt>
      <trkpt lat="46.75637" lon="-1.71635">
        <ele>57</ele>
        <time>2018-01-06T18:41:50Z</time>
      </trkpt>
      <trkpt lat="46.75639" lon="-1.71584">
        <ele>57</ele>
        <time>2018-01-06T18:42:50Z</time>
      </trkpt>
      <trkpt lat="46.75645" lon="-1.71506">
        <ele>58</ele>
        <time>2018-01-06T18:43:50Z</time>
      </trkpt>
      <trkpt lat="46.75645" lon="-1.71503">
        <ele>58</ele>
        <time>2018-01-06T18:44:50Z</time>
      </trkpt>
      <trkpt lat="46.75649" lon="-1.71449">
        <ele>59</ele>
        <time>2018-01-06T18:45:50Z</time>
      </trkpt>
      <trkpt lat="46.75656" lon="-1.71346">
        <ele>60</ele>
        <time>2018-01-06T18:46:50Z</time>
      </trkpt>
      <trkpt lat="46.75658" lon="-1.71296">
        <ele>60</ele>
        <time>2018-01-06T18:47:50Z</time>
      </trkpt>
      <trkpt lat="46.75659" lon="-1.7126">
        <ele>60</ele>
        <time>2018-01-06T18:48:50Z</time>
      </trkpt>
      <trkpt lat="46.75659" lon="-1.71235">
        <ele>60</ele>
        <time>2018-01-06T18:49:50Z</time>
      </trkpt>
      <trkpt lat="46.7566" lon="-1.71217">
        <ele>60</ele>
        <time>2018-01-06T18:50:50Z</time>
      </trkpt>
      <trkpt lat="46.7566" lon="-1.71199">
        <ele>60</ele>
        <time>2018-01-06T18:51:50Z</time>
      </trkpt>
      <trkpt lat="46.75661" lon="-1.7118">
        <ele>60</ele>
        <time>2018-01-06T18:52:50Z</time>
      </trkpt>
      <trkpt lat="46.75662" lon="-1.71157">
        <ele>60</ele>
        <time>2018-01-06T18:53:50Z</time>
      </trkpt>
      <trkpt lat="46.75662" lon="-1.71132">
        <ele>60</ele>
        <time>2018-01-06T18:54:50Z</time>
      </trkpt>
      <trkpt lat="46.75662" lon="-1.71111">
        <ele>59</ele>
        <time>2018-01-06T18:55:50Z</time>
      </trkpt>
      <trkpt lat="46.75662" lon="-1.71091">
        <ele>59</ele>
        <time>2018-01-06T18:56:50Z</time>
      </trkpt>
      <trkpt lat="46.75662" lon="-1.71047">
        <ele>59</ele>
        <time>2018-01-06T18:57:50Z</time>
      </trkpt>
      <trkpt lat="46.75661" lon="-1.71002">
        <ele>59</ele>
        <time>2018-01-06T18:58:50Z</time>
      </trkpt>
      <trkpt lat="46.7566" lon="-1.7096">
        <ele>60</ele>
        <time>2018-01-06T18:59:50Z</time>
      </trkpt>
      <trkpt lat="46.7566" lon="-1.70953">
        <ele>60</ele>
        <time>2018-01-06T19:00:50Z</time>
      </trkpt>
      <trkpt lat="46.75657" lon="-1.70877">
        <ele>61</ele>
        <time>2018-01-06T19:01:50Z</time>
      </trkpt>
      <trkpt lat="46.75655" lon="-1.70823">
        <ele>62</ele>
        <time>2018-01-06T19:02:50Z</time>
      </trkpt>
      <trkpt lat="46.75655" lon="-1.70806">
        <ele>62</ele>
        <time>2018-01-06T19:03:50Z</time>
      </trkpt>
      <trkpt lat="46.75654" lon="-1.7079">
        <ele>61</ele>
        <time>2018-01-06T19:04:50Z</time>
      </trkpt>
      <trkpt lat="46.75654" lon="-1.70772">
        <ele>61</ele>
        <time>2018-01-06T19:05:50Z</time>
      </trkpt>
      <trkpt lat="46.75654" lon="-1.70751">
        <ele>61</ele>
        <time>2018-01-06T19:06:50Z</time>
      </trkpt>
      <trkpt lat="46.75655" lon="-1.70726">
        <ele>60</ele>
        <time>2018-01-06T19:07:50Z</time>
      </trkpt>
      <trkpt lat="46.75656" lon="-1.70671">
        <ele>59</ele>
        <time>2018-01-06T19:08:50Z</time>
      </trkpt>
      <trkpt lat="46.7566" lon="-1.70572">
        <ele>59</ele>
        <time>2018-01-06T19:09:50Z</time>
      </trkpt>
      <trkpt lat="46.75662" lon="-1.70498">
        <ele>60</ele>
        <time>2018-01-06T19:10:50Z</time>
      </trkpt>
      <trkpt lat="46.75666" lon="-1.70422">
        <ele>61</ele>
        <time>2018-01-06T19:11:50Z</time>
      </trkpt>
      <trkpt lat="46.7567" lon="-1.70352">
        <ele>61</ele>
        <time>2018-01-06T19:12:50Z</time>
      </trkpt>
      <trkpt lat="46.75672" lon="-1.70323">
        <ele>61</ele>
        <time>2018-01-06T19:13:50Z</time>
      </trkpt>
      <trkpt lat="46.75673" lon="-1.70304">
        <ele>61</ele>
        <time>2018-01-06T19:14:50Z</time>
      </trkpt>
      <trkpt lat="46.75673" lon="-1.70286">
        <ele>61</ele>
        <time>2018-01-06T19:15:50Z</time>
      </trkpt>
      <trkpt lat="46.75673" lon="-1.70266">
        <ele>61</ele>
        <time>2018-01-06T19:16:50Z</time>
      </trkpt>
      <trkpt lat="46.75672" lon="-1.70246">
        <ele>61</ele>
        <time>2018-01-06T19:17:50Z</time>
      </trkpt>
      <trkpt lat="46.75671" lon="-1.70227">
        <ele>61</ele>
        <time>2018-01-06T19:18:50Z</time>
      </trkpt>
      <trkpt lat="46.7567" lon="-1.70205">
        <ele>61</ele>
        <time>2018-01-06T19:19:50Z</time>
      </trkpt>
      <trkpt lat="46.75666" lon="-1.70153">
        <ele>62</ele>
        <time>2018-01-06T19:20:50Z</time>
      </trkpt>
      <trkpt lat="46.7566" lon="-1.70095">
        <ele>61</ele>
        <time>2018-01-06T19:21:50Z</time>
      </trkpt>
      <trkpt lat="46.75656" lon="-1.70046">
        <ele>61</ele>
        <time>2018-01-06T19:22:50Z</time>
      </trkpt>
      <trkpt lat="46.75654" lon="-1.70015">
        <ele>62</ele>
        <time>2018-01-06T19:23:50Z</time>
      </trkpt>
      <trkpt lat="46.75653" lon="-1.70008">
        <ele>62</ele>
        <time>2018-01-06T19:24:50Z</time>
      </trkpt>
      <trkpt lat="46.75651" lon="-1.69993">
        <ele>62</ele>
        <time>2018-01-06T19:25:50Z</time>
      </trkpt>
      <trkpt lat="46.75648" lon="-1.69979">
        <ele>61</ele>
        <time>2018-01-06T19:26:50Z</time>
      </trkpt>
      <trkpt lat="46.75645" lon="-1.69967">
        <ele>61</ele>
        <time>2018-01-06T19:27:50Z</time>
      </trkpt>
      <trkpt lat="46.75641" lon="-1.69956">
        <ele>61</ele>
        <time>2018-01-06T19:28:50Z</time>
      </trkpt>
      <trkpt lat="46.75632" lon="-1.69934">
        <ele>61</ele>
        <time>2018-01-06T19:29:50Z</time>
      </trkpt>
      <trkpt lat="46.75627" lon="-1.6992">
        <ele>61</ele>
        <time>2018-01-06T19:30:50Z</time>
      </trkpt>
      <trkpt lat="46.75622" lon="-1.69903">
        <ele>60</ele>
        <time>2018-01-06T19:31:50Z</time>
      </trkpt>
      <trkpt lat="46.75618" lon="-1.69878">
        <ele>60</ele>
        <time>2018-01-06T19:32:50Z</time>
      </trkpt>
      <trkpt lat="46.75611" lon="-1.69841">
        <ele>59</ele>
        <time>2018-01-06T19:33:50Z</time>
      </trkpt>
      <trkpt lat="46.75607" lon="-1.69819">
        <ele>59</ele>
        <time>2018-01-06T19:34:50Z</time>
      </trkpt>
      <trkpt lat="46.75602" lon="-1.69782">
        <ele>59</ele>
        <time>2018-01-06T19:35:50Z</time>
      </trkpt>
      <trkpt lat="46.75596" lon="-1.69746">
        <ele>59</ele>
        <time>2018-01-06T19:36:50Z</time>
      </trkpt>
      <trkpt lat="46.75596" lon="-1.69742">
        <ele>59</ele>
        <time>2018-01-06T19:37:50Z</time>
      </trkpt>
      <trkpt lat="46.7559" lon="-1.69707">
        <ele>59</ele>
        <time>2018-01-06T19:38:50Z</time>
      </trkpt>
      <trkpt lat="46.75579" lon="-1.69642">
        <ele>58</ele>
        <time>2018-01-06T19:39:50Z</time>
      </trkpt>
      <trkpt lat="46.75575" lon="-1.69614">
        <ele>58</ele>
        <time>2018-01-06T19:40:50Z</time>
      </trkpt>
      <trkpt lat="46.75572" lon="-1.69595">
        <ele>58</ele>
        <time>2018-01-06T19:41:50Z</time>
      </trkpt>
      <trkpt lat="46.75568" lon="-1.69577">
        <ele>58</ele>
        <time>2018-01-06T19:42:50Z</time>
      </trkpt>
      <trkpt lat="46.75565" lon="-1.69562">
        <ele>58</ele>
        <time>2018-01-06T19:43:50Z</time>
      </trkpt>
      <trkpt lat="46.7556" lon="-1.69542">
        <ele>57</ele>
        <time>2018-01-06T19:44:50Z</time>
      </trkpt>
      <trkpt lat="46.75556" lon="-1.69526">
        <ele>57</ele>
        <time>2018-01-06T19:45:50Z</time>
      </trkpt>
      <trkpt lat="46.75552" lon="-1.69509">
        <ele>57</ele>
        <time>2018-01-06T19:46:50Z</time>
      </trkpt>
      <trkpt lat="46.75542" lon="-1.69475">
        <ele>56</ele>
        <time>2018-01-06T19:47:50Z</time>
      </trkpt>
      <trkpt lat="46.7553" lon="-1.6944">
        <ele>55</ele>
        <time>2018-01-06T19:48:50Z</time>
      </trkpt>
      <trkpt lat="46.7552" lon="-1.69411">
        <ele>55</ele>
        <time>2018-01-06T19:49:50Z</time>
      </trkpt>
      <trkpt lat="46.75502" lon="-1.69354">
        <ele>56</ele>
        <time>2018-01-06T19:50:50Z</time>
      </trkpt>
      <trkpt lat="46.75486" lon="-1.69306">
        <ele>56</ele>
        <time>2018-01-06T19:51:50Z</time>
      </trkpt>
      <trkpt lat="46.75472" lon="-1.69263">
        <ele>55</ele>
        <time>2018-01-06T19:52:50Z</time>
      </trkpt>
      <trkpt lat="46.75455" lon="-1.69214">
        <ele>54</ele>
        <time>2018-01-06T19:53:50Z</time>
      </trkpt>
      <trkpt lat="46.75439" lon="-1.69172">
        <ele>53</ele>
        <time>2018-01-06T19:54:50Z</time>
      </trkpt>
      <trkpt lat="46.75435" lon="-1.69163">
        <ele>53</ele>
        <time>2018-01-06T19:55:50Z</time>
      </trkpt>
      <trkpt lat="46.75421" lon="-1.69127">
        <ele>52</ele>
        <time>2018-01-06T19:56:50Z</time>
      </trkpt>
      <trkpt lat="46.75408" lon="-1.69097">
        <ele>50</ele>
        <time>2018-01-06T19:57:50Z</time>
      </trkpt>
      <trkpt lat="46.75394" lon="-1.69063">
        <ele>49</ele>
        <time>2018-01-06T19:58:50Z</time>
      </trkpt>
      <trkpt lat="46.75388" lon="-1.69045">
        <ele>49</ele>
        <time>2018-01-06T19:59:50Z</time>
      </trkpt>
      <trkpt lat="46.75385" lon="-1.6903">
        <ele>49</ele>
        <time>2018-01-06T20:00:50Z</time>
      </trkpt>
      <trkpt lat="46.75382" lon="-1.69009">
        <ele>48</ele>
        <time>2018-01-06T20:01:50Z</time>
      </trkpt>
      <trkpt lat="46.75382" lon="-1.6898">
        <ele>48</ele>
        <time>2018-01-06T20:02:50Z</time>
      </trkpt>
      <trkpt lat="46.75382" lon="-1.68964">
        <ele>47</ele>
        <time>2018-01-06T20:03:50Z</time>
      </trkpt>
      <trkpt lat="46.75381" lon="-1.68964">
        <ele>47</ele>
        <time>2018-01-06T20:04:50Z</time>
      </trkpt>
      <trkpt lat="46.7538" lon="-1.68963">
        <ele>47</ele>
        <time>2018-01-06T20:05:50Z</time>
      </trkpt>
      <trkpt lat="46.75379" lon="-1.68961">
        <ele>47</ele>
        <time>2018-01-06T20:06:50Z</time>
      </trkpt>
      <trkpt lat="46.75378" lon="-1.68959">
        <ele>47</ele>
        <time>2018-01-06T20:07:50Z</time>
      </trkpt>
      <trkpt lat="46.75378" lon="-1.68957">
        <ele>47</ele>
        <time>2018-01-06T20:08:50Z</time>
      </trkpt>
      <trkpt lat="46.75378" lon="-1.68955">
        <ele>47</ele>
        <time>2018-01-06T20:09:50Z</time>
      </trkpt>
      <trkpt lat="46.75379" lon="-1.68954">
        <ele>47</ele>
        <time>2018-01-06T20:10:50Z</time>
      </trkpt>
      <trkpt lat="46.7538" lon="-1.68953">
        <ele>47</ele>
        <time>2018-01-06T20:11:50Z</time>
      </trkpt>
      <trkpt lat="46.75382" lon="-1.68952">
        <ele>47</ele>
        <time>2018-01-06T20:12:50Z</time>
      </trkpt>
      <trkpt lat="46.75383" lon="-1.68952">
        <ele>47</ele>
        <time>2018-01-06T20:13:50Z</time>
      </trkpt>
      <trkpt lat="46.75385" lon="-1.68932">
        <ele>47</ele>
        <time>2018-01-06T20:14:50Z</time>
      </trkpt>
      <trkpt lat="46.75387" lon="-1.68906">
        <ele>46</ele>
        <time>2018-01-06T20:15:50Z</time>
      </trkpt>
      <trkpt lat="46.7539" lon="-1.68863">
        <ele>46</ele>
        <time>2018-01-06T20:16:50Z</time>
      </trkpt>
      <trkpt lat="46.75392" lon="-1.68828">
        <ele>46</ele>
        <time>2018-01-06T20:17:50Z</time>
      </trkpt>
      <trkpt lat="46.75394" lon="-1.68801">
        <ele>45</ele>
        <time>2018-01-06T20:18:50Z</time>
      </trkpt>
      <trkpt lat="46.75395" lon="-1.68778">
        <ele>44</ele>
        <time>2018-01-06T20:19:50Z</time>
      </trkpt>
      <trkpt lat="46.75397" lon="-1.68756">
        <ele>43</ele>
        <time>2018-01-06T20:20:50Z</time>
      </trkpt>
      <trkpt lat="46.75398" lon="-1.68739">
        <ele>43</ele>
        <time>2018-01-06T20:21:50Z</time>
      </trkpt>
      <trkpt lat="46.75399" lon="-1.68725">
        <ele>43</ele>
        <time>2018-01-06T20:22:50Z</time>
      </trkpt>
      <trkpt lat="46.75402" lon="-1.68688">
        <ele>42</ele>
        <time>2018-01-06T20:23:50Z</time>
      </trkpt>
      <trkpt lat="46.75404" lon="-1.68657">
        <ele>41</ele>
        <time>2018-01-06T20:24:50Z</time>
      </trkpt>
      <trkpt lat="46.75405" lon="-1.68643">
        <ele>41</ele>
        <time>2018-01-06T20:25:50Z</time>
      </trkpt>
      <trkpt lat="46.75407" lon="-1.68634">
        <ele>41</ele>
        <time>2018-01-06T20:26:50Z</time>
      </trkpt>
      <trkpt lat="46.75409" lon="-1.68625">
        <ele>41</ele>
        <time>2018-01-06T20:27:50Z</time>
      </trkpt>
      <trkpt lat="46.75411" lon="-1.6862">
        <ele>41</ele>
        <time>2018-01-06T20:28:50Z</time>
      </trkpt>
      <trkpt lat="46.75416" lon="-1.68608">
        <ele>41</ele>
        <time>2018-01-06T20:29:50Z</time>
      </trkpt>
      <trkpt lat="46.75419" lon="-1.68601">
        <ele>40</ele>
        <time>2018-01-06T20:30:50Z</time>
      </trkpt>
      <trkpt lat="46.75429" lon="-1.68591">
        <ele>40</ele>
        <time>2018-01-06T20:31:50Z</time>
      </trkpt>
      <trkpt lat="46.75441" lon="-1.6858">
        <ele>41</ele>
        <time>2018-01-06T20:32:50Z</time>
      </trkpt>
      <trkpt lat="46.75453" lon="-1.68573">
        <ele>41</ele>
        <time>2018-01-06T20:33:50Z</time>
      </trkpt>
      <trkpt lat="46.75454" lon="-1.68573">
        <ele>41</ele>
        <time>2018-01-06T20:34:50Z</time>
      </trkpt>
      <trkpt lat="46.75459" lon="-1.6857">
        <ele>41</ele>
        <time>2018-01-06T20:35:50Z</time>
      </trkpt>
      <trkpt lat="46.75462" lon="-1.68569">
        <ele>41</ele>
        <time>2018-01-06T20:36:50Z</time>
      </trkpt>
      <trkpt lat="46.75466" lon="-1.68569">
        <ele>41</ele>
        <time>2018-01-06T20:37:50Z</time>
      </trkpt>
      <trkpt lat="46.75472" lon="-1.6857">
        <ele>41</ele>
        <time>2018-01-06T20:38:50Z</time>
      </trkpt>
      <trkpt lat="46.75479" lon="-1.6857">
        <ele>41</ele>
        <time>2018-01-06T20:39:50Z</time>
      </trkpt>
      <trkpt lat="46.75482" lon="-1.6857">
        <ele>42</ele>
        <time>2018-01-06T20:40:50Z</time>
      </trkpt>
      <trkpt lat="46.75501" lon="-1.68572">
        <ele>42</ele>
        <time>2018-01-06T20:41:50Z</time>
      </trkpt>
      <trkpt lat="46.75501" lon="-1.68572">
        <ele>42</ele>
        <time>2018-01-06T20:42:50Z</time>
      </trkpt>
      <trkpt lat="46.75496" lon="-1.68539">
        <ele>42</ele>
        <time>2018-01-06T20:43:50Z</time>
      </trkpt>
      <trkpt lat="46.75489" lon="-1.68483">
        <ele>41</ele>
        <time>2018-01-06T20:44:50Z</time>
      </trkpt>
      <trkpt lat="46.75481" lon="-1.6842">
        <ele>39</ele>
        <time>2018-01-06T20:45:50Z</time>
      </trkpt>
      <trkpt lat="46.75476" lon="-1.68381">
        <ele>38</ele>
        <time>2018-01-06T20:46:50Z</time>
      </trkpt>
      <trkpt lat="46.75468" lon="-1.68322">
        <ele>37</ele>
        <time>2018-01-06T20:47:50Z</time>
      </trkpt>
      <trkpt lat="46.7546" lon="-1.68262">
        <ele>36</ele>
        <time>2018-01-06T20:48:50Z</time>
      </trkpt>
      <trkpt lat="46.75459" lon="-1.6825">
        <ele>36</ele>
        <time>2018-01-06T20:49:50Z</time>
      </trkpt>
      <trkpt lat="46.7545" lon="-1.68188">
        <ele>33</ele>
        <time>2018-01-06T20:50:50Z</time>
      </trkpt>
      <trkpt lat="46.75444" lon="-1.68144">
        <ele>31</ele>
        <time>2018-01-06T20:51:50Z</time>
      </trkpt>
      <trkpt lat="46.7544" lon="-1.68116">
        <ele>30</ele>
        <time>2018-01-06T20:52:50Z</time>
      </trkpt>
      <trkpt lat="46.75436" lon="-1.68087">
        <ele>30</ele>
        <time>2018-01-06T20:53:50Z</time>
      </trkpt>
      <trkpt lat="46.75433" lon="-1.68059">
        <ele>29</ele>
        <time>2018-01-06T20:54:50Z</time>
      </trkpt>
      <trkpt lat="46.7542" lon="-1.67975">
        <ele>28</ele>
        <time>2018-01-06T20:55:50Z</time>
      </trkpt>
      <trkpt lat="46.75411" lon="-1.67909">
        <ele>26</ele>
        <time>2018-01-06T20:56:50Z</time>
      </trkpt>
      <trkpt lat="46.75404" lon="-1.67846">
        <ele>23</ele>
        <time>2018-01-06T20:57:50Z</time>
      </trkpt>
      <trkpt lat="46.75398" lon="-1.67808">
        <ele>21</ele>
        <time>2018-01-06T20:58:50Z</time>
      </trkpt>
      <trkpt lat="46.75396" lon="-1.67797">
        <ele>21</ele>
        <time>2018-01-06T20:59:50Z</time>
      </trkpt>
      <trkpt lat="46.75391" lon="-1.67772">
        <ele>19</ele>
        <time>2018-01-06T21:00:50Z</time>
      </trkpt>
      <trkpt lat="46.75384" lon="-1.67745">
        <ele>18</ele>
        <time>2018-01-06T21:01:50Z</time>
      </trkpt>
      <trkpt lat="46.75374" lon="-1.67717">
        <ele>16</ele>
        <time>2018-01-06T21:02:50Z</time>
      </trkpt>
      <trkpt lat="46.75365" lon="-1.67695">
        <ele>14</ele>
        <time>2018-01-06T21:03:50Z</time>
      </trkpt>
      <trkpt lat="46.75364" lon="-1.67692">
        <ele>14</ele>
        <time>2018-01-06T21:04:50Z</time>
      </trkpt>
      <trkpt lat="46.75358" lon="-1.67678">
        <ele>13</ele>
        <time>2018-01-06T21:05:50Z</time>
      </trkpt>
      <trkpt lat="46.75346" lon="-1.67654">
        <ele>11</ele>
        <time>2018-01-06T21:06:50Z</time>
      </trkpt>
      <trkpt lat="46.75326" lon="-1.67619">
        <ele>10</ele>
        <time>2018-01-06T21:07:50Z</time>
      </trkpt>
      <trkpt lat="46.7531" lon="-1.67589">
        <ele>10</ele>
        <time>2018-01-06T21:08:50Z</time>
      </trkpt>
      <trkpt lat="46.75308" lon="-1.67585">
        <ele>10</ele>
        <time>2018-01-06T21:09:50Z</time>
      </trkpt>
      <trkpt lat="46.75302" lon="-1.67575">
        <ele>10</ele>
        <time>2018-01-06T21:10:50Z</time>
      </trkpt>
      <trkpt lat="46.75297" lon="-1.67566">
        <ele>11</ele>
        <time>2018-01-06T21:11:50Z</time>
      </trkpt>
      <trkpt lat="46.75295" lon="-1.67562">
        <ele>11</ele>
        <time>2018-01-06T21:12:50Z</time>
      </trkpt>
      <trkpt lat="46.75288" lon="-1.6755">
        <ele>11</ele>
        <time>2018-01-06T21:13:50Z</time>
      </trkpt>
      <trkpt lat="46.7528" lon="-1.67536">
        <ele>12</ele>
        <time>2018-01-06T21:14:50Z</time>
      </trkpt>
      <trkpt lat="46.75277" lon="-1.6753">
        <ele>13</ele>
        <time>2018-01-06T21:15:50Z</time>
      </trkpt>
      <trkpt lat="46.75265" lon="-1.67509">
        <ele>14</ele>
        <time>2018-01-06T21:16:50Z</time>
      </trkpt>
      <trkpt lat="46.75261" lon="-1.67501">
        <ele>15</ele>
        <time>2018-01-06T21:17:50Z</time>
      </trkpt>
      <trkpt lat="46.75254" lon="-1.67489">
        <ele>16</ele>
        <time>2018-01-06T21:18:50Z</time>
      </trkpt>
      <trkpt lat="46.75237" lon="-1.67456">
        <ele>19</ele>
        <time>2018-01-06T21:19:50Z</time>
      </trkpt>
      <trkpt lat="46.75228" lon="-1.67441">
        <ele>20</ele>
        <time>2018-01-06T21:20:50Z</time>
      </trkpt>
      <trkpt lat="46.75215" lon="-1.6742">
        <ele>22</ele>
        <time>2018-01-06T21:21:50Z</time>
      </trkpt>
      <trkpt lat="46.75202" lon="-1.67403">
        <ele>22</ele>
        <time>2018-01-06T21:22:50Z</time>
      </trkpt>
      <trkpt lat="46.75192" lon="-1.67393">
        <ele>23</ele>
        <time>2018-01-06T21:23:50Z</time>
      </trkpt>
      <trkpt lat="46.75185" lon="-1.67387">
        <ele>23</ele>
        <time>2018-01-06T21:24:50Z</time>
      </trkpt>
      <trkpt lat="46.75173" lon="-1.6738">
        <ele>23</ele>
        <time>2018-01-06T21:25:50Z</time>
      </trkpt>
      <trkpt lat="46.75163" lon="-1.67374">
        <ele>24</ele>
        <time>2018-01-06T21:26:50Z</time>
      </trkpt>
      <trkpt lat="46.75152" lon="-1.6737">
        <ele>24</ele>
        <time>2018-01-06T21:27:50Z</time>
      </trkpt>
      <trkpt lat="46.75142" lon="-1.67368">
        <ele>24</ele>
        <time>2018-01-06T21:28:50Z</time>
      </trkpt>
      <trkpt lat="46.75132" lon="-1.67367">
        <ele>24</ele>
        <time>2018-01-06T21:29:50Z</time>
      </trkpt>
      <trkpt lat="46.75122" lon="-1.67368">
        <ele>24</ele>
        <time>2018-01-06T21:30:50Z</time>
      </trkpt>
      <trkpt lat="46.75114" lon="-1.67369">
        <ele>24</ele>
        <time>2018-01-06T21:31:50Z</time>
      </trkpt>
      <trkpt lat="46.75106" lon="-1.6737">
        <ele>24</ele>
        <time>2018-01-06T21:32:50Z</time>
      </trkpt>
      <trkpt lat="46.751" lon="-1.67373">
        <ele>24</ele>
        <time>2018-01-06T21:33:50Z</time>
      </trkpt>
      <trkpt lat="46.75094" lon="-1.67376">
        <ele>23</ele>
        <time>2018-01-06T21:34:50Z</time>
      </trkpt>
      <trkpt lat="46.75086" lon="-1.6738">
        <ele>23</ele>
        <time>2018-01-06T21:35:50Z</time>
      </trkpt>
      <trkpt lat="46.75041" lon="-1.6741">
        <ele>23</ele>
        <time>2018-01-06T21:36:50Z</time>
      </trkpt>
      <trkpt lat="46.74987" lon="-1.67446">
        <ele>21</ele>
        <time>2018-01-06T21:37:50Z</time>
      </trkpt>
      <trkpt lat="46.74936" lon="-1.6748">
        <ele>20</ele>
        <time>2018-01-06T21:38:50Z</time>
      </trkpt>
      <trkpt lat="46.7489" lon="-1.67511">
        <ele>19</ele>
        <time>2018-01-06T21:39:50Z</time>
      </trkpt>
      <trkpt lat="46.7487" lon="-1.67524">
        <ele>18</ele>
        <time>2018-01-06T21:40:50Z</time>
      </trkpt>
      <trkpt lat="46.74868" lon="-1.67525">
        <ele>18</ele>
        <time>2018-01-06T21:41:50Z</time>
      </trkpt>
      <trkpt lat="46.74866" lon="-1.67527">
        <ele>18</ele>
        <time>2018-01-06T21:42:50Z</time>
      </trkpt>
      <trkpt lat="46.74832" lon="-1.67548">
        <ele>16</ele>
        <time>2018-01-06T21:43:50Z</time>
      </trkpt>
      <trkpt lat="46.74809" lon="-1.67564">
        <ele>17</ele>
        <time>2018-01-06T21:44:50Z</time>
      </trkpt>
      <trkpt lat="46.74789" lon="-1.67577">
        <ele>18</ele>
        <time>2018-01-06T21:45:50Z</time>
      </trkpt>
      <trkpt lat="46.7476" lon="-1.67596">
        <ele>19</ele>
        <time>2018-01-06T21:46:50Z</time>
      </trkpt>
      <trkpt lat="46.74734" lon="-1.67614">
        <ele>20</ele>
        <time>2018-01-06T21:47:50Z</time>
      </trkpt>
      <trkpt lat="46.74695" lon="-1.6764">
        <ele>21</ele>
        <time>2018-01-06T21:48:50Z</time>
      </trkpt>
      <trkpt lat="46.74679" lon="-1.6765">
        <ele>22</ele>
        <time>2018-01-06T21:49:50Z</time>
      </trkpt>
      <trkpt lat="46.74655" lon="-1.67665">
        <ele>22</ele>
        <time>2018-01-06T21:50:50Z</time>
      </trkpt>
      <trkpt lat="46.74628" lon="-1.67685">
        <ele>22</ele>
        <time>2018-01-06T21:51:50Z</time>
      </trkpt>
      <trkpt lat="46.74606" lon="-1.67702">
        <ele>21</ele>
        <time>2018-01-06T21:52:50Z</time>
      </trkpt>
      <trkpt lat="46.74597" lon="-1.67709">
        <ele>21</ele>
        <time>2018-01-06T21:53:50Z</time>
      </trkpt>
      <trkpt lat="46.74591" lon="-1.67716">
        <ele>21</ele>
        <time>2018-01-06T21:54:50Z</time>
      </trkpt>
      <trkpt lat="46.74584" lon="-1.67724">
        <ele>20</ele>
        <time>2018-01-06T21:55:50Z</time>
      </trkpt>
      <trkpt lat="46.74576" lon="-1.67732">
        <ele>20</ele>
        <time>2018-01-06T21:56:50Z</time>
      </trkpt>
      <trkpt lat="46.74569" lon="-1.67742">
        <ele>20</ele>
        <time>2018-01-06T21:57:50Z</time>
      </trkpt>
      <trkpt lat="46.74562" lon="-1.67752">
        <ele>21</ele>
        <time>2018-01-06T21:58:50Z</time>
      </trkpt>
      <trkpt lat="46.74554" lon="-1.67763">
        <ele>21</ele>
        <time>2018-01-06T21:59:50Z</time>
      </trkpt>
      <trkpt lat="46.74521" lon="-1.67814">
        <ele>24</ele>
        <time>2018-01-06T22:00:50Z</time>
      </trkpt>
      <trkpt lat="46.74487" lon="-1.67865">
        <ele>26</ele>
        <time>2018-01-06T22:01:50Z</time>
      </trkpt>
      <trkpt lat="46.74454" lon="-1.67917">
        <ele>29</ele>
        <time>2018-01-06T22:02:50Z</time>
      </trkpt>
      <trkpt lat="46.74429" lon="-1.67954">
        <ele>29</ele>
        <time>2018-01-06T22:03:50Z</time>
      </trkpt>
      <trkpt lat="46.74403" lon="-1.67996">
        <ele>30</ele>
        <time>2018-01-06T22:04:50Z</time>
      </trkpt>
      <trkpt lat="46.74394" lon="-1.68011">
        <ele>30</ele>
        <time>2018-01-06T22:05:50Z</time>
      </trkpt>
      <trkpt lat="46.74387" lon="-1.68026">
        <ele>31</ele>
        <time>2018-01-06T22:06:50Z</time>
      </trkpt>
      <trkpt lat="46.7438" lon="-1.68043">
        <ele>31</ele>
        <time>2018-01-06T22:07:50Z</time>
      </trkpt>
      <trkpt lat="46.74366" lon="-1.68079">
        <ele>31</ele>
        <time>2018-01-06T22:08:50Z</time>
      </trkpt>
      <trkpt lat="46.74352" lon="-1.68119">
        <ele>32</ele>
        <time>2018-01-06T22:09:50Z</time>
      </trkpt>
      <trkpt lat="46.74346" lon="-1.68135">
        <ele>32</ele>
        <time>2018-01-06T22:10:50Z</time>
      </trkpt>
      <trkpt lat="46.7434" lon="-1.68147">
        <ele>32</ele>
        <time>2018-01-06T22:11:50Z</time>
      </trkpt>
      <trkpt lat="46.74325" lon="-1.68168">
        <ele>32</ele>
        <time>2018-01-06T22:12:50Z</time>
      </trkpt>
      <trkpt lat="46.74321" lon="-1.68171">
        <ele>32</ele>
        <time>2018-01-06T22:13:50Z</time>
      </trkpt>
      <trkpt lat="46.74315" lon="-1.68175">
        <ele>32</ele>
        <time>2018-01-06T22:14:50Z</time>
      </trkpt>
      <trkpt lat="46.74307" lon="-1.68179">
        <ele>32</ele>
        <time>2018-01-06T22:15:50Z</time>
      </trkpt>
      <trkpt lat="46.74297" lon="-1.68183">
        <ele>32</ele>
        <time>2018-01-06T22:16:50Z</time>
      </trkpt>
      <trkpt lat="46.74288" lon="-1.68185">
        <ele>32</ele>
        <time>2018-01-06T22:17:50Z</time>
      </trkpt>
      <trkpt lat="46.74263" lon="-1.6819">
        <ele>32</ele>
        <time>2018-01-06T22:18:50Z</time>
      </trkpt>
      <trkpt lat="46.74214" lon="-1.682">
        <ele>32</ele>
        <time>2018-01-06T22:19:50Z</time>
      </trkpt>
      <trkpt lat="46.74138" lon="-1.68215">
        <ele>33</ele>
        <time>2018-01-06T22:20:50Z</time>
      </trkpt>
      <trkpt lat="46.74121" lon="-1.68218">
        <ele>33</ele>
        <time>2018-01-06T22:21:50Z</time>
      </trkpt>
      <trkpt lat="46.74091" lon="-1.6822">
        <ele>34</ele>
        <time>2018-01-06T22:22:50Z</time>
      </trkpt>
      <trkpt lat="46.74068" lon="-1.68219">
        <ele>34</ele>
        <time>2018-01-06T22:23:50Z</time>
      </trkpt>
      <trkpt lat="46.7404" lon="-1.68214">
        <ele>35</ele>
        <time>2018-01-06T22:24:50Z</time>
      </trkpt>
      <trkpt lat="46.74024" lon="-1.68209">
        <ele>35</ele>
        <time>2018-01-06T22:25:50Z</time>
      </trkpt>
      <trkpt lat="46.73949" lon="-1.68185">
        <ele>36</ele>
        <time>2018-01-06T22:26:50Z</time>
      </trkpt>
      <trkpt lat="46.73919" lon="-1.68176">
        <ele>36</ele>
        <time>2018-01-06T22:27:50Z</time>
      </trkpt>
      <trkpt lat="46.73896" lon="-1.68172">
        <ele>36</ele>
        <time>2018-01-06T22:28:50Z</time>
      </trkpt>
      <trkpt lat="46.73885" lon="-1.6817">
        <ele>36</ele>
        <time>2018-01-06T22:29:50Z</time>
      </trkpt>
      <trkpt lat="46.73876" lon="-1.68171">
        <ele>37</ele>
        <time>2018-01-06T22:30:50Z</time>
      </trkpt>
      <trkpt lat="46.73866" lon="-1.68171">
        <ele>37</ele>
        <time>2018-01-06T22:31:50Z</time>
      </trkpt>
      <trkpt lat="46.73857" lon="-1.68173">
        <ele>37</ele>
        <time>2018-01-06T22:32:50Z</time>
      </trkpt>
      <trkpt lat="46.73847" lon="-1.68176">
        <ele>37</ele>
        <time>2018-01-06T22:33:50Z</time>
      </trkpt>
      <trkpt lat="46.73829" lon="-1.68183">
        <ele>37</ele>
        <time>2018-01-06T22:34:50Z</time>
      </trkpt>
      <trkpt lat="46.73786" lon="-1.682">
        <ele>38</ele>
        <time>2018-01-06T22:35:50Z</time>
      </trkpt>
      <trkpt lat="46.73765" lon="-1.68211">
        <ele>38</ele>
        <time>2018-01-06T22:36:50Z</time>
      </trkpt>
      <trkpt lat="46.73698" lon="-1.68238">
        <ele>38</ele>
        <time>2018-01-06T22:37:50Z</time>
      </trkpt>
      <trkpt lat="46.73637" lon="-1.68263">
        <ele>39</ele>
        <time>2018-01-06T22:38:50Z</time>
      </trkpt>
      <trkpt lat="46.73591" lon="-1.68281">
        <ele>40</ele>
        <time>2018-01-06T22:39:50Z</time>
      </trkpt>
      <trkpt lat="46.73557" lon="-1.68288">
        <ele>40</ele>
        <time>2018-01-06T22:40:50Z</time>
      </trkpt>
      <trkpt lat="46.73534" lon="-1.6829">
        <ele>39</ele>
        <time>2018-01-06T22:41:50Z</time>
      </trkpt>
      <trkpt lat="46.73482" lon="-1.68291">
        <ele>39</ele>
        <time>2018-01-06T22:42:50Z</time>
      </trkpt>
      <trkpt lat="46.73464" lon="-1.6829">
        <ele>39</ele>
        <time>2018-01-06T22:43:50Z</time>
      </trkpt>
      <trkpt lat="46.73418" lon="-1.68289">
        <ele>40</ele>
        <time>2018-01-06T22:44:50Z</time>
      </trkpt>
      <trkpt lat="46.73383" lon="-1.68288">
        <ele>42</ele>
        <time>2018-01-06T22:45:50Z</time>
      </trkpt>
      <trkpt lat="46.73336" lon="-1.68287">
        <ele>43</ele>
        <time>2018-01-06T22:46:50Z</time>
      </trkpt>
      <trkpt lat="46.73313" lon="-1.68287">
        <ele>43</ele>
        <time>2018-01-06T22:47:50Z</time>
      </trkpt>
      <trkpt lat="46.73266" lon="-1.68286">
        <ele>44</ele>
        <time>2018-01-06T22:48:50Z</time>
      </trkpt>
      <trkpt lat="46.7322" lon="-1.68286">
        <ele>45</ele>
        <time>2018-01-06T22:49:50Z</time>
      </trkpt>
      <trkpt lat="46.73197" lon="-1.68285">
        <ele>45</ele>
        <time>2018-01-06T22:50:50Z</time>
      </trkpt>
      <trkpt lat="46.73162" lon="-1.68286">
        <ele>46</ele>
        <time>2018-01-06T22:51:50Z</time>
      </trkpt>
      <trkpt lat="46.73151" lon="-1.68286">
        <ele>46</ele>
        <time>2018-01-06T22:52:50Z</time>
      </trkpt>
      <trkpt lat="46.73138" lon="-1.68287">
        <ele>47</ele>
        <time>2018-01-06T22:53:50Z</time>
      </trkpt>
      <trkpt lat="46.73129" lon="-1.68288">
        <ele>47</ele>
        <time>2018-01-06T22:54:50Z</time>
      </trkpt>
      <trkpt lat="46.73117" lon="-1.68289">
        <ele>47</ele>
        <time>2018-01-06T22:55:50Z</time>
      </trkpt>
      <trkpt lat="46.73095" lon="-1.68293">
        <ele>47</ele>
        <time>2018-01-06T22:56:50Z</time>
      </trkpt>
      <trkpt lat="46.73084" lon="-1.68295">
        <ele>47</ele>
        <time>2018-01-06T22:57:50Z</time>
      </trkpt>
      <trkpt lat="46.73074" lon="-1.68298">
        <ele>47</ele>
        <time>2018-01-06T22:58:50Z</time>
      </trkpt>
      <trkpt lat="46.73051" lon="-1.68303">
        <ele>47</ele>
        <time>2018-01-06T22:59:50Z</time>
      </trkpt>
      <trkpt lat="46.73029" lon="-1.68308">
        <ele>47</ele>
        <time>2018-01-06T23:00:50Z</time>
      </trkpt>
      <trkpt lat="46.73012" lon="-1.68311">
        <ele>47</ele>
        <time>2018-01-06T23:01:50Z</time>
      </trkpt>
      <trkpt lat="46.72979" lon="-1.68318">
        <ele>47</ele>
        <time>2018-01-06T23:02:50Z</time>
      </trkpt>
      <trkpt lat="46.72962" lon="-1.68322">
        <ele>47</ele>
        <time>2018-01-06T23:03:50Z</time>
      </trkpt>
      <trkpt lat="46.7294" lon="-1.68326">
        <ele>48</ele>
        <time>2018-01-06T23:04:50Z</time>
      </trkpt>
      <trkpt lat="46.72918" lon="-1.6833">
        <ele>48</ele>
        <time>2018-01-06T23:05:50Z</time>
      </trkpt>
      <trkpt lat="46.72897" lon="-1.68334">
        <ele>48</ele>
        <time>2018-01-06T23:06:50Z</time>
      </trkpt>
      <trkpt lat="46.72886" lon="-1.68335">
        <ele>48</ele>
        <time>2018-01-06T23:07:50Z</time>
      </trkpt>
      <trkpt lat="46.72875" lon="-1.68336">
        <ele>48</ele>
        <time>2018-01-06T23:08:50Z</time>
      </trkpt>
      <trkpt lat="46.72865" lon="-1.68337">
        <ele>48</ele>
        <time>2018-01-06T23:09:50Z</time>
      </trkpt>
      <trkpt lat="46.72839" lon="-1.68336">
        <ele>48</ele>
        <time>2018-01-06T23:10:50Z</time>
      </trkpt>
      <trkpt lat="46.72832" lon="-1.68335">
        <ele>48</ele>
        <time>2018-01-06T23:11:50Z</time>
      </trkpt>
      <trkpt lat="46.7282" lon="-1.68333">
        <ele>48</ele>
        <time>2018-01-06T23:12:50Z</time>
      </trkpt>
      <trkpt lat="46.72809" lon="-1.6833">
        <ele>48</ele>
        <time>2018-01-06T23:13:50Z</time>
      </trkpt>
      <trkpt lat="46.72787" lon="-1.68323">
        <ele>48</ele>
        <time>2018-01-06T23:14:50Z</time>
      </trkpt>
      <trkpt lat="46.72773" lon="-1.68318">
        <ele>48</ele>
        <time>2018-01-06T23:15:50Z</time>
      </trkpt>
      <trkpt lat="46.72755" lon="-1.68311">
        <ele>47</ele>
        <time>2018-01-06T23:16:50Z</time>
      </trkpt>
      <trkpt lat="46.72722" lon="-1.68299">
        <ele>47</ele>
        <time>2018-01-06T23:17:50Z</time>
      </trkpt>
      <trkpt lat="46.7269" lon="-1.68287">
        <ele>47</ele>
        <time>2018-01-06T23:18:50Z</time>
      </trkpt>
      <trkpt lat="46.72658" lon="-1.68275">
        <ele>48</ele>
        <time>2018-01-06T23:19:50Z</time>
      </trkpt>
      <trkpt lat="46.72626" lon="-1.68263">
        <ele>48</ele>
        <time>2018-01-06T23:20:50Z</time>
      </trkpt>
      <trkpt lat="46.72594" lon="-1.68252">
        <ele>49</ele>
        <time>2018-01-06T23:21:50Z</time>
      </trkpt>
      <trkpt lat="46.72562" lon="-1.68242">
        <ele>49</ele>
        <time>2018-01-06T23:22:50Z</time>
      </trkpt>
      <trkpt lat="46.72532" lon="-1.68236">
        <ele>50</ele>
        <time>2018-01-06T23:23:50Z</time>
      </trkpt>
      <trkpt lat="46.72481" lon="-1.68234">
        <ele>50</ele>
        <time>2018-01-06T23:24:50Z</time>
      </trkpt>
      <trkpt lat="46.72452" lon="-1.68234">
        <ele>51</ele>
        <time>2018-01-06T23:25:50Z</time>
      </trkpt>
      <trkpt lat="46.72413" lon="-1.68234">
        <ele>52</ele>
        <time>2018-01-06T23:26:50Z</time>
      </trkpt>
      <trkpt lat="46.72403" lon="-1.68234">
        <ele>52</ele>
        <time>2018-01-06T23:27:50Z</time>
      </trkpt>
      <trkpt lat="46.72395" lon="-1.68233">
        <ele>51</ele>
        <time>2018-01-06T23:28:50Z</time>
      </trkpt>
      <trkpt lat="46.72386" lon="-1.68231">
        <ele>51</ele>
        <time>2018-01-06T23:29:50Z</time>
      </trkpt>
      <trkpt lat="46.72377" lon="-1.68227">
        <ele>51</ele>
        <time>2018-01-06T23:30:50Z</time>
      </trkpt>
      <trkpt lat="46.72369" lon="-1.68222">
        <ele>51</ele>
        <time>2018-01-06T23:31:50Z</time>
      </trkpt>
      <trkpt lat="46.7236" lon="-1.68216">
        <ele>51</ele>
        <time>2018-01-06T23:32:50Z</time>
      </trkpt>
      <trkpt lat="46.72341" lon="-1.68197">
        <ele>50</ele>
        <time>2018-01-06T23:33:50Z</time>
      </trkpt>
      <trkpt lat="46.72336" lon="-1.68189">
        <ele>50</ele>
        <time>2018-01-06T23:34:50Z</time>
      </trkpt>
      <trkpt lat="46.72329" lon="-1.6818">
        <ele>49</ele>
        <time>2018-01-06T23:35:50Z</time>
      </trkpt>
      <trkpt lat="46.72303" lon="-1.68134">
        <ele>49</ele>
        <time>2018-01-06T23:36:50Z</time>
      </trkpt>
      <trkpt lat="46.72246" lon="-1.68033">
        <ele>49</ele>
        <time>2018-01-06T23:37:50Z</time>
      </trkpt>
      <trkpt lat="46.72226" lon="-1.67998">
        <ele>49</ele>
        <time>2018-01-06T23:38:50Z</time>
      </trkpt>
      <trkpt lat="46.722" lon="-1.67951">
        <ele>49</ele>
        <time>2018-01-06T23:39:50Z</time>
      </trkpt>
      <trkpt lat="46.72154" lon="-1.67871">
        <ele>49</ele>
        <time>2018-01-06T23:40:50Z</time>
      </trkpt>
      <trkpt lat="46.7214" lon="-1.67846">
        <ele>49</ele>
        <time>2018-01-06T23:41:50Z</time>
      </trkpt>
      <trkpt lat="46.72122" lon="-1.67813">
        <ele>50</ele>
        <time>2018-01-06T23:42:50Z</time>
      </trkpt>
      <trkpt lat="46.72089" lon="-1.67756">
        <ele>50</ele>
        <time>2018-01-06T23:43:50Z</time>
      </trkpt>
      <trkpt lat="46.72058" lon="-1.67702">
        <ele>50</ele>
        <time>2018-01-06T23:44:50Z</time>
      </trkpt>
      <trkpt lat="46.71981" lon="-1.67568">
        <ele>50</ele>
        <time>2018-01-06T23:45:50Z</time>
      </trkpt>
      <trkpt lat="46.71966" lon="-1.67541">
        <ele>51</ele>
        <time>2018-01-06T23:46:50Z</time>
      </trkpt>
      <trkpt lat="46.71938" lon="-1.67492">
        <ele>51</ele>
        <time>2018-01-06T23:47:50Z</time>
      </trkpt>
      <trkpt lat="46.71922" lon="-1.67463">
        <ele>52</ele>
        <time>2018-01-06T23:48:50Z</time>
      </trkpt>
      <trkpt lat="46.71909" lon="-1.6744">
        <ele>52</ele>
        <time>2018-01-06T23:49:50Z</time>
      </trkpt>
      <trkpt lat="46.71891" lon="-1.6742">
        <ele>52</ele>
        <time>2018-01-06T23:50:50Z</time>
      </trkpt>
      <trkpt lat="46.71893" lon="-1.67412">
        <ele>52</ele>
        <time>2018-01-06T23:51:50Z</time>
      </trkpt>
      <trkpt lat="46.71887" lon="-1.67407">
        <ele>52</ele>
        <time>2018-01-06T23:52:50Z</time>
      </trkpt>
      <trkpt lat="46.71866" lon="-1.67389">
        <ele>53</ele>
        <time>2018-01-06T23:53:50Z</time>
      </trkpt>
      <trkpt lat="46.71834" lon="-1.6736">
        <ele>54</ele>
        <time>2018-01-06T23:54:50Z</time>
      </trkpt>
      <trkpt lat="46.71808" lon="-1.67337">
        <ele>53</ele>
        <time>2018-01-06T23:55:50Z</time>
      </trkpt>
      <trkpt lat="46.71808" lon="-1.67337">
        <ele>53</ele>
        <time>2018-01-06T23:56:50Z</time>
      </trkpt>
      <trkpt lat="46.71806" lon="-1.67335">
        <ele>53</ele>
        <time>2018-01-06T23:57:50Z</time>
      </trkpt>
      <trkpt lat="46.71774" lon="-1.67307">
        <ele>51</ele>
        <time>2018-01-06T23:58:50Z</time>
      </trkpt>
      <trkpt lat="46.7173" lon="-1.67268">
        <ele>49</ele>
        <time>2018-01-06T23:59:50Z</time>
      </trkpt>
      <trkpt lat="46.71693" lon="-1.67236">
        <ele>47</ele>
        <time>2018-01-07T00:00:50Z</time>
      </trkpt>
      <trkpt lat="46.71655" lon="-1.67203">
        <ele>47</ele>
        <time>2018-01-07T00:01:50Z</time>
      </trkpt>
      <trkpt lat="46.71636" lon="-1.67187">
        <ele>47</ele>
        <time>2018-01-07T00:02:50Z</time>
      </trkpt>
      <trkpt lat="46.71607" lon="-1.67162">
        <ele>48</ele>
        <time>2018-01-07T00:03:50Z</time>
      </trkpt>
      <trkpt lat="46.71571" lon="-1.67129">
        <ele>49</ele>
        <time>2018-01-07T00:04:50Z</time>
      </trkpt>
      <trkpt lat="46.71535" lon="-1.67099">
        <ele>50</ele>
        <time>2018-01-07T00:05:50Z</time>
      </trkpt>
      <trkpt lat="46.715" lon="-1.67068">
        <ele>50</ele>
        <time>2018-01-07T00:06:50Z</time>
      </trkpt>
      <trkpt lat="46.71475" lon="-1.67048">
        <ele>51</ele>
        <time>2018-01-07T00:07:50Z</time>
      </trkpt>
      <trkpt lat="46.71455" lon="-1.67031">
        <ele>51</ele>
        <time>2018-01-07T00:08:50Z</time>
      </trkpt>
      <trkpt lat="46.71373" lon="-1.66964">
        <ele>49</ele>
        <time>2018-01-07T00:09:50Z</time>
      </trkpt>
      <trkpt lat="46.71314" lon="-1.66917">
        <ele>46</ele>
        <time>2018-01-07T00:10:50Z</time>
      </trkpt>
      <trkpt lat="46.71233" lon="-1.66852">
        <ele>42</ele>
        <time>2018-01-07T00:11:50Z</time>
      </trkpt>
      <trkpt lat="46.71204" lon="-1.66829">
        <ele>41</ele>
        <time>2018-01-07T00:12:50Z</time>
      </trkpt>
      <trkpt lat="46.7118" lon="-1.6681">
        <ele>40</ele>
        <time>2018-01-07T00:13:50Z</time>
      </trkpt>
      <trkpt lat="46.71163" lon="-1.66796">
        <ele>40</ele>
        <time>2018-01-07T00:14:50Z</time>
      </trkpt>
      <trkpt lat="46.71149" lon="-1.66785">
        <ele>40</ele>
        <time>2018-01-07T00:15:50Z</time>
      </trkpt>
      <trkpt lat="46.71007" lon="-1.6667">
        <ele>39</ele>
        <time>2018-01-07T00:16:50Z</time>
      </trkpt>
      <trkpt lat="46.70957" lon="-1.6663">
        <ele>39</ele>
        <time>2018-01-07T00:17:50Z</time>
      </trkpt>
      <trkpt lat="46.70928" lon="-1.66607">
        <ele>39</ele>
        <time>2018-01-07T00:18:50Z</time>
      </trkpt>
      <trkpt lat="46.70898" lon="-1.66583">
        <ele>40</ele>
        <time>2018-01-07T00:19:50Z</time>
      </trkpt>
      <trkpt lat="46.70886" lon="-1.66574">
        <ele>40</ele>
        <time>2018-01-07T00:20:50Z</time>
      </trkpt>
      <trkpt lat="46.70868" lon="-1.6656">
        <ele>40</ele>
        <time>2018-01-07T00:21:50Z</time>
      </trkpt>
      <trkpt lat="46.70635" lon="-1.66383">
        <ele>42</ele>
        <time>2018-01-07T00:22:50Z</time>
      </trkpt>
      <trkpt lat="46.70625" lon="-1.66376">
        <ele>42</ele>
        <time>2018-01-07T00:23:50Z</time>
      </trkpt>
      <trkpt lat="46.70596" lon="-1.66354">
        <ele>42</ele>
        <time>2018-01-07T00:24:50Z</time>
      </trkpt>
      <trkpt lat="46.70567" lon="-1.66333">
        <ele>43</ele>
        <time>2018-01-07T00:25:50Z</time>
      </trkpt>
      <trkpt lat="46.70549" lon="-1.6632">
        <ele>43</ele>
        <time>2018-01-07T00:26:50Z</time>
      </trkpt>
      <trkpt lat="46.70523" lon="-1.66298">
        <ele>42</ele>
        <time>2018-01-07T00:27:50Z</time>
      </trkpt>
      <trkpt lat="46.70514" lon="-1.66287">
        <ele>42</ele>
        <time>2018-01-07T00:28:50Z</time>
      </trkpt>
      <trkpt lat="46.70498" lon="-1.66268">
        <ele>41</ele>
        <time>2018-01-07T00:29:50Z</time>
      </trkpt>
      <trkpt lat="46.70474" lon="-1.66237">
        <ele>41</ele>
        <time>2018-01-07T00:30:50Z</time>
      </trkpt>
      <trkpt lat="46.70459" lon="-1.66216">
        <ele>40</ele>
        <time>2018-01-07T00:31:50Z</time>
      </trkpt>
      <trkpt lat="46.70444" lon="-1.66194">
        <ele>40</ele>
        <time>2018-01-07T00:32:50Z</time>
      </trkpt>
      <trkpt lat="46.70436" lon="-1.66182">
        <ele>39</ele>
        <time>2018-01-07T00:33:50Z</time>
      </trkpt>
      <trkpt lat="46.70413" lon="-1.66146">
        <ele>39</ele>
        <time>2018-01-07T00:34:50Z</time>
      </trkpt>
      <trkpt lat="46.7039" lon="-1.66107">
        <ele>38</ele>
        <time>2018-01-07T00:35:50Z</time>
      </trkpt>
      <trkpt lat="46.70343" lon="-1.66031">
        <ele>38</ele>
        <time>2018-01-07T00:36:50Z</time>
      </trkpt>
      <trkpt lat="46.70319" lon="-1.65993">
        <ele>38</ele>
        <time>2018-01-07T00:37:50Z</time>
      </trkpt>
      <trkpt lat="46.70296" lon="-1.65955">
        <ele>38</ele>
        <time>2018-01-07T00:38:50Z</time>
      </trkpt>
      <trkpt lat="46.7028" lon="-1.65929">
        <ele>39</ele>
        <time>2018-01-07T00:39:50Z</time>
      </trkpt>
      <trkpt lat="46.70256" lon="-1.65892">
        <ele>40</ele>
        <time>2018-01-07T00:40:50Z</time>
      </trkpt>
      <trkpt lat="46.70241" lon="-1.65868">
        <ele>41</ele>
        <time>2018-01-07T00:41:50Z</time>
      </trkpt>
      <trkpt lat="46.70226" lon="-1.65845">
        <ele>41</ele>
        <time>2018-01-07T00:42:50Z</time>
      </trkpt>
      <trkpt lat="46.70218" lon="-1.65832">
        <ele>42</ele>
        <time>2018-01-07T00:43:50Z</time>
      </trkpt>
      <trkpt lat="46.7021" lon="-1.6582">
        <ele>42</ele>
        <time>2018-01-07T00:44:50Z</time>
      </trkpt>
      <trkpt lat="46.70188" lon="-1.65785">
        <ele>43</ele>
        <time>2018-01-07T00:45:50Z</time>
      </trkpt>
      <trkpt lat="46.70167" lon="-1.65751">
        <ele>43</ele>
        <time>2018-01-07T00:46:50Z</time>
      </trkpt>
      <trkpt lat="46.70157" lon="-1.65738">
        <ele>43</ele>
        <time>2018-01-07T00:47:50Z</time>
      </trkpt>
      <trkpt lat="46.70146" lon="-1.65719">
        <ele>43</ele>
        <time>2018-01-07T00:48:50Z</time>
      </trkpt>
      <trkpt lat="46.70126" lon="-1.65687">
        <ele>42</ele>
        <time>2018-01-07T00:49:50Z</time>
      </trkpt>
      <trkpt lat="46.70112" lon="-1.65666">
        <ele>42</ele>
        <time>2018-01-07T00:50:50Z</time>
      </trkpt>
      <trkpt lat="46.70099" lon="-1.65645">
        <ele>42</ele>
        <time>2018-01-07T00:51:50Z</time>
      </trkpt>
      <trkpt lat="46.70085" lon="-1.65624">
        <ele>42</ele>
        <time>2018-01-07T00:52:50Z</time>
      </trkpt>
      <trkpt lat="46.70072" lon="-1.65602">
        <ele>41</ele>
        <time>2018-01-07T00:53:50Z</time>
      </trkpt>
      <trkpt lat="46.70058" lon="-1.65581">
        <ele>40</ele>
        <time>2018-01-07T00:54:50Z</time>
      </trkpt>
      <trkpt lat="46.70045" lon="-1.6556">
        <ele>38</ele>
        <time>2018-01-07T00:55:50Z</time>
      </trkpt>
      <trkpt lat="46.70035" lon="-1.65545">
        <ele>37</ele>
        <time>2018-01-07T00:56:50Z</time>
      </trkpt>
      <trkpt lat="46.70031" lon="-1.65538">
        <ele>36</ele>
        <time>2018-01-07T00:57:50Z</time>
      </trkpt>
      <trkpt lat="46.70025" lon="-1.6553">
        <ele>36</ele>
        <time>2018-01-07T00:58:50Z</time>
      </trkpt>
      <trkpt lat="46.7001" lon="-1.65503">
        <ele>34</ele>
        <time>2018-01-07T00:59:50Z</time>
      </trkpt>
      <trkpt lat="46.69997" lon="-1.6548">
        <ele>34</ele>
        <time>2018-01-07T01:00:50Z</time>
      </trkpt>
      <trkpt lat="46.69985" lon="-1.65454">
        <ele>34</ele>
        <time>2018-01-07T01:01:50Z</time>
      </trkpt>
      <trkpt lat="46.69973" lon="-1.65429">
        <ele>33</ele>
        <time>2018-01-07T01:02:50Z</time>
      </trkpt>
      <trkpt lat="46.69962" lon="-1.65403">
        <ele>32</ele>
        <time>2018-01-07T01:03:50Z</time>
      </trkpt>
      <trkpt lat="46.69948" lon="-1.65361">
        <ele>31</ele>
        <time>2018-01-07T01:04:50Z</time>
      </trkpt>
      <trkpt lat="46.69938" lon="-1.65332">
        <ele>30</ele>
        <time>2018-01-07T01:05:50Z</time>
      </trkpt>
      <trkpt lat="46.69929" lon="-1.65304">
        <ele>29</ele>
        <time>2018-01-07T01:06:50Z</time>
      </trkpt>
      <trkpt lat="46.69924" lon="-1.6529">
        <ele>29</ele>
        <time>2018-01-07T01:07:50Z</time>
      </trkpt>
      <trkpt lat="46.69918" lon="-1.65275">
        <ele>28</ele>
        <time>2018-01-07T01:08:50Z</time>
      </trkpt>
      <trkpt lat="46.69915" lon="-1.65265">
        <ele>28</ele>
        <time>2018-01-07T01:09:50Z</time>
      </trkpt>
      <trkpt lat="46.69913" lon="-1.65259">
        <ele>28</ele>
        <time>2018-01-07T01:10:50Z</time>
      </trkpt>
      <trkpt lat="46.69911" lon="-1.65254">
        <ele>28</ele>
        <time>2018-01-07T01:11:50Z</time>
      </trkpt>
      <trkpt lat="46.69903" lon="-1.65232">
        <ele>28</ele>
        <time>2018-01-07T01:12:50Z</time>
      </trkpt>
      <trkpt lat="46.69892" lon="-1.65203">
        <ele>29</ele>
        <time>2018-01-07T01:13:50Z</time>
      </trkpt>
      <trkpt lat="46.69882" lon="-1.65173">
        <ele>30</ele>
        <time>2018-01-07T01:14:50Z</time>
      </trkpt>
      <trkpt lat="46.69872" lon="-1.65144">
        <ele>31</ele>
        <time>2018-01-07T01:15:50Z</time>
      </trkpt>
      <trkpt lat="46.69862" lon="-1.65114">
        <ele>32</ele>
        <time>2018-01-07T01:16:50Z</time>
      </trkpt>
      <trkpt lat="46.69853" lon="-1.65085">
        <ele>32</ele>
        <time>2018-01-07T01:17:50Z</time>
      </trkpt>
      <trkpt lat="46.69851" lon="-1.65075">
        <ele>32</ele>
        <time>2018-01-07T01:18:50Z</time>
      </trkpt>
      <trkpt lat="46.69845" lon="-1.65055">
        <ele>33</ele>
        <time>2018-01-07T01:19:50Z</time>
      </trkpt>
      <trkpt lat="46.69837" lon="-1.65028">
        <ele>34</ele>
        <time>2018-01-07T01:20:50Z</time>
      </trkpt>
      <trkpt lat="46.69833" lon="-1.65015">
        <ele>34</ele>
        <time>2018-01-07T01:21:50Z</time>
      </trkpt>
      <trkpt lat="46.69825" lon="-1.64985">
        <ele>35</ele>
        <time>2018-01-07T01:22:50Z</time>
      </trkpt>
      <trkpt lat="46.69812" lon="-1.64942">
        <ele>36</ele>
        <time>2018-01-07T01:23:50Z</time>
      </trkpt>
      <trkpt lat="46.69804" lon="-1.64915">
        <ele>36</ele>
        <time>2018-01-07T01:24:50Z</time>
      </trkpt>
      <trkpt lat="46.698" lon="-1.64902">
        <ele>36</ele>
        <time>2018-01-07T01:25:50Z</time>
      </trkpt>
      <trkpt lat="46.69796" lon="-1.64888">
        <ele>36</ele>
        <time>2018-01-07T01:26:50Z</time>
      </trkpt>
      <trkpt lat="46.69789" lon="-1.64862">
        <ele>36</ele>
        <time>2018-01-07T01:27:50Z</time>
      </trkpt>
      <trkpt lat="46.69781" lon="-1.64836">
        <ele>36</ele>
        <time>2018-01-07T01:28:50Z</time>
      </trkpt>
      <trkpt lat="46.69775" lon="-1.64815">
        <ele>36</ele>
        <time>2018-01-07T01:29:50Z</time>
      </trkpt>
      <trkpt lat="46.6977" lon="-1.64799">
        <ele>36</ele>
        <time>2018-01-07T01:30:50Z</time>
      </trkpt>
      <trkpt lat="46.69763" lon="-1.64777">
        <ele>35</ele>
        <time>2018-01-07T01:31:50Z</time>
      </trkpt>
      <trkpt lat="46.69758" lon="-1.64762">
        <ele>35</ele>
        <time>2018-01-07T01:32:50Z</time>
      </trkpt>
      <trkpt lat="46.69746" lon="-1.64724">
        <ele>34</ele>
        <time>2018-01-07T01:33:50Z</time>
      </trkpt>
      <trkpt lat="46.69733" lon="-1.64688">
        <ele>33</ele>
        <time>2018-01-07T01:34:50Z</time>
      </trkpt>
      <trkpt lat="46.69723" lon="-1.64664">
        <ele>33</ele>
        <time>2018-01-07T01:35:50Z</time>
      </trkpt>
      <trkpt lat="46.69712" lon="-1.64641">
        <ele>32</ele>
        <time>2018-01-07T01:36:50Z</time>
      </trkpt>
      <trkpt lat="46.69698" lon="-1.64622">
        <ele>32</ele>
        <time>2018-01-07T01:37:50Z</time>
      </trkpt>
      <trkpt lat="46.69691" lon="-1.64613">
        <ele>31</ele>
        <time>2018-01-07T01:38:50Z</time>
      </trkpt>
      <trkpt lat="46.69685" lon="-1.64607">
        <ele>31</ele>
        <time>2018-01-07T01:39:50Z</time>
      </trkpt>
      <trkpt lat="46.69682" lon="-1.64604">
        <ele>31</ele>
        <time>2018-01-07T01:40:50Z</time>
      </trkpt>
      <trkpt lat="46.69676" lon="-1.64598">
        <ele>31</ele>
        <time>2018-01-07T01:41:50Z</time>
      </trkpt>
      <trkpt lat="46.6967" lon="-1.64593">
        <ele>30</ele>
        <time>2018-01-07T01:42:50Z</time>
      </trkpt>
      <trkpt lat="46.69664" lon="-1.64588">
        <ele>30</ele>
        <time>2018-01-07T01:43:50Z</time>
      </trkpt>
      <trkpt lat="46.69541" lon="-1.64498">
        <ele>33</ele>
        <time>2018-01-07T01:44:50Z</time>
      </trkpt>
      <trkpt lat="46.695" lon="-1.64468">
        <ele>35</ele>
        <time>2018-01-07T01:45:50Z</time>
      </trkpt>
      <trkpt lat="46.6946" lon="-1.64437">
        <ele>36</ele>
        <time>2018-01-07T01:46:50Z</time>
      </trkpt>
      <trkpt lat="46.6945" lon="-1.64431">
        <ele>36</ele>
        <time>2018-01-07T01:47:50Z</time>
      </trkpt>
      <trkpt lat="46.69386" lon="-1.64383">
        <ele>37</ele>
        <time>2018-01-07T01:48:50Z</time>
      </trkpt>
      <trkpt lat="46.69354" lon="-1.64359">
        <ele>39</ele>
        <time>2018-01-07T01:49:50Z</time>
      </trkpt>
      <trkpt lat="46.69301" lon="-1.6432">
        <ele>40</ele>
        <time>2018-01-07T01:50:50Z</time>
      </trkpt>
      <trkpt lat="46.69281" lon="-1.64305">
        <ele>40</ele>
        <time>2018-01-07T01:51:50Z</time>
      </trkpt>
      <trkpt lat="46.69246" lon="-1.64279">
        <ele>40</ele>
        <time>2018-01-07T01:52:50Z</time>
      </trkpt>
      <trkpt lat="46.69221" lon="-1.64259">
        <ele>39</ele>
        <time>2018-01-07T01:53:50Z</time>
      </trkpt>
      <trkpt lat="46.69207" lon="-1.64246">
        <ele>39</ele>
        <time>2018-01-07T01:54:50Z</time>
      </trkpt>
      <trkpt lat="46.69202" lon="-1.64241">
        <ele>39</ele>
        <time>2018-01-07T01:55:50Z</time>
      </trkpt>
      <trkpt lat="46.69194" lon="-1.64233">
        <ele>39</ele>
        <time>2018-01-07T01:56:50Z</time>
      </trkpt>
      <trkpt lat="46.69167" lon="-1.64203">
        <ele>39</ele>
        <time>2018-01-07T01:57:50Z</time>
      </trkpt>
      <trkpt lat="46.69148" lon="-1.64183">
        <ele>38</ele>
        <time>2018-01-07T01:58:50Z</time>
      </trkpt>
      <trkpt lat="46.69136" lon="-1.64169">
        <ele>38</ele>
        <time>2018-01-07T01:59:50Z</time>
      </trkpt>
      <trkpt lat="46.69111" lon="-1.64142">
        <ele>37</ele>
        <time>2018-01-07T02:00:50Z</time>
      </trkpt>
      <trkpt lat="46.69081" lon="-1.64107">
        <ele>36</ele>
        <time>2018-01-07T02:01:50Z</time>
      </trkpt>
      <trkpt lat="46.6906" lon="-1.64084">
        <ele>36</ele>
        <time>2018-01-07T02:02:50Z</time>
      </trkpt>
      <trkpt lat="46.69053" lon="-1.64078">
        <ele>36</ele>
        <time>2018-01-07T02:03:50Z</time>
      </trkpt>
      <trkpt lat="46.6904" lon="-1.64064">
        <ele>36</ele>
        <time>2018-01-07T02:04:50Z</time>
      </trkpt>
      <trkpt lat="46.69032" lon="-1.64056">
        <ele>35</ele>
        <time>2018-01-07T02:05:50Z</time>
      </trkpt>
      <trkpt lat="46.69018" lon="-1.64042">
        <ele>34</ele>
        <time>2018-01-07T02:06:50Z</time>
      </trkpt>
      <trkpt lat="46.69004" lon="-1.64027">
        <ele>33</ele>
        <time>2018-01-07T02:07:50Z</time>
      </trkpt>
      <trkpt lat="46.6899" lon="-1.64013">
        <ele>32</ele>
        <time>2018-01-07T02:08:50Z</time>
      </trkpt>
      <trkpt lat="46.68983" lon="-1.64006">
        <ele>32</ele>
        <time>2018-01-07T02:09:50Z</time>
      </trkpt>
      <trkpt lat="46.68975" lon="-1.63999">
        <ele>32</ele>
        <time>2018-01-07T02:10:50Z</time>
      </trkpt>
      <trkpt lat="46.68968" lon="-1.63992">
        <ele>32</ele>
        <time>2018-01-07T02:11:50Z</time>
      </trkpt>
      <trkpt lat="46.68962" lon="-1.63985">
        <ele>32</ele>
        <time>2018-01-07T02:12:50Z</time>
      </trkpt>
      <trkpt lat="46.68954" lon="-1.63977">
        <ele>33</ele>
        <time>2018-01-07T02:13:50Z</time>
      </trkpt>
      <trkpt lat="46.68948" lon="-1.63972">
        <ele>33</ele>
        <time>2018-01-07T02:14:50Z</time>
      </trkpt>
      <trkpt lat="46.68941" lon="-1.63965">
        <ele>33</ele>
        <time>2018-01-07T02:15:50Z</time>
      </trkpt>
      <trkpt lat="46.68935" lon="-1.63957">
        <ele>33</ele>
        <time>2018-01-07T02:16:50Z</time>
      </trkpt>
      <trkpt lat="46.68929" lon="-1.6395">
        <ele>32</ele>
        <time>2018-01-07T02:17:50Z</time>
      </trkpt>
      <trkpt lat="46.68924" lon="-1.63943">
        <ele>32</ele>
        <time>2018-01-07T02:18:50Z</time>
      </trkpt>
      <trkpt lat="46.68919" lon="-1.63934">
        <ele>32</ele>
        <time>2018-01-07T02:19:50Z</time>
      </trkpt>
      <trkpt lat="46.68915" lon="-1.63925">
        <ele>31</ele>
        <time>2018-01-07T02:20:50Z</time>
      </trkpt>
      <trkpt lat="46.68912" lon="-1.63916">
        <ele>31</ele>
        <time>2018-01-07T02:21:50Z</time>
      </trkpt>
      <trkpt lat="46.6891" lon="-1.63906">
        <ele>31</ele>
        <time>2018-01-07T02:22:50Z</time>
      </trkpt>
      <trkpt lat="46.68909" lon="-1.63896">
        <ele>32</ele>
        <time>2018-01-07T02:23:50Z</time>
      </trkpt>
      <trkpt lat="46.68907" lon="-1.63885">
        <ele>32</ele>
        <time>2018-01-07T02:24:50Z</time>
      </trkpt>
      <trkpt lat="46.68905" lon="-1.63847">
        <ele>33</ele>
        <time>2018-01-07T02:25:50Z</time>
      </trkpt>
      <trkpt lat="46.68903" lon="-1.63836">
        <ele>33</ele>
        <time>2018-01-07T02:26:50Z</time>
      </trkpt>
      <trkpt lat="46.68901" lon="-1.63822">
        <ele>34</ele>
        <time>2018-01-07T02:27:50Z</time>
      </trkpt>
      <trkpt lat="46.68899" lon="-1.63809">
        <ele>34</ele>
        <time>2018-01-07T02:28:50Z</time>
      </trkpt>
      <trkpt lat="46.68896" lon="-1.63796">
        <ele>35</ele>
        <time>2018-01-07T02:29:50Z</time>
      </trkpt>
      <trkpt lat="46.68888" lon="-1.6377">
        <ele>36</ele>
        <time>2018-01-07T02:30:50Z</time>
      </trkpt>
      <trkpt lat="46.68879" lon="-1.63743">
        <ele>38</ele>
        <time>2018-01-07T02:31:50Z</time>
      </trkpt>
      <trkpt lat="46.6887" lon="-1.63716">
        <ele>38</ele>
        <time>2018-01-07T02:32:50Z</time>
      </trkpt>
      <trkpt lat="46.68866" lon="-1.63702">
        <ele>39</ele>
        <time>2018-01-07T02:33:50Z</time>
      </trkpt>
      <trkpt lat="46.68857" lon="-1.63675">
        <ele>40</ele>
        <time>2018-01-07T02:34:50Z</time>
      </trkpt>
      <trkpt lat="46.68837" lon="-1.63618">
        <ele>41</ele>
        <time>2018-01-07T02:35:50Z</time>
      </trkpt>
      <trkpt lat="46.68828" lon="-1.63595">
        <ele>42</ele>
        <time>2018-01-07T02:36:50Z</time>
      </trkpt>
      <trkpt lat="46.68817" lon="-1.63568">
        <ele>43</ele>
        <time>2018-01-07T02:37:50Z</time>
      </trkpt>
      <trkpt lat="46.688" lon="-1.63529">
        <ele>44</ele>
        <time>2018-01-07T02:38:50Z</time>
      </trkpt>
      <trkpt lat="46.68795" lon="-1.63517">
        <ele>44</ele>
        <time>2018-01-07T02:39:50Z</time>
      </trkpt>
      <trkpt lat="46.6879" lon="-1.63503">
        <ele>44</ele>
        <time>2018-01-07T02:40:50Z</time>
      </trkpt>
      <trkpt lat="46.68779" lon="-1.63477">
        <ele>45</ele>
        <time>2018-01-07T02:41:50Z</time>
      </trkpt>
      <trkpt lat="46.68768" lon="-1.63451">
        <ele>46</ele>
        <time>2018-01-07T02:42:50Z</time>
      </trkpt>
      <trkpt lat="46.68757" lon="-1.63425">
        <ele>47</ele>
        <time>2018-01-07T02:43:50Z</time>
      </trkpt>
      <trkpt lat="46.68752" lon="-1.63412">
        <ele>47</ele>
        <time>2018-01-07T02:44:50Z</time>
      </trkpt>
      <trkpt lat="46.68748" lon="-1.634">
        <ele>47</ele>
        <time>2018-01-07T02:45:50Z</time>
      </trkpt>
      <trkpt lat="46.68743" lon="-1.63385">
        <ele>47</ele>
        <time>2018-01-07T02:46:50Z</time>
      </trkpt>
      <trkpt lat="46.68739" lon="-1.63371">
        <ele>48</ele>
        <time>2018-01-07T02:47:50Z</time>
      </trkpt>
      <trkpt lat="46.68735" lon="-1.63357">
        <ele>48</ele>
        <time>2018-01-07T02:48:50Z</time>
      </trkpt>
      <trkpt lat="46.68732" lon="-1.63343">
        <ele>48</ele>
        <time>2018-01-07T02:49:50Z</time>
      </trkpt>
      <trkpt lat="46.6873" lon="-1.63329">
        <ele>48</ele>
        <time>2018-01-07T02:50:50Z</time>
      </trkpt>
      <trkpt lat="46.68728" lon="-1.63314">
        <ele>48</ele>
        <time>2018-01-07T02:51:50Z</time>
      </trkpt>
      <trkpt lat="46.68727" lon="-1.63299">
        <ele>48</ele>
        <time>2018-01-07T02:52:50Z</time>
      </trkpt>
      <trkpt lat="46.68726" lon="-1.63284">
        <ele>48</ele>
        <time>2018-01-07T02:53:50Z</time>
      </trkpt>
      <trkpt lat="46.68726" lon="-1.63272">
        <ele>48</ele>
        <time>2018-01-07T02:54:50Z</time>
      </trkpt>
      <trkpt lat="46.68725" lon="-1.63254">
        <ele>48</ele>
        <time>2018-01-07T02:55:50Z</time>
      </trkpt>
      <trkpt lat="46.68725" lon="-1.63238">
        <ele>49</ele>
        <time>2018-01-07T02:56:50Z</time>
      </trkpt>
      <trkpt lat="46.68724" lon="-1.63208">
        <ele>49</ele>
        <time>2018-01-07T02:57:50Z</time>
      </trkpt>
      <trkpt lat="46.68724" lon="-1.63192">
        <ele>50</ele>
        <time>2018-01-07T02:58:50Z</time>
      </trkpt>
      <trkpt lat="46.68723" lon="-1.63161">
        <ele>51</ele>
        <time>2018-01-07T02:59:50Z</time>
      </trkpt>
      <trkpt lat="46.68721" lon="-1.63114">
        <ele>50</ele>
        <time>2018-01-07T03:00:50Z</time>
      </trkpt>
      <trkpt lat="46.6872" lon="-1.63084">
        <ele>50</ele>
        <time>2018-01-07T03:01:50Z</time>
      </trkpt>
      <trkpt lat="46.68719" lon="-1.63051">
        <ele>50</ele>
        <time>2018-01-07T03:02:50Z</time>
      </trkpt>
      <trkpt lat="46.68717" lon="-1.6302">
        <ele>51</ele>
        <time>2018-01-07T03:03:50Z</time>
      </trkpt>
      <trkpt lat="46.68716" lon="-1.62988">
        <ele>51</ele>
        <time>2018-01-07T03:04:50Z</time>
      </trkpt>
      <trkpt lat="46.68716" lon="-1.62972">
        <ele>52</ele>
        <time>2018-01-07T03:05:50Z</time>
      </trkpt>
      <trkpt lat="46.68715" lon="-1.62956">
        <ele>52</ele>
        <time>2018-01-07T03:06:50Z</time>
      </trkpt>
      <trkpt lat="46.68714" lon="-1.62923">
        <ele>52</ele>
        <time>2018-01-07T03:07:50Z</time>
      </trkpt>
      <trkpt lat="46.68713" lon="-1.62891">
        <ele>52</ele>
        <time>2018-01-07T03:08:50Z</time>
      </trkpt>
      <trkpt lat="46.68712" lon="-1.62874">
        <ele>53</ele>
        <time>2018-01-07T03:09:50Z</time>
      </trkpt>
      <trkpt lat="46.68711" lon="-1.62858">
        <ele>53</ele>
        <time>2018-01-07T03:10:50Z</time>
      </trkpt>
      <trkpt lat="46.6871" lon="-1.62826">
        <ele>54</ele>
        <time>2018-01-07T03:11:50Z</time>
      </trkpt>
      <trkpt lat="46.68709" lon="-1.6281">
        <ele>54</ele>
        <time>2018-01-07T03:12:50Z</time>
      </trkpt>
      <trkpt lat="46.68708" lon="-1.62779">
        <ele>55</ele>
        <time>2018-01-07T03:13:50Z</time>
      </trkpt>
      <trkpt lat="46.68707" lon="-1.62762">
        <ele>55</ele>
        <time>2018-01-07T03:14:50Z</time>
      </trkpt>
      <trkpt lat="46.68706" lon="-1.62746">
        <ele>56</ele>
        <time>2018-01-07T03:15:50Z</time>
      </trkpt>
      <trkpt lat="46.68705" lon="-1.62732">
        <ele>55</ele>
        <time>2018-01-07T03:16:50Z</time>
      </trkpt>
      <trkpt lat="46.68705" lon="-1.62716">
        <ele>55</ele>
        <time>2018-01-07T03:17:50Z</time>
      </trkpt>
      <trkpt lat="46.68704" lon="-1.62701">
        <ele>55</ele>
        <time>2018-01-07T03:18:50Z</time>
      </trkpt>
      <trkpt lat="46.68703" lon="-1.62686">
        <ele>55</ele>
        <time>2018-01-07T03:19:50Z</time>
      </trkpt>
      <trkpt lat="46.68701" lon="-1.62655">
        <ele>55</ele>
        <time>2018-01-07T03:20:50Z</time>
      </trkpt>
      <trkpt lat="46.68699" lon="-1.62641">
        <ele>55</ele>
        <time>2018-01-07T03:21:50Z</time>
      </trkpt>
      <trkpt lat="46.68698" lon="-1.62626">
        <ele>55</ele>
        <time>2018-01-07T03:22:50Z</time>
      </trkpt>
      <trkpt lat="46.68695" lon="-1.62612">
        <ele>55</ele>
        <time>2018-01-07T03:23:50Z</time>
      </trkpt>
      <trkpt lat="46.68692" lon="-1.62598">
        <ele>55</ele>
        <time>2018-01-07T03:24:50Z</time>
      </trkpt>
      <trkpt lat="46.68689" lon="-1.62584">
        <ele>55</ele>
        <time>2018-01-07T03:25:50Z</time>
      </trkpt>
      <trkpt lat="46.68685" lon="-1.62571">
        <ele>55</ele>
        <time>2018-01-07T03:26:50Z</time>
      </trkpt>
      <trkpt lat="46.68681" lon="-1.62557">
        <ele>56</ele>
        <time>2018-01-07T03:27:50Z</time>
      </trkpt>
      <trkpt lat="46.68676" lon="-1.62544">
        <ele>56</ele>
        <time>2018-01-07T03:28:50Z</time>
      </trkpt>
      <trkpt lat="46.68672" lon="-1.62531">
        <ele>56</ele>
        <time>2018-01-07T03:29:50Z</time>
      </trkpt>
      <trkpt lat="46.68666" lon="-1.62518">
        <ele>57</ele>
        <time>2018-01-07T03:30:50Z</time>
      </trkpt>
      <trkpt lat="46.68661" lon="-1.62505">
        <ele>57</ele>
        <time>2018-01-07T03:31:50Z</time>
      </trkpt>
      <trkpt lat="46.68656" lon="-1.62492">
        <ele>57</ele>
        <time>2018-01-07T03:32:50Z</time>
      </trkpt>
      <trkpt lat="46.6865" lon="-1.62479">
        <ele>56</ele>
        <time>2018-01-07T03:33:50Z</time>
      </trkpt>
      <trkpt lat="46.68644" lon="-1.62466">
        <ele>56</ele>
        <time>2018-01-07T03:34:50Z</time>
      </trkpt>
      <trkpt lat="46.68639" lon="-1.62454">
        <ele>56</ele>
        <time>2018-01-07T03:35:50Z</time>
      </trkpt>
      <trkpt lat="46.68633" lon="-1.62441">
        <ele>56</ele>
        <time>2018-01-07T03:36:50Z</time>
      </trkpt>
      <trkpt lat="46.68626" lon="-1.62429">
        <ele>56</ele>
        <time>2018-01-07T03:37:50Z</time>
      </trkpt>
      <trkpt lat="46.6862" lon="-1.62417">
        <ele>56</ele>
        <time>2018-01-07T03:38:50Z</time>
      </trkpt>
      <trkpt lat="46.68613" lon="-1.62405">
        <ele>56</ele>
        <time>2018-01-07T03:39:50Z</time>
      </trkpt>
      <trkpt lat="46.68606" lon="-1.62394">
        <ele>56</ele>
        <time>2018-01-07T03:40:50Z</time>
      </trkpt>
      <trkpt lat="46.68599" lon="-1.62383">
        <ele>56</ele>
        <time>2018-01-07T03:41:50Z</time>
      </trkpt>
      <trkpt lat="46.68591" lon="-1.62373">
        <ele>56</ele>
        <time>2018-01-07T03:42:50Z</time>
      </trkpt>
      <trkpt lat="46.68584" lon="-1.62363">
        <ele>56</ele>
        <time>2018-01-07T03:43:50Z</time>
      </trkpt>
      <trkpt lat="46.68576" lon="-1.62353">
        <ele>56</ele>
        <time>2018-01-07T03:44:50Z</time>
      </trkpt>
      <trkpt lat="46.68551" lon="-1.62325">
        <ele>56</ele>
        <time>2018-01-07T03:45:50Z</time>
      </trkpt>
      <trkpt lat="46.68504" lon="-1.62267">
        <ele>57</ele>
        <time>2018-01-07T03:46:50Z</time>
      </trkpt>
      <trkpt lat="46.68496" lon="-1.62257">
        <ele>57</ele>
        <time>2018-01-07T03:47:50Z</time>
      </trkpt>
      <trkpt lat="46.68488" lon="-1.62248">
        <ele>57</ele>
        <time>2018-01-07T03:48:50Z</time>
      </trkpt>
      <trkpt lat="46.68473" lon="-1.62228">
        <ele>57</ele>
        <time>2018-01-07T03:49:50Z</time>
      </trkpt>
      <trkpt lat="46.68458" lon="-1.62209">
        <ele>57</ele>
        <time>2018-01-07T03:50:50Z</time>
      </trkpt>
      <trkpt lat="46.68443" lon="-1.6219">
        <ele>57</ele>
        <time>2018-01-07T03:51:50Z</time>
      </trkpt>
      <trkpt lat="46.68436" lon="-1.62182">
        <ele>57</ele>
        <time>2018-01-07T03:52:50Z</time>
      </trkpt>
      <trkpt lat="46.68428" lon="-1.62171">
        <ele>57</ele>
        <time>2018-01-07T03:53:50Z</time>
      </trkpt>
      <trkpt lat="46.68419" lon="-1.62162">
        <ele>57</ele>
        <time>2018-01-07T03:54:50Z</time>
      </trkpt>
      <trkpt lat="46.68411" lon="-1.62153">
        <ele>57</ele>
        <time>2018-01-07T03:55:50Z</time>
      </trkpt>
      <trkpt lat="46.68396" lon="-1.62134">
        <ele>57</ele>
        <time>2018-01-07T03:56:50Z</time>
      </trkpt>
      <trkpt lat="46.68338" lon="-1.62064">
        <ele>56</ele>
        <time>2018-01-07T03:57:50Z</time>
      </trkpt>
      <trkpt lat="46.6833" lon="-1.62053">
        <ele>56</ele>
        <time>2018-01-07T03:58:50Z</time>
      </trkpt>
      <trkpt lat="46.68328" lon="-1.62051">
        <ele>56</ele>
        <time>2018-01-07T03:59:50Z</time>
      </trkpt>
      <trkpt lat="46.68308" lon="-1.62026">
        <ele>56</ele>
        <time>2018-01-07T04:00:50Z</time>
      </trkpt>
      <trkpt lat="46.68306" lon="-1.62023">
        <ele>56</ele>
        <time>2018-01-07T04:01:50Z</time>
      </trkpt>
      <trkpt lat="46.68288" lon="-1.61998">
        <ele>55</ele>
        <time>2018-01-07T04:02:50Z</time>
      </trkpt>
      <trkpt lat="46.6827" lon="-1.61971">
        <ele>54</ele>
        <time>2018-01-07T04:03:50Z</time>
      </trkpt>
      <trkpt lat="46.68247" lon="-1.61944">
        <ele>53</ele>
        <time>2018-01-07T04:04:50Z</time>
      </trkpt>
      <trkpt lat="46.68223" lon="-1.61918">
        <ele>52</ele>
        <time>2018-01-07T04:05:50Z</time>
      </trkpt>
      <trkpt lat="46.6819" lon="-1.61882">
        <ele>49</ele>
        <time>2018-01-07T04:06:50Z</time>
      </trkpt>
      <trkpt lat="46.68167" lon="-1.61854">
        <ele>48</ele>
        <time>2018-01-07T04:07:50Z</time>
      </trkpt>
      <trkpt lat="46.68139" lon="-1.61815">
        <ele>47</ele>
        <time>2018-01-07T04:08:50Z</time>
      </trkpt>
      <trkpt lat="46.68132" lon="-1.61806">
        <ele>47</ele>
        <time>2018-01-07T04:09:50Z</time>
      </trkpt>
      <trkpt lat="46.68125" lon="-1.61798">
        <ele>47</ele>
        <time>2018-01-07T04:10:50Z</time>
      </trkpt>
      <trkpt lat="46.68109" lon="-1.61781">
        <ele>46</ele>
        <time>2018-01-07T04:11:50Z</time>
      </trkpt>
      <trkpt lat="46.68094" lon="-1.61767">
        <ele>46</ele>
        <time>2018-01-07T04:12:50Z</time>
      </trkpt>
      <trkpt lat="46.68069" lon="-1.61749">
        <ele>46</ele>
        <time>2018-01-07T04:13:50Z</time>
      </trkpt>
      <trkpt lat="46.68045" lon="-1.61735">
        <ele>46</ele>
        <time>2018-01-07T04:14:50Z</time>
      </trkpt>
      <trkpt lat="46.68012" lon="-1.61719">
        <ele>45</ele>
        <time>2018-01-07T04:15:50Z</time>
      </trkpt>
      <trkpt lat="46.6798" lon="-1.61703">
        <ele>44</ele>
        <time>2018-01-07T04:16:50Z</time>
      </trkpt>
      <trkpt lat="46.67961" lon="-1.61695">
        <ele>43</ele>
        <time>2018-01-07T04:17:50Z</time>
      </trkpt>
      <trkpt lat="46.67951" lon="-1.61689">
        <ele>43</ele>
        <time>2018-01-07T04:18:50Z</time>
      </trkpt>
      <trkpt lat="46.67938" lon="-1.61676">
        <ele>42</ele>
        <time>2018-01-07T04:19:50Z</time>
      </trkpt>
      <trkpt lat="46.67933" lon="-1.61669">
        <ele>42</ele>
        <time>2018-01-07T04:20:50Z</time>
      </trkpt>
      <trkpt lat="46.67926" lon="-1.61656">
        <ele>42</ele>
        <time>2018-01-07T04:21:50Z</time>
      </trkpt>
      <trkpt lat="46.67921" lon="-1.61642">
        <ele>42</ele>
        <time>2018-01-07T04:22:50Z</time>
      </trkpt>
      <trkpt lat="46.67916" lon="-1.61622">
        <ele>42</ele>
        <time>2018-01-07T04:23:50Z</time>
      </trkpt>
      <trkpt lat="46.67909" lon="-1.6159">
        <ele>43</ele>
        <time>2018-01-07T04:24:50Z</time>
      </trkpt>
      <trkpt lat="46.67905" lon="-1.61573">
        <ele>43</ele>
        <time>2018-01-07T04:25:50Z</time>
      </trkpt>
      <trkpt lat="46.67904" lon="-1.61566">
        <ele>43</ele>
        <time>2018-01-07T04:26:50Z</time>
      </trkpt>
      <trkpt lat="46.67899" lon="-1.61543">
        <ele>44</ele>
        <time>2018-01-07T04:27:50Z</time>
      </trkpt>
      <trkpt lat="46.67892" lon="-1.61508">
        <ele>44</ele>
        <time>2018-01-07T04:28:50Z</time>
      </trkpt>
      <trkpt lat="46.67884" lon="-1.61474">
        <ele>45</ele>
        <time>2018-01-07T04:29:50Z</time>
      </trkpt>
      <trkpt lat="46.6788" lon="-1.61451">
        <ele>46</ele>
        <time>2018-01-07T04:30:50Z</time>
      </trkpt>
      <trkpt lat="46.67875" lon="-1.61428">
        <ele>46</ele>
        <time>2018-01-07T04:31:50Z</time>
      </trkpt>
      <trkpt lat="46.67871" lon="-1.61407">
        <ele>47</ele>
        <time>2018-01-07T04:32:50Z</time>
      </trkpt>
      <trkpt lat="46.67867" lon="-1.61387">
        <ele>47</ele>
        <time>2018-01-07T04:33:50Z</time>
      </trkpt>
      <trkpt lat="46.67864" lon="-1.61372">
        <ele>48</ele>
        <time>2018-01-07T04:34:50Z</time>
      </trkpt>
      <trkpt lat="46.67862" lon="-1.6136">
        <ele>48</ele>
        <time>2018-01-07T04:35:50Z</time>
      </trkpt>
      <trkpt lat="46.67859" lon="-1.61352">
        <ele>48</ele>
        <time>2018-01-07T04:36:50Z</time>
      </trkpt>
      <trkpt lat="46.67856" lon="-1.61344">
        <ele>48</ele>
        <time>2018-01-07T04:37:50Z</time>
      </trkpt>
      <trkpt lat="46.67856" lon="-1.61343">
        <ele>48</ele>
        <time>2018-01-07T04:38:50Z</time>
      </trkpt>
      <trkpt lat="46.67852" lon="-1.61335">
        <ele>48</ele>
        <time>2018-01-07T04:39:50Z</time>
      </trkpt>
      <trkpt lat="46.67849" lon="-1.61329">
        <ele>48</ele>
        <time>2018-01-07T04:40:50Z</time>
      </trkpt>
      <trkpt lat="46.67842" lon="-1.6132">
        <ele>49</ele>
        <time>2018-01-07T04:41:50Z</time>
      </trkpt>
      <trkpt lat="46.67826" lon="-1.61297">
        <ele>49</ele>
        <time>2018-01-07T04:42:50Z</time>
      </trkpt>
      <trkpt lat="46.67806" lon="-1.61264">
        <ele>49</ele>
        <time>2018-01-07T04:43:50Z</time>
      </trkpt>
      <trkpt lat="46.67787" lon="-1.61232">
        <ele>49</ele>
        <time>2018-01-07T04:44:50Z</time>
      </trkpt>
      <trkpt lat="46.67764" lon="-1.61193">
        <ele>49</ele>
        <time>2018-01-07T04:45:50Z</time>
      </trkpt>
      <trkpt lat="46.6775" lon="-1.61168">
        <ele>49</ele>
        <time>2018-01-07T04:46:50Z</time>
      </trkpt>
      <trkpt lat="46.67735" lon="-1.61143">
        <ele>49</ele>
        <time>2018-01-07T04:47:50Z</time>
      </trkpt>
      <trkpt lat="46.67726" lon="-1.6113">
        <ele>49</ele>
        <time>2018-01-07T04:48:50Z</time>
      </trkpt>
      <trkpt lat="46.67722" lon="-1.61125">
        <ele>49</ele>
        <time>2018-01-07T04:49:50Z</time>
      </trkpt>
      <trkpt lat="46.67718" lon="-1.61121">
        <ele>49</ele>
        <time>2018-01-07T04:50:50Z</time>
      </trkpt>
      <trkpt lat="46.67708" lon="-1.61111">
        <ele>49</ele>
        <time>2018-01-07T04:51:50Z</time>
      </trkpt>
      <trkpt lat="46.67698" lon="-1.61104">
        <ele>49</ele>
        <time>2018-01-07T04:52:50Z</time>
      </trkpt>
      <trkpt lat="46.67675" lon="-1.61093">
        <ele>49</ele>
        <time>2018-01-07T04:53:50Z</time>
      </trkpt>
      <trkpt lat="46.67667" lon="-1.6109">
        <ele>49</ele>
        <time>2018-01-07T04:54:50Z</time>
      </trkpt>
      <trkpt lat="46.67662" lon="-1.61087">
        <ele>49</ele>
        <time>2018-01-07T04:55:50Z</time>
      </trkpt>
      <trkpt lat="46.67656" lon="-1.61083">
        <ele>49</ele>
        <time>2018-01-07T04:56:50Z</time>
      </trkpt>
      <trkpt lat="46.67651" lon="-1.61077">
        <ele>48</ele>
        <time>2018-01-07T04:57:50Z</time>
      </trkpt>
      <trkpt lat="46.67644" lon="-1.61069">
        <ele>48</ele>
        <time>2018-01-07T04:58:50Z</time>
      </trkpt>
      <trkpt lat="46.67641" lon="-1.61066">
        <ele>48</ele>
        <time>2018-01-07T04:59:50Z</time>
      </trkpt>
      <trkpt lat="46.67639" lon="-1.61065">
        <ele>48</ele>
        <time>2018-01-07T05:00:50Z</time>
      </trkpt>
      <trkpt lat="46.67617" lon="-1.61049">
        <ele>47</ele>
        <time>2018-01-07T05:01:50Z</time>
      </trkpt>
      <trkpt lat="46.67617" lon="-1.61049">
        <ele>47</ele>
        <time>2018-01-07T05:02:50Z</time>
      </trkpt>
      <trkpt lat="46.67611" lon="-1.61063">
        <ele>47</ele>
        <time>2018-01-07T05:03:50Z</time>
      </trkpt>
      <trkpt lat="46.67609" lon="-1.61069">
        <ele>47</ele>
        <time>2018-01-07T05:04:50Z</time>
      </trkpt>
      <trkpt lat="46.67594" lon="-1.61098">
        <ele>46</ele>
        <time>2018-01-07T05:05:50Z</time>
      </trkpt>
      <trkpt lat="46.67586" lon="-1.61105">
        <ele>45</ele>
        <time>2018-01-07T05:06:50Z</time>
      </trkpt>
      <trkpt lat="46.67567" lon="-1.61117">
        <ele>43</ele>
        <time>2018-01-07T05:07:50Z</time>
      </trkpt>
      <trkpt lat="46.67551" lon="-1.61128">
        <ele>42</ele>
        <time>2018-01-07T05:08:50Z</time>
      </trkpt>
      <trkpt lat="46.67551" lon="-1.61128">
        <ele>42</ele>
        <time>2018-01-07T05:09:50Z</time>
      </trkpt>
      <trkpt lat="46.67554" lon="-1.61139">
        <ele>41</ele>
        <time>2018-01-07T05:10:50Z</time>
      </trkpt>
      <trkpt lat="46.67564" lon="-1.61167">
        <ele>41</ele>
        <time>2018-01-07T05:11:50Z</time>
      </trkpt>
      <trkpt lat="46.67574" lon="-1.61188">
        <ele>40</ele>
        <time>2018-01-07T05:12:50Z</time>
      </trkpt>
      <trkpt lat="46.67583" lon="-1.61209">
        <ele>39</ele>
        <time>2018-01-07T05:13:50Z</time>
      </trkpt>
      <trkpt lat="46.6759" lon="-1.61221">
        <ele>39</ele>
        <time>2018-01-07T05:14:50Z</time>
      </trkpt>
      <trkpt lat="46.67597" lon="-1.61229">
        <ele>39</ele>
        <time>2018-01-07T05:15:50Z</time>
      </trkpt>
      <trkpt lat="46.67603" lon="-1.61232">
        <ele>40</ele>
        <time>2018-01-07T05:16:50Z</time>
      </trkpt>
      <trkpt lat="46.67606" lon="-1.61233">
        <ele>40</ele>
        <time>2018-01-07T05:17:50Z</time>
      </trkpt>
      <trkpt lat="46.67606" lon="-1.6125">
        <ele>39</ele>
        <time>2018-01-07T05:18:50Z</time>
      </trkpt>
      <trkpt lat="46.67606" lon="-1.61253">
        <ele>39</ele>
        <time>2018-01-07T05:19:50Z</time>
      </trkpt>
      <trkpt lat="46.67606" lon="-1.61255">
        <ele>39</ele>
        <time>2018-01-07T05:20:50Z</time>
      </trkpt>
      <trkpt lat="46.67608" lon="-1.61263">
        <ele>39</ele>
        <time>2018-01-07T05:21:50Z</time>
      </trkpt>
      <trkpt lat="46.67618" lon="-1.61286">
        <ele>39</ele>
        <time>2018-01-07T05:22:50Z</time>
      </trkpt>
      <trkpt lat="46.6762" lon="-1.61291">
        <ele>39</ele>
        <time>2018-01-07T05:23:50Z</time>
      </trkpt>
      <trkpt lat="46.67621" lon="-1.61296">
        <ele>39</ele>
        <time>2018-01-07T05:24:50Z</time>
      </trkpt>
      <trkpt lat="46.67621" lon="-1.61302">
        <ele>39</ele>
        <time>2018-01-07T05:25:50Z</time>
      </trkpt>
      <trkpt lat="46.67621" lon="-1.6131">
        <ele>39</ele>
        <time>2018-01-07T05:26:50Z</time>
      </trkpt>
      <trkpt lat="46.67619" lon="-1.61327">
        <ele>38</ele>
        <time>2018-01-07T05:27:50Z</time>
      </trkpt>
      <trkpt lat="46.67617" lon="-1.61335">
        <ele>38</ele>
        <time>2018-01-07T05:28:50Z</time>
      </trkpt>
      <trkpt lat="46.67613" lon="-1.61343">
        <ele>37</ele>
        <time>2018-01-07T05:29:50Z</time>
      </trkpt>
      <trkpt lat="46.67604" lon="-1.61359">
        <ele>37</ele>
        <time>2018-01-07T05:30:50Z</time>
      </trkpt>
      <trkpt lat="46.676" lon="-1.61369">
        <ele>36</ele>
        <time>2018-01-07T05:31:50Z</time>
      </trkpt>
      <trkpt lat="46.67599" lon="-1.61379">
        <ele>36</ele>
        <time>2018-01-07T05:32:50Z</time>
      </trkpt>
      <trkpt lat="46.67599" lon="-1.61387">
        <ele>36</ele>
        <time>2018-01-07T05:33:50Z</time>
      </trkpt>
      <trkpt lat="46.67602" lon="-1.61396">
        <ele>36</ele>
        <time>2018-01-07T05:34:50Z</time>
      </trkpt>
      <trkpt lat="46.67609" lon="-1.61421">
        <ele>36</ele>
        <time>2018-01-07T05:35:50Z</time>
      </trkpt>
      <trkpt lat="46.67612" lon="-1.6144">
        <ele>37</ele>
        <time>2018-01-07T05:36:50Z</time>
      </trkpt>
      <trkpt lat="46.67615" lon="-1.61466">
        <ele>37</ele>
        <time>2018-01-07T05:37:50Z</time>
      </trkpt>
      <trkpt lat="46.67616" lon="-1.61497">
        <ele>37</ele>
        <time>2018-01-07T05:38:50Z</time>
      </trkpt>
      <trkpt lat="46.67616" lon="-1.61523">
        <ele>36</ele>
        <time>2018-01-07T05:39:50Z</time>
      </trkpt>
      <trkpt lat="46.67616" lon="-1.61533">
        <ele>36</ele>
        <time>2018-01-07T05:40:50Z</time>
      </trkpt>
      <trkpt lat="46.67615" lon="-1.61546">
        <ele>36</ele>
        <time>2018-01-07T05:41:50Z</time>
      </trkpt>
      <trkpt lat="46.67612" lon="-1.61568">
        <ele>35</ele>
        <time>2018-01-07T05:42:50Z</time>
      </trkpt>
      <trkpt lat="46.67608" lon="-1.61616">
        <ele>36</ele>
        <time>2018-01-07T05:43:50Z</time>
      </trkpt>
      <trkpt lat="46.67605" lon="-1.61669">
        <ele>37</ele>
        <time>2018-01-07T05:44:50Z</time>
      </trkpt>
      <trkpt lat="46.67603" lon="-1.61711">
        <ele>38</ele>
        <time>2018-01-07T05:45:50Z</time>
      </trkpt>
      <trkpt lat="46.67601" lon="-1.61749">
        <ele>38</ele>
        <time>2018-01-07T05:46:50Z</time>
      </trkpt>
      <trkpt lat="46.67598" lon="-1.61775">
        <ele>38</ele>
        <time>2018-01-07T05:47:50Z</time>
      </trkpt>
      <trkpt lat="46.67595" lon="-1.61796">
        <ele>38</ele>
        <time>2018-01-07T05:48:50Z</time>
      </trkpt>
      <trkpt lat="46.67591" lon="-1.61812">
        <ele>38</ele>
        <time>2018-01-07T05:49:50Z</time>
      </trkpt>
      <trkpt lat="46.67586" lon="-1.61828">
        <ele>38</ele>
        <time>2018-01-07T05:50:50Z</time>
      </trkpt>
      <trkpt lat="46.67581" lon="-1.61835">
        <ele>38</ele>
        <time>2018-01-07T05:51:50Z</time>
      </trkpt>
      <trkpt lat="46.67574" lon="-1.6185">
        <ele>38</ele>
        <time>2018-01-07T05:52:50Z</time>
      </trkpt>
      <trkpt lat="46.67564" lon="-1.61873">
        <ele>38</ele>
        <time>2018-01-07T05:53:50Z</time>
      </trkpt>
      <trkpt lat="46.6756" lon="-1.61887">
        <ele>38</ele>
        <time>2018-01-07T05:54:50Z</time>
      </trkpt>
      <trkpt lat="46.67557" lon="-1.61902">
        <ele>37</ele>
        <time>2018-01-07T05:55:50Z</time>
      </trkpt>
      <trkpt lat="46.67557" lon="-1.61942">
        <ele>37</ele>
        <time>2018-01-07T05:56:50Z</time>
      </trkpt>
      <trkpt lat="46.67562" lon="-1.61971">
        <ele>37</ele>
        <time>2018-01-07T05:57:50Z</time>
      </trkpt>
      <trkpt lat="46.67568" lon="-1.61994">
        <ele>36</ele>
        <time>2018-01-07T05:58:50Z</time>
      </trkpt>
      <trkpt lat="46.67575" lon="-1.62011">
        <ele>35</ele>
        <time>2018-01-07T05:59:50Z</time>
      </trkpt>
      <trkpt lat="46.67583" lon="-1.62019">
        <ele>35</ele>
        <time>2018-01-07T06:00:50Z</time>
      </trkpt>
      <trkpt lat="46.67594" lon="-1.62026">
        <ele>34</ele>
        <time>2018-01-07T06:01:50Z</time>
      </trkpt>
      <trkpt lat="46.67614" lon="-1.62035">
        <ele>34</ele>
        <time>2018-01-07T06:02:50Z</time>
      </trkpt>
      <trkpt lat="46.67627" lon="-1.62043">
        <ele>35</ele>
        <time>2018-01-07T06:03:50Z</time>
      </trkpt>
      <trkpt lat="46.67637" lon="-1.62053">
        <ele>35</ele>
        <time>2018-01-07T06:04:50Z</time>
      </trkpt>
      <trkpt lat="46.67643" lon="-1.62063">
        <ele>35</ele>
        <time>2018-01-07T06:05:50Z</time>
      </trkpt>
      <trkpt lat="46.67651" lon="-1.62082">
        <ele>35</ele>
        <time>2018-01-07T06:06:50Z</time>
      </trkpt>
      <trkpt lat="46.67662" lon="-1.62112">
        <ele>36</ele>
        <time>2018-01-07T06:07:50Z</time>
      </trkpt>
      <trkpt lat="46.67677" lon="-1.62154">
        <ele>36</ele>
        <time>2018-01-07T06:08:50Z</time>
      </trkpt>
      <trkpt lat="46.67688" lon="-1.62187">
        <ele>37</ele>
        <time>2018-01-07T06:09:50Z</time>
      </trkpt>
      <trkpt lat="46.67694" lon="-1.62213">
        <ele>38</ele>
        <time>2018-01-07T06:10:50Z</time>
      </trkpt>
      <trkpt lat="46.67696" lon="-1.62222">
        <ele>38</ele>
        <time>2018-01-07T06:11:50Z</time>
      </trkpt>
      <trkpt lat="46.67699" lon="-1.62237">
        <ele>38</ele>
        <time>2018-01-07T06:12:50Z</time>
      </trkpt>
      <trkpt lat="46.67701" lon="-1.62258">
        <ele>39</ele>
        <time>2018-01-07T06:13:50Z</time>
      </trkpt>
      <trkpt lat="46.67702" lon="-1.62286">
        <ele>39</ele>
        <time>2018-01-07T06:14:50Z</time>
      </trkpt>
      <trkpt lat="46.67702" lon="-1.62308">
        <ele>40</ele>
        <time>2018-01-07T06:15:50Z</time>
      </trkpt>
      <trkpt lat="46.67701" lon="-1.62322">
        <ele>40</ele>
        <time>2018-01-07T06:16:50Z</time>
      </trkpt>
      <trkpt lat="46.677" lon="-1.62345">
        <ele>41</ele>
        <time>2018-01-07T06:17:50Z</time>
      </trkpt>
      <trkpt lat="46.67697" lon="-1.62367">
        <ele>41</ele>
        <time>2018-01-07T06:18:50Z</time>
      </trkpt>
      <trkpt lat="46.67696" lon="-1.62378">
        <ele>41</ele>
        <time>2018-01-07T06:19:50Z</time>
      </trkpt>
      <trkpt lat="46.67694" lon="-1.62391">
        <ele>41</ele>
        <time>2018-01-07T06:20:50Z</time>
      </trkpt>
      <trkpt lat="46.67692" lon="-1.62403">
        <ele>41</ele>
        <time>2018-01-07T06:21:50Z</time>
      </trkpt>
      <trkpt lat="46.6769" lon="-1.62414">
        <ele>41</ele>
        <time>2018-01-07T06:22:50Z</time>
      </trkpt>
      <trkpt lat="46.67688" lon="-1.62424">
        <ele>41</ele>
        <time>2018-01-07T06:23:50Z</time>
      </trkpt>
      <trkpt lat="46.67685" lon="-1.62436">
        <ele>40</ele>
        <time>2018-01-07T06:24:50Z</time>
      </trkpt>
      <trkpt lat="46.6768" lon="-1.62451">
        <ele>40</ele>
        <time>2018-01-07T06:25:50Z</time>
      </trkpt>
      <trkpt lat="46.67674" lon="-1.62471">
        <ele>39</ele>
        <time>2018-01-07T06:26:50Z</time>
      </trkpt>
      <trkpt lat="46.67668" lon="-1.6249">
        <ele>38</ele>
        <time>2018-01-07T06:27:50Z</time>
      </trkpt>
      <trkpt lat="46.67661" lon="-1.6251">
        <ele>38</ele>
        <time>2018-01-07T06:28:50Z</time>
      </trkpt>
      <trkpt lat="46.67656" lon="-1.62531">
        <ele>39</ele>
        <time>2018-01-07T06:29:50Z</time>
      </trkpt>
      <trkpt lat="46.67652" lon="-1.62543">
        <ele>39</ele>
        <time>2018-01-07T06:30:50Z</time>
      </trkpt>
      <trkpt lat="46.67647" lon="-1.62566">
        <ele>39</ele>
        <time>2018-01-07T06:31:50Z</time>
      </trkpt>
      <trkpt lat="46.67642" lon="-1.62585">
        <ele>39</ele>
        <time>2018-01-07T06:32:50Z</time>
      </trkpt>
      <trkpt lat="46.67637" lon="-1.62607">
        <ele>38</ele>
        <time>2018-01-07T06:33:50Z</time>
      </trkpt>
      <trkpt lat="46.67633" lon="-1.62627">
        <ele>38</ele>
        <time>2018-01-07T06:34:50Z</time>
      </trkpt>
      <trkpt lat="46.67629" lon="-1.62645">
        <ele>37</ele>
        <time>2018-01-07T06:35:50Z</time>
      </trkpt>
      <trkpt lat="46.67625" lon="-1.62671">
        <ele>36</ele>
        <time>2018-01-07T06:36:50Z</time>
      </trkpt>
      <trkpt lat="46.67623" lon="-1.62688">
        <ele>35</ele>
        <time>2018-01-07T06:37:50Z</time>
      </trkpt>
      <trkpt lat="46.67621" lon="-1.62712">
        <ele>35</ele>
        <time>2018-01-07T06:38:50Z</time>
      </trkpt>
      <trkpt lat="46.67619" lon="-1.62735">
        <ele>34</ele>
        <time>2018-01-07T06:39:50Z</time>
      </trkpt>
      <trkpt lat="46.67618" lon="-1.62759">
        <ele>34</ele>
        <time>2018-01-07T06:40:50Z</time>
      </trkpt>
      <trkpt lat="46.67617" lon="-1.62779">
        <ele>35</ele>
        <time>2018-01-07T06:41:50Z</time>
      </trkpt>
      <trkpt lat="46.67616" lon="-1.62797">
        <ele>36</ele>
        <time>2018-01-07T06:42:50Z</time>
      </trkpt>
      <trkpt lat="46.67615" lon="-1.62816">
        <ele>37</ele>
        <time>2018-01-07T06:43:50Z</time>
      </trkpt>
      <trkpt lat="46.67613" lon="-1.62836">
        <ele>37</ele>
        <time>2018-01-07T06:44:50Z</time>
      </trkpt>
      <trkpt lat="46.67612" lon="-1.62853">
        <ele>39</ele>
        <time>2018-01-07T06:45:50Z</time>
      </trkpt>
      <trkpt lat="46.67611" lon="-1.62876">
        <ele>40</ele>
        <time>2018-01-07T06:46:50Z</time>
      </trkpt>
      <trkpt lat="46.6761" lon="-1.62898">
        <ele>42</ele>
        <time>2018-01-07T06:47:50Z</time>
      </trkpt>
      <trkpt lat="46.67612" lon="-1.62919">
        <ele>43</ele>
        <time>2018-01-07T06:48:50Z</time>
      </trkpt>
      <trkpt lat="46.67616" lon="-1.62937">
        <ele>44</ele>
        <time>2018-01-07T06:49:50Z</time>
      </trkpt>
      <trkpt lat="46.67625" lon="-1.62958">
        <ele>44</ele>
        <time>2018-01-07T06:50:50Z</time>
      </trkpt>
      <trkpt lat="46.67636" lon="-1.6298">
        <ele>45</ele>
        <time>2018-01-07T06:51:50Z</time>
      </trkpt>
      <trkpt lat="46.67641" lon="-1.62991">
        <ele>45</ele>
        <time>2018-01-07T06:52:50Z</time>
      </trkpt>
      <trkpt lat="46.67665" lon="-1.63042">
        <ele>46</ele>
        <time>2018-01-07T06:53:50Z</time>
      </trkpt>
      <trkpt lat="46.67677" lon="-1.63068">
        <ele>45</ele>
        <time>2018-01-07T06:54:50Z</time>
      </trkpt>
      <trkpt lat="46.67686" lon="-1.6309">
        <ele>44</ele>
        <time>2018-01-07T06:55:50Z</time>
      </trkpt>
      <trkpt lat="46.67692" lon="-1.63109">
        <ele>44</ele>
        <time>2018-01-07T06:56:50Z</time>
      </trkpt>
      <trkpt lat="46.677" lon="-1.63133">
        <ele>43</ele>
        <time>2018-01-07T06:57:50Z</time>
      </trkpt>
      <trkpt lat="46.67703" lon="-1.63149">
        <ele>44</ele>
        <time>2018-01-07T06:58:50Z</time>
      </trkpt>
      <trkpt lat="46.67707" lon="-1.63165">
        <ele>44</ele>
        <time>2018-01-07T06:59:50Z</time>
      </trkpt>
      <trkpt lat="46.67709" lon="-1.63177">
        <ele>44</ele>
        <time>2018-01-07T07:00:50Z</time>
      </trkpt>
      <trkpt lat="46.67711" lon="-1.6319">
        <ele>44</ele>
        <time>2018-01-07T07:01:50Z</time>
      </trkpt>
      <trkpt lat="46.67714" lon="-1.63201">
        <ele>44</ele>
        <time>2018-01-07T07:02:50Z</time>
      </trkpt>
      <trkpt lat="46.67716" lon="-1.63218">
        <ele>44</ele>
        <time>2018-01-07T07:03:50Z</time>
      </trkpt>
      <trkpt lat="46.67716" lon="-1.63231">
        <ele>44</ele>
        <time>2018-01-07T07:04:50Z</time>
      </trkpt>
      <trkpt lat="46.67715" lon="-1.63245">
        <ele>45</ele>
        <time>2018-01-07T07:05:50Z</time>
      </trkpt>
      <trkpt lat="46.67712" lon="-1.6326">
        <ele>45</ele>
        <time>2018-01-07T07:06:50Z</time>
      </trkpt>
      <trkpt lat="46.67709" lon="-1.63268">
        <ele>45</ele>
        <time>2018-01-07T07:07:50Z</time>
      </trkpt>
      <trkpt lat="46.67708" lon="-1.63275">
        <ele>45</ele>
        <time>2018-01-07T07:08:50Z</time>
      </trkpt>
      <trkpt lat="46.67704" lon="-1.63293">
        <ele>45</ele>
        <time>2018-01-07T07:09:50Z</time>
      </trkpt>
      <trkpt lat="46.6769" lon="-1.63361">
        <ele>43</ele>
        <time>2018-01-07T07:10:50Z</time>
      </trkpt>
      <trkpt lat="46.67676" lon="-1.6342">
        <ele>41</ele>
        <time>2018-01-07T07:11:50Z</time>
      </trkpt>
      <trkpt lat="46.67654" lon="-1.63492">
        <ele>41</ele>
        <time>2018-01-07T07:12:50Z</time>
      </trkpt>
      <trkpt lat="46.67632" lon="-1.6354">
        <ele>42</ele>
        <time>2018-01-07T07:13:50Z</time>
      </trkpt>
      <trkpt lat="46.67621" lon="-1.63561">
        <ele>43</ele>
        <time>2018-01-07T07:14:50Z</time>
      </trkpt>
      <trkpt lat="46.67609" lon="-1.63581">
        <ele>43</ele>
        <time>2018-01-07T07:15:50Z</time>
      </trkpt>
      <trkpt lat="46.67581" lon="-1.63625">
        <ele>45</ele>
        <time>2018-01-07T07:16:50Z</time>
      </trkpt>
      <trkpt lat="46.6739" lon="-1.6394">
        <ele>58</ele>
        <time>2018-01-07T07:17:50Z</time>
      </trkpt>
      <trkpt lat="46.67387" lon="-1.63945">
        <ele>58</ele>
        <time>2018-01-07T07:18:50Z</time>
      </trkpt>
      <trkpt lat="46.67384" lon="-1.63948">
        <ele>57</ele>
        <time>2018-01-07T07:19:50Z</time>
      </trkpt>
      <trkpt lat="46.67377" lon="-1.63959">
        <ele>57</ele>
        <time>2018-01-07T07:20:50Z</time>
      </trkpt>
      <trkpt lat="46.67348" lon="-1.64006">
        <ele>56</ele>
        <time>2018-01-07T07:21:50Z</time>
      </trkpt>
      <trkpt lat="46.67334" lon="-1.6403">
        <ele>55</ele>
        <time>2018-01-07T07:22:50Z</time>
      </trkpt>
      <trkpt lat="46.6732" lon="-1.64055">
        <ele>53</ele>
        <time>2018-01-07T07:23:50Z</time>
      </trkpt>
      <trkpt lat="46.67314" lon="-1.64067">
        <ele>53</ele>
        <time>2018-01-07T07:24:50Z</time>
      </trkpt>
      <trkpt lat="46.67303" lon="-1.64093">
        <ele>51</ele>
        <time>2018-01-07T07:25:50Z</time>
      </trkpt>
      <trkpt lat="46.67292" lon="-1.64121">
        <ele>49</ele>
        <time>2018-01-07T07:26:50Z</time>
      </trkpt>
      <trkpt lat="46.67288" lon="-1.64135">
        <ele>47</ele>
        <time>2018-01-07T07:27:50Z</time>
      </trkpt>
      <trkpt lat="46.67283" lon="-1.64149">
        <ele>46</ele>
        <time>2018-01-07T07:28:50Z</time>
      </trkpt>
      <trkpt lat="46.67275" lon="-1.64177">
        <ele>45</ele>
        <time>2018-01-07T07:29:50Z</time>
      </trkpt>
      <trkpt lat="46.67268" lon="-1.64206">
        <ele>45</ele>
        <time>2018-01-07T07:30:50Z</time>
      </trkpt>
      <trkpt lat="46.67262" lon="-1.64237">
        <ele>44</ele>
        <time>2018-01-07T07:31:50Z</time>
      </trkpt>
      <trkpt lat="46.67258" lon="-1.64267">
        <ele>43</ele>
        <time>2018-01-07T07:32:50Z</time>
      </trkpt>
      <trkpt lat="46.67255" lon="-1.64287">
        <ele>43</ele>
        <time>2018-01-07T07:33:50Z</time>
      </trkpt>
      <trkpt lat="46.67252" lon="-1.64315">
        <ele>42</ele>
        <time>2018-01-07T07:34:50Z</time>
      </trkpt>
      <trkpt lat="46.67252" lon="-1.64343">
        <ele>41</ele>
        <time>2018-01-07T07:35:50Z</time>
      </trkpt>
      <trkpt lat="46.67253" lon="-1.64381">
        <ele>40</ele>
        <time>2018-01-07T07:36:50Z</time>
      </trkpt>
      <trkpt lat="46.67258" lon="-1.64445">
        <ele>39</ele>
        <time>2018-01-07T07:37:50Z</time>
      </trkpt>
      <trkpt lat="46.67263" lon="-1.64471">
        <ele>38</ele>
        <time>2018-01-07T07:38:50Z</time>
      </trkpt>
      <trkpt lat="46.67272" lon="-1.64516">
        <ele>38</ele>
        <time>2018-01-07T07:39:50Z</time>
      </trkpt>
      <trkpt lat="46.67284" lon="-1.64555">
        <ele>38</ele>
        <time>2018-01-07T07:40:50Z</time>
      </trkpt>
      <trkpt lat="46.67295" lon="-1.64588">
        <ele>39</ele>
        <time>2018-01-07T07:41:50Z</time>
      </trkpt>
      <trkpt lat="46.67308" lon="-1.64618">
        <ele>39</ele>
        <time>2018-01-07T07:42:50Z</time>
      </trkpt>
      <trkpt lat="46.67323" lon="-1.64649">
        <ele>40</ele>
        <time>2018-01-07T07:43:50Z</time>
      </trkpt>
      <trkpt lat="46.67356" lon="-1.64706">
        <ele>41</ele>
        <time>2018-01-07T07:44:50Z</time>
      </trkpt>
      <trkpt lat="46.67392" lon="-1.64764">
        <ele>43</ele>
        <time>2018-01-07T07:45:50Z</time>
      </trkpt>
      <trkpt lat="46.67419" lon="-1.64807">
        <ele>45</ele>
        <time>2018-01-07T07:46:50Z</time>
      </trkpt>
      <trkpt lat="46.67445" lon="-1.64846">
        <ele>46</ele>
        <time>2018-01-07T07:47:50Z</time>
      </trkpt>
      <trkpt lat="46.67462" lon="-1.64876">
        <ele>47</ele>
        <time>2018-01-07T07:48:50Z</time>
      </trkpt>
      <trkpt lat="46.67475" lon="-1.64902">
        <ele>47</ele>
        <time>2018-01-07T07:49:50Z</time>
      </trkpt>
      <trkpt lat="46.67476" lon="-1.64906">
        <ele>47</ele>
        <time>2018-01-07T07:50:50Z</time>
      </trkpt>
      <trkpt lat="46.67485" lon="-1.64927">
        <ele>48</ele>
        <time>2018-01-07T07:51:50Z</time>
      </trkpt>
      <trkpt lat="46.67492" lon="-1.64948">
        <ele>48</ele>
        <time>2018-01-07T07:52:50Z</time>
      </trkpt>
      <trkpt lat="46.67498" lon="-1.64981">
        <ele>48</ele>
        <time>2018-01-07T07:53:50Z</time>
      </trkpt>
      <trkpt lat="46.67504" lon="-1.65027">
        <ele>48</ele>
        <time>2018-01-07T07:54:50Z</time>
      </trkpt>
      <trkpt lat="46.67508" lon="-1.65077">
        <ele>47</ele>
        <time>2018-01-07T07:55:50Z</time>
      </trkpt>
      <trkpt lat="46.67512" lon="-1.65114">
        <ele>46</ele>
        <time>2018-01-07T07:56:50Z</time>
      </trkpt>
      <trkpt lat="46.67514" lon="-1.65142">
        <ele>46</ele>
        <time>2018-01-07T07:57:50Z</time>
      </trkpt>
      <trkpt lat="46.67518" lon="-1.65193">
        <ele>46</ele>
        <time>2018-01-07T07:58:50Z</time>
      </trkpt>
      <trkpt lat="46.67523" lon="-1.65249">
        <ele>45</ele>
        <time>2018-01-07T07:59:50Z</time>
      </trkpt>
      <trkpt lat="46.67532" lon="-1.65357">
        <ele>44</ele>
        <time>2018-01-07T08:00:50Z</time>
      </trkpt>
      <trkpt lat="46.67534" lon="-1.65396">
        <ele>44</ele>
        <time>2018-01-07T08:01:50Z</time>
      </trkpt>
      <trkpt lat="46.6754" lon="-1.65476">
        <ele>45</ele>
        <time>2018-01-07T08:02:50Z</time>
      </trkpt>
      <trkpt lat="46.67543" lon="-1.6553">
        <ele>46</ele>
        <time>2018-01-07T08:03:50Z</time>
      </trkpt>
      <trkpt lat="46.67552" lon="-1.6566">
        <ele>48</ele>
        <time>2018-01-07T08:04:50Z</time>
      </trkpt>
      <trkpt lat="46.67555" lon="-1.65725">
        <ele>47</ele>
        <time>2018-01-07T08:05:50Z</time>
      </trkpt>
      <trkpt lat="46.67557" lon="-1.65755">
        <ele>47</ele>
        <time>2018-01-07T08:06:50Z</time>
      </trkpt>
      <trkpt lat="46.67557" lon="-1.65763">
        <ele>47</ele>
        <time>2018-01-07T08:07:50Z</time>
      </trkpt>
      <trkpt lat="46.67558" lon="-1.6578">
        <ele>47</ele>
        <time>2018-01-07T08:08:50Z</time>
      </trkpt>
      <trkpt lat="46.67559" lon="-1.6579">
        <ele>47</ele>
        <time>2018-01-07T08:09:50Z</time>
      </trkpt>
      <trkpt lat="46.67564" lon="-1.65878">
        <ele>46</ele>
        <time>2018-01-07T08:10:50Z</time>
      </trkpt>
      <trkpt lat="46.67568" lon="-1.65963">
        <ele>46</ele>
        <time>2018-01-07T08:11:50Z</time>
      </trkpt>
      <trkpt lat="46.6757" lon="-1.65976">
        <ele>46</ele>
        <time>2018-01-07T08:12:50Z</time>
      </trkpt>
      <trkpt lat="46.6757" lon="-1.65988">
        <ele>45</ele>
        <time>2018-01-07T08:13:50Z</time>
      </trkpt>
      <trkpt lat="46.6757" lon="-1.66001">
        <ele>45</ele>
        <time>2018-01-07T08:14:50Z</time>
      </trkpt>
      <trkpt lat="46.67574" lon="-1.6609">
        <ele>44</ele>
        <time>2018-01-07T08:15:50Z</time>
      </trkpt>
      <trkpt lat="46.67575" lon="-1.66128">
        <ele>44</ele>
        <time>2018-01-07T08:16:50Z</time>
      </trkpt>
      <trkpt lat="46.67577" lon="-1.66154">
        <ele>43</ele>
        <time>2018-01-07T08:17:50Z</time>
      </trkpt>
      <trkpt lat="46.67578" lon="-1.6618">
        <ele>43</ele>
        <time>2018-01-07T08:18:50Z</time>
      </trkpt>
      <trkpt lat="46.6758" lon="-1.66218">
        <ele>42</ele>
        <time>2018-01-07T08:19:50Z</time>
      </trkpt>
      <trkpt lat="46.67581" lon="-1.66254">
        <ele>42</ele>
        <time>2018-01-07T08:20:50Z</time>
      </trkpt>
      <trkpt lat="46.67584" lon="-1.66358">
        <ele>41</ele>
        <time>2018-01-07T08:21:50Z</time>
      </trkpt>
      <trkpt lat="46.67586" lon="-1.66395">
        <ele>40</ele>
        <time>2018-01-07T08:22:50Z</time>
      </trkpt>
      <trkpt lat="46.67589" lon="-1.66474">
        <ele>39</ele>
        <time>2018-01-07T08:23:50Z</time>
      </trkpt>
      <trkpt lat="46.67591" lon="-1.66526">
        <ele>40</ele>
        <time>2018-01-07T08:24:50Z</time>
      </trkpt>
      <trkpt lat="46.67593" lon="-1.66564">
        <ele>40</ele>
        <time>2018-01-07T08:25:50Z</time>
      </trkpt>
      <trkpt lat="46.67596" lon="-1.66615">
        <ele>41</ele>
        <time>2018-01-07T08:26:50Z</time>
      </trkpt>
      <trkpt lat="46.67598" lon="-1.66665">
        <ele>43</ele>
        <time>2018-01-07T08:27:50Z</time>
      </trkpt>
      <trkpt lat="46.676" lon="-1.66702">
        <ele>43</ele>
        <time>2018-01-07T08:28:50Z</time>
      </trkpt>
      <trkpt lat="46.67604" lon="-1.66763">
        <ele>43</ele>
        <time>2018-01-07T08:29:50Z</time>
      </trkpt>
      <trkpt lat="46.67606" lon="-1.66801">
        <ele>43</ele>
        <time>2018-01-07T08:30:50Z</time>
      </trkpt>
      <trkpt lat="46.67609" lon="-1.66855">
        <ele>42</ele>
        <time>2018-01-07T08:31:50Z</time>
      </trkpt>
      <trkpt lat="46.67609" lon="-1.66894">
        <ele>42</ele>
        <time>2018-01-07T08:32:50Z</time>
      </trkpt>
      <trkpt lat="46.67608" lon="-1.66928">
        <ele>42</ele>
        <time>2018-01-07T08:33:50Z</time>
      </trkpt>
      <trkpt lat="46.67602" lon="-1.66973">
        <ele>42</ele>
        <time>2018-01-07T08:34:50Z</time>
      </trkpt>
      <trkpt lat="46.67598" lon="-1.67007">
        <ele>42</ele>
        <time>2018-01-07T08:35:50Z</time>
      </trkpt>
      <trkpt lat="46.67593" lon="-1.6705">
        <ele>42</ele>
        <time>2018-01-07T08:36:50Z</time>
      </trkpt>
      <trkpt lat="46.67587" lon="-1.67092">
        <ele>42</ele>
        <time>2018-01-07T08:37:50Z</time>
      </trkpt>
      <trkpt lat="46.67581" lon="-1.67132">
        <ele>41</ele>
        <time>2018-01-07T08:38:50Z</time>
      </trkpt>
      <trkpt lat="46.67574" lon="-1.67169">
        <ele>41</ele>
        <time>2018-01-07T08:39:50Z</time>
      </trkpt>
      <trkpt lat="46.67565" lon="-1.67217">
        <ele>41</ele>
        <time>2018-01-07T08:40:50Z</time>
      </trkpt>
      <trkpt lat="46.67557" lon="-1.67259">
        <ele>40</ele>
        <time>2018-01-07T08:41:50Z</time>
      </trkpt>
      <trkpt lat="46.6755" lon="-1.67293">
        <ele>40</ele>
        <time>2018-01-07T08:42:50Z</time>
      </trkpt>
      <trkpt lat="46.67543" lon="-1.67332">
        <ele>39</ele>
        <time>2018-01-07T08:43:50Z</time>
      </trkpt>
      <trkpt lat="46.67539" lon="-1.67359">
        <ele>39</ele>
        <time>2018-01-07T08:44:50Z</time>
      </trkpt>
      <trkpt lat="46.67537" lon="-1.67364">
        <ele>39</ele>
        <time>2018-01-07T08:45:50Z</time>
      </trkpt>
      <trkpt lat="46.67535" lon="-1.67376">
        <ele>38</ele>
        <time>2018-01-07T08:46:50Z</time>
      </trkpt>
      <trkpt lat="46.67532" lon="-1.6739">
        <ele>38</ele>
        <time>2018-01-07T08:47:50Z</time>
      </trkpt>
      <trkpt lat="46.6753" lon="-1.67398">
        <ele>38</ele>
        <time>2018-01-07T08:48:50Z</time>
      </trkpt>
      <trkpt lat="46.6752" lon="-1.67453">
        <ele>36</ele>
        <time>2018-01-07T08:49:50Z</time>
      </trkpt>
      <trkpt lat="46.67516" lon="-1.67472">
        <ele>35</ele>
        <time>2018-01-07T08:50:50Z</time>
      </trkpt>
      <trkpt lat="46.67515" lon="-1.6748">
        <ele>34</ele>
        <time>2018-01-07T08:51:50Z</time>
      </trkpt>
      <trkpt lat="46.6751" lon="-1.67516">
        <ele>32</ele>
        <time>2018-01-07T08:52:50Z</time>
      </trkpt>
      <trkpt lat="46.67506" lon="-1.67563">
        <ele>29</ele>
        <time>2018-01-07T08:53:50Z</time>
      </trkpt>
      <trkpt lat="46.67503" lon="-1.67604">
        <ele>27</ele>
        <time>2018-01-07T08:54:50Z</time>
      </trkpt>
      <trkpt lat="46.675" lon="-1.67677">
        <ele>27</ele>
        <time>2018-01-07T08:55:50Z</time>
      </trkpt>
      <trkpt lat="46.67501" lon="-1.67707">
        <ele>29</ele>
        <time>2018-01-07T08:56:50Z</time>
      </trkpt>
      <trkpt lat="46.67501" lon="-1.67729">
        <ele>30</ele>
        <time>2018-01-07T08:57:50Z</time>
      </trkpt>
      <trkpt lat="46.67503" lon="-1.6775">
        <ele>32</ele>
        <time>2018-01-07T08:58:50Z</time>
      </trkpt>
      <trkpt lat="46.67505" lon="-1.67757">
        <ele>33</ele>
        <time>2018-01-07T08:59:50Z</time>
      </trkpt>
      <trkpt lat="46.67508" lon="-1.67764">
        <ele>33</ele>
        <time>2018-01-07T09:00:50Z</time>
      </trkpt>
      <trkpt lat="46.67513" lon="-1.67771">
        <ele>34</ele>
        <time>2018-01-07T09:01:50Z</time>
      </trkpt>
      <trkpt lat="46.67516" lon="-1.67773">
        <ele>34</ele>
        <time>2018-01-07T09:02:50Z</time>
      </trkpt>
      <trkpt lat="46.67522" lon="-1.67776">
        <ele>34</ele>
        <time>2018-01-07T09:03:50Z</time>
      </trkpt>
      <trkpt lat="46.67527" lon="-1.67778">
        <ele>34</ele>
        <time>2018-01-07T09:04:50Z</time>
      </trkpt>
      <trkpt lat="46.67536" lon="-1.67781">
        <ele>35</ele>
        <time>2018-01-07T09:05:50Z</time>
      </trkpt>
      <trkpt lat="46.67555" lon="-1.67784">
        <ele>34</ele>
        <time>2018-01-07T09:06:50Z</time>
      </trkpt>
      <trkpt lat="46.67582" lon="-1.67788">
        <ele>34</ele>
        <time>2018-01-07T09:07:50Z</time>
      </trkpt>
      <trkpt lat="46.67604" lon="-1.67792">
        <ele>34</ele>
        <time>2018-01-07T09:08:50Z</time>
      </trkpt>
      <trkpt lat="46.67614" lon="-1.67795">
        <ele>34</ele>
        <time>2018-01-07T09:09:50Z</time>
      </trkpt>
      <trkpt lat="46.67618" lon="-1.67799">
        <ele>34</ele>
        <time>2018-01-07T09:10:50Z</time>
      </trkpt>
      <trkpt lat="46.67621" lon="-1.67803">
        <ele>34</ele>
        <time>2018-01-07T09:11:50Z</time>
      </trkpt>
      <trkpt lat="46.67623" lon="-1.67806">
        <ele>35</ele>
        <time>2018-01-07T09:12:50Z</time>
      </trkpt>
      <trkpt lat="46.67625" lon="-1.67811">
        <ele>35</ele>
        <time>2018-01-07T09:13:50Z</time>
      </trkpt>
      <trkpt lat="46.67628" lon="-1.67817">
        <ele>35</ele>
        <time>2018-01-07T09:14:50Z</time>
      </trkpt>
      <trkpt lat="46.6763" lon="-1.67826">
        <ele>36</ele>
        <time>2018-01-07T09:15:50Z</time>
      </trkpt>
      <trkpt lat="46.67632" lon="-1.67831">
        <ele>36</ele>
        <time>2018-01-07T09:16:50Z</time>
      </trkpt>
      <trkpt lat="46.67634" lon="-1.67839">
        <ele>36</ele>
        <time>2018-01-07T09:17:50Z</time>
      </trkpt>
      <trkpt lat="46.67636" lon="-1.67849">
        <ele>36</ele>
        <time>2018-01-07T09:18:50Z</time>
      </trkpt>
      <trkpt lat="46.6764" lon="-1.67875">
        <ele>36</ele>
        <time>2018-01-07T09:19:50Z</time>
      </trkpt>
      <trkpt lat="46.6764" lon="-1.67875">
        <ele>36</ele>
        <time>2018-01-07T09:20:50Z</time>
      </trkpt>
      <trkpt lat="46.67629" lon="-1.67893">
        <ele>36</ele>
        <time>2018-01-07T09:21:50Z</time>
      </trkpt>
      <trkpt lat="46.67615" lon="-1.67914">
        <ele>37</ele>
        <time>2018-01-07T09:22:50Z</time>
      </trkpt>
      <trkpt lat="46.67601" lon="-1.67934">
        <ele>38</ele>
        <time>2018-01-07T09:23:50Z</time>
      </trkpt>
      <trkpt lat="46.6759" lon="-1.6795">
        <ele>38</ele>
        <time>2018-01-07T09:24:50Z</time>
      </trkpt>
      <trkpt lat="46.6758" lon="-1.67962">
        <ele>39</ele>
        <time>2018-01-07T09:25:50Z</time>
      </trkpt>
      <trkpt lat="46.67571" lon="-1.67971">
        <ele>39</ele>
        <time>2018-01-07T09:26:50Z</time>
      </trkpt>
      <trkpt lat="46.67562" lon="-1.67978">
        <ele>39</ele>
        <time>2018-01-07T09:27:50Z</time>
      </trkpt>
      <trkpt lat="46.67554" lon="-1.67985">
        <ele>39</ele>
        <time>2018-01-07T09:28:50Z</time>
      </trkpt>
      <trkpt lat="46.6754" lon="-1.67996">
        <ele>40</ele>
        <time>2018-01-07T09:29:50Z</time>
      </trkpt>
      <trkpt lat="46.67524" lon="-1.68006">
        <ele>41</ele>
        <time>2018-01-07T09:30:50Z</time>
      </trkpt>
      <trkpt lat="46.67512" lon="-1.68014">
        <ele>41</ele>
        <time>2018-01-07T09:31:50Z</time>
      </trkpt>
      <trkpt lat="46.67498" lon="-1.68021">
        <ele>42</ele>
        <time>2018-01-07T09:32:50Z</time>
      </trkpt>
      <trkpt lat="46.67491" lon="-1.68025">
        <ele>42</ele>
        <time>2018-01-07T09:33:50Z</time>
      </trkpt>
      <trkpt lat="46.67484" lon="-1.68028">
        <ele>42</ele>
        <time>2018-01-07T09:34:50Z</time>
      </trkpt>
      <trkpt lat="46.67479" lon="-1.6803">
        <ele>42</ele>
        <time>2018-01-07T09:35:50Z</time>
      </trkpt>
      <trkpt lat="46.67477" lon="-1.6803">
        <ele>42</ele>
        <time>2018-01-07T09:36:50Z</time>
      </trkpt>
      <trkpt lat="46.67456" lon="-1.68038">
        <ele>42</ele>
        <time>2018-01-07T09:37:50Z</time>
      </trkpt>
      <trkpt lat="46.67438" lon="-1.68041">
        <ele>42</ele>
        <time>2018-01-07T09:38:50Z</time>
      </trkpt>
      <trkpt lat="46.67413" lon="-1.68046">
        <ele>42</ele>
        <time>2018-01-07T09:39:50Z</time>
      </trkpt>
      <trkpt lat="46.67394" lon="-1.6805">
        <ele>42</ele>
        <time>2018-01-07T09:40:50Z</time>
      </trkpt>
      <trkpt lat="46.67365" lon="-1.68056">
        <ele>42</ele>
        <time>2018-01-07T09:41:50Z</time>
      </trkpt>
      <trkpt lat="46.67342" lon="-1.68061">
        <ele>42</ele>
        <time>2018-01-07T09:42:50Z</time>
      </trkpt>
      <trkpt lat="46.67324" lon="-1.68064">
        <ele>43</ele>
        <time>2018-01-07T09:43:50Z</time>
      </trkpt>
      <trkpt lat="46.67304" lon="-1.68068">
        <ele>43</ele>
        <time>2018-01-07T09:44:50Z</time>
      </trkpt>
      <trkpt lat="46.67284" lon="-1.68072">
        <ele>43</ele>
        <time>2018-01-07T09:45:50Z</time>
      </trkpt>
      <trkpt lat="46.67262" lon="-1.68076">
        <ele>44</ele>
        <time>2018-01-07T09:46:50Z</time>
      </trkpt>
      <trkpt lat="46.6726" lon="-1.68076">
        <ele>44</ele>
        <time>2018-01-07T09:47:50Z</time>
      </trkpt>
      <trkpt lat="46.67251" lon="-1.68077">
        <ele>44</ele>
        <time>2018-01-07T09:48:50Z</time>
      </trkpt>
      <trkpt lat="46.67235" lon="-1.6808">
        <ele>44</ele>
        <time>2018-01-07T09:49:50Z</time>
      </trkpt>
      <trkpt lat="46.67228" lon="-1.68083">
        <ele>43</ele>
        <time>2018-01-07T09:50:50Z</time>
      </trkpt>
      <trkpt lat="46.67223" lon="-1.68084">
        <ele>43</ele>
        <time>2018-01-07T09:51:50Z</time>
      </trkpt>
      <trkpt lat="46.67218" lon="-1.68085">
        <ele>43</ele>
        <time>2018-01-07T09:52:50Z</time>
      </trkpt>
      <trkpt lat="46.67173" lon="-1.68095">
        <ele>42</ele>
        <time>2018-01-07T09:53:50Z</time>
      </trkpt>
      <trkpt lat="46.67167" lon="-1.68098">
        <ele>42</ele>
        <time>2018-01-07T09:54:50Z</time>
      </trkpt>
      <trkpt lat="46.67158" lon="-1.68101">
        <ele>42</ele>
        <time>2018-01-07T09:55:50Z</time>
      </trkpt>
      <trkpt lat="46.67144" lon="-1.68106">
        <ele>42</ele>
        <time>2018-01-07T09:56:50Z</time>
      </trkpt>
      <trkpt lat="46.67121" lon="-1.68114">
        <ele>43</ele>
        <time>2018-01-07T09:57:50Z</time>
      </trkpt>
      <trkpt lat="46.67091" lon="-1.68125">
        <ele>43</ele>
        <time>2018-01-07T09:58:50Z</time>
      </trkpt>
      <trkpt lat="46.67068" lon="-1.68133">
        <ele>43</ele>
        <time>2018-01-07T09:59:50Z</time>
      </trkpt>
      <trkpt lat="46.67044" lon="-1.68142">
        <ele>43</ele>
        <time>2018-01-07T10:00:50Z</time>
      </trkpt>
      <trkpt lat="46.67031" lon="-1.68146">
        <ele>44</ele>
        <time>2018-01-07T10:01:50Z</time>
      </trkpt>
      <trkpt lat="46.67022" lon="-1.6815">
        <ele>44</ele>
        <time>2018-01-07T10:02:50Z</time>
      </trkpt>
      <trkpt lat="46.67003" lon="-1.68156">
        <ele>44</ele>
        <time>2018-01-07T10:03:50Z</time>
      </trkpt>
      <trkpt lat="46.6698" lon="-1.68163">
        <ele>44</ele>
        <time>2018-01-07T10:04:50Z</time>
      </trkpt>
      <trkpt lat="46.66965" lon="-1.68168">
        <ele>44</ele>
        <time>2018-01-07T10:05:50Z</time>
      </trkpt>
      <trkpt lat="46.66943" lon="-1.68174">
        <ele>43</ele>
        <time>2018-01-07T10:06:50Z</time>
      </trkpt>
      <trkpt lat="46.66923" lon="-1.68181">
        <ele>43</ele>
        <time>2018-01-07T10:07:50Z</time>
      </trkpt>
      <trkpt lat="46.66909" lon="-1.68185">
        <ele>43</ele>
        <time>2018-01-07T10:08:50Z</time>
      </trkpt>
      <trkpt lat="46.66901" lon="-1.68186">
        <ele>43</ele>
        <time>2018-01-07T10:09:50Z</time>
      </trkpt>
      <trkpt lat="46.66892" lon="-1.6819">
        <ele>43</ele>
        <time>2018-01-07T10:10:50Z</time>
      </trkpt>
      <trkpt lat="46.66884" lon="-1.68192">
        <ele>43</ele>
        <time>2018-01-07T10:11:50Z</time>
      </trkpt>
      <trkpt lat="46.66867" lon="-1.68197">
        <ele>43</ele>
        <time>2018-01-07T10:12:50Z</time>
      </trkpt>
      <trkpt lat="46.66834" lon="-1.68208">
        <ele>43</ele>
        <time>2018-01-07T10:13:50Z</time>
      </trkpt>
      <trkpt lat="46.66808" lon="-1.68215">
        <ele>44</ele>
        <time>2018-01-07T10:14:50Z</time>
      </trkpt>
      <trkpt lat="46.66781" lon="-1.68222">
        <ele>45</ele>
        <time>2018-01-07T10:15:50Z</time>
      </trkpt>
      <trkpt lat="46.66742" lon="-1.68235">
        <ele>46</ele>
        <time>2018-01-07T10:16:50Z</time>
      </trkpt>
      <trkpt lat="46.66686" lon="-1.68251">
        <ele>47</ele>
        <time>2018-01-07T10:17:50Z</time>
      </trkpt>
      <trkpt lat="46.66657" lon="-1.6826">
        <ele>48</ele>
        <time>2018-01-07T10:18:50Z</time>
      </trkpt>
      <trkpt lat="46.6663" lon="-1.68268">
        <ele>48</ele>
        <time>2018-01-07T10:19:50Z</time>
      </trkpt>
      <trkpt lat="46.66617" lon="-1.68272">
        <ele>49</ele>
        <time>2018-01-07T10:20:50Z</time>
      </trkpt>
      <trkpt lat="46.66611" lon="-1.68273">
        <ele>49</ele>
        <time>2018-01-07T10:21:50Z</time>
      </trkpt>
      <trkpt lat="46.66602" lon="-1.68273">
        <ele>49</ele>
        <time>2018-01-07T10:22:50Z</time>
      </trkpt>
      <trkpt lat="46.66594" lon="-1.68275">
        <ele>49</ele>
        <time>2018-01-07T10:23:50Z</time>
      </trkpt>
      <trkpt lat="46.66576" lon="-1.68277">
        <ele>50</ele>
        <time>2018-01-07T10:24:50Z</time>
      </trkpt>
      <trkpt lat="46.66555" lon="-1.68279">
        <ele>50</ele>
        <time>2018-01-07T10:25:50Z</time>
      </trkpt>
      <trkpt lat="46.66529" lon="-1.68281">
        <ele>50</ele>
        <time>2018-01-07T10:26:50Z</time>
      </trkpt>
      <trkpt lat="46.66493" lon="-1.68284">
        <ele>50</ele>
        <time>2018-01-07T10:27:50Z</time>
      </trkpt>
      <trkpt lat="46.66468" lon="-1.68286">
        <ele>51</ele>
        <time>2018-01-07T10:28:50Z</time>
      </trkpt>
      <trkpt lat="46.66403" lon="-1.68294">
        <ele>51</ele>
        <time>2018-01-07T10:29:50Z</time>
      </trkpt>
      <trkpt lat="46.66386" lon="-1.68299">
        <ele>51</ele>
        <time>2018-01-07T10:30:50Z</time>
      </trkpt>
      <trkpt lat="46.66371" lon="-1.68306">
        <ele>51</ele>
        <time>2018-01-07T10:31:50Z</time>
      </trkpt>
      <trkpt lat="46.66356" lon="-1.68317">
        <ele>51</ele>
        <time>2018-01-07T10:32:50Z</time>
      </trkpt>
      <trkpt lat="46.66346" lon="-1.68325">
        <ele>52</ele>
        <time>2018-01-07T10:33:50Z</time>
      </trkpt>
      <trkpt lat="46.66339" lon="-1.68331">
        <ele>52</ele>
        <time>2018-01-07T10:34:50Z</time>
      </trkpt>
      <trkpt lat="46.66327" lon="-1.68341">
        <ele>52</ele>
        <time>2018-01-07T10:35:50Z</time>
      </trkpt>
      <trkpt lat="46.66314" lon="-1.68358">
        <ele>52</ele>
        <time>2018-01-07T10:36:50Z</time>
      </trkpt>
      <trkpt lat="46.66267" lon="-1.68422">
        <ele>52</ele>
        <time>2018-01-07T10:37:50Z</time>
      </trkpt>
      <trkpt lat="46.66264" lon="-1.68426">
        <ele>52</ele>
        <time>2018-01-07T10:38:50Z</time>
      </trkpt>
      <trkpt lat="46.66259" lon="-1.68434">
        <ele>52</ele>
        <time>2018-01-07T10:39:50Z</time>
      </trkpt>
      <trkpt lat="46.66242" lon="-1.68457">
        <ele>52</ele>
        <time>2018-01-07T10:40:50Z</time>
      </trkpt>
      <trkpt lat="46.66231" lon="-1.68473">
        <ele>52</ele>
        <time>2018-01-07T10:41:50Z</time>
      </trkpt>
      <trkpt lat="46.66219" lon="-1.68489">
        <ele>51</ele>
        <time>2018-01-07T10:42:50Z</time>
      </trkpt>
      <trkpt lat="46.66208" lon="-1.68505">
        <ele>52</ele>
        <time>2018-01-07T10:43:50Z</time>
      </trkpt>
      <trkpt lat="46.6619" lon="-1.6853">
        <ele>52</ele>
        <time>2018-01-07T10:44:50Z</time>
      </trkpt>
      <trkpt lat="46.66178" lon="-1.68547">
        <ele>53</ele>
        <time>2018-01-07T10:45:50Z</time>
      </trkpt>
      <trkpt lat="46.66166" lon="-1.68565">
        <ele>53</ele>
        <time>2018-01-07T10:46:50Z</time>
      </trkpt>
      <trkpt lat="46.66154" lon="-1.68582">
        <ele>53</ele>
        <time>2018-01-07T10:47:50Z</time>
      </trkpt>
      <trkpt lat="46.66141" lon="-1.68599">
        <ele>52</ele>
        <time>2018-01-07T10:48:50Z</time>
      </trkpt>
      <trkpt lat="46.66135" lon="-1.68607">
        <ele>52</ele>
        <time>2018-01-07T10:49:50Z</time>
      </trkpt>
      <trkpt lat="46.66128" lon="-1.68617">
        <ele>52</ele>
        <time>2018-01-07T10:50:50Z</time>
      </trkpt>
      <trkpt lat="46.6607" lon="-1.687">
        <ele>52</ele>
        <time>2018-01-07T10:51:50Z</time>
      </trkpt>
      <trkpt lat="46.66057" lon="-1.68719">
        <ele>53</ele>
        <time>2018-01-07T10:52:50Z</time>
      </trkpt>
      <trkpt lat="46.6604" lon="-1.68744">
        <ele>53</ele>
        <time>2018-01-07T10:53:50Z</time>
      </trkpt>
      <trkpt lat="46.66013" lon="-1.68783">
        <ele>55</ele>
        <time>2018-01-07T10:54:50Z</time>
      </trkpt>
      <trkpt lat="46.65985" lon="-1.68821">
        <ele>55</ele>
        <time>2018-01-07T10:55:50Z</time>
      </trkpt>
      <trkpt lat="46.65957" lon="-1.68862">
        <ele>55</ele>
        <time>2018-01-07T10:56:50Z</time>
      </trkpt>
      <trkpt lat="46.65932" lon="-1.68898">
        <ele>55</ele>
        <time>2018-01-07T10:57:50Z</time>
      </trkpt>
      <trkpt lat="46.6589" lon="-1.68957">
        <ele>54</ele>
        <time>2018-01-07T10:58:50Z</time>
      </trkpt>
      <trkpt lat="46.65884" lon="-1.68965">
        <ele>53</ele>
        <time>2018-01-07T10:59:50Z</time>
      </trkpt>
      <trkpt lat="46.65878" lon="-1.68974">
        <ele>53</ele>
        <time>2018-01-07T11:00:50Z</time>
      </trkpt>
      <trkpt lat="46.65867" lon="-1.68991">
        <ele>52</ele>
        <time>2018-01-07T11:01:50Z</time>
      </trkpt>
      <trkpt lat="46.6585" lon="-1.69016">
        <ele>51</ele>
        <time>2018-01-07T11:02:50Z</time>
      </trkpt>
      <trkpt lat="46.65839" lon="-1.69035">
        <ele>51</ele>
        <time>2018-01-07T11:03:50Z</time>
      </trkpt>
      <trkpt lat="46.65832" lon="-1.69047">
        <ele>50</ele>
        <time>2018-01-07T11:04:50Z</time>
      </trkpt>
      <trkpt lat="46.65825" lon="-1.69064">
        <ele>50</ele>
        <time>2018-01-07T11:05:50Z</time>
      </trkpt>
      <trkpt lat="46.65805" lon="-1.69118">
        <ele>48</ele>
        <time>2018-01-07T11:06:50Z</time>
      </trkpt>
      <trkpt lat="46.65775" lon="-1.692">
        <ele>46</ele>
        <time>2018-01-07T11:07:50Z</time>
      </trkpt>
      <trkpt lat="46.65742" lon="-1.69293">
        <ele>46</ele>
        <time>2018-01-07T11:08:50Z</time>
      </trkpt>
      <trkpt lat="46.65714" lon="-1.69369">
        <ele>46</ele>
        <time>2018-01-07T11:09:50Z</time>
      </trkpt>
      <trkpt lat="46.65692" lon="-1.69428">
        <ele>47</ele>
        <time>2018-01-07T11:10:50Z</time>
      </trkpt>
      <trkpt lat="46.65658" lon="-1.6952">
        <ele>48</ele>
        <time>2018-01-07T11:11:50Z</time>
      </trkpt>
      <trkpt lat="46.65625" lon="-1.6961">
        <ele>49</ele>
        <time>2018-01-07T11:12:50Z</time>
      </trkpt>
      <trkpt lat="46.65612" lon="-1.69644">
        <ele>50</ele>
        <time>2018-01-07T11:13:50Z</time>
      </trkpt>
      <trkpt lat="46.65598" lon="-1.69682">
        <ele>51</ele>
        <time>2018-01-07T11:14:50Z</time>
      </trkpt>
      <trkpt lat="46.65586" lon="-1.69713">
        <ele>51</ele>
        <time>2018-01-07T11:15:50Z</time>
      </trkpt>
      <trkpt lat="46.65581" lon="-1.69725">
        <ele>52</ele>
        <time>2018-01-07T11:16:50Z</time>
      </trkpt>
      <trkpt lat="46.65568" lon="-1.69761">
        <ele>52</ele>
        <time>2018-01-07T11:17:50Z</time>
      </trkpt>
      <trkpt lat="46.65558" lon="-1.69789">
        <ele>53</ele>
        <time>2018-01-07T11:18:50Z</time>
      </trkpt>
      <trkpt lat="46.65536" lon="-1.69847">
        <ele>55</ele>
        <time>2018-01-07T11:19:50Z</time>
      </trkpt>
      <trkpt lat="46.65518" lon="-1.69897">
        <ele>57</ele>
        <time>2018-01-07T11:20:50Z</time>
      </trkpt>
      <trkpt lat="46.65494" lon="-1.69961">
        <ele>57</ele>
        <time>2018-01-07T11:21:50Z</time>
      </trkpt>
      <trkpt lat="46.65485" lon="-1.6999">
        <ele>56</ele>
        <time>2018-01-07T11:22:50Z</time>
      </trkpt>
      <trkpt lat="46.65481" lon="-1.70001">
        <ele>56</ele>
        <time>2018-01-07T11:23:50Z</time>
      </trkpt>
      <trkpt lat="46.65475" lon="-1.70026">
        <ele>55</ele>
        <time>2018-01-07T11:24:50Z</time>
      </trkpt>
      <trkpt lat="46.65472" lon="-1.70044">
        <ele>54</ele>
        <time>2018-01-07T11:25:50Z</time>
      </trkpt>
      <trkpt lat="46.65469" lon="-1.70061">
        <ele>54</ele>
        <time>2018-01-07T11:26:50Z</time>
      </trkpt>
      <trkpt lat="46.65465" lon="-1.70086">
        <ele>53</ele>
        <time>2018-01-07T11:27:50Z</time>
      </trkpt>
      <trkpt lat="46.6546" lon="-1.70123">
        <ele>51</ele>
        <time>2018-01-07T11:28:50Z</time>
      </trkpt>
      <trkpt lat="46.65456" lon="-1.70153">
        <ele>50</ele>
        <time>2018-01-07T11:29:50Z</time>
      </trkpt>
      <trkpt lat="46.65453" lon="-1.70174">
        <ele>48</ele>
        <time>2018-01-07T11:30:50Z</time>
      </trkpt>
      <trkpt lat="46.65451" lon="-1.70181">
        <ele>48</ele>
        <time>2018-01-07T11:31:50Z</time>
      </trkpt>
      <trkpt lat="46.65449" lon="-1.70189">
        <ele>47</ele>
        <time>2018-01-07T11:32:50Z</time>
      </trkpt>
      <trkpt lat="46.65447" lon="-1.70194">
        <ele>47</ele>
        <time>2018-01-07T11:33:50Z</time>
      </trkpt>
      <trkpt lat="46.65443" lon="-1.70204">
        <ele>46</ele>
        <time>2018-01-07T11:34:50Z</time>
      </trkpt>
      <trkpt lat="46.65439" lon="-1.7021">
        <ele>46</ele>
        <time>2018-01-07T11:35:50Z</time>
      </trkpt>
      <trkpt lat="46.65434" lon="-1.70217">
        <ele>45</ele>
        <time>2018-01-07T11:36:50Z</time>
      </trkpt>
      <trkpt lat="46.65423" lon="-1.70229">
        <ele>44</ele>
        <time>2018-01-07T11:37:50Z</time>
      </trkpt>
      <trkpt lat="46.65414" lon="-1.70236">
        <ele>43</ele>
        <time>2018-01-07T11:38:50Z</time>
      </trkpt>
      <trkpt lat="46.65397" lon="-1.70248">
        <ele>41</ele>
        <time>2018-01-07T11:39:50Z</time>
      </trkpt>
      <trkpt lat="46.65374" lon="-1.70264">
        <ele>39</ele>
        <time>2018-01-07T11:40:50Z</time>
      </trkpt>
      <trkpt lat="46.65349" lon="-1.70279">
        <ele>36</ele>
        <time>2018-01-07T11:41:50Z</time>
      </trkpt>
      <trkpt lat="46.65339" lon="-1.70285">
        <ele>36</ele>
        <time>2018-01-07T11:42:50Z</time>
      </trkpt>
      <trkpt lat="46.65325" lon="-1.70293">
        <ele>35</ele>
        <time>2018-01-07T11:43:50Z</time>
      </trkpt>
      <trkpt lat="46.65305" lon="-1.70304">
        <ele>35</ele>
        <time>2018-01-07T11:44:50Z</time>
      </trkpt>
      <trkpt lat="46.65297" lon="-1.70309">
        <ele>34</ele>
        <time>2018-01-07T11:45:50Z</time>
      </trkpt>
      <trkpt lat="46.65284" lon="-1.70315">
        <ele>34</ele>
        <time>2018-01-07T11:46:50Z</time>
      </trkpt>
      <trkpt lat="46.65269" lon="-1.70321">
        <ele>34</ele>
        <time>2018-01-07T11:47:50Z</time>
      </trkpt>
      <trkpt lat="46.65243" lon="-1.70326">
        <ele>34</ele>
        <time>2018-01-07T11:48:50Z</time>
      </trkpt>
      <trkpt lat="46.6522" lon="-1.7033">
        <ele>35</ele>
        <time>2018-01-07T11:49:50Z</time>
      </trkpt>
      <trkpt lat="46.65187" lon="-1.70335">
        <ele>35</ele>
        <time>2018-01-07T11:50:50Z</time>
      </trkpt>
      <trkpt lat="46.65148" lon="-1.70342">
        <ele>36</ele>
        <time>2018-01-07T11:51:50Z</time>
      </trkpt>
      <trkpt lat="46.65109" lon="-1.70349">
        <ele>37</ele>
        <time>2018-01-07T11:52:50Z</time>
      </trkpt>
      <trkpt lat="46.6508" lon="-1.70353">
        <ele>37</ele>
        <time>2018-01-07T11:53:50Z</time>
      </trkpt>
      <trkpt lat="46.65071" lon="-1.70356">
        <ele>38</ele>
        <time>2018-01-07T11:54:50Z</time>
      </trkpt>
      <trkpt lat="46.65031" lon="-1.70363">
        <ele>39</ele>
        <time>2018-01-07T11:55:50Z</time>
      </trkpt>
      <trkpt lat="46.64994" lon="-1.7037">
        <ele>41</ele>
        <time>2018-01-07T11:56:50Z</time>
      </trkpt>
      <trkpt lat="46.64977" lon="-1.70373">
        <ele>41</ele>
        <time>2018-01-07T11:57:50Z</time>
      </trkpt>
      <trkpt lat="46.64949" lon="-1.70378">
        <ele>41</ele>
        <time>2018-01-07T11:58:50Z</time>
      </trkpt>
      <trkpt lat="46.64929" lon="-1.70382">
        <ele>42</ele>
        <time>2018-01-07T11:59:50Z</time>
      </trkpt>
      <trkpt lat="46.64916" lon="-1.70385">
        <ele>42</ele>
        <time>2018-01-07T12:00:50Z</time>
      </trkpt>
      <trkpt lat="46.64912" lon="-1.70385">
        <ele>42</ele>
        <time>2018-01-07T12:01:50Z</time>
      </trkpt>
      <trkpt lat="46.64901" lon="-1.70387">
        <ele>42</ele>
        <time>2018-01-07T12:02:50Z</time>
      </trkpt>
      <trkpt lat="46.64893" lon="-1.70389">
        <ele>43</ele>
        <time>2018-01-07T12:03:50Z</time>
      </trkpt>
      <trkpt lat="46.64883" lon="-1.70393">
        <ele>43</ele>
        <time>2018-01-07T12:04:50Z</time>
      </trkpt>
      <trkpt lat="46.64873" lon="-1.70396">
        <ele>43</ele>
        <time>2018-01-07T12:05:50Z</time>
      </trkpt>
      <trkpt lat="46.6486" lon="-1.70402">
        <ele>44</ele>
        <time>2018-01-07T12:06:50Z</time>
      </trkpt>
      <trkpt lat="46.64848" lon="-1.70407">
        <ele>44</ele>
        <time>2018-01-07T12:07:50Z</time>
      </trkpt>
      <trkpt lat="46.64838" lon="-1.70411">
        <ele>45</ele>
        <time>2018-01-07T12:08:50Z</time>
      </trkpt>
      <trkpt lat="46.64809" lon="-1.70423">
        <ele>46</ele>
        <time>2018-01-07T12:09:50Z</time>
      </trkpt>
      <trkpt lat="46.64785" lon="-1.70433">
        <ele>47</ele>
        <time>2018-01-07T12:10:50Z</time>
      </trkpt>
      <trkpt lat="46.64765" lon="-1.70441">
        <ele>48</ele>
        <time>2018-01-07T12:11:50Z</time>
      </trkpt>
      <trkpt lat="46.64746" lon="-1.70449">
        <ele>48</ele>
        <time>2018-01-07T12:12:50Z</time>
      </trkpt>
      <trkpt lat="46.64715" lon="-1.70469">
        <ele>50</ele>
        <time>2018-01-07T12:13:50Z</time>
      </trkpt>
      <trkpt lat="46.64712" lon="-1.70472">
        <ele>50</ele>
        <time>2018-01-07T12:14:50Z</time>
      </trkpt>
      <trkpt lat="46.64705" lon="-1.70479">
        <ele>50</ele>
        <time>2018-01-07T12:15:50Z</time>
      </trkpt>
      <trkpt lat="46.64692" lon="-1.70489">
        <ele>51</ele>
        <time>2018-01-07T12:16:50Z</time>
      </trkpt>
      <trkpt lat="46.6469" lon="-1.70491">
        <ele>51</ele>
        <time>2018-01-07T12:17:50Z</time>
      </trkpt>
      <trkpt lat="46.64677" lon="-1.70502">
        <ele>51</ele>
        <time>2018-01-07T12:18:50Z</time>
      </trkpt>
      <trkpt lat="46.64661" lon="-1.70514">
        <ele>52</ele>
        <time>2018-01-07T12:19:50Z</time>
      </trkpt>
      <trkpt lat="46.64655" lon="-1.70519">
        <ele>52</ele>
        <time>2018-01-07T12:20:50Z</time>
      </trkpt>
      <trkpt lat="46.64644" lon="-1.70528">
        <ele>53</ele>
        <time>2018-01-07T12:21:50Z</time>
      </trkpt>
      <trkpt lat="46.64635" lon="-1.70535">
        <ele>53</ele>
        <time>2018-01-07T12:22:50Z</time>
      </trkpt>
      <trkpt lat="46.64629" lon="-1.7054">
        <ele>53</ele>
        <time>2018-01-07T12:23:50Z</time>
      </trkpt>
      <trkpt lat="46.64607" lon="-1.70563">
        <ele>54</ele>
        <time>2018-01-07T12:24:50Z</time>
      </trkpt>
      <trkpt lat="46.64605" lon="-1.70566">
        <ele>54</ele>
        <time>2018-01-07T12:25:50Z</time>
      </trkpt>
      <trkpt lat="46.64576" lon="-1.70597">
        <ele>55</ele>
        <time>2018-01-07T12:26:50Z</time>
      </trkpt>
      <trkpt lat="46.64568" lon="-1.70606">
        <ele>56</ele>
        <time>2018-01-07T12:27:50Z</time>
      </trkpt>
      <trkpt lat="46.64558" lon="-1.70614">
        <ele>56</ele>
        <time>2018-01-07T12:28:50Z</time>
      </trkpt>
      <trkpt lat="46.6455" lon="-1.70619">
        <ele>57</ele>
        <time>2018-01-07T12:29:50Z</time>
      </trkpt>
      <trkpt lat="46.6454" lon="-1.70626">
        <ele>57</ele>
        <time>2018-01-07T12:30:50Z</time>
      </trkpt>
      <trkpt lat="46.6453" lon="-1.70631">
        <ele>58</ele>
        <time>2018-01-07T12:31:50Z</time>
      </trkpt>
      <trkpt lat="46.64521" lon="-1.70636">
        <ele>58</ele>
        <time>2018-01-07T12:32:50Z</time>
      </trkpt>
      <trkpt lat="46.64503" lon="-1.70647">
        <ele>59</ele>
        <time>2018-01-07T12:33:50Z</time>
      </trkpt>
      <trkpt lat="46.64487" lon="-1.70656">
        <ele>59</ele>
        <time>2018-01-07T12:34:50Z</time>
      </trkpt>
      <trkpt lat="46.64471" lon="-1.70667">
        <ele>59</ele>
        <time>2018-01-07T12:35:50Z</time>
      </trkpt>
      <trkpt lat="46.6446" lon="-1.70675">
        <ele>59</ele>
        <time>2018-01-07T12:36:50Z</time>
      </trkpt>
      <trkpt lat="46.64448" lon="-1.70684">
        <ele>59</ele>
        <time>2018-01-07T12:37:50Z</time>
      </trkpt>
      <trkpt lat="46.64441" lon="-1.70691">
        <ele>59</ele>
        <time>2018-01-07T12:38:50Z</time>
      </trkpt>
      <trkpt lat="46.64436" lon="-1.70696">
        <ele>59</ele>
        <time>2018-01-07T12:39:50Z</time>
      </trkpt>
      <trkpt lat="46.64426" lon="-1.7071">
        <ele>59</ele>
        <time>2018-01-07T12:40:50Z</time>
      </trkpt>
      <trkpt lat="46.64404" lon="-1.70744">
        <ele>60</ele>
        <time>2018-01-07T12:41:50Z</time>
      </trkpt>
      <trkpt lat="46.6438" lon="-1.70785">
        <ele>60</ele>
        <time>2018-01-07T12:42:50Z</time>
      </trkpt>
      <trkpt lat="46.6436" lon="-1.70818">
        <ele>59</ele>
        <time>2018-01-07T12:43:50Z</time>
      </trkpt>
      <trkpt lat="46.6435" lon="-1.70831">
        <ele>60</ele>
        <time>2018-01-07T12:44:50Z</time>
      </trkpt>
      <trkpt lat="46.64343" lon="-1.70839">
        <ele>60</ele>
        <time>2018-01-07T12:45:50Z</time>
      </trkpt>
      <trkpt lat="46.64335" lon="-1.70844">
        <ele>60</ele>
        <time>2018-01-07T12:46:50Z</time>
      </trkpt>
      <trkpt lat="46.64316" lon="-1.70855">
        <ele>59</ele>
        <time>2018-01-07T12:47:50Z</time>
      </trkpt>
      <trkpt lat="46.64305" lon="-1.70862">
        <ele>59</ele>
        <time>2018-01-07T12:48:50Z</time>
      </trkpt>
      <trkpt lat="46.64279" lon="-1.7088">
        <ele>58</ele>
        <time>2018-01-07T12:49:50Z</time>
      </trkpt>
      <trkpt lat="46.64249" lon="-1.70905">
        <ele>59</ele>
        <time>2018-01-07T12:50:50Z</time>
      </trkpt>
      <trkpt lat="46.64221" lon="-1.70931">
        <ele>59</ele>
        <time>2018-01-07T12:51:50Z</time>
      </trkpt>
      <trkpt lat="46.64211" lon="-1.7094">
        <ele>59</ele>
        <time>2018-01-07T12:52:50Z</time>
      </trkpt>
      <trkpt lat="46.64206" lon="-1.70945">
        <ele>59</ele>
        <time>2018-01-07T12:53:50Z</time>
      </trkpt>
      <trkpt lat="46.64198" lon="-1.70953">
        <ele>59</ele>
        <time>2018-01-07T12:54:50Z</time>
      </trkpt>
      <trkpt lat="46.64189" lon="-1.70963">
        <ele>59</ele>
        <time>2018-01-07T12:55:50Z</time>
      </trkpt>
      <trkpt lat="46.64177" lon="-1.70976">
        <ele>60</ele>
        <time>2018-01-07T12:56:50Z</time>
      </trkpt>
      <trkpt lat="46.64122" lon="-1.71041">
        <ele>59</ele>
        <time>2018-01-07T12:57:50Z</time>
      </trkpt>
      <trkpt lat="46.64115" lon="-1.71049">
        <ele>59</ele>
        <time>2018-01-07T12:58:50Z</time>
      </trkpt>
      <trkpt lat="46.64102" lon="-1.71064">
        <ele>59</ele>
        <time>2018-01-07T12:59:50Z</time>
      </trkpt>
      <trkpt lat="46.64087" lon="-1.71082">
        <ele>58</ele>
        <time>2018-01-07T13:00:50Z</time>
      </trkpt>
      <trkpt lat="46.64042" lon="-1.71134">
        <ele>57</ele>
        <time>2018-01-07T13:01:50Z</time>
      </trkpt>
      <trkpt lat="46.64034" lon="-1.71142">
        <ele>57</ele>
        <time>2018-01-07T13:02:50Z</time>
      </trkpt>
      <trkpt lat="46.64024" lon="-1.71152">
        <ele>57</ele>
        <time>2018-01-07T13:03:50Z</time>
      </trkpt>
      <trkpt lat="46.64024" lon="-1.71152">
        <ele>57</ele>
        <time>2018-01-07T13:04:50Z</time>
      </trkpt>
      <trkpt lat="46.64043" lon="-1.71189">
        <ele>57</ele>
        <time>2018-01-07T13:05:50Z</time>
      </trkpt>
      <trkpt lat="46.64056" lon="-1.71214">
        <ele>57</ele>
        <time>2018-01-07T13:06:50Z</time>
      </trkpt>
      <trkpt lat="46.64059" lon="-1.71221">
        <ele>57</ele>
        <time>2018-01-07T13:07:50Z</time>
      </trkpt>
      <trkpt lat="46.64062" lon="-1.71228">
        <ele>57</ele>
        <time>2018-01-07T13:08:50Z</time>
      </trkpt>
      <trkpt lat="46.64064" lon="-1.71233">
        <ele>57</ele>
        <time>2018-01-07T13:09:50Z</time>
      </trkpt>
      <trkpt lat="46.64064" lon="-1.71239">
        <ele>57</ele>
        <time>2018-01-07T13:10:50Z</time>
      </trkpt>
      <trkpt lat="46.64064" lon="-1.71254">
        <ele>57</ele>
        <time>2018-01-07T13:11:50Z</time>
      </trkpt>
      <trkpt lat="46.64061" lon="-1.71278">
        <ele>58</ele>
        <time>2018-01-07T13:12:50Z</time>
      </trkpt>
      <trkpt lat="46.64059" lon="-1.71295">
        <ele>58</ele>
        <time>2018-01-07T13:13:50Z</time>
      </trkpt>
      <trkpt lat="46.64057" lon="-1.71319">
        <ele>59</ele>
        <time>2018-01-07T13:14:50Z</time>
      </trkpt>
      <trkpt lat="46.64055" lon="-1.71334">
        <ele>59</ele>
        <time>2018-01-07T13:15:50Z</time>
      </trkpt>
      <trkpt lat="46.64053" lon="-1.71355">
        <ele>59</ele>
        <time>2018-01-07T13:16:50Z</time>
      </trkpt>
      <trkpt lat="46.64052" lon="-1.71356">
        <ele>59</ele>
        <time>2018-01-07T13:17:50Z</time>
      </trkpt>
      <trkpt lat="46.64052" lon="-1.7136">
        <ele>59</ele>
        <time>2018-01-07T13:18:50Z</time>
      </trkpt>
      <trkpt lat="46.64052" lon="-1.71362">
        <ele>59</ele>
        <time>2018-01-07T13:19:50Z</time>
      </trkpt>
      <trkpt lat="46.64049" lon="-1.71392">
        <ele>59</ele>
        <time>2018-01-07T13:20:50Z</time>
      </trkpt>
      <trkpt lat="46.64048" lon="-1.71403">
        <ele>59</ele>
        <time>2018-01-07T13:21:50Z</time>
      </trkpt>
      <trkpt lat="46.64048" lon="-1.71407">
        <ele>59</ele>
        <time>2018-01-07T13:22:50Z</time>
      </trkpt>
      <trkpt lat="46.6405" lon="-1.7142">
        <ele>59</ele>
        <time>2018-01-07T13:23:50Z</time>
      </trkpt>
      <trkpt lat="46.64051" lon="-1.71425">
        <ele>59</ele>
        <time>2018-01-07T13:24:50Z</time>
      </trkpt>
      <trkpt lat="46.64054" lon="-1.71435">
        <ele>59</ele>
        <time>2018-01-07T13:25:50Z</time>
      </trkpt>
      <trkpt lat="46.64057" lon="-1.71443">
        <ele>58</ele>
        <time>2018-01-07T13:26:50Z</time>
      </trkpt>
      <trkpt lat="46.64064" lon="-1.71458">
        <ele>58</ele>
        <time>2018-01-07T13:27:50Z</time>
      </trkpt>
      <trkpt lat="46.64068" lon="-1.71467">
        <ele>58</ele>
        <time>2018-01-07T13:28:50Z</time>
      </trkpt>
      <trkpt lat="46.64081" lon="-1.71491">
        <ele>57</ele>
        <time>2018-01-07T13:29:50Z</time>
      </trkpt>
      <trkpt lat="46.64089" lon="-1.7151">
        <ele>57</ele>
        <time>2018-01-07T13:30:50Z</time>
      </trkpt>
      <trkpt lat="46.64092" lon="-1.71525">
        <ele>57</ele>
        <time>2018-01-07T13:31:50Z</time>
      </trkpt>
      <trkpt lat="46.64093" lon="-1.71531">
        <ele>57</ele>
        <time>2018-01-07T13:32:50Z</time>
      </trkpt>
      <trkpt lat="46.64093" lon="-1.71536">
        <ele>57</ele>
        <time>2018-01-07T13:33:50Z</time>
      </trkpt>
      <trkpt lat="46.6409" lon="-1.71552">
        <ele>56</ele>
        <time>2018-01-07T13:34:50Z</time>
      </trkpt>
      <trkpt lat="46.6409" lon="-1.71555">
        <ele>56</ele>
        <time>2018-01-07T13:35:50Z</time>
      </trkpt>
      <trkpt lat="46.64088" lon="-1.71562">
        <ele>56</ele>
        <time>2018-01-07T13:36:50Z</time>
      </trkpt>
      <trkpt lat="46.64088" lon="-1.71562">
        <ele>56</ele>
        <time>2018-01-07T13:37:50Z</time>
      </trkpt>
      <trkpt lat="46.64086" lon="-1.71564">
        <ele>56</ele>
        <time>2018-01-07T13:38:50Z</time>
      </trkpt>
      <trkpt lat="46.64084" lon="-1.71566">
        <ele>56</ele>
        <time>2018-01-07T13:39:50Z</time>
      </trkpt>
      <trkpt lat="46.64082" lon="-1.71567">
        <ele>56</ele>
        <time>2018-01-07T13:40:50Z</time>
      </trkpt>
      <trkpt lat="46.64079" lon="-1.71568">
        <ele>56</ele>
        <time>2018-01-07T13:41:50Z</time>
      </trkpt>
      <trkpt lat="46.64072" lon="-1.71567">
        <ele>56</ele>
        <time>2018-01-07T13:42:50Z</time>
      </trkpt>
      <trkpt lat="46.64068" lon="-1.71566">
        <ele>57</ele>
        <time>2018-01-07T13:43:50Z</time>
      </trkpt>
      <trkpt lat="46.64044" lon="-1.71557">
        <ele>57</ele>
        <time>2018-01-07T13:44:50Z</time>
      </trkpt>
      <trkpt lat="46.64021" lon="-1.71548">
        <ele>58</ele>
        <time>2018-01-07T13:45:50Z</time>
      </trkpt>
      <trkpt lat="46.64009" lon="-1.71546">
        <ele>59</ele>
        <time>2018-01-07T13:46:50Z</time>
      </trkpt>
      <trkpt lat="46.64005" lon="-1.71544">
        <ele>59</ele>
        <time>2018-01-07T13:47:50Z</time>
      </trkpt>
      <trkpt lat="46.63988" lon="-1.71537">
        <ele>59</ele>
        <time>2018-01-07T13:48:50Z</time>
      </trkpt>
      <trkpt lat="46.63976" lon="-1.71532">
        <ele>59</ele>
        <time>2018-01-07T13:49:50Z</time>
      </trkpt>
      <trkpt lat="46.6396" lon="-1.71525">
        <ele>60</ele>
        <time>2018-01-07T13:50:50Z</time>
      </trkpt>
      <trkpt lat="46.63952" lon="-1.71522">
        <ele>60</ele>
        <time>2018-01-07T13:51:50Z</time>
      </trkpt>
      <trkpt lat="46.63926" lon="-1.71511">
        <ele>60</ele>
        <time>2018-01-07T13:52:50Z</time>
      </trkpt>
      <trkpt lat="46.63904" lon="-1.71506">
        <ele>60</ele>
        <time>2018-01-07T13:53:50Z</time>
      </trkpt>
      <trkpt lat="46.63885" lon="-1.71501">
        <ele>60</ele>
        <time>2018-01-07T13:54:50Z</time>
      </trkpt>
      <trkpt lat="46.63883" lon="-1.71499">
        <ele>60</ele>
        <time>2018-01-07T13:55:50Z</time>
      </trkpt>
      <trkpt lat="46.63861" lon="-1.71489">
        <ele>60</ele>
        <time>2018-01-07T13:56:50Z</time>
      </trkpt>
      <trkpt lat="46.63857" lon="-1.71486">
        <ele>60</ele>
        <time>2018-01-07T13:57:50Z</time>
      </trkpt>
      <trkpt lat="46.63854" lon="-1.71481">
        <ele>60</ele>
        <time>2018-01-07T13:58:50Z</time>
      </trkpt>
      <trkpt lat="46.63852" lon="-1.71479">
        <ele>60</ele>
        <time>2018-01-07T13:59:50Z</time>
      </trkpt>
      <trkpt lat="46.63852" lon="-1.71479">
        <ele>60</ele>
        <time>2018-01-07T14:00:50Z</time>
      </trkpt>
      <trkpt lat="46.63851" lon="-1.7148">
        <ele>60</ele>
        <time>2018-01-07T14:01:50Z</time>
      </trkpt>
      <trkpt lat="46.63849" lon="-1.71481">
        <ele>60</ele>
        <time>2018-01-07T14:02:50Z</time>
      </trkpt>
      <trkpt lat="46.63847" lon="-1.71481">
        <ele>60</ele>
        <time>2018-01-07T14:03:50Z</time>
      </trkpt>
      <trkpt lat="46.63845" lon="-1.7148">
        <ele>60</ele>
        <time>2018-01-07T14:04:50Z</time>
      </trkpt>
      <trkpt lat="46.63844" lon="-1.71479">
        <ele>60</ele>
        <time>2018-01-07T14:05:50Z</time>
      </trkpt>
      <trkpt lat="46.6384" lon="-1.71482">
        <ele>60</ele>
        <time>2018-01-07T14:06:50Z</time>
      </trkpt>
      <trkpt lat="46.63829" lon="-1.71492">
        <ele>60</ele>
        <time>2018-01-07T14:07:50Z</time>
      </trkpt>
      <trkpt lat="46.63823" lon="-1.71498">
        <ele>60</ele>
        <time>2018-01-07T14:08:50Z</time>
      </trkpt>
      <trkpt lat="46.63816" lon="-1.71508">
        <ele>60</ele>
        <time>2018-01-07T14:09:50Z</time>
      </trkpt>
      <trkpt lat="46.63788" lon="-1.7155">
        <ele>61</ele>
        <time>2018-01-07T14:10:50Z</time>
      </trkpt>
      <trkpt lat="46.63752" lon="-1.71604">
        <ele>61</ele>
        <time>2018-01-07T14:11:50Z</time>
      </trkpt>
      <trkpt lat="46.63718" lon="-1.71653">
        <ele>61</ele>
        <time>2018-01-07T14:12:50Z</time>
      </trkpt>
      <trkpt lat="46.63715" lon="-1.71657">
        <ele>61</ele>
        <time>2018-01-07T14:13:50Z</time>
      </trkpt>
      <trkpt lat="46.63685" lon="-1.71702">
        <ele>62</ele>
        <time>2018-01-07T14:14:50Z</time>
      </trkpt>
      <trkpt lat="46.6367" lon="-1.71725">
        <ele>62</ele>
        <time>2018-01-07T14:15:50Z</time>
      </trkpt>
      <trkpt lat="46.63653" lon="-1.7175">
        <ele>62</ele>
        <time>2018-01-07T14:16:50Z</time>
      </trkpt>
      <trkpt lat="46.63633" lon="-1.71778">
        <ele>62</ele>
        <time>2018-01-07T14:17:50Z</time>
      </trkpt>
      <trkpt lat="46.63607" lon="-1.71822">
        <ele>62</ele>
        <time>2018-01-07T14:18:50Z</time>
      </trkpt>
      <trkpt lat="46.63579" lon="-1.71868">
        <ele>62</ele>
        <time>2018-01-07T14:19:50Z</time>
      </trkpt>
      <trkpt lat="46.6357" lon="-1.71882">
        <ele>62</ele>
        <time>2018-01-07T14:20:50Z</time>
      </trkpt>
      <trkpt lat="46.63543" lon="-1.71928">
        <ele>62</ele>
        <time>2018-01-07T14:21:50Z</time>
      </trkpt>
      <trkpt lat="46.63504" lon="-1.71995">
        <ele>61</ele>
        <time>2018-01-07T14:22:50Z</time>
      </trkpt>
      <trkpt lat="46.63477" lon="-1.72042">
        <ele>61</ele>
        <time>2018-01-07T14:23:50Z</time>
      </trkpt>
      <trkpt lat="46.63442" lon="-1.721">
        <ele>61</ele>
        <time>2018-01-07T14:24:50Z</time>
      </trkpt>
      <trkpt lat="46.63406" lon="-1.72162">
        <ele>62</ele>
        <time>2018-01-07T14:25:50Z</time>
      </trkpt>
      <trkpt lat="46.63373" lon="-1.72216">
        <ele>62</ele>
        <time>2018-01-07T14:26:50Z</time>
      </trkpt>
      <trkpt lat="46.63331" lon="-1.72288">
        <ele>63</ele>
        <time>2018-01-07T14:27:50Z</time>
      </trkpt>
      <trkpt lat="46.63293" lon="-1.72352">
        <ele>61</ele>
        <time>2018-01-07T14:28:50Z</time>
      </trkpt>
      <trkpt lat="46.63257" lon="-1.72414">
        <ele>60</ele>
        <time>2018-01-07T14:29:50Z</time>
      </trkpt>
      <trkpt lat="46.63226" lon="-1.72466">
        <ele>59</ele>
        <time>2018-01-07T14:30:50Z</time>
      </trkpt>
      <trkpt lat="46.63189" lon="-1.72528">
        <ele>60</ele>
        <time>2018-01-07T14:31:50Z</time>
      </trkpt>
      <trkpt lat="46.63169" lon="-1.72562">
        <ele>61</ele>
        <time>2018-01-07T14:32:50Z</time>
      </trkpt>
      <trkpt lat="46.63137" lon="-1.72619">
        <ele>61</ele>
        <time>2018-01-07T14:33:50Z</time>
      </trkpt>
      <trkpt lat="46.63117" lon="-1.72657">
        <ele>60</ele>
        <time>2018-01-07T14:34:50Z</time>
      </trkpt>
      <trkpt lat="46.6311" lon="-1.72673">
        <ele>60</ele>
        <time>2018-01-07T14:35:50Z</time>
      </trkpt>
      <trkpt lat="46.63097" lon="-1.72698">
        <ele>60</ele>
        <time>2018-01-07T14:36:50Z</time>
      </trkpt>
      <trkpt lat="46.63076" lon="-1.72743">
        <ele>59</ele>
        <time>2018-01-07T14:37:50Z</time>
      </trkpt>
      <trkpt lat="46.63065" lon="-1.72767">
        <ele>59</ele>
        <time>2018-01-07T14:38:50Z</time>
      </trkpt>
      <trkpt lat="46.63046" lon="-1.72807">
        <ele>59</ele>
        <time>2018-01-07T14:39:50Z</time>
      </trkpt>
      <trkpt lat="46.63038" lon="-1.72825">
        <ele>59</ele>
        <time>2018-01-07T14:40:50Z</time>
      </trkpt>
      <trkpt lat="46.63014" lon="-1.72876">
        <ele>59</ele>
        <time>2018-01-07T14:41:50Z</time>
      </trkpt>
      <trkpt lat="46.62981" lon="-1.7295">
        <ele>59</ele>
        <time>2018-01-07T14:42:50Z</time>
      </trkpt>
      <trkpt lat="46.6297" lon="-1.72972">
        <ele>59</ele>
        <time>2018-01-07T14:43:50Z</time>
      </trkpt>
      <trkpt lat="46.62946" lon="-1.73024">
        <ele>59</ele>
        <time>2018-01-07T14:44:50Z</time>
      </trkpt>
      <trkpt lat="46.62906" lon="-1.73109">
        <ele>59</ele>
        <time>2018-01-07T14:45:50Z</time>
      </trkpt>
      <trkpt lat="46.62886" lon="-1.73151">
        <ele>58</ele>
        <time>2018-01-07T14:46:50Z</time>
      </trkpt>
      <trkpt lat="46.6286" lon="-1.73205">
        <ele>57</ele>
        <time>2018-01-07T14:47:50Z</time>
      </trkpt>
      <trkpt lat="46.62826" lon="-1.73277">
        <ele>56</ele>
        <time>2018-01-07T14:48:50Z</time>
      </trkpt>
      <trkpt lat="46.62816" lon="-1.73296">
        <ele>56</ele>
        <time>2018-01-07T14:49:50Z</time>
      </trkpt>
      <trkpt lat="46.62806" lon="-1.73319">
        <ele>56</ele>
        <time>2018-01-07T14:50:50Z</time>
      </trkpt>
      <trkpt lat="46.62793" lon="-1.73348">
        <ele>56</ele>
        <time>2018-01-07T14:51:50Z</time>
      </trkpt>
      <trkpt lat="46.62782" lon="-1.73372">
        <ele>55</ele>
        <time>2018-01-07T14:52:50Z</time>
      </trkpt>
      <trkpt lat="46.62773" lon="-1.73391">
        <ele>55</ele>
        <time>2018-01-07T14:53:50Z</time>
      </trkpt>
      <trkpt lat="46.62764" lon="-1.73415">
        <ele>55</ele>
        <time>2018-01-07T14:54:50Z</time>
      </trkpt>
      <trkpt lat="46.62757" lon="-1.73432">
        <ele>55</ele>
        <time>2018-01-07T14:55:50Z</time>
      </trkpt>
      <trkpt lat="46.62748" lon="-1.73456">
        <ele>54</ele>
        <time>2018-01-07T14:56:50Z</time>
      </trkpt>
      <trkpt lat="46.6274" lon="-1.73476">
        <ele>53</ele>
        <time>2018-01-07T14:57:50Z</time>
      </trkpt>
      <trkpt lat="46.6273" lon="-1.73498">
        <ele>52</ele>
        <time>2018-01-07T14:58:50Z</time>
      </trkpt>
      <trkpt lat="46.62728" lon="-1.73502">
        <ele>51</ele>
        <time>2018-01-07T14:59:50Z</time>
      </trkpt>
      <trkpt lat="46.62718" lon="-1.73522">
        <ele>51</ele>
        <time>2018-01-07T15:00:50Z</time>
      </trkpt>
      <trkpt lat="46.62706" lon="-1.73539">
        <ele>51</ele>
        <time>2018-01-07T15:01:50Z</time>
      </trkpt>
      <trkpt lat="46.62696" lon="-1.73551">
        <ele>50</ele>
        <time>2018-01-07T15:02:50Z</time>
      </trkpt>
      <trkpt lat="46.62685" lon="-1.7356">
        <ele>50</ele>
        <time>2018-01-07T15:03:50Z</time>
      </trkpt>
      <trkpt lat="46.62675" lon="-1.73567">
        <ele>50</ele>
        <time>2018-01-07T15:04:50Z</time>
      </trkpt>
      <trkpt lat="46.62664" lon="-1.73573">
        <ele>50</ele>
        <time>2018-01-07T15:05:50Z</time>
      </trkpt>
      <trkpt lat="46.62655" lon="-1.73577">
        <ele>50</ele>
        <time>2018-01-07T15:06:50Z</time>
      </trkpt>
      <trkpt lat="46.62639" lon="-1.73579">
        <ele>49</ele>
        <time>2018-01-07T15:07:50Z</time>
      </trkpt>
      <trkpt lat="46.6263" lon="-1.73579">
        <ele>49</ele>
        <time>2018-01-07T15:08:50Z</time>
      </trkpt>
      <trkpt lat="46.62622" lon="-1.7358">
        <ele>49</ele>
        <time>2018-01-07T15:09:50Z</time>
      </trkpt>
      <trkpt lat="46.62618" lon="-1.7358">
        <ele>49</ele>
        <time>2018-01-07T15:10:50Z</time>
      </trkpt>
      <trkpt lat="46.62608" lon="-1.73579">
        <ele>49</ele>
        <time>2018-01-07T15:11:50Z</time>
      </trkpt>
      <trkpt lat="46.62597" lon="-1.7358">
        <ele>48</ele>
        <time>2018-01-07T15:12:50Z</time>
      </trkpt>
      <trkpt lat="46.62586" lon="-1.73581">
        <ele>48</ele>
        <time>2018-01-07T15:13:50Z</time>
      </trkpt>
      <trkpt lat="46.62574" lon="-1.73584">
        <ele>48</ele>
        <time>2018-01-07T15:14:50Z</time>
      </trkpt>
      <trkpt lat="46.62563" lon="-1.73586">
        <ele>49</ele>
        <time>2018-01-07T15:15:50Z</time>
      </trkpt>
      <trkpt lat="46.6255" lon="-1.73588">
        <ele>49</ele>
        <time>2018-01-07T15:16:50Z</time>
      </trkpt>
      <trkpt lat="46.62507" lon="-1.73596">
        <ele>50</ele>
        <time>2018-01-07T15:17:50Z</time>
      </trkpt>
      <trkpt lat="46.62478" lon="-1.73601">
        <ele>51</ele>
        <time>2018-01-07T15:18:50Z</time>
      </trkpt>
      <trkpt lat="46.62475" lon="-1.73602">
        <ele>51</ele>
        <time>2018-01-07T15:19:50Z</time>
      </trkpt>
      <trkpt lat="46.62451" lon="-1.73606">
        <ele>51</ele>
        <time>2018-01-07T15:20:50Z</time>
      </trkpt>
      <trkpt lat="46.62423" lon="-1.73612">
        <ele>52</ele>
        <time>2018-01-07T15:21:50Z</time>
      </trkpt>
      <trkpt lat="46.62394" lon="-1.73617">
        <ele>52</ele>
        <time>2018-01-07T15:22:50Z</time>
      </trkpt>
      <trkpt lat="46.62353" lon="-1.73624">
        <ele>53</ele>
        <time>2018-01-07T15:23:50Z</time>
      </trkpt>
      <trkpt lat="46.62327" lon="-1.73629">
        <ele>53</ele>
        <time>2018-01-07T15:24:50Z</time>
      </trkpt>
      <trkpt lat="46.623" lon="-1.73634">
        <ele>54</ele>
        <time>2018-01-07T15:25:50Z</time>
      </trkpt>
      <trkpt lat="46.62264" lon="-1.73641">
        <ele>55</ele>
        <time>2018-01-07T15:26:50Z</time>
      </trkpt>
      <trkpt lat="46.62232" lon="-1.73647">
        <ele>56</ele>
        <time>2018-01-07T15:27:50Z</time>
      </trkpt>
      <trkpt lat="46.62206" lon="-1.73652">
        <ele>57</ele>
        <time>2018-01-07T15:28:50Z</time>
      </trkpt>
      <trkpt lat="46.62198" lon="-1.73654">
        <ele>57</ele>
        <time>2018-01-07T15:29:50Z</time>
      </trkpt>
      <trkpt lat="46.62173" lon="-1.73658">
        <ele>58</ele>
        <time>2018-01-07T15:30:50Z</time>
      </trkpt>
      <trkpt lat="46.62139" lon="-1.73664">
        <ele>58</ele>
        <time>2018-01-07T15:31:50Z</time>
      </trkpt>
      <trkpt lat="46.62114" lon="-1.73668">
        <ele>59</ele>
        <time>2018-01-07T15:32:50Z</time>
      </trkpt>
      <trkpt lat="46.62091" lon="-1.73673">
        <ele>59</ele>
        <time>2018-01-07T15:33:50Z</time>
      </trkpt>
      <trkpt lat="46.62067" lon="-1.73677">
        <ele>59</ele>
        <time>2018-01-07T15:34:50Z</time>
      </trkpt>
      <trkpt lat="46.62064" lon="-1.73677">
        <ele>59</ele>
        <time>2018-01-07T15:35:50Z</time>
      </trkpt>
      <trkpt lat="46.62032" lon="-1.73683">
        <ele>60</ele>
        <time>2018-01-07T15:36:50Z</time>
      </trkpt>
      <trkpt lat="46.62005" lon="-1.73688">
        <ele>60</ele>
        <time>2018-01-07T15:37:50Z</time>
      </trkpt>
      <trkpt lat="46.62002" lon="-1.73689">
        <ele>60</ele>
        <time>2018-01-07T15:38:50Z</time>
      </trkpt>
      <trkpt lat="46.61979" lon="-1.73694">
        <ele>60</ele>
        <time>2018-01-07T15:39:50Z</time>
      </trkpt>
      <trkpt lat="46.61963" lon="-1.73697">
        <ele>60</ele>
        <time>2018-01-07T15:40:50Z</time>
      </trkpt>
      <trkpt lat="46.61942" lon="-1.73703">
        <ele>60</ele>
        <time>2018-01-07T15:41:50Z</time>
      </trkpt>
      <trkpt lat="46.61924" lon="-1.73708">
        <ele>60</ele>
        <time>2018-01-07T15:42:50Z</time>
      </trkpt>
      <trkpt lat="46.61908" lon="-1.73713">
        <ele>61</ele>
        <time>2018-01-07T15:43:50Z</time>
      </trkpt>
      <trkpt lat="46.61883" lon="-1.7372">
        <ele>61</ele>
        <time>2018-01-07T15:44:50Z</time>
      </trkpt>
      <trkpt lat="46.61863" lon="-1.73727">
        <ele>61</ele>
        <time>2018-01-07T15:45:50Z</time>
      </trkpt>
      <trkpt lat="46.61834" lon="-1.73737">
        <ele>61</ele>
        <time>2018-01-07T15:46:50Z</time>
      </trkpt>
      <trkpt lat="46.61809" lon="-1.73747">
        <ele>61</ele>
        <time>2018-01-07T15:47:50Z</time>
      </trkpt>
      <trkpt lat="46.61788" lon="-1.73754">
        <ele>61</ele>
        <time>2018-01-07T15:48:50Z</time>
      </trkpt>
      <trkpt lat="46.61773" lon="-1.73761">
        <ele>61</ele>
        <time>2018-01-07T15:49:50Z</time>
      </trkpt>
      <trkpt lat="46.61757" lon="-1.73768">
        <ele>61</ele>
        <time>2018-01-07T15:50:50Z</time>
      </trkpt>
      <trkpt lat="46.61742" lon="-1.73776">
        <ele>61</ele>
        <time>2018-01-07T15:51:50Z</time>
      </trkpt>
      <trkpt lat="46.61725" lon="-1.73786">
        <ele>62</ele>
        <time>2018-01-07T15:52:50Z</time>
      </trkpt>
      <trkpt lat="46.61712" lon="-1.73796">
        <ele>62</ele>
        <time>2018-01-07T15:53:50Z</time>
      </trkpt>
      <trkpt lat="46.61688" lon="-1.73813">
        <ele>62</ele>
        <time>2018-01-07T15:54:50Z</time>
      </trkpt>
      <trkpt lat="46.61665" lon="-1.73829">
        <ele>62</ele>
        <time>2018-01-07T15:55:50Z</time>
      </trkpt>
      <trkpt lat="46.6164" lon="-1.73849">
        <ele>63</ele>
        <time>2018-01-07T15:56:50Z</time>
      </trkpt>
      <trkpt lat="46.61618" lon="-1.73865">
        <ele>63</ele>
        <time>2018-01-07T15:57:50Z</time>
      </trkpt>
      <trkpt lat="46.616" lon="-1.73879">
        <ele>63</ele>
        <time>2018-01-07T15:58:50Z</time>
      </trkpt>
      <trkpt lat="46.6158" lon="-1.73894">
        <ele>63</ele>
        <time>2018-01-07T15:59:50Z</time>
      </trkpt>
      <trkpt lat="46.61566" lon="-1.73905">
        <ele>63</ele>
        <time>2018-01-07T16:00:50Z</time>
      </trkpt>
      <trkpt lat="46.61549" lon="-1.7392">
        <ele>63</ele>
        <time>2018-01-07T16:01:50Z</time>
      </trkpt>
      <trkpt lat="46.61535" lon="-1.73933">
        <ele>62</ele>
        <time>2018-01-07T16:02:50Z</time>
      </trkpt>
      <trkpt lat="46.61522" lon="-1.73943">
        <ele>62</ele>
        <time>2018-01-07T16:03:50Z</time>
      </trkpt>
      <trkpt lat="46.61505" lon="-1.73959">
        <ele>62</ele>
        <time>2018-01-07T16:04:50Z</time>
      </trkpt>
      <trkpt lat="46.61486" lon="-1.73977">
        <ele>61</ele>
        <time>2018-01-07T16:05:50Z</time>
      </trkpt>
      <trkpt lat="46.61469" lon="-1.73993">
        <ele>61</ele>
        <time>2018-01-07T16:06:50Z</time>
      </trkpt>
      <trkpt lat="46.6145" lon="-1.7401">
        <ele>62</ele>
        <time>2018-01-07T16:07:50Z</time>
      </trkpt>
      <trkpt lat="46.61431" lon="-1.74029">
        <ele>62</ele>
        <time>2018-01-07T16:08:50Z</time>
      </trkpt>
      <trkpt lat="46.61408" lon="-1.7405">
        <ele>62</ele>
        <time>2018-01-07T16:09:50Z</time>
      </trkpt>
      <trkpt lat="46.61384" lon="-1.74072">
        <ele>63</ele>
        <time>2018-01-07T16:10:50Z</time>
      </trkpt>
      <trkpt lat="46.61362" lon="-1.74092">
        <ele>63</ele>
        <time>2018-01-07T16:11:50Z</time>
      </trkpt>
      <trkpt lat="46.61343" lon="-1.74111">
        <ele>64</ele>
        <time>2018-01-07T16:12:50Z</time>
      </trkpt>
      <trkpt lat="46.61329" lon="-1.74122">
        <ele>64</ele>
        <time>2018-01-07T16:13:50Z</time>
      </trkpt>
      <trkpt lat="46.61302" lon="-1.7415">
        <ele>64</ele>
        <time>2018-01-07T16:14:50Z</time>
      </trkpt>
      <trkpt lat="46.61284" lon="-1.74168">
        <ele>64</ele>
        <time>2018-01-07T16:15:50Z</time>
      </trkpt>
      <trkpt lat="46.6127" lon="-1.74183">
        <ele>64</ele>
        <time>2018-01-07T16:16:50Z</time>
      </trkpt>
      <trkpt lat="46.61252" lon="-1.742">
        <ele>64</ele>
        <time>2018-01-07T16:17:50Z</time>
      </trkpt>
      <trkpt lat="46.61239" lon="-1.74214">
        <ele>64</ele>
        <time>2018-01-07T16:18:50Z</time>
      </trkpt>
      <trkpt lat="46.61218" lon="-1.74236">
        <ele>64</ele>
        <time>2018-01-07T16:19:50Z</time>
      </trkpt>
      <trkpt lat="46.61199" lon="-1.74256">
        <ele>64</ele>
        <time>2018-01-07T16:20:50Z</time>
      </trkpt>
      <trkpt lat="46.61183" lon="-1.74273">
        <ele>64</ele>
        <time>2018-01-07T16:21:50Z</time>
      </trkpt>
      <trkpt lat="46.61161" lon="-1.74296">
        <ele>64</ele>
        <time>2018-01-07T16:22:50Z</time>
      </trkpt>
      <trkpt lat="46.61151" lon="-1.74307">
        <ele>64</ele>
        <time>2018-01-07T16:23:50Z</time>
      </trkpt>
      <trkpt lat="46.61146" lon="-1.74312">
        <ele>64</ele>
        <time>2018-01-07T16:24:50Z</time>
      </trkpt>
      <trkpt lat="46.61129" lon="-1.74329">
        <ele>64</ele>
        <time>2018-01-07T16:25:50Z</time>
      </trkpt>
      <trkpt lat="46.61117" lon="-1.74341">
        <ele>64</ele>
        <time>2018-01-07T16:26:50Z</time>
      </trkpt>
      <trkpt lat="46.61103" lon="-1.74353">
        <ele>64</ele>
        <time>2018-01-07T16:27:50Z</time>
      </trkpt>
      <trkpt lat="46.61092" lon="-1.74362">
        <ele>64</ele>
        <time>2018-01-07T16:28:50Z</time>
      </trkpt>
      <trkpt lat="46.61085" lon="-1.74368">
        <ele>64</ele>
        <time>2018-01-07T16:29:50Z</time>
      </trkpt>
      <trkpt lat="46.61071" lon="-1.74379">
        <ele>63</ele>
        <time>2018-01-07T16:30:50Z</time>
      </trkpt>
      <trkpt lat="46.61058" lon="-1.7439">
        <ele>63</ele>
        <time>2018-01-07T16:31:50Z</time>
      </trkpt>
      <trkpt lat="46.61043" lon="-1.74401">
        <ele>63</ele>
        <time>2018-01-07T16:32:50Z</time>
      </trkpt>
      <trkpt lat="46.61023" lon="-1.74416">
        <ele>62</ele>
        <time>2018-01-07T16:33:50Z</time>
      </trkpt>
      <trkpt lat="46.61013" lon="-1.74423">
        <ele>62</ele>
        <time>2018-01-07T16:34:50Z</time>
      </trkpt>
      <trkpt lat="46.61007" lon="-1.74427">
        <ele>62</ele>
        <time>2018-01-07T16:35:50Z</time>
      </trkpt>
      <trkpt lat="46.60991" lon="-1.74438">
        <ele>62</ele>
        <time>2018-01-07T16:36:50Z</time>
      </trkpt>
      <trkpt lat="46.6097" lon="-1.74453">
        <ele>61</ele>
        <time>2018-01-07T16:37:50Z</time>
      </trkpt>
      <trkpt lat="46.60925" lon="-1.74486">
        <ele>60</ele>
        <time>2018-01-07T16:38:50Z</time>
      </trkpt>
      <trkpt lat="46.60879" lon="-1.7452">
        <ele>60</ele>
        <time>2018-01-07T16:39:50Z</time>
      </trkpt>
      <trkpt lat="46.60844" lon="-1.74546">
        <ele>59</ele>
        <time>2018-01-07T16:40:50Z</time>
      </trkpt>
      <trkpt lat="46.60823" lon="-1.74561">
        <ele>59</ele>
        <time>2018-01-07T16:41:50Z</time>
      </trkpt>
      <trkpt lat="46.60813" lon="-1.74568">
        <ele>59</ele>
        <time>2018-01-07T16:42:50Z</time>
      </trkpt>
      <trkpt lat="46.60809" lon="-1.74572">
        <ele>59</ele>
        <time>2018-01-07T16:43:50Z</time>
      </trkpt>
      <trkpt lat="46.60808" lon="-1.74573">
        <ele>59</ele>
        <time>2018-01-07T16:44:50Z</time>
      </trkpt>
      <trkpt lat="46.60808" lon="-1.74573">
        <ele>59</ele>
        <time>2018-01-07T16:45:50Z</time>
      </trkpt>
      <trkpt lat="46.60803" lon="-1.74577">
        <ele>59</ele>
        <time>2018-01-07T16:46:50Z</time>
      </trkpt>
      <trkpt lat="46.60787" lon="-1.74592">
        <ele>59</ele>
        <time>2018-01-07T16:47:50Z</time>
      </trkpt>
      <trkpt lat="46.60739" lon="-1.74633">
        <ele>60</ele>
        <time>2018-01-07T16:48:50Z</time>
      </trkpt>
      <trkpt lat="46.60677" lon="-1.74681">
        <ele>60</ele>
        <time>2018-01-07T16:49:50Z</time>
      </trkpt>
      <trkpt lat="46.60621" lon="-1.74723">
        <ele>60</ele>
        <time>2018-01-07T16:50:50Z</time>
      </trkpt>
      <trkpt lat="46.60591" lon="-1.74746">
        <ele>61</ele>
        <time>2018-01-07T16:51:50Z</time>
      </trkpt>
      <trkpt lat="46.60589" lon="-1.74749">
        <ele>61</ele>
        <time>2018-01-07T16:52:50Z</time>
      </trkpt>
      <trkpt lat="46.60572" lon="-1.74761">
        <ele>61</ele>
        <time>2018-01-07T16:53:50Z</time>
      </trkpt>
      <trkpt lat="46.6054" lon="-1.74788">
        <ele>61</ele>
        <time>2018-01-07T16:54:50Z</time>
      </trkpt>
      <trkpt lat="46.60501" lon="-1.74822">
        <ele>60</ele>
        <time>2018-01-07T16:55:50Z</time>
      </trkpt>
      <trkpt lat="46.60482" lon="-1.7484">
        <ele>60</ele>
        <time>2018-01-07T16:56:50Z</time>
      </trkpt>
      <trkpt lat="46.60452" lon="-1.74864">
        <ele>59</ele>
        <time>2018-01-07T16:57:50Z</time>
      </trkpt>
      <trkpt lat="46.60424" lon="-1.74888">
        <ele>58</ele>
        <time>2018-01-07T16:58:50Z</time>
      </trkpt>
      <trkpt lat="46.60401" lon="-1.7491">
        <ele>58</ele>
        <time>2018-01-07T16:59:50Z</time>
      </trkpt>
      <trkpt lat="46.60396" lon="-1.74916">
        <ele>58</ele>
        <time>2018-01-07T17:00:50Z</time>
      </trkpt>
      <trkpt lat="46.6039" lon="-1.74921">
        <ele>58</ele>
        <time>2018-01-07T17:01:50Z</time>
      </trkpt>
      <trkpt lat="46.60374" lon="-1.74935">
        <ele>58</ele>
        <time>2018-01-07T17:02:50Z</time>
      </trkpt>
      <trkpt lat="46.60356" lon="-1.74953">
        <ele>58</ele>
        <time>2018-01-07T17:03:50Z</time>
      </trkpt>
      <trkpt lat="46.60344" lon="-1.74965">
        <ele>58</ele>
        <time>2018-01-07T17:04:50Z</time>
      </trkpt>
      <trkpt lat="46.60334" lon="-1.74977">
        <ele>58</ele>
        <time>2018-01-07T17:05:50Z</time>
      </trkpt>
      <trkpt lat="46.60319" lon="-1.74996">
        <ele>57</ele>
        <time>2018-01-07T17:06:50Z</time>
      </trkpt>
      <trkpt lat="46.60295" lon="-1.75032">
        <ele>57</ele>
        <time>2018-01-07T17:07:50Z</time>
      </trkpt>
      <trkpt lat="46.60261" lon="-1.7508">
        <ele>57</ele>
        <time>2018-01-07T17:08:50Z</time>
      </trkpt>
      <trkpt lat="46.60233" lon="-1.75122">
        <ele>56</ele>
        <time>2018-01-07T17:09:50Z</time>
      </trkpt>
      <trkpt lat="46.6021" lon="-1.75154">
        <ele>56</ele>
        <time>2018-01-07T17:10:50Z</time>
      </trkpt>
      <trkpt lat="46.60195" lon="-1.75176">
        <ele>55</ele>
        <time>2018-01-07T17:11:50Z</time>
      </trkpt>
      <trkpt lat="46.6019" lon="-1.75187">
        <ele>55</ele>
        <time>2018-01-07T17:12:50Z</time>
      </trkpt>
      <trkpt lat="46.60184" lon="-1.75198">
        <ele>55</ele>
        <time>2018-01-07T17:13:50Z</time>
      </trkpt>
      <trkpt lat="46.60179" lon="-1.75213">
        <ele>55</ele>
        <time>2018-01-07T17:14:50Z</time>
      </trkpt>
      <trkpt lat="46.60168" lon="-1.75243">
        <ele>55</ele>
        <time>2018-01-07T17:15:50Z</time>
      </trkpt>
      <trkpt lat="46.60158" lon="-1.7527">
        <ele>55</ele>
        <time>2018-01-07T17:16:50Z</time>
      </trkpt>
      <trkpt lat="46.6015" lon="-1.75291">
        <ele>55</ele>
        <time>2018-01-07T17:17:50Z</time>
      </trkpt>
      <trkpt lat="46.60145" lon="-1.75308">
        <ele>55</ele>
        <time>2018-01-07T17:18:50Z</time>
      </trkpt>
      <trkpt lat="46.60141" lon="-1.75332">
        <ele>55</ele>
        <time>2018-01-07T17:19:50Z</time>
      </trkpt>
      <trkpt lat="46.60139" lon="-1.75355">
        <ele>55</ele>
        <time>2018-01-07T17:20:50Z</time>
      </trkpt>
      <trkpt lat="46.60137" lon="-1.75372">
        <ele>55</ele>
        <time>2018-01-07T17:21:50Z</time>
      </trkpt>
      <trkpt lat="46.60133" lon="-1.75393">
        <ele>56</ele>
        <time>2018-01-07T17:22:50Z</time>
      </trkpt>
      <trkpt lat="46.60128" lon="-1.75408">
        <ele>56</ele>
        <time>2018-01-07T17:23:50Z</time>
      </trkpt>
      <trkpt lat="46.60126" lon="-1.7542">
        <ele>56</ele>
        <time>2018-01-07T17:24:50Z</time>
      </trkpt>
      <trkpt lat="46.60124" lon="-1.75429">
        <ele>55</ele>
        <time>2018-01-07T17:25:50Z</time>
      </trkpt>
      <trkpt lat="46.60124" lon="-1.75433">
        <ele>55</ele>
        <time>2018-01-07T17:26:50Z</time>
      </trkpt>
      <trkpt lat="46.60124" lon="-1.75439">
        <ele>55</ele>
        <time>2018-01-07T17:27:50Z</time>
      </trkpt>
      <trkpt lat="46.60125" lon="-1.7545">
        <ele>55</ele>
        <time>2018-01-07T17:28:50Z</time>
      </trkpt>
      <trkpt lat="46.60129" lon="-1.75472">
        <ele>55</ele>
        <time>2018-01-07T17:29:50Z</time>
      </trkpt>
      <trkpt lat="46.60131" lon="-1.75479">
        <ele>55</ele>
        <time>2018-01-07T17:30:50Z</time>
      </trkpt>
      <trkpt lat="46.60139" lon="-1.75517">
        <ele>55</ele>
        <time>2018-01-07T17:31:50Z</time>
      </trkpt>
      <trkpt lat="46.60145" lon="-1.75551">
        <ele>54</ele>
        <time>2018-01-07T17:32:50Z</time>
      </trkpt>
      <trkpt lat="46.60151" lon="-1.75586">
        <ele>53</ele>
        <time>2018-01-07T17:33:50Z</time>
      </trkpt>
      <trkpt lat="46.60154" lon="-1.75608">
        <ele>52</ele>
        <time>2018-01-07T17:34:50Z</time>
      </trkpt>
      <trkpt lat="46.60154" lon="-1.75608">
        <ele>52</ele>
        <time>2018-01-07T17:35:50Z</time>
      </trkpt>
      <trkpt lat="46.60155" lon="-1.75608">
        <ele>52</ele>
        <time>2018-01-07T17:36:50Z</time>
      </trkpt>
      <trkpt lat="46.60156" lon="-1.75608">
        <ele>52</ele>
        <time>2018-01-07T17:37:50Z</time>
      </trkpt>
      <trkpt lat="46.60157" lon="-1.75608">
        <ele>52</ele>
        <time>2018-01-07T17:38:50Z</time>
      </trkpt>
      <trkpt lat="46.60157" lon="-1.75609">
        <ele>52</ele>
        <time>2018-01-07T17:39:50Z</time>
      </trkpt>
      <trkpt lat="46.60158" lon="-1.75609">
        <ele>52</ele>
        <time>2018-01-07T17:40:50Z</time>
      </trkpt>
      <trkpt lat="46.60158" lon="-1.7561">
        <ele>52</ele>
        <time>2018-01-07T17:41:50Z</time>
      </trkpt>
      <trkpt lat="46.60159" lon="-1.7561">
        <ele>52</ele>
        <time>2018-01-07T17:42:50Z</time>
      </trkpt>
      <trkpt lat="46.60159" lon="-1.75611">
        <ele>52</ele>
        <time>2018-01-07T17:43:50Z</time>
      </trkpt>
      <trkpt lat="46.6016" lon="-1.75611">
        <ele>52</ele>
        <time>2018-01-07T17:44:50Z</time>
      </trkpt>
      <trkpt lat="46.6016" lon="-1.75612">
        <ele>52</ele>
        <time>2018-01-07T17:45:50Z</time>
      </trkpt>
      <trkpt lat="46.6016" lon="-1.75613">
        <ele>52</ele>
        <time>2018-01-07T17:46:50Z</time>
      </trkpt>
      <trkpt lat="46.6016" lon="-1.75614">
        <ele>52</ele>
        <time>2018-01-07T17:47:50Z</time>
      </trkpt>
      <trkpt lat="46.6016" lon="-1.75615">
        <ele>52</ele>
        <time>2018-01-07T17:48:50Z</time>
      </trkpt>
      <trkpt lat="46.60165" lon="-1.75616">
        <ele>52</ele>
        <time>2018-01-07T17:49:50Z</time>
      </trkpt>
      <trkpt lat="46.60167" lon="-1.75616">
        <ele>52</ele>
        <time>2018-01-07T17:50:50Z</time>
      </trkpt>
      <trkpt lat="46.60171" lon="-1.75616">
        <ele>52</ele>
        <time>2018-01-07T17:51:50Z</time>
      </trkpt>
      <trkpt lat="46.60179" lon="-1.75614">
        <ele>53</ele>
        <time>2018-01-07T17:52:50Z</time>
      </trkpt>
      <trkpt lat="46.60183" lon="-1.75613">
        <ele>53</ele>
        <time>2018-01-07T17:53:50Z</time>
      </trkpt>
      <trkpt lat="46.60187" lon="-1.75613">
        <ele>53</ele>
        <time>2018-01-07T17:54:50Z</time>
      </trkpt>
      <trkpt lat="46.60191" lon="-1.75612">
        <ele>53</ele>
        <time>2018-01-07T17:55:50Z</time>
      </trkpt>
      <trkpt lat="46.60195" lon="-1.75613">
        <ele>53</ele>
        <time>2018-01-07T17:56:50Z</time>
      </trkpt>
      <trkpt lat="46.60197" lon="-1.75614">
        <ele>53</ele>
        <time>2018-01-07T17:57:50Z</time>
      </trkpt>
      <trkpt lat="46.602" lon="-1.75616">
        <ele>53</ele>
        <time>2018-01-07T17:58:50Z</time>
      </trkpt>
      <trkpt lat="46.60203" lon="-1.7562">
        <ele>53</ele>
        <time>2018-01-07T17:59:50Z</time>
      </trkpt>
      <trkpt lat="46.60213" lon="-1.75624">
        <ele>53</ele>
        <time>2018-01-07T18:00:50Z</time>
      </trkpt>
      <trkpt lat="46.60254" lon="-1.75652">
        <ele>53</ele>
        <time>2018-01-07T18:01:50Z</time>
      </trkpt>
      <trkpt lat="46.60257" lon="-1.75653">
        <ele>52</ele>
        <time>2018-01-07T18:02:50Z</time>
      </trkpt>
      <trkpt lat="46.60275" lon="-1.75666">
        <ele>52</ele>
        <time>2018-01-07T18:03:50Z</time>
      </trkpt>
      <trkpt lat="46.60289" lon="-1.75683">
        <ele>52</ele>
        <time>2018-01-07T18:04:50Z</time>
      </trkpt>
      <trkpt lat="46.60292" lon="-1.75687">
        <ele>52</ele>
        <time>2018-01-07T18:05:50Z</time>
      </trkpt>
      <trkpt lat="46.6031" lon="-1.75715">
        <ele>51</ele>
        <time>2018-01-07T18:06:50Z</time>
      </trkpt>
      <trkpt lat="46.60323" lon="-1.75739">
        <ele>51</ele>
        <time>2018-01-07T18:07:50Z</time>
      </trkpt>
      <trkpt lat="46.60327" lon="-1.75747">
        <ele>51</ele>
        <time>2018-01-07T18:08:50Z</time>
      </trkpt>
      <trkpt lat="46.60348" lon="-1.75784">
        <ele>50</ele>
        <time>2018-01-07T18:09:50Z</time>
      </trkpt>
      <trkpt lat="46.6037" lon="-1.75825">
        <ele>49</ele>
        <time>2018-01-07T18:10:50Z</time>
      </trkpt>
      <trkpt lat="46.60375" lon="-1.75833">
        <ele>49</ele>
        <time>2018-01-07T18:11:50Z</time>
      </trkpt>
      <trkpt lat="46.60385" lon="-1.75847">
        <ele>48</ele>
        <time>2018-01-07T18:12:50Z</time>
      </trkpt>
      <trkpt lat="46.6041" lon="-1.75879">
        <ele>47</ele>
        <time>2018-01-07T18:13:50Z</time>
      </trkpt>
      <trkpt lat="46.60441" lon="-1.7592">
        <ele>46</ele>
        <time>2018-01-07T18:14:50Z</time>
      </trkpt>
      <trkpt lat="46.60455" lon="-1.75936">
        <ele>46</ele>
        <time>2018-01-07T18:15:50Z</time>
      </trkpt>
      <trkpt lat="46.60487" lon="-1.75973">
        <ele>47</ele>
        <time>2018-01-07T18:16:50Z</time>
      </trkpt>
      <trkpt lat="46.60525" lon="-1.76019">
        <ele>48</ele>
        <time>2018-01-07T18:17:50Z</time>
      </trkpt>
      <trkpt lat="46.60573" lon="-1.76076">
        <ele>48</ele>
        <time>2018-01-07T18:18:50Z</time>
      </trkpt>
      <trkpt lat="46.60602" lon="-1.76114">
        <ele>48</ele>
        <time>2018-01-07T18:19:50Z</time>
      </trkpt>
      <trkpt lat="46.60621" lon="-1.76136">
        <ele>48</ele>
        <time>2018-01-07T18:20:50Z</time>
      </trkpt>
      <trkpt lat="46.60631" lon="-1.76148">
        <ele>48</ele>
        <time>2018-01-07T18:21:50Z</time>
      </trkpt>
      <trkpt lat="46.60652" lon="-1.76173">
        <ele>47</ele>
        <time>2018-01-07T18:22:50Z</time>
      </trkpt>
      <trkpt lat="46.60679" lon="-1.76206">
        <ele>47</ele>
        <time>2018-01-07T18:23:50Z</time>
      </trkpt>
      <trkpt lat="46.60703" lon="-1.76237">
        <ele>47</ele>
        <time>2018-01-07T18:24:50Z</time>
      </trkpt>
      <trkpt lat="46.60715" lon="-1.76252">
        <ele>48</ele>
        <time>2018-01-07T18:25:50Z</time>
      </trkpt>
      <trkpt lat="46.60725" lon="-1.76266">
        <ele>48</ele>
        <time>2018-01-07T18:26:50Z</time>
      </trkpt>
      <trkpt lat="46.60725" lon="-1.76266">
        <ele>48</ele>
        <time>2018-01-07T18:27:50Z</time>
      </trkpt>
      <trkpt lat="46.60741" lon="-1.76284">
        <ele>48</ele>
        <time>2018-01-07T18:28:50Z</time>
      </trkpt>
      <trkpt lat="46.6073" lon="-1.76307">
        <ele>47</ele>
        <time>2018-01-07T18:29:50Z</time>
      </trkpt>
      <trkpt lat="46.60731" lon="-1.76332">
        <ele>47</ele>
        <time>2018-01-07T18:30:50Z</time>
      </trkpt>
      <trkpt lat="46.60736" lon="-1.76368">
        <ele>47</ele>
        <time>2018-01-07T18:31:50Z</time>
      </trkpt>
      <trkpt lat="46.60742" lon="-1.76404">
        <ele>47</ele>
        <time>2018-01-07T18:32:50Z</time>
      </trkpt>
      <trkpt lat="46.60745" lon="-1.76422">
        <ele>47</ele>
        <time>2018-01-07T18:33:50Z</time>
      </trkpt>
      <trkpt lat="46.60745" lon="-1.76424">
        <ele>47</ele>
        <time>2018-01-07T18:34:50Z</time>
      </trkpt>
      <trkpt lat="46.60752" lon="-1.76459">
        <ele>47</ele>
        <time>2018-01-07T18:35:50Z</time>
      </trkpt>
      <trkpt lat="46.60763" lon="-1.7652">
        <ele>47</ele>
        <time>2018-01-07T18:36:50Z</time>
      </trkpt>
      <trkpt lat="46.60773" lon="-1.76586">
        <ele>45</ele>
        <time>2018-01-07T18:37:50Z</time>
      </trkpt>
      <trkpt lat="46.60782" lon="-1.76636">
        <ele>46</ele>
        <time>2018-01-07T18:38:50Z</time>
      </trkpt>
      <trkpt lat="46.60789" lon="-1.76678">
        <ele>47</ele>
        <time>2018-01-07T18:39:50Z</time>
      </trkpt>
      <trkpt lat="46.60794" lon="-1.7671">
        <ele>48</ele>
        <time>2018-01-07T18:40:50Z</time>
      </trkpt>
      <trkpt lat="46.608" lon="-1.76748">
        <ele>50</ele>
        <time>2018-01-07T18:41:50Z</time>
      </trkpt>
      <trkpt lat="46.60808" lon="-1.76789">
        <ele>52</ele>
        <time>2018-01-07T18:42:50Z</time>
      </trkpt>
      <trkpt lat="46.60819" lon="-1.76839">
        <ele>54</ele>
        <time>2018-01-07T18:43:50Z</time>
      </trkpt>
      <trkpt lat="46.60842" lon="-1.76926">
        <ele>55</ele>
        <time>2018-01-07T18:44:50Z</time>
      </trkpt>
      <trkpt lat="46.60852" lon="-1.76968">
        <ele>53</ele>
        <time>2018-01-07T18:45:50Z</time>
      </trkpt>
      <trkpt lat="46.60868" lon="-1.77032">
        <ele>52</ele>
        <time>2018-01-07T18:46:50Z</time>
      </trkpt>
      <trkpt lat="46.60882" lon="-1.77085">
        <ele>52</ele>
        <time>2018-01-07T18:47:50Z</time>
      </trkpt>
      <trkpt lat="46.60894" lon="-1.7713">
        <ele>51</ele>
        <time>2018-01-07T18:48:50Z</time>
      </trkpt>
      <trkpt lat="46.60903" lon="-1.77165">
        <ele>51</ele>
        <time>2018-01-07T18:49:50Z</time>
      </trkpt>
      <trkpt lat="46.60905" lon="-1.77172">
        <ele>52</ele>
        <time>2018-01-07T18:50:50Z</time>
      </trkpt>
      <trkpt lat="46.60912" lon="-1.77198">
        <ele>52</ele>
        <time>2018-01-07T18:51:50Z</time>
      </trkpt>
      <trkpt lat="46.60922" lon="-1.77246">
        <ele>53</ele>
        <time>2018-01-07T18:52:50Z</time>
      </trkpt>
      <trkpt lat="46.60924" lon="-1.77268">
        <ele>53</ele>
        <time>2018-01-07T18:53:50Z</time>
      </trkpt>
      <trkpt lat="46.60925" lon="-1.77282">
        <ele>53</ele>
        <time>2018-01-07T18:54:50Z</time>
      </trkpt>
      <trkpt lat="46.6093" lon="-1.7733">
        <ele>52</ele>
        <time>2018-01-07T18:55:50Z</time>
      </trkpt>
      <trkpt lat="46.60941" lon="-1.77443">
        <ele>51</ele>
        <time>2018-01-07T18:56:50Z</time>
      </trkpt>
      <trkpt lat="46.60951" lon="-1.77523">
        <ele>49</ele>
        <time>2018-01-07T18:57:50Z</time>
      </trkpt>
      <trkpt lat="46.60955" lon="-1.77544">
        <ele>48</ele>
        <time>2018-01-07T18:58:50Z</time>
      </trkpt>
      <trkpt lat="46.60962" lon="-1.77565">
        <ele>46</ele>
        <time>2018-01-07T18:59:50Z</time>
      </trkpt>
      <trkpt lat="46.60969" lon="-1.7758">
        <ele>45</ele>
        <time>2018-01-07T19:00:50Z</time>
      </trkpt>
      <trkpt lat="46.60981" lon="-1.77607">
        <ele>44</ele>
        <time>2018-01-07T19:01:50Z</time>
      </trkpt>
      <trkpt lat="46.60982" lon="-1.77612">
        <ele>44</ele>
        <time>2018-01-07T19:02:50Z</time>
      </trkpt>
      <trkpt lat="46.60983" lon="-1.77617">
        <ele>44</ele>
        <time>2018-01-07T19:03:50Z</time>
      </trkpt>
      <trkpt lat="46.60984" lon="-1.77626">
        <ele>44</ele>
        <time>2018-01-07T19:04:50Z</time>
      </trkpt>
      <trkpt lat="46.60984" lon="-1.77633">
        <ele>44</ele>
        <time>2018-01-07T19:05:50Z</time>
      </trkpt>
      <trkpt lat="46.60982" lon="-1.77646">
        <ele>43</ele>
        <time>2018-01-07T19:06:50Z</time>
      </trkpt>
      <trkpt lat="46.60979" lon="-1.77656">
        <ele>43</ele>
        <time>2018-01-07T19:07:50Z</time>
      </trkpt>
      <trkpt lat="46.60977" lon="-1.77663">
        <ele>43</ele>
        <time>2018-01-07T19:08:50Z</time>
      </trkpt>
      <trkpt lat="46.60961" lon="-1.7771">
        <ele>43</ele>
        <time>2018-01-07T19:09:50Z</time>
      </trkpt>
      <trkpt lat="46.60956" lon="-1.77727">
        <ele>42</ele>
        <time>2018-01-07T19:10:50Z</time>
      </trkpt>
      <trkpt lat="46.60949" lon="-1.77748">
        <ele>42</ele>
        <time>2018-01-07T19:11:50Z</time>
      </trkpt>
      <trkpt lat="46.60942" lon="-1.77772">
        <ele>42</ele>
        <time>2018-01-07T19:12:50Z</time>
      </trkpt>
      <trkpt lat="46.60936" lon="-1.77805">
        <ele>42</ele>
        <time>2018-01-07T19:13:50Z</time>
      </trkpt>
      <trkpt lat="46.60931" lon="-1.77843">
        <ele>42</ele>
        <time>2018-01-07T19:14:50Z</time>
      </trkpt>
      <trkpt lat="46.6092" lon="-1.77952">
        <ele>43</ele>
        <time>2018-01-07T19:15:50Z</time>
      </trkpt>
      <trkpt lat="46.60913" lon="-1.78011">
        <ele>44</ele>
        <time>2018-01-07T19:16:50Z</time>
      </trkpt>
      <trkpt lat="46.60901" lon="-1.781">
        <ele>41</ele>
        <time>2018-01-07T19:17:50Z</time>
      </trkpt>
      <trkpt lat="46.60891" lon="-1.78161">
        <ele>39</ele>
        <time>2018-01-07T19:18:50Z</time>
      </trkpt>
      <trkpt lat="46.6087" lon="-1.78287">
        <ele>37</ele>
        <time>2018-01-07T19:19:50Z</time>
      </trkpt>
      <trkpt lat="46.60853" lon="-1.78394">
        <ele>34</ele>
        <time>2018-01-07T19:20:50Z</time>
      </trkpt>
      <trkpt lat="46.60849" lon="-1.78422">
        <ele>33</ele>
        <time>2018-01-07T19:21:50Z</time>
      </trkpt>
      <trkpt lat="46.60846" lon="-1.78453">
        <ele>33</ele>
        <time>2018-01-07T19:22:50Z</time>
      </trkpt>
      <trkpt lat="46.60846" lon="-1.7849">
        <ele>32</ele>
        <time>2018-01-07T19:23:50Z</time>
      </trkpt>
      <trkpt lat="46.60846" lon="-1.78536">
        <ele>31</ele>
        <time>2018-01-07T19:24:50Z</time>
      </trkpt>
      <trkpt lat="46.60847" lon="-1.78581">
        <ele>29</ele>
        <time>2018-01-07T19:25:50Z</time>
      </trkpt>
      <trkpt lat="46.60847" lon="-1.7861">
        <ele>29</ele>
        <time>2018-01-07T19:26:50Z</time>
      </trkpt>
      <trkpt lat="46.60849" lon="-1.78699">
        <ele>29</ele>
        <time>2018-01-07T19:27:50Z</time>
      </trkpt>
      <trkpt lat="46.60851" lon="-1.78728">
        <ele>30</ele>
        <time>2018-01-07T19:28:50Z</time>
      </trkpt>
      <trkpt lat="46.60854" lon="-1.78754">
        <ele>31</ele>
        <time>2018-01-07T19:29:50Z</time>
      </trkpt>
      <trkpt lat="46.60857" lon="-1.78778">
        <ele>31</ele>
        <time>2018-01-07T19:30:50Z</time>
      </trkpt>
      <trkpt lat="46.6086" lon="-1.78809">
        <ele>31</ele>
        <time>2018-01-07T19:31:50Z</time>
      </trkpt>
      <trkpt lat="46.60862" lon="-1.78839">
        <ele>31</ele>
        <time>2018-01-07T19:32:50Z</time>
      </trkpt>
      <trkpt lat="46.60865" lon="-1.78906">
        <ele>31</ele>
        <time>2018-01-07T19:33:50Z</time>
      </trkpt>
      <trkpt lat="46.60866" lon="-1.78949">
        <ele>31</ele>
        <time>2018-01-07T19:34:50Z</time>
      </trkpt>
      <trkpt lat="46.60867" lon="-1.78995">
        <ele>31</ele>
        <time>2018-01-07T19:35:50Z</time>
      </trkpt>
      <trkpt lat="46.60868" lon="-1.79036">
        <ele>31</ele>
        <time>2018-01-07T19:36:50Z</time>
      </trkpt>
      <trkpt lat="46.6087" lon="-1.79074">
        <ele>30</ele>
        <time>2018-01-07T19:37:50Z</time>
      </trkpt>
      <trkpt lat="46.60872" lon="-1.79105">
        <ele>31</ele>
        <time>2018-01-07T19:38:50Z</time>
      </trkpt>
      <trkpt lat="46.60878" lon="-1.79136">
        <ele>31</ele>
        <time>2018-01-07T19:39:50Z</time>
      </trkpt>
      <trkpt lat="46.60887" lon="-1.79165">
        <ele>32</ele>
        <time>2018-01-07T19:40:50Z</time>
      </trkpt>
      <trkpt lat="46.609" lon="-1.79201">
        <ele>33</ele>
        <time>2018-01-07T19:41:50Z</time>
      </trkpt>
      <trkpt lat="46.60913" lon="-1.79231">
        <ele>34</ele>
        <time>2018-01-07T19:42:50Z</time>
      </trkpt>
      <trkpt lat="46.60919" lon="-1.79252">
        <ele>35</ele>
        <time>2018-01-07T19:43:50Z</time>
      </trkpt>
      <trkpt lat="46.60923" lon="-1.79263">
        <ele>35</ele>
        <time>2018-01-07T19:44:50Z</time>
      </trkpt>
      <trkpt lat="46.60926" lon="-1.79275">
        <ele>36</ele>
        <time>2018-01-07T19:45:50Z</time>
      </trkpt>
      <trkpt lat="46.60927" lon="-1.79286">
        <ele>36</ele>
        <time>2018-01-07T19:46:50Z</time>
      </trkpt>
      <trkpt lat="46.60928" lon="-1.79298">
        <ele>36</ele>
        <time>2018-01-07T19:47:50Z</time>
      </trkpt>
      <trkpt lat="46.60928" lon="-1.79325">
        <ele>36</ele>
        <time>2018-01-07T19:48:50Z</time>
      </trkpt>
      <trkpt lat="46.60927" lon="-1.79338">
        <ele>36</ele>
        <time>2018-01-07T19:49:50Z</time>
      </trkpt>
      <trkpt lat="46.60926" lon="-1.79349">
        <ele>37</ele>
        <time>2018-01-07T19:50:50Z</time>
      </trkpt>
      <trkpt lat="46.60921" lon="-1.79372">
        <ele>37</ele>
        <time>2018-01-07T19:51:50Z</time>
      </trkpt>
      <trkpt lat="46.60914" lon="-1.79402">
        <ele>37</ele>
        <time>2018-01-07T19:52:50Z</time>
      </trkpt>
      <trkpt lat="46.60903" lon="-1.79439">
        <ele>38</ele>
        <time>2018-01-07T19:53:50Z</time>
      </trkpt>
      <trkpt lat="46.60877" lon="-1.79517">
        <ele>37</ele>
        <time>2018-01-07T19:54:50Z</time>
      </trkpt>
      <trkpt lat="46.60864" lon="-1.79562">
        <ele>36</ele>
        <time>2018-01-07T19:55:50Z</time>
      </trkpt>
      <trkpt lat="46.60847" lon="-1.79615">
        <ele>35</ele>
        <time>2018-01-07T19:56:50Z</time>
      </trkpt>
      <trkpt lat="46.60836" lon="-1.79652">
        <ele>34</ele>
        <time>2018-01-07T19:57:50Z</time>
      </trkpt>
      <trkpt lat="46.60821" lon="-1.79702">
        <ele>33</ele>
        <time>2018-01-07T19:58:50Z</time>
      </trkpt>
      <trkpt lat="46.60805" lon="-1.79753">
        <ele>33</ele>
        <time>2018-01-07T19:59:50Z</time>
      </trkpt>
      <trkpt lat="46.60789" lon="-1.79804">
        <ele>33</ele>
        <time>2018-01-07T20:00:50Z</time>
      </trkpt>
      <trkpt lat="46.60783" lon="-1.79824">
        <ele>33</ele>
        <time>2018-01-07T20:01:50Z</time>
      </trkpt>
      <trkpt lat="46.60776" lon="-1.79852">
        <ele>33</ele>
        <time>2018-01-07T20:02:50Z</time>
      </trkpt>
      <trkpt lat="46.60762" lon="-1.79929">
        <ele>33</ele>
        <time>2018-01-07T20:03:50Z</time>
      </trkpt>
      <trkpt lat="46.60756" lon="-1.79975">
        <ele>35</ele>
        <time>2018-01-07T20:04:50Z</time>
      </trkpt>
      <trkpt lat="46.60749" lon="-1.80016">
        <ele>37</ele>
        <time>2018-01-07T20:05:50Z</time>
      </trkpt>
      <trkpt lat="46.60739" lon="-1.80077">
        <ele>38</ele>
        <time>2018-01-07T20:06:50Z</time>
      </trkpt>
      <trkpt lat="46.60731" lon="-1.8012">
        <ele>38</ele>
        <time>2018-01-07T20:07:50Z</time>
      </trkpt>
      <trkpt lat="46.60719" lon="-1.80168">
        <ele>38</ele>
        <time>2018-01-07T20:08:50Z</time>
      </trkpt>
      <trkpt lat="46.60709" lon="-1.80213">
        <ele>37</ele>
        <time>2018-01-07T20:09:50Z</time>
      </trkpt>
      <trkpt lat="46.60692" lon="-1.80277">
        <ele>36</ele>
        <time>2018-01-07T20:10:50Z</time>
      </trkpt>
      <trkpt lat="46.60686" lon="-1.80297">
        <ele>36</ele>
        <time>2018-01-07T20:11:50Z</time>
      </trkpt>
      <trkpt lat="46.60681" lon="-1.80311">
        <ele>36</ele>
        <time>2018-01-07T20:12:50Z</time>
      </trkpt>
      <trkpt lat="46.60644" lon="-1.80407">
        <ele>38</ele>
        <time>2018-01-07T20:13:50Z</time>
      </trkpt>
      <trkpt lat="46.60634" lon="-1.80432">
        <ele>39</ele>
        <time>2018-01-07T20:14:50Z</time>
      </trkpt>
      <trkpt lat="46.60616" lon="-1.80475">
        <ele>40</ele>
        <time>2018-01-07T20:15:50Z</time>
      </trkpt>
      <trkpt lat="46.60604" lon="-1.80507">
        <ele>41</ele>
        <time>2018-01-07T20:16:50Z</time>
      </trkpt>
      <trkpt lat="46.60588" lon="-1.80551">
        <ele>40</ele>
        <time>2018-01-07T20:17:50Z</time>
      </trkpt>
      <trkpt lat="46.60583" lon="-1.80574">
        <ele>40</ele>
        <time>2018-01-07T20:18:50Z</time>
      </trkpt>
      <trkpt lat="46.60578" lon="-1.80601">
        <ele>40</ele>
        <time>2018-01-07T20:19:50Z</time>
      </trkpt>
      <trkpt lat="46.60576" lon="-1.80633">
        <ele>39</ele>
        <time>2018-01-07T20:20:50Z</time>
      </trkpt>
      <trkpt lat="46.60575" lon="-1.80658">
        <ele>39</ele>
        <time>2018-01-07T20:21:50Z</time>
      </trkpt>
      <trkpt lat="46.60574" lon="-1.80692">
        <ele>38</ele>
        <time>2018-01-07T20:22:50Z</time>
      </trkpt>
      <trkpt lat="46.60572" lon="-1.80749">
        <ele>36</ele>
        <time>2018-01-07T20:23:50Z</time>
      </trkpt>
      <trkpt lat="46.60571" lon="-1.80784">
        <ele>36</ele>
        <time>2018-01-07T20:24:50Z</time>
      </trkpt>
      <trkpt lat="46.6057" lon="-1.80827">
        <ele>35</ele>
        <time>2018-01-07T20:25:50Z</time>
      </trkpt>
      <trkpt lat="46.60567" lon="-1.80852">
        <ele>35</ele>
        <time>2018-01-07T20:26:50Z</time>
      </trkpt>
      <trkpt lat="46.60563" lon="-1.80881">
        <ele>34</ele>
        <time>2018-01-07T20:27:50Z</time>
      </trkpt>
      <trkpt lat="46.60556" lon="-1.80921">
        <ele>34</ele>
        <time>2018-01-07T20:28:50Z</time>
      </trkpt>
      <trkpt lat="46.60549" lon="-1.80961">
        <ele>34</ele>
        <time>2018-01-07T20:29:50Z</time>
      </trkpt>
      <trkpt lat="46.60543" lon="-1.80996">
        <ele>34</ele>
        <time>2018-01-07T20:30:50Z</time>
      </trkpt>
      <trkpt lat="46.60539" lon="-1.81018">
        <ele>34</ele>
        <time>2018-01-07T20:31:50Z</time>
      </trkpt>
      <trkpt lat="46.60538" lon="-1.81041">
        <ele>34</ele>
        <time>2018-01-07T20:32:50Z</time>
      </trkpt>
      <trkpt lat="46.60538" lon="-1.81064">
        <ele>34</ele>
        <time>2018-01-07T20:33:50Z</time>
      </trkpt>
      <trkpt lat="46.6054" lon="-1.81082">
        <ele>34</ele>
        <time>2018-01-07T20:34:50Z</time>
      </trkpt>
      <trkpt lat="46.6055" lon="-1.81148">
        <ele>33</ele>
        <time>2018-01-07T20:35:50Z</time>
      </trkpt>
      <trkpt lat="46.60569" lon="-1.81252">
        <ele>31</ele>
        <time>2018-01-07T20:36:50Z</time>
      </trkpt>
      <trkpt lat="46.60613" lon="-1.8151">
        <ele>31</ele>
        <time>2018-01-07T20:37:50Z</time>
      </trkpt>
      <trkpt lat="46.60621" lon="-1.81558">
        <ele>30</ele>
        <time>2018-01-07T20:38:50Z</time>
      </trkpt>
      <trkpt lat="46.60626" lon="-1.81592">
        <ele>29</ele>
        <time>2018-01-07T20:39:50Z</time>
      </trkpt>
      <trkpt lat="46.60629" lon="-1.81622">
        <ele>29</ele>
        <time>2018-01-07T20:40:50Z</time>
      </trkpt>
      <trkpt lat="46.60631" lon="-1.8166">
        <ele>29</ele>
        <time>2018-01-07T20:41:50Z</time>
      </trkpt>
      <trkpt lat="46.60632" lon="-1.81687">
        <ele>28</ele>
        <time>2018-01-07T20:42:50Z</time>
      </trkpt>
      <trkpt lat="46.60634" lon="-1.81718">
        <ele>27</ele>
        <time>2018-01-07T20:43:50Z</time>
      </trkpt>
      <trkpt lat="46.60637" lon="-1.81746">
        <ele>26</ele>
        <time>2018-01-07T20:44:50Z</time>
      </trkpt>
      <trkpt lat="46.60644" lon="-1.81775">
        <ele>26</ele>
        <time>2018-01-07T20:45:50Z</time>
      </trkpt>
      <trkpt lat="46.60653" lon="-1.81802">
        <ele>25</ele>
        <time>2018-01-07T20:46:50Z</time>
      </trkpt>
      <trkpt lat="46.6066" lon="-1.8182">
        <ele>25</ele>
        <time>2018-01-07T20:47:50Z</time>
      </trkpt>
      <trkpt lat="46.60666" lon="-1.81836">
        <ele>25</ele>
        <time>2018-01-07T20:48:50Z</time>
      </trkpt>
      <trkpt lat="46.60673" lon="-1.81858">
        <ele>25</ele>
        <time>2018-01-07T20:49:50Z</time>
      </trkpt>
      <trkpt lat="46.60678" lon="-1.81876">
        <ele>24</ele>
        <time>2018-01-07T20:50:50Z</time>
      </trkpt>
      <trkpt lat="46.60681" lon="-1.81896">
        <ele>24</ele>
        <time>2018-01-07T20:51:50Z</time>
      </trkpt>
      <trkpt lat="46.60682" lon="-1.81919">
        <ele>24</ele>
        <time>2018-01-07T20:52:50Z</time>
      </trkpt>
      <trkpt lat="46.60682" lon="-1.81944">
        <ele>24</ele>
        <time>2018-01-07T20:53:50Z</time>
      </trkpt>
      <trkpt lat="46.60678" lon="-1.8198">
        <ele>24</ele>
        <time>2018-01-07T20:54:50Z</time>
      </trkpt>
      <trkpt lat="46.60674" lon="-1.82007">
        <ele>24</ele>
        <time>2018-01-07T20:55:50Z</time>
      </trkpt>
      <trkpt lat="46.60668" lon="-1.8205">
        <ele>25</ele>
        <time>2018-01-07T20:56:50Z</time>
      </trkpt>
      <trkpt lat="46.60661" lon="-1.821">
        <ele>26</ele>
        <time>2018-01-07T20:57:50Z</time>
      </trkpt>
      <trkpt lat="46.60655" lon="-1.82142">
        <ele>26</ele>
        <time>2018-01-07T20:58:50Z</time>
      </trkpt>
      <trkpt lat="46.60648" lon="-1.82192">
        <ele>26</ele>
        <time>2018-01-07T20:59:50Z</time>
      </trkpt>
      <trkpt lat="46.60643" lon="-1.82219">
        <ele>26</ele>
        <time>2018-01-07T21:00:50Z</time>
      </trkpt>
      <trkpt lat="46.60641" lon="-1.82244">
        <ele>27</ele>
        <time>2018-01-07T21:01:50Z</time>
      </trkpt>
      <trkpt lat="46.60638" lon="-1.82269">
        <ele>27</ele>
        <time>2018-01-07T21:02:50Z</time>
      </trkpt>
      <trkpt lat="46.60635" lon="-1.82309">
        <ele>27</ele>
        <time>2018-01-07T21:03:50Z</time>
      </trkpt>
      <trkpt lat="46.60632" lon="-1.82355">
        <ele>28</ele>
        <time>2018-01-07T21:04:50Z</time>
      </trkpt>
      <trkpt lat="46.60629" lon="-1.82392">
        <ele>29</ele>
        <time>2018-01-07T21:05:50Z</time>
      </trkpt>
      <trkpt lat="46.60626" lon="-1.8244">
        <ele>29</ele>
        <time>2018-01-07T21:06:50Z</time>
      </trkpt>
      <trkpt lat="46.60623" lon="-1.82486">
        <ele>30</ele>
        <time>2018-01-07T21:07:50Z</time>
      </trkpt>
      <trkpt lat="46.60621" lon="-1.82532">
        <ele>30</ele>
        <time>2018-01-07T21:08:50Z</time>
      </trkpt>
      <trkpt lat="46.60618" lon="-1.82574">
        <ele>30</ele>
        <time>2018-01-07T21:09:50Z</time>
      </trkpt>
      <trkpt lat="46.60615" lon="-1.82634">
        <ele>29</ele>
        <time>2018-01-07T21:10:50Z</time>
      </trkpt>
      <trkpt lat="46.60613" lon="-1.82683">
        <ele>29</ele>
        <time>2018-01-07T21:11:50Z</time>
      </trkpt>
      <trkpt lat="46.60611" lon="-1.82713">
        <ele>28</ele>
        <time>2018-01-07T21:12:50Z</time>
      </trkpt>
      <trkpt lat="46.6061" lon="-1.82742">
        <ele>28</ele>
        <time>2018-01-07T21:13:50Z</time>
      </trkpt>
      <trkpt lat="46.60608" lon="-1.82768">
        <ele>28</ele>
        <time>2018-01-07T21:14:50Z</time>
      </trkpt>
      <trkpt lat="46.60606" lon="-1.82792">
        <ele>28</ele>
        <time>2018-01-07T21:15:50Z</time>
      </trkpt>
      <trkpt lat="46.60599" lon="-1.82819">
        <ele>28</ele>
        <time>2018-01-07T21:16:50Z</time>
      </trkpt>
      <trkpt lat="46.60589" lon="-1.82849">
        <ele>28</ele>
        <time>2018-01-07T21:17:50Z</time>
      </trkpt>
      <trkpt lat="46.60585" lon="-1.82863">
        <ele>28</ele>
        <time>2018-01-07T21:18:50Z</time>
      </trkpt>
      <trkpt lat="46.60581" lon="-1.82871">
        <ele>28</ele>
        <time>2018-01-07T21:19:50Z</time>
      </trkpt>
      <trkpt lat="46.60581" lon="-1.82871">
        <ele>28</ele>
        <time>2018-01-07T21:20:50Z</time>
      </trkpt>
      <trkpt lat="46.60591" lon="-1.82919">
        <ele>29</ele>
        <time>2018-01-07T21:21:50Z</time>
      </trkpt>
      <trkpt lat="46.606" lon="-1.82957">
        <ele>29</ele>
        <time>2018-01-07T21:22:50Z</time>
      </trkpt>
      <trkpt lat="46.60605" lon="-1.82982">
        <ele>29</ele>
        <time>2018-01-07T21:23:50Z</time>
      </trkpt>
      <trkpt lat="46.60612" lon="-1.83001">
        <ele>29</ele>
        <time>2018-01-07T21:24:50Z</time>
      </trkpt>
      <trkpt lat="46.60612" lon="-1.83001">
        <ele>29</ele>
        <time>2018-01-07T21:25:50Z</time>
      </trkpt>
      <trkpt lat="46.60616" lon="-1.83011">
        <ele>29</ele>
        <time>2018-01-07T21:26:50Z</time>
      </trkpt>
      <trkpt lat="46.60619" lon="-1.83016">
        <ele>29</ele>
        <time>2018-01-07T21:27:50Z</time>
      </trkpt>
      <trkpt lat="46.60625" lon="-1.83029">
        <ele>28</ele>
        <time>2018-01-07T21:28:50Z</time>
      </trkpt>
      <trkpt lat="46.60634" lon="-1.83045">
        <ele>28</ele>
        <time>2018-01-07T21:29:50Z</time>
      </trkpt>
      <trkpt lat="46.6064" lon="-1.83055">
        <ele>28</ele>
        <time>2018-01-07T21:30:50Z</time>
      </trkpt>
      <trkpt lat="46.60644" lon="-1.83062">
        <ele>29</ele>
        <time>2018-01-07T21:31:50Z</time>
      </trkpt>
      <trkpt lat="46.60653" lon="-1.8308">
        <ele>29</ele>
        <time>2018-01-07T21:32:50Z</time>
      </trkpt>
      <trkpt lat="46.60664" lon="-1.83104">
        <ele>28</ele>
        <time>2018-01-07T21:33:50Z</time>
      </trkpt>
      <trkpt lat="46.60667" lon="-1.83112">
        <ele>28</ele>
        <time>2018-01-07T21:34:50Z</time>
      </trkpt>
      <trkpt lat="46.60675" lon="-1.8313">
        <ele>28</ele>
        <time>2018-01-07T21:35:50Z</time>
      </trkpt>
      <trkpt lat="46.60682" lon="-1.83148">
        <ele>28</ele>
        <time>2018-01-07T21:36:50Z</time>
      </trkpt>
      <trkpt lat="46.60685" lon="-1.8316">
        <ele>28</ele>
        <time>2018-01-07T21:37:50Z</time>
      </trkpt>
      <trkpt lat="46.60686" lon="-1.83165">
        <ele>27</ele>
        <time>2018-01-07T21:38:50Z</time>
      </trkpt>
      <trkpt lat="46.60687" lon="-1.83173">
        <ele>27</ele>
        <time>2018-01-07T21:39:50Z</time>
      </trkpt>
      <trkpt lat="46.60687" lon="-1.83178">
        <ele>27</ele>
        <time>2018-01-07T21:40:50Z</time>
      </trkpt>
      <trkpt lat="46.60687" lon="-1.83188">
        <ele>27</ele>
        <time>2018-01-07T21:41:50Z</time>
      </trkpt>
      <trkpt lat="46.60686" lon="-1.83203">
        <ele>27</ele>
        <time>2018-01-07T21:42:50Z</time>
      </trkpt>
      <trkpt lat="46.60685" lon="-1.83216">
        <ele>27</ele>
        <time>2018-01-07T21:43:50Z</time>
      </trkpt>
      <trkpt lat="46.60683" lon="-1.83229">
        <ele>27</ele>
        <time>2018-01-07T21:44:50Z</time>
      </trkpt>
      <trkpt lat="46.60683" lon="-1.8323">
        <ele>27</ele>
        <time>2018-01-07T21:45:50Z</time>
      </trkpt>
      <trkpt lat="46.60683" lon="-1.8323">
        <ele>27</ele>
        <time>2018-01-07T21:46:50Z</time>
      </trkpt>
      <trkpt lat="46.60682" lon="-1.83241">
        <ele>26</ele>
        <time>2018-01-07T21:47:50Z</time>
      </trkpt>
      <trkpt lat="46.60682" lon="-1.83254">
        <ele>26</ele>
        <time>2018-01-07T21:48:50Z</time>
      </trkpt>
      <trkpt lat="46.60682" lon="-1.83268">
        <ele>26</ele>
        <time>2018-01-07T21:49:50Z</time>
      </trkpt>
      <trkpt lat="46.60685" lon="-1.83285">
        <ele>26</ele>
        <time>2018-01-07T21:50:50Z</time>
      </trkpt>
      <trkpt lat="46.60688" lon="-1.83297">
        <ele>26</ele>
        <time>2018-01-07T21:51:50Z</time>
      </trkpt>
      <trkpt lat="46.60691" lon="-1.83307">
        <ele>26</ele>
        <time>2018-01-07T21:52:50Z</time>
      </trkpt>
      <trkpt lat="46.60691" lon="-1.83307">
        <ele>26</ele>
        <time>2018-01-07T21:53:50Z</time>
      </trkpt>
      <trkpt lat="46.60689" lon="-1.83314">
        <ele>26</ele>
        <time>2018-01-07T21:54:50Z</time>
      </trkpt>
      <trkpt lat="46.60687" lon="-1.83318">
        <ele>26</ele>
        <time>2018-01-07T21:55:50Z</time>
      </trkpt>
      <trkpt lat="46.60684" lon="-1.83324">
        <ele>26</ele>
        <time>2018-01-07T21:56:50Z</time>
      </trkpt>
      <trkpt lat="46.60682" lon="-1.83328">
        <ele>25</ele>
        <time>2018-01-07T21:57:50Z</time>
      </trkpt>
      <trkpt lat="46.60679" lon="-1.8333">
        <ele>25</ele>
        <time>2018-01-07T21:58:50Z</time>
      </trkpt>
      <trkpt lat="46.60664" lon="-1.83345">
        <ele>25</ele>
        <time>2018-01-07T21:59:50Z</time>
      </trkpt>
      <trkpt lat="46.60655" lon="-1.83356">
        <ele>24</ele>
        <time>2018-01-07T22:00:50Z</time>
      </trkpt>
      <trkpt lat="46.60649" lon="-1.83366">
        <ele>24</ele>
        <time>2018-01-07T22:01:50Z</time>
      </trkpt>
      <trkpt lat="46.60647" lon="-1.83373">
        <ele>23</ele>
        <time>2018-01-07T22:02:50Z</time>
      </trkpt>
      <trkpt lat="46.60642" lon="-1.83389">
        <ele>23</ele>
        <time>2018-01-07T22:03:50Z</time>
      </trkpt>
      <trkpt lat="46.60635" lon="-1.83416">
        <ele>22</ele>
        <time>2018-01-07T22:04:50Z</time>
      </trkpt>
      <trkpt lat="46.60628" lon="-1.83442">
        <ele>21</ele>
        <time>2018-01-07T22:05:50Z</time>
      </trkpt>
      <trkpt lat="46.60624" lon="-1.83458">
        <ele>21</ele>
        <time>2018-01-07T22:06:50Z</time>
      </trkpt>
      <trkpt lat="46.60621" lon="-1.83474">
        <ele>21</ele>
        <time>2018-01-07T22:07:50Z</time>
      </trkpt>
      <trkpt lat="46.6062" lon="-1.83483">
        <ele>21</ele>
        <time>2018-01-07T22:08:50Z</time>
      </trkpt>
      <trkpt lat="46.60618" lon="-1.83492">
        <ele>21</ele>
        <time>2018-01-07T22:09:50Z</time>
      </trkpt>
      <trkpt lat="46.60617" lon="-1.83495">
        <ele>21</ele>
        <time>2018-01-07T22:10:50Z</time>
      </trkpt>
      <trkpt lat="46.60616" lon="-1.83498">
        <ele>21</ele>
        <time>2018-01-07T22:11:50Z</time>
      </trkpt>
      <trkpt lat="46.60608" lon="-1.8352">
        <ele>20</ele>
        <time>2018-01-07T22:12:50Z</time>
      </trkpt>
      <trkpt lat="46.60608" lon="-1.8352">
        <ele>20</ele>
        <time>2018-01-07T22:13:50Z</time>
      </trkpt>
      <trkpt lat="46.60608" lon="-1.83521">
        <ele>20</ele>
        <time>2018-01-07T22:14:50Z</time>
      </trkpt>
      <trkpt lat="46.60609" lon="-1.83521">
        <ele>20</ele>
        <time>2018-01-07T22:15:50Z</time>
      </trkpt>
      <trkpt lat="46.6061" lon="-1.83522">
        <ele>20</ele>
        <time>2018-01-07T22:16:50Z</time>
      </trkpt>
      <trkpt lat="46.60611" lon="-1.83523">
        <ele>20</ele>
        <time>2018-01-07T22:17:50Z</time>
      </trkpt>
      <trkpt lat="46.60611" lon="-1.83524">
        <ele>20</ele>
        <time>2018-01-07T22:18:50Z</time>
      </trkpt>
      <trkpt lat="46.60612" lon="-1.83524">
        <ele>20</ele>
        <time>2018-01-07T22:19:50Z</time>
      </trkpt>
      <trkpt lat="46.60612" lon="-1.83525">
        <ele>20</ele>
        <time>2018-01-07T22:20:50Z</time>
      </trkpt>
      <trkpt lat="46.60613" lon="-1.83526">
        <ele>20</ele>
        <time>2018-01-07T22:21:50Z</time>
      </trkpt>
      <trkpt lat="46.60613" lon="-1.83527">
        <ele>20</ele>
        <time>2018-01-07T22:22:50Z</time>
      </trkpt>
      <trkpt lat="46.60613" lon="-1.83528">
        <ele>20</ele>
        <time>2018-01-07T22:23:50Z</time>
      </trkpt>
      <trkpt lat="46.60614" lon="-1.83529">
        <ele>20</ele>
        <time>2018-01-07T22:24:50Z</time>
      </trkpt>
      <trkpt lat="46.60614" lon="-1.8353">
        <ele>20</ele>
        <time>2018-01-07T22:25:50Z</time>
      </trkpt>
      <trkpt lat="46.60614" lon="-1.83531">
        <ele>20</ele>
        <time>2018-01-07T22:26:50Z</time>
      </trkpt>
      <trkpt lat="46.60614" lon="-1.83532">
        <ele>20</ele>
        <time>2018-01-07T22:27:50Z</time>
      </trkpt>
      <trkpt lat="46.60615" lon="-1.83533">
        <ele>20</ele>
        <time>2018-01-07T22:28:50Z</time>
      </trkpt>
      <trkpt lat="46.60615" lon="-1.83534">
        <ele>20</ele>
        <time>2018-01-07T22:29:50Z</time>
      </trkpt>
      <trkpt lat="46.60615" lon="-1.83535">
        <ele>20</ele>
        <time>2018-01-07T22:30:50Z</time>
      </trkpt>
      <trkpt lat="46.60615" lon="-1.83536">
        <ele>20</ele>
        <time>2018-01-07T22:31:50Z</time>
      </trkpt>
      <trkpt lat="46.60614" lon="-1.83537">
        <ele>20</ele>
        <time>2018-01-07T22:32:50Z</time>
      </trkpt>
      <trkpt lat="46.60614" lon="-1.83538">
        <ele>20</ele>
        <time>2018-01-07T22:33:50Z</time>
      </trkpt>
      <trkpt lat="46.60614" lon="-1.83539">
        <ele>20</ele>
        <time>2018-01-07T22:34:50Z</time>
      </trkpt>
      <trkpt lat="46.60614" lon="-1.8354">
        <ele>20</ele>
        <time>2018-01-07T22:35:50Z</time>
      </trkpt>
      <trkpt lat="46.60613" lon="-1.83541">
        <ele>20</ele>
        <time>2018-01-07T22:36:50Z</time>
      </trkpt>
      <trkpt lat="46.60613" lon="-1.83542">
        <ele>20</ele>
        <time>2018-01-07T22:37:50Z</time>
      </trkpt>
      <trkpt lat="46.60612" lon="-1.83543">
        <ele>19</ele>
        <time>2018-01-07T22:38:50Z</time>
      </trkpt>
      <trkpt lat="46.60612" lon="-1.83544">
        <ele>19</ele>
        <time>2018-01-07T22:39:50Z</time>
      </trkpt>
      <trkpt lat="46.60611" lon="-1.83545">
        <ele>19</ele>
        <time>2018-01-07T22:40:50Z</time>
      </trkpt>
      <trkpt lat="46.60611" lon="-1.83546">
        <ele>19</ele>
        <time>2018-01-07T22:41:50Z</time>
      </trkpt>
      <trkpt lat="46.6061" lon="-1.83546">
        <ele>19</ele>
        <time>2018-01-07T22:42:50Z</time>
      </trkpt>
      <trkpt lat="46.6061" lon="-1.83547">
        <ele>19</ele>
        <time>2018-01-07T22:43:50Z</time>
      </trkpt>
      <trkpt lat="46.60609" lon="-1.83547">
        <ele>19</ele>
        <time>2018-01-07T22:44:50Z</time>
      </trkpt>
      <trkpt lat="46.60609" lon="-1.83548">
        <ele>19</ele>
        <time>2018-01-07T22:45:50Z</time>
      </trkpt>
      <trkpt lat="46.60608" lon="-1.83548">
        <ele>19</ele>
        <time>2018-01-07T22:46:50Z</time>
      </trkpt>
      <trkpt lat="46.60609" lon="-1.83567">
        <ele>19</ele>
        <time>2018-01-07T22:47:50Z</time>
      </trkpt>
      <trkpt lat="46.60609" lon="-1.83583">
        <ele>18</ele>
        <time>2018-01-07T22:48:50Z</time>
      </trkpt>
      <trkpt lat="46.6061" lon="-1.83585">
        <ele>18</ele>
        <time>2018-01-07T22:49:50Z</time>
      </trkpt>
      <trkpt lat="46.60612" lon="-1.83592">
        <ele>18</ele>
        <time>2018-01-07T22:50:50Z</time>
      </trkpt>
      <trkpt lat="46.60617" lon="-1.8361">
        <ele>18</ele>
        <time>2018-01-07T22:51:50Z</time>
      </trkpt>
      <trkpt lat="46.60624" lon="-1.83638">
        <ele>18</ele>
        <time>2018-01-07T22:52:50Z</time>
      </trkpt>
      <trkpt lat="46.60631" lon="-1.83667">
        <ele>18</ele>
        <time>2018-01-07T22:53:50Z</time>
      </trkpt>
      <trkpt lat="46.6064" lon="-1.83701">
        <ele>17</ele>
        <time>2018-01-07T22:54:50Z</time>
      </trkpt>
      <trkpt lat="46.60646" lon="-1.83728">
        <ele>17</ele>
        <time>2018-01-07T22:55:50Z</time>
      </trkpt>
      <trkpt lat="46.60651" lon="-1.83748">
        <ele>17</ele>
        <time>2018-01-07T22:56:50Z</time>
      </trkpt>
      <trkpt lat="46.60655" lon="-1.83766">
        <ele>17</ele>
        <time>2018-01-07T22:57:50Z</time>
      </trkpt>
      <trkpt lat="46.60664" lon="-1.83802">
        <ele>18</ele>
        <time>2018-01-07T22:58:50Z</time>
      </trkpt>
      <trkpt lat="46.60669" lon="-1.83823">
        <ele>18</ele>
        <time>2018-01-07T22:59:50Z</time>
      </trkpt>
      <trkpt lat="46.60674" lon="-1.83841">
        <ele>18</ele>
        <time>2018-01-07T23:00:50Z</time>
      </trkpt>
      <trkpt lat="46.60681" lon="-1.83865">
        <ele>18</ele>
        <time>2018-01-07T23:01:50Z</time>
      </trkpt>
      <trkpt lat="46.60685" lon="-1.83884">
        <ele>18</ele>
        <time>2018-01-07T23:02:50Z</time>
      </trkpt>
      <trkpt lat="46.60689" lon="-1.83892">
        <ele>18</ele>
        <time>2018-01-07T23:03:50Z</time>
      </trkpt>
      <trkpt lat="46.60702" lon="-1.83943">
        <ele>15</ele>
        <time>2018-01-07T23:04:50Z</time>
      </trkpt>
      <trkpt lat="46.60704" lon="-1.83954">
        <ele>14</ele>
        <time>2018-01-07T23:05:50Z</time>
      </trkpt>
      <trkpt lat="46.60706" lon="-1.83962">
        <ele>13</ele>
        <time>2018-01-07T23:06:50Z</time>
      </trkpt>
      <trkpt lat="46.60715" lon="-1.83995">
        <ele>10</ele>
        <time>2018-01-07T23:07:50Z</time>
      </trkpt>
      <trkpt lat="46.60723" lon="-1.84027">
        <ele>8</ele>
        <time>2018-01-07T23:08:50Z</time>
      </trkpt>
      <trkpt lat="46.60743" lon="-1.84103">
        <ele>4</ele>
        <time>2018-01-07T23:09:50Z</time>
      </trkpt>
      <trkpt lat="46.60743" lon="-1.84111">
        <ele>4</ele>
        <time>2018-01-07T23:10:50Z</time>
      </trkpt>
      <trkpt lat="46.60786" lon="-1.84277">
        <ele>7</ele>
        <time>2018-01-07T23:11:50Z</time>
      </trkpt>
      <trkpt lat="46.60813" lon="-1.84385">
        <ele>9</ele>
        <time>2018-01-07T23:12:50Z</time>
      </trkpt>
      <trkpt lat="46.60822" lon="-1.84407">
        <ele>10</ele>
        <time>2018-01-07T23:13:50Z</time>
      </trkpt>
      <trkpt lat="46.60833" lon="-1.84432">
        <ele>10</ele>
        <time>2018-01-07T23:14:50Z</time>
      </trkpt>
      <trkpt lat="46.6084" lon="-1.84446">
        <ele>11</ele>
        <time>2018-01-07T23:15:50Z</time>
      </trkpt>
      <trkpt lat="46.60848" lon="-1.84462">
        <ele>11</ele>
        <time>2018-01-07T23:16:50Z</time>
      </trkpt>
      <trkpt lat="46.60858" lon="-1.84477">
        <ele>12</ele>
        <time>2018-01-07T23:17:50Z</time>
      </trkpt>
      <trkpt lat="46.60866" lon="-1.84491">
        <ele>12</ele>
        <time>2018-01-07T23:18:50Z</time>
      </trkpt>
      <trkpt lat="46.60885" lon="-1.84517">
        <ele>13</ele>
        <time>2018-01-07T23:19:50Z</time>
      </trkpt>
      <trkpt lat="46.60902" lon="-1.84537">
        <ele>14</ele>
        <time>2018-01-07T23:20:50Z</time>
      </trkpt>
      <trkpt lat="46.60913" lon="-1.84549">
        <ele>15</ele>
        <time>2018-01-07T23:21:50Z</time>
      </trkpt>
      <trkpt lat="46.60924" lon="-1.84559">
        <ele>15</ele>
        <time>2018-01-07T23:22:50Z</time>
      </trkpt>
      <trkpt lat="46.60929" lon="-1.84568">
        <ele>16</ele>
        <time>2018-01-07T23:23:50Z</time>
      </trkpt>
      <trkpt lat="46.60936" lon="-1.84575">
        <ele>16</ele>
        <time>2018-01-07T23:24:50Z</time>
      </trkpt>
      <trkpt lat="46.60943" lon="-1.8458">
        <ele>16</ele>
        <time>2018-01-07T23:25:50Z</time>
      </trkpt>
      <trkpt lat="46.60963" lon="-1.84597">
        <ele>18</ele>
        <time>2018-01-07T23:26:50Z</time>
      </trkpt>
      <trkpt lat="46.60984" lon="-1.84615">
        <ele>18</ele>
        <time>2018-01-07T23:27:50Z</time>
      </trkpt>
      <trkpt lat="46.60999" lon="-1.84627">
        <ele>19</ele>
        <time>2018-01-07T23:28:50Z</time>
      </trkpt>
      <trkpt lat="46.61021" lon="-1.84645">
        <ele>19</ele>
        <time>2018-01-07T23:29:50Z</time>
      </trkpt>
      <trkpt lat="46.6105" lon="-1.8467">
        <ele>19</ele>
        <time>2018-01-07T23:30:50Z</time>
      </trkpt>
      <trkpt lat="46.61062" lon="-1.84679">
        <ele>19</ele>
        <time>2018-01-07T23:31:50Z</time>
      </trkpt>
      <trkpt lat="46.61072" lon="-1.84688">
        <ele>19</ele>
        <time>2018-01-07T23:32:50Z</time>
      </trkpt>
      <trkpt lat="46.61077" lon="-1.84693">
        <ele>19</ele>
        <time>2018-01-07T23:33:50Z</time>
      </trkpt>
      <trkpt lat="46.61083" lon="-1.84699">
        <ele>19</ele>
        <time>2018-01-07T23:34:50Z</time>
      </trkpt>
      <trkpt lat="46.61089" lon="-1.84707">
        <ele>19</ele>
        <time>2018-01-07T23:35:50Z</time>
      </trkpt>
      <trkpt lat="46.611" lon="-1.84726">
        <ele>19</ele>
        <time>2018-01-07T23:36:50Z</time>
      </trkpt>
      <trkpt lat="46.61106" lon="-1.84734">
        <ele>19</ele>
        <time>2018-01-07T23:37:50Z</time>
      </trkpt>
      <trkpt lat="46.61108" lon="-1.84737">
        <ele>19</ele>
        <time>2018-01-07T23:38:50Z</time>
      </trkpt>
      <trkpt lat="46.61112" lon="-1.8474">
        <ele>19</ele>
        <time>2018-01-07T23:39:50Z</time>
      </trkpt>
      <trkpt lat="46.61119" lon="-1.84744">
        <ele>19</ele>
        <time>2018-01-07T23:40:50Z</time>
      </trkpt>
      <trkpt lat="46.61119" lon="-1.84744">
        <ele>19</ele>
        <time>2018-01-07T23:41:50Z</time>
      </trkpt>
      <trkpt lat="46.61121" lon="-1.84743">
        <ele>19</ele>
        <time>2018-01-07T23:42:50Z</time>
      </trkpt>
      <trkpt lat="46.61123" lon="-1.84742">
        <ele>19</ele>
        <time>2018-01-07T23:43:50Z</time>
      </trkpt>
      <trkpt lat="46.61125" lon="-1.84742">
        <ele>19</ele>
        <time>2018-01-07T23:44:50Z</time>
      </trkpt>
      <trkpt lat="46.61127" lon="-1.84742">
        <ele>19</ele>
        <time>2018-01-07T23:45:50Z</time>
      </trkpt>
      <trkpt lat="46.61129" lon="-1.84742">
        <ele>19</ele>
        <time>2018-01-07T23:46:50Z</time>
      </trkpt>
      <trkpt lat="46.61131" lon="-1.84743">
        <ele>19</ele>
        <time>2018-01-07T23:47:50Z</time>
      </trkpt>
      <trkpt lat="46.61133" lon="-1.84744">
        <ele>19</ele>
        <time>2018-01-07T23:48:50Z</time>
      </trkpt>
      <trkpt lat="46.61135" lon="-1.84745">
        <ele>19</ele>
        <time>2018-01-07T23:49:50Z</time>
      </trkpt>
      <trkpt lat="46.61137" lon="-1.84747">
        <ele>19</ele>
        <time>2018-01-07T23:50:50Z</time>
      </trkpt>
      <trkpt lat="46.61139" lon="-1.84748">
        <ele>19</ele>
        <time>2018-01-07T23:51:50Z</time>
      </trkpt>
      <trkpt lat="46.6114" lon="-1.8475">
        <ele>19</ele>
        <time>2018-01-07T23:52:50Z</time>
      </trkpt>
      <trkpt lat="46.61142" lon="-1.84752">
        <ele>19</ele>
        <time>2018-01-07T23:53:50Z</time>
      </trkpt>
      <trkpt lat="46.61143" lon="-1.84755">
        <ele>19</ele>
        <time>2018-01-07T23:54:50Z</time>
      </trkpt>
      <trkpt lat="46.61144" lon="-1.84757">
        <ele>19</ele>
        <time>2018-01-07T23:55:50Z</time>
      </trkpt>
      <trkpt lat="46.61145" lon="-1.8476">
        <ele>19</ele>
        <time>2018-01-07T23:56:50Z</time>
      </trkpt>
      <trkpt lat="46.61146" lon="-1.84763">
        <ele>19</ele>
        <time>2018-01-07T23:57:50Z</time>
      </trkpt>
      <trkpt lat="46.61147" lon="-1.84766">
        <ele>19</ele>
        <time>2018-01-07T23:58:50Z</time>
      </trkpt>
      <trkpt lat="46.61147" lon="-1.84768">
        <ele>19</ele>
        <time>2018-01-07T23:59:50Z</time>
      </trkpt>
      <trkpt lat="46.61148" lon="-1.84771">
        <ele>19</ele>
        <time>2018-01-08T00:00:50Z</time>
      </trkpt>
      <trkpt lat="46.61148" lon="-1.84774">
        <ele>19</ele>
        <time>2018-01-08T00:01:50Z</time>
      </trkpt>
      <trkpt lat="46.61148" lon="-1.84777">
        <ele>19</ele>
        <time>2018-01-08T00:02:50Z</time>
      </trkpt>
      <trkpt lat="46.61147" lon="-1.8478">
        <ele>19</ele>
        <time>2018-01-08T00:03:50Z</time>
      </trkpt>
      <trkpt lat="46.61147" lon="-1.84783">
        <ele>19</ele>
        <time>2018-01-08T00:04:50Z</time>
      </trkpt>
      <trkpt lat="46.61146" lon="-1.84785">
        <ele>19</ele>
        <time>2018-01-08T00:05:50Z</time>
      </trkpt>
      <trkpt lat="46.61145" lon="-1.84788">
        <ele>19</ele>
        <time>2018-01-08T00:06:50Z</time>
      </trkpt>
      <trkpt lat="46.61144" lon="-1.8479">
        <ele>20</ele>
        <time>2018-01-08T00:07:50Z</time>
      </trkpt>
      <trkpt lat="46.61143" lon="-1.84792">
        <ele>20</ele>
        <time>2018-01-08T00:08:50Z</time>
      </trkpt>
      <trkpt lat="46.61142" lon="-1.84794">
        <ele>20</ele>
        <time>2018-01-08T00:09:50Z</time>
      </trkpt>
      <trkpt lat="46.61141" lon="-1.84796">
        <ele>20</ele>
        <time>2018-01-08T00:10:50Z</time>
      </trkpt>
      <trkpt lat="46.61139" lon="-1.84798">
        <ele>20</ele>
        <time>2018-01-08T00:11:50Z</time>
      </trkpt>
      <trkpt lat="46.61138" lon="-1.84813">
        <ele>20</ele>
        <time>2018-01-08T00:12:50Z</time>
      </trkpt>
      <trkpt lat="46.61135" lon="-1.84824">
        <ele>20</ele>
        <time>2018-01-08T00:13:50Z</time>
      </trkpt>
      <trkpt lat="46.61135" lon="-1.84824">
        <ele>20</ele>
        <time>2018-01-08T00:14:50Z</time>
      </trkpt>
      <trkpt lat="46.61134" lon="-1.84843">
        <ele>20</ele>
        <time>2018-01-08T00:15:50Z</time>
      </trkpt>
      <trkpt lat="46.61135" lon="-1.8487">
        <ele>21</ele>
        <time>2018-01-08T00:16:50Z</time>
      </trkpt>
      <trkpt lat="46.61136" lon="-1.84903">
        <ele>22</ele>
        <time>2018-01-08T00:17:50Z</time>
      </trkpt>
      <trkpt lat="46.61138" lon="-1.84922">
        <ele>22</ele>
        <time>2018-01-08T00:18:50Z</time>
      </trkpt>
      <trkpt lat="46.61139" lon="-1.84937">
        <ele>21</ele>
        <time>2018-01-08T00:19:50Z</time>
      </trkpt>
      <trkpt lat="46.61144" lon="-1.84955">
        <ele>21</ele>
        <time>2018-01-08T00:20:50Z</time>
      </trkpt>
      <trkpt lat="46.61149" lon="-1.84967">
        <ele>21</ele>
        <time>2018-01-08T00:21:50Z</time>
      </trkpt>
      <trkpt lat="46.61152" lon="-1.84973">
        <ele>20</ele>
        <time>2018-01-08T00:22:50Z</time>
      </trkpt>
      <trkpt lat="46.61167" lon="-1.84994">
        <ele>19</ele>
        <time>2018-01-08T00:23:50Z</time>
      </trkpt>
      <trkpt lat="46.61188" lon="-1.85018">
        <ele>19</ele>
        <time>2018-01-08T00:24:50Z</time>
      </trkpt>
      <trkpt lat="46.61204" lon="-1.85035">
        <ele>19</ele>
        <time>2018-01-08T00:25:50Z</time>
      </trkpt>
      <trkpt lat="46.61222" lon="-1.85059">
        <ele>18</ele>
        <time>2018-01-08T00:26:50Z</time>
      </trkpt>
      <trkpt lat="46.61236" lon="-1.85081">
        <ele>18</ele>
        <time>2018-01-08T00:27:50Z</time>
      </trkpt>
      <trkpt lat="46.61247" lon="-1.85103">
        <ele>18</ele>
        <time>2018-01-08T00:28:50Z</time>
      </trkpt>
      <trkpt lat="46.61258" lon="-1.85125">
        <ele>17</ele>
        <time>2018-01-08T00:29:50Z</time>
      </trkpt>
      <trkpt lat="46.61273" lon="-1.85149">
        <ele>17</ele>
        <time>2018-01-08T00:30:50Z</time>
      </trkpt>
      <trkpt lat="46.61294" lon="-1.85178">
        <ele>16</ele>
        <time>2018-01-08T00:31:50Z</time>
      </trkpt>
      <trkpt lat="46.61313" lon="-1.85197">
        <ele>16</ele>
        <time>2018-01-08T00:32:50Z</time>
      </trkpt>
      <trkpt lat="46.61332" lon="-1.85213">
        <ele>16</ele>
        <time>2018-01-08T00:33:50Z</time>
      </trkpt>
      <trkpt lat="46.61348" lon="-1.85235">
        <ele>16</ele>
        <time>2018-01-08T00:34:50Z</time>
      </trkpt>
      <trkpt lat="46.61353" lon="-1.85242">
        <ele>15</ele>
        <time>2018-01-08T00:35:50Z</time>
      </trkpt>
      <trkpt lat="46.61362" lon="-1.8526">
        <ele>15</ele>
        <time>2018-01-08T00:36:50Z</time>
      </trkpt>
      <trkpt lat="46.61369" lon="-1.85279">
        <ele>15</ele>
        <time>2018-01-08T00:37:50Z</time>
      </trkpt>
      <trkpt lat="46.61376" lon="-1.85305">
        <ele>15</ele>
        <time>2018-01-08T00:38:50Z</time>
      </trkpt>
      <trkpt lat="46.61384" lon="-1.8534">
        <ele>15</ele>
        <time>2018-01-08T00:39:50Z</time>
      </trkpt>
      <trkpt lat="46.61392" lon="-1.85372">
        <ele>14</ele>
        <time>2018-01-08T00:40:50Z</time>
      </trkpt>
      <trkpt lat="46.61401" lon="-1.85409">
        <ele>14</ele>
        <time>2018-01-08T00:41:50Z</time>
      </trkpt>
      <trkpt lat="46.6141" lon="-1.8544">
        <ele>13</ele>
        <time>2018-01-08T00:42:50Z</time>
      </trkpt>
      <trkpt lat="46.61418" lon="-1.85467">
        <ele>13</ele>
        <time>2018-01-08T00:43:50Z</time>
      </trkpt>
      <trkpt lat="46.61427" lon="-1.85492">
        <ele>12</ele>
        <time>2018-01-08T00:44:50Z</time>
      </trkpt>
      <trkpt lat="46.61438" lon="-1.85514">
        <ele>11</ele>
        <time>2018-01-08T00:45:50Z</time>
      </trkpt>
      <trkpt lat="46.61445" lon="-1.85531">
        <ele>11</ele>
        <time>2018-01-08T00:46:50Z</time>
      </trkpt>
      <trkpt lat="46.61453" lon="-1.85553">
        <ele>10</ele>
        <time>2018-01-08T00:47:50Z</time>
      </trkpt>
      <trkpt lat="46.61462" lon="-1.85579">
        <ele>10</ele>
        <time>2018-01-08T00:48:50Z</time>
      </trkpt>
      <trkpt lat="46.61469" lon="-1.85604">
        <ele>10</ele>
        <time>2018-01-08T00:49:50Z</time>
      </trkpt>
      <trkpt lat="46.61476" lon="-1.85631">
        <ele>10</ele>
        <time>2018-01-08T00:50:50Z</time>
      </trkpt>
      <trkpt lat="46.61483" lon="-1.85661">
        <ele>9</ele>
        <time>2018-01-08T00:51:50Z</time>
      </trkpt>
      <trkpt lat="46.61486" lon="-1.8568">
        <ele>9</ele>
        <time>2018-01-08T00:52:50Z</time>
      </trkpt>
      <trkpt lat="46.61489" lon="-1.85696">
        <ele>9</ele>
        <time>2018-01-08T00:53:50Z</time>
      </trkpt>
      <trkpt lat="46.61492" lon="-1.85716">
        <ele>9</ele>
        <time>2018-01-08T00:54:50Z</time>
      </trkpt>
      <trkpt lat="46.61494" lon="-1.85729">
        <ele>8</ele>
        <time>2018-01-08T00:55:50Z</time>
      </trkpt>
      <trkpt lat="46.61498" lon="-1.85747">
        <ele>8</ele>
        <time>2018-01-08T00:56:50Z</time>
      </trkpt>
      <trkpt lat="46.61503" lon="-1.85767">
        <ele>8</ele>
        <time>2018-01-08T00:57:50Z</time>
      </trkpt>
      <trkpt lat="46.61503" lon="-1.85767">
        <ele>8</ele>
        <time>2018-01-08T00:58:50Z</time>
      </trkpt>
      <trkpt lat="46.61506" lon="-1.85768">
        <ele>8</ele>
        <time>2018-01-08T00:59:50Z</time>
      </trkpt>
      <trkpt lat="46.61508" lon="-1.8577">
        <ele>8</ele>
        <time>2018-01-08T01:00:50Z</time>
      </trkpt>
      <trkpt lat="46.6151" lon="-1.85772">
        <ele>8</ele>
        <time>2018-01-08T01:01:50Z</time>
      </trkpt>
      <trkpt lat="46.61511" lon="-1.85774">
        <ele>8</ele>
        <time>2018-01-08T01:02:50Z</time>
      </trkpt>
      <trkpt lat="46.61512" lon="-1.85776">
        <ele>8</ele>
        <time>2018-01-08T01:03:50Z</time>
      </trkpt>
      <trkpt lat="46.61512" lon="-1.8578">
        <ele>8</ele>
        <time>2018-01-08T01:04:50Z</time>
      </trkpt>
      <trkpt lat="46.61513" lon="-1.85783">
        <ele>8</ele>
        <time>2018-01-08T01:05:50Z</time>
      </trkpt>
      <trkpt lat="46.61513" lon="-1.85785">
        <ele>7</ele>
        <time>2018-01-08T01:06:50Z</time>
      </trkpt>
      <trkpt lat="46.61513" lon="-1.85789">
        <ele>7</ele>
        <time>2018-01-08T01:07:50Z</time>
      </trkpt>
      <trkpt lat="46.61522" lon="-1.85804">
        <ele>7</ele>
        <time>2018-01-08T01:08:50Z</time>
      </trkpt>
      <trkpt lat="46.61529" lon="-1.85815">
        <ele>7</ele>
        <time>2018-01-08T01:09:50Z</time>
      </trkpt>
      <trkpt lat="46.61535" lon="-1.85823">
        <ele>7</ele>
        <time>2018-01-08T01:10:50Z</time>
      </trkpt>
      <trkpt lat="46.61539" lon="-1.8583">
        <ele>7</ele>
        <time>2018-01-08T01:11:50Z</time>
      </trkpt>
      <trkpt lat="46.61543" lon="-1.85837">
        <ele>7</ele>
        <time>2018-01-08T01:12:50Z</time>
      </trkpt>
      <trkpt lat="46.61546" lon="-1.85843">
        <ele>7</ele>
        <time>2018-01-08T01:13:50Z</time>
      </trkpt>
      <trkpt lat="46.61549" lon="-1.85849">
        <ele>7</ele>
        <time>2018-01-08T01:14:50Z</time>
      </trkpt>
      <trkpt lat="46.61552" lon="-1.85855">
        <ele>7</ele>
        <time>2018-01-08T01:15:50Z</time>
      </trkpt>
      <trkpt lat="46.61554" lon="-1.85862">
        <ele>7</ele>
        <time>2018-01-08T01:16:50Z</time>
      </trkpt>
      <trkpt lat="46.61565" lon="-1.85887">
        <ele>7</ele>
        <time>2018-01-08T01:17:50Z</time>
      </trkpt>
      <trkpt lat="46.61577" lon="-1.8591">
        <ele>7</ele>
        <time>2018-01-08T01:18:50Z</time>
      </trkpt>
      <trkpt lat="46.61588" lon="-1.85926">
        <ele>7</ele>
        <time>2018-01-08T01:19:50Z</time>
      </trkpt>
      <trkpt lat="46.61601" lon="-1.85945">
        <ele>7</ele>
        <time>2018-01-08T01:20:50Z</time>
      </trkpt>
      <trkpt lat="46.61617" lon="-1.85966">
        <ele>7</ele>
        <time>2018-01-08T01:21:50Z</time>
      </trkpt>
      <trkpt lat="46.61624" lon="-1.85975">
        <ele>7</ele>
        <time>2018-01-08T01:22:50Z</time>
      </trkpt>
      <trkpt lat="46.61642" lon="-1.86002">
        <ele>7</ele>
        <time>2018-01-08T01:23:50Z</time>
      </trkpt>
      <trkpt lat="46.61643" lon="-1.86003">
        <ele>7</ele>
        <time>2018-01-08T01:24:50Z</time>
      </trkpt>
      <trkpt lat="46.61653" lon="-1.86016">
        <ele>8</ele>
        <time>2018-01-08T01:25:50Z</time>
      </trkpt>
      <trkpt lat="46.61669" lon="-1.86038">
        <ele>8</ele>
        <time>2018-01-08T01:26:50Z</time>
      </trkpt>
      <trkpt lat="46.61672" lon="-1.86042">
        <ele>8</ele>
        <time>2018-01-08T01:27:50Z</time>
      </trkpt>
      <trkpt lat="46.6168" lon="-1.86054">
        <ele>8</ele>
        <time>2018-01-08T01:28:50Z</time>
      </trkpt>
      <trkpt lat="46.61685" lon="-1.86063">
        <ele>8</ele>
        <time>2018-01-08T01:29:50Z</time>
      </trkpt>
      <trkpt lat="46.61695" lon="-1.86079">
        <ele>8</ele>
        <time>2018-01-08T01:30:50Z</time>
      </trkpt>
      <trkpt lat="46.61707" lon="-1.86101">
        <ele>8</ele>
        <time>2018-01-08T01:31:50Z</time>
      </trkpt>
      <trkpt lat="46.61722" lon="-1.86132">
        <ele>8</ele>
        <time>2018-01-08T01:32:50Z</time>
      </trkpt>
      <trkpt lat="46.61736" lon="-1.86158">
        <ele>8</ele>
        <time>2018-01-08T01:33:50Z</time>
      </trkpt>
      <trkpt lat="46.61744" lon="-1.86173">
        <ele>8</ele>
        <time>2018-01-08T01:34:50Z</time>
      </trkpt>
      <trkpt lat="46.61752" lon="-1.86188">
        <ele>8</ele>
        <time>2018-01-08T01:35:50Z</time>
      </trkpt>
      <trkpt lat="46.61756" lon="-1.86197">
        <ele>8</ele>
        <time>2018-01-08T01:36:50Z</time>
      </trkpt>
      <trkpt lat="46.6176" lon="-1.86208">
        <ele>8</ele>
        <time>2018-01-08T01:37:50Z</time>
      </trkpt>
      <trkpt lat="46.61761" lon="-1.86215">
        <ele>8</ele>
        <time>2018-01-08T01:38:50Z</time>
      </trkpt>
      <trkpt lat="46.61763" lon="-1.86228">
        <ele>8</ele>
        <time>2018-01-08T01:39:50Z</time>
      </trkpt>
      <trkpt lat="46.61764" lon="-1.86243">
        <ele>8</ele>
        <time>2018-01-08T01:40:50Z</time>
      </trkpt>
      <trkpt lat="46.61764" lon="-1.86258">
        <ele>8</ele>
        <time>2018-01-08T01:41:50Z</time>
      </trkpt>
      <trkpt lat="46.61766" lon="-1.86296">
        <ele>8</ele>
        <time>2018-01-08T01:42:50Z</time>
      </trkpt>
      <trkpt lat="46.61766" lon="-1.86307">
        <ele>8</ele>
        <time>2018-01-08T01:43:50Z</time>
      </trkpt>
      <trkpt lat="46.61765" lon="-1.8632">
        <ele>8</ele>
        <time>2018-01-08T01:44:50Z</time>
      </trkpt>
      <trkpt lat="46.61765" lon="-1.86325">
        <ele>8</ele>
        <time>2018-01-08T01:45:50Z</time>
      </trkpt>
      <trkpt lat="46.61764" lon="-1.8633">
        <ele>8</ele>
        <time>2018-01-08T01:46:50Z</time>
      </trkpt>
      <trkpt lat="46.61763" lon="-1.86334">
        <ele>8</ele>
        <time>2018-01-08T01:47:50Z</time>
      </trkpt>
      <trkpt lat="46.6176" lon="-1.86343">
        <ele>8</ele>
        <time>2018-01-08T01:48:50Z</time>
      </trkpt>
      <trkpt lat="46.6176" lon="-1.86343">
        <ele>8</ele>
        <time>2018-01-08T01:49:50Z</time>
      </trkpt>
      <trkpt lat="46.61754" lon="-1.86353">
        <ele>8</ele>
        <time>2018-01-08T01:50:50Z</time>
      </trkpt>
      <trkpt lat="46.61747" lon="-1.86358">
        <ele>8</ele>
        <time>2018-01-08T01:51:50Z</time>
      </trkpt>
      <trkpt lat="46.61739" lon="-1.86363">
        <ele>8</ele>
        <time>2018-01-08T01:52:50Z</time>
      </trkpt>
      <trkpt lat="46.61725" lon="-1.86373">
        <ele>8</ele>
        <time>2018-01-08T01:53:50Z</time>
      </trkpt>
      <trkpt lat="46.61723" lon="-1.86374">
        <ele>8</ele>
        <time>2018-01-08T01:54:50Z</time>
      </trkpt>
      <trkpt lat="46.61703" lon="-1.86388">
        <ele>9</ele>
        <time>2018-01-08T01:55:50Z</time>
      </trkpt>
      <trkpt lat="46.61691" lon="-1.86396">
        <ele>9</ele>
        <time>2018-01-08T01:56:50Z</time>
      </trkpt>
      <trkpt lat="46.61677" lon="-1.86407">
        <ele>9</ele>
        <time>2018-01-08T01:57:50Z</time>
      </trkpt>
      <trkpt lat="46.61677" lon="-1.86407">
        <ele>9</ele>
        <time>2018-01-08T01:58:50Z</time>
      </trkpt>
      <trkpt lat="46.61664" lon="-1.86415">
        <ele>9</ele>
        <time>2018-01-08T01:59:50Z</time>
      </trkpt>
      <trkpt lat="46.61653" lon="-1.86424">
        <ele>8</ele>
        <time>2018-01-08T02:00:50Z</time>
      </trkpt>
      <trkpt lat="46.61646" lon="-1.86434">
        <ele>8</ele>
        <time>2018-01-08T02:01:50Z</time>
      </trkpt>
      <trkpt lat="46.61641" lon="-1.86444">
        <ele>8</ele>
        <time>2018-01-08T02:02:50Z</time>
      </trkpt>
      <trkpt lat="46.6164" lon="-1.86447">
        <ele>7</ele>
        <time>2018-01-08T02:03:50Z</time>
      </trkpt>
      <trkpt lat="46.61638" lon="-1.86452">
        <ele>7</ele>
        <time>2018-01-08T02:04:50Z</time>
      </trkpt>
      <trkpt lat="46.61638" lon="-1.86454">
        <ele>7</ele>
        <time>2018-01-08T02:05:50Z</time>
      </trkpt>
      <trkpt lat="46.61637" lon="-1.86463">
        <ele>7</ele>
        <time>2018-01-08T02:06:50Z</time>
      </trkpt>
      <trkpt lat="46.61635" lon="-1.86494">
        <ele>7</ele>
        <time>2018-01-08T02:07:50Z</time>
      </trkpt>
      <trkpt lat="46.61632" lon="-1.86529">
        <ele>6</ele>
        <time>2018-01-08T02:08:50Z</time>
      </trkpt>
      <trkpt lat="46.61632" lon="-1.86541">
        <ele>6</ele>
        <time>2018-01-08T02:09:50Z</time>
      </trkpt>
      <trkpt lat="46.61632" lon="-1.86547">
        <ele>6</ele>
        <time>2018-01-08T02:10:50Z</time>
      </trkpt>
      <trkpt lat="46.61631" lon="-1.86562">
        <ele>6</ele>
        <time>2018-01-08T02:11:50Z</time>
      </trkpt>
      <trkpt lat="46.6163" lon="-1.86577">
        <ele>5</ele>
        <time>2018-01-08T02:12:50Z</time>
      </trkpt>
      <trkpt lat="46.61626" lon="-1.8662">
        <ele>4</ele>
        <time>2018-01-08T02:13:50Z</time>
      </trkpt>
      <trkpt lat="46.61625" lon="-1.86643">
        <ele>4</ele>
        <time>2018-01-08T02:14:50Z</time>
      </trkpt>
      <trkpt lat="46.61625" lon="-1.86645">
        <ele>4</ele>
        <time>2018-01-08T02:15:50Z</time>
      </trkpt>
      <trkpt lat="46.61624" lon="-1.86662">
        <ele>4</ele>
        <time>2018-01-08T02:16:50Z</time>
      </trkpt>
      <trkpt lat="46.61625" lon="-1.86671">
        <ele>3</ele>
        <time>2018-01-08T02:17:50Z</time>
      </trkpt>
      <trkpt lat="46.61627" lon="-1.86689">
        <ele>4</ele>
        <time>2018-01-08T02:18:50Z</time>
      </trkpt>
      <trkpt lat="46.6163" lon="-1.8671">
        <ele>4</ele>
        <time>2018-01-08T02:19:50Z</time>
      </trkpt>
      <trkpt lat="46.61636" lon="-1.86737">
        <ele>4</ele>
        <time>2018-01-08T02:20:50Z</time>
      </trkpt>
      <trkpt lat="46.61641" lon="-1.86767">
        <ele>4</ele>
        <time>2018-01-08T02:21:50Z</time>
      </trkpt>
      <trkpt lat="46.61647" lon="-1.86798">
        <ele>4</ele>
        <time>2018-01-08T02:22:50Z</time>
      </trkpt>
      <trkpt lat="46.61654" lon="-1.86833">
        <ele>4</ele>
        <time>2018-01-08T02:23:50Z</time>
      </trkpt>
      <trkpt lat="46.61662" lon="-1.86867">
        <ele>3</ele>
        <time>2018-01-08T02:24:50Z</time>
      </trkpt>
      <trkpt lat="46.61669" lon="-1.86889">
        <ele>4</ele>
        <time>2018-01-08T02:25:50Z</time>
      </trkpt>
      <trkpt lat="46.61677" lon="-1.8691">
        <ele>5</ele>
        <time>2018-01-08T02:26:50Z</time>
      </trkpt>
      <trkpt lat="46.61688" lon="-1.86935">
        <ele>5</ele>
        <time>2018-01-08T02:27:50Z</time>
      </trkpt>
      <trkpt lat="46.61696" lon="-1.86948">
        <ele>5</ele>
        <time>2018-01-08T02:28:50Z</time>
      </trkpt>
      <trkpt lat="46.61729" lon="-1.86988">
        <ele>6</ele>
        <time>2018-01-08T02:29:50Z</time>
      </trkpt>
      <trkpt lat="46.61736" lon="-1.86996">
        <ele>7</ele>
        <time>2018-01-08T02:30:50Z</time>
      </trkpt>
      <trkpt lat="46.61745" lon="-1.87005">
        <ele>4</ele>
        <time>2018-01-08T02:31:50Z</time>
      </trkpt>
      <trkpt lat="46.61759" lon="-1.87018">
        <ele>7</ele>
        <time>2018-01-08T02:32:50Z</time>
      </trkpt>
      <trkpt lat="46.61766" lon="-1.87024">
        <ele>7</ele>
        <time>2018-01-08T02:33:50Z</time>
      </trkpt>
      <trkpt lat="46.61785" lon="-1.87042">
        <ele>7</ele>
        <time>2018-01-08T02:34:50Z</time>
      </trkpt>
      <trkpt lat="46.61805" lon="-1.87061">
        <ele>7</ele>
        <time>2018-01-08T02:35:50Z</time>
      </trkpt>
      <trkpt lat="46.61819" lon="-1.87074">
        <ele>7</ele>
        <time>2018-01-08T02:36:50Z</time>
      </trkpt>
      <trkpt lat="46.6183" lon="-1.87085">
        <ele>7</ele>
        <time>2018-01-08T02:37:50Z</time>
      </trkpt>
      <trkpt lat="46.61833" lon="-1.87088">
        <ele>7</ele>
        <time>2018-01-08T02:38:50Z</time>
      </trkpt>
      <trkpt lat="46.61842" lon="-1.87096">
        <ele>7</ele>
        <time>2018-01-08T02:39:50Z</time>
      </trkpt>
      <trkpt lat="46.61861" lon="-1.87113">
        <ele>6</ele>
        <time>2018-01-08T02:40:50Z</time>
      </trkpt>
      <trkpt lat="46.619" lon="-1.87149">
        <ele>7</ele>
        <time>2018-01-08T02:41:50Z</time>
      </trkpt>
      <trkpt lat="46.619" lon="-1.87148">
        <ele>7</ele>
        <time>2018-01-08T02:42:50Z</time>
      </trkpt>
      <trkpt lat="46.61901" lon="-1.87147">
        <ele>7</ele>
        <time>2018-01-08T02:43:50Z</time>
      </trkpt>
      <trkpt lat="46.61901" lon="-1.87146">
        <ele>7</ele>
        <time>2018-01-08T02:44:50Z</time>
      </trkpt>
      <trkpt lat="46.61901" lon="-1.87145">
        <ele>7</ele>
        <time>2018-01-08T02:45:50Z</time>
      </trkpt>
      <trkpt lat="46.61901" lon="-1.87144">
        <ele>7</ele>
        <time>2018-01-08T02:46:50Z</time>
      </trkpt>
      <trkpt lat="46.61902" lon="-1.87143">
        <ele>7</ele>
        <time>2018-01-08T02:47:50Z</time>
      </trkpt>
      <trkpt lat="46.61902" lon="-1.87142">
        <ele>7</ele>
        <time>2018-01-08T02:48:50Z</time>
      </trkpt>
      <trkpt lat="46.61903" lon="-1.87141">
        <ele>7</ele>
        <time>2018-01-08T02:49:50Z</time>
      </trkpt>
      <trkpt lat="46.61903" lon="-1.8714">
        <ele>7</ele>
        <time>2018-01-08T02:50:50Z</time>
      </trkpt>
      <trkpt lat="46.61904" lon="-1.8714">
        <ele>7</ele>
        <time>2018-01-08T02:51:50Z</time>
      </trkpt>
      <trkpt lat="46.61904" lon="-1.87139">
        <ele>7</ele>
        <time>2018-01-08T02:52:50Z</time>
      </trkpt>
      <trkpt lat="46.61905" lon="-1.87138">
        <ele>7</ele>
        <time>2018-01-08T02:53:50Z</time>
      </trkpt>
      <trkpt lat="46.61906" lon="-1.87138">
        <ele>7</ele>
        <time>2018-01-08T02:54:50Z</time>
      </trkpt>
      <trkpt lat="46.61906" lon="-1.87137">
        <ele>7</ele>
        <time>2018-01-08T02:55:50Z</time>
      </trkpt>
      <trkpt lat="46.61907" lon="-1.87137">
        <ele>7</ele>
        <time>2018-01-08T02:56:50Z</time>
      </trkpt>
      <trkpt lat="46.61908" lon="-1.87137">
        <ele>7</ele>
        <time>2018-01-08T02:57:50Z</time>
      </trkpt>
      <trkpt lat="46.61909" lon="-1.87137">
        <ele>7</ele>
        <time>2018-01-08T02:58:50Z</time>
      </trkpt>
      <trkpt lat="46.61909" lon="-1.87136">
        <ele>7</ele>
        <time>2018-01-08T02:59:50Z</time>
      </trkpt>
      <trkpt lat="46.6191" lon="-1.87136">
        <ele>7</ele>
        <time>2018-01-08T03:00:50Z</time>
      </trkpt>
      <trkpt lat="46.6191" lon="-1.87137">
        <ele>7</ele>
        <time>2018-01-08T03:01:50Z</time>
      </trkpt>
      <trkpt lat="46.61911" lon="-1.87137">
        <ele>7</ele>
        <time>2018-01-08T03:02:50Z</time>
      </trkpt>
      <trkpt lat="46.61912" lon="-1.87137">
        <ele>7</ele>
        <time>2018-01-08T03:03:50Z</time>
      </trkpt>
      <trkpt lat="46.61913" lon="-1.87137">
        <ele>7</ele>
        <time>2018-01-08T03:04:50Z</time>
      </trkpt>
      <trkpt lat="46.61913" lon="-1.87138">
        <ele>7</ele>
        <time>2018-01-08T03:05:50Z</time>
      </trkpt>
      <trkpt lat="46.61914" lon="-1.87138">
        <ele>7</ele>
        <time>2018-01-08T03:06:50Z</time>
      </trkpt>
      <trkpt lat="46.61914" lon="-1.87139">
        <ele>7</ele>
        <time>2018-01-08T03:07:50Z</time>
      </trkpt>
      <trkpt lat="46.61915" lon="-1.87139">
        <ele>7</ele>
        <time>2018-01-08T03:08:50Z</time>
      </trkpt>
      <trkpt lat="46.61915" lon="-1.8714">
        <ele>7</ele>
        <time>2018-01-08T03:09:50Z</time>
      </trkpt>
      <trkpt lat="46.61916" lon="-1.8714">
        <ele>7</ele>
        <time>2018-01-08T03:10:50Z</time>
      </trkpt>
      <trkpt lat="46.61916" lon="-1.87141">
        <ele>7</ele>
        <time>2018-01-08T03:11:50Z</time>
      </trkpt>
      <trkpt lat="46.61917" lon="-1.87142">
        <ele>7</ele>
        <time>2018-01-08T03:12:50Z</time>
      </trkpt>
      <trkpt lat="46.61917" lon="-1.87143">
        <ele>7</ele>
        <time>2018-01-08T03:13:50Z</time>
      </trkpt>
      <trkpt lat="46.61918" lon="-1.87144">
        <ele>7</ele>
        <time>2018-01-08T03:14:50Z</time>
      </trkpt>
      <trkpt lat="46.61918" lon="-1.87145">
        <ele>7</ele>
        <time>2018-01-08T03:15:50Z</time>
      </trkpt>
      <trkpt lat="46.61918" lon="-1.87146">
        <ele>7</ele>
        <time>2018-01-08T03:16:50Z</time>
      </trkpt>
      <trkpt lat="46.61918" lon="-1.87147">
        <ele>7</ele>
        <time>2018-01-08T03:17:50Z</time>
      </trkpt>
      <trkpt lat="46.61918" lon="-1.87148">
        <ele>7</ele>
        <time>2018-01-08T03:18:50Z</time>
      </trkpt>
      <trkpt lat="46.61918" lon="-1.87149">
        <ele>7</ele>
        <time>2018-01-08T03:19:50Z</time>
      </trkpt>
      <trkpt lat="46.61918" lon="-1.8715">
        <ele>7</ele>
        <time>2018-01-08T03:20:50Z</time>
      </trkpt>
      <trkpt lat="46.61918" lon="-1.87151">
        <ele>7</ele>
        <time>2018-01-08T03:21:50Z</time>
      </trkpt>
      <trkpt lat="46.61918" lon="-1.87152">
        <ele>7</ele>
        <time>2018-01-08T03:22:50Z</time>
      </trkpt>
      <trkpt lat="46.61918" lon="-1.87153">
        <ele>7</ele>
        <time>2018-01-08T03:23:50Z</time>
      </trkpt>
      <trkpt lat="46.61918" lon="-1.87154">
        <ele>7</ele>
        <time>2018-01-08T03:24:50Z</time>
      </trkpt>
      <trkpt lat="46.61918" lon="-1.87155">
        <ele>7</ele>
        <time>2018-01-08T03:25:50Z</time>
      </trkpt>
      <trkpt lat="46.61917" lon="-1.87156">
        <ele>7</ele>
        <time>2018-01-08T03:26:50Z</time>
      </trkpt>
      <trkpt lat="46.6192" lon="-1.87165">
        <ele>7</ele>
        <time>2018-01-08T03:27:50Z</time>
      </trkpt>
      <trkpt lat="46.61923" lon="-1.8717">
        <ele>7</ele>
        <time>2018-01-08T03:28:50Z</time>
      </trkpt>
      <trkpt lat="46.61923" lon="-1.8717">
        <ele>7</ele>
        <time>2018-01-08T03:29:50Z</time>
      </trkpt>
      <trkpt lat="46.61925" lon="-1.87172">
        <ele>7</ele>
        <time>2018-01-08T03:30:50Z</time>
      </trkpt>
      <trkpt lat="46.61936" lon="-1.87179">
        <ele>7</ele>
        <time>2018-01-08T03:31:50Z</time>
      </trkpt>
      <trkpt lat="46.61957" lon="-1.87192">
        <ele>6</ele>
        <time>2018-01-08T03:32:50Z</time>
      </trkpt>
      <trkpt lat="46.61973" lon="-1.87201">
        <ele>6</ele>
        <time>2018-01-08T03:33:50Z</time>
      </trkpt>
      <trkpt lat="46.61985" lon="-1.87208">
        <ele>6</ele>
        <time>2018-01-08T03:34:50Z</time>
      </trkpt>
      <trkpt lat="46.6201" lon="-1.87223">
        <ele>6</ele>
        <time>2018-01-08T03:35:50Z</time>
      </trkpt>
      <trkpt lat="46.62022" lon="-1.8723">
        <ele>6</ele>
        <time>2018-01-08T03:36:50Z</time>
      </trkpt>
      <trkpt lat="46.62032" lon="-1.87236">
        <ele>6</ele>
        <time>2018-01-08T03:37:50Z</time>
      </trkpt>
      <trkpt lat="46.62043" lon="-1.87238">
        <ele>6</ele>
        <time>2018-01-08T03:38:50Z</time>
      </trkpt>
      <trkpt lat="46.62053" lon="-1.87238">
        <ele>6</ele>
        <time>2018-01-08T03:39:50Z</time>
      </trkpt>
      <trkpt lat="46.62061" lon="-1.87235">
        <ele>6</ele>
        <time>2018-01-08T03:40:50Z</time>
      </trkpt>
      <trkpt lat="46.6207" lon="-1.87232">
        <ele>6</ele>
        <time>2018-01-08T03:41:50Z</time>
      </trkpt>
      <trkpt lat="46.62087" lon="-1.87223">
        <ele>6</ele>
        <time>2018-01-08T03:42:50Z</time>
      </trkpt>
      <trkpt lat="46.62091" lon="-1.8722">
        <ele>7</ele>
        <time>2018-01-08T03:43:50Z</time>
      </trkpt>
      <trkpt lat="46.62098" lon="-1.87217">
        <ele>7</ele>
        <time>2018-01-08T03:44:50Z</time>
      </trkpt>
      <trkpt lat="46.62111" lon="-1.87211">
        <ele>7</ele>
        <time>2018-01-08T03:45:50Z</time>
      </trkpt>
      <trkpt lat="46.62126" lon="-1.87206">
        <ele>8</ele>
        <time>2018-01-08T03:46:50Z</time>
      </trkpt>
      <trkpt lat="46.62133" lon="-1.87206">
        <ele>8</ele>
        <time>2018-01-08T03:47:50Z</time>
      </trkpt>
      <trkpt lat="46.62144" lon="-1.87208">
        <ele>8</ele>
        <time>2018-01-08T03:48:50Z</time>
      </trkpt>
      <trkpt lat="46.62156" lon="-1.87213">
        <ele>8</ele>
        <time>2018-01-08T03:49:50Z</time>
      </trkpt>
      <trkpt lat="46.62171" lon="-1.87222">
        <ele>8</ele>
        <time>2018-01-08T03:50:50Z</time>
      </trkpt>
      <trkpt lat="46.62178" lon="-1.87228">
        <ele>8</ele>
        <time>2018-01-08T03:51:50Z</time>
      </trkpt>
      <trkpt lat="46.62178" lon="-1.87228">
        <ele>8</ele>
        <time>2018-01-08T03:52:50Z</time>
      </trkpt>
      <trkpt lat="46.62191" lon="-1.87236">
        <ele>8</ele>
        <time>2018-01-08T03:53:50Z</time>
      </trkpt>
      <trkpt lat="46.62209" lon="-1.87249">
        <ele>8</ele>
        <time>2018-01-08T03:54:50Z</time>
      </trkpt>
      <trkpt lat="46.62237" lon="-1.87268">
        <ele>6</ele>
        <time>2018-01-08T03:55:50Z</time>
      </trkpt>
      <trkpt lat="46.62267" lon="-1.8729">
        <ele>5</ele>
        <time>2018-01-08T03:56:50Z</time>
      </trkpt>
      <trkpt lat="46.62279" lon="-1.87297">
        <ele>5</ele>
        <time>2018-01-08T03:57:50Z</time>
      </trkpt>
      <trkpt lat="46.62295" lon="-1.87309">
        <ele>6</ele>
        <time>2018-01-08T03:58:50Z</time>
      </trkpt>
      <trkpt lat="46.62309" lon="-1.87316">
        <ele>6</ele>
        <time>2018-01-08T03:59:50Z</time>
      </trkpt>
      <trkpt lat="46.62329" lon="-1.87324">
        <ele>8</ele>
        <time>2018-01-08T04:00:50Z</time>
      </trkpt>
      <trkpt lat="46.62375" lon="-1.87344">
        <ele>7</ele>
        <time>2018-01-08T04:01:50Z</time>
      </trkpt>
      <trkpt lat="46.62379" lon="-1.87345">
        <ele>7</ele>
        <time>2018-01-08T04:02:50Z</time>
      </trkpt>
      <trkpt lat="46.62391" lon="-1.8735">
        <ele>7</ele>
        <time>2018-01-08T04:03:50Z</time>
      </trkpt>
      <trkpt lat="46.62397" lon="-1.87352">
        <ele>7</ele>
        <time>2018-01-08T04:04:50Z</time>
      </trkpt>
      <trkpt lat="46.62398" lon="-1.87352">
        <ele>7</ele>
        <time>2018-01-08T04:05:50Z</time>
      </trkpt>
      <trkpt lat="46.624" lon="-1.87352">
        <ele>7</ele>
        <time>2018-01-08T04:06:50Z</time>
      </trkpt>
      <trkpt lat="46.62404" lon="-1.87351">
        <ele>7</ele>
        <time>2018-01-08T04:07:50Z</time>
      </trkpt>
      <trkpt lat="46.62406" lon="-1.87352">
        <ele>7</ele>
        <time>2018-01-08T04:08:50Z</time>
      </trkpt>
      <trkpt lat="46.62411" lon="-1.87353">
        <ele>7</ele>
        <time>2018-01-08T04:09:50Z</time>
      </trkpt>
      <trkpt lat="46.62416" lon="-1.87355">
        <ele>7</ele>
        <time>2018-01-08T04:10:50Z</time>
      </trkpt>
      <trkpt lat="46.62422" lon="-1.87356">
        <ele>7</ele>
        <time>2018-01-08T04:11:50Z</time>
      </trkpt>
      <trkpt lat="46.62428" lon="-1.87358">
        <ele>7</ele>
        <time>2018-01-08T04:12:50Z</time>
      </trkpt>
      <trkpt lat="46.62443" lon="-1.87362">
        <ele>7</ele>
        <time>2018-01-08T04:13:50Z</time>
      </trkpt>
      <trkpt lat="46.62451" lon="-1.87362">
        <ele>7</ele>
        <time>2018-01-08T04:14:50Z</time>
      </trkpt>
      <trkpt lat="46.6246" lon="-1.87361">
        <ele>7</ele>
        <time>2018-01-08T04:15:50Z</time>
      </trkpt>
      <trkpt lat="46.6247" lon="-1.87361">
        <ele>7</ele>
        <time>2018-01-08T04:16:50Z</time>
      </trkpt>
      <trkpt lat="46.62483" lon="-1.87359">
        <ele>7</ele>
        <time>2018-01-08T04:17:50Z</time>
      </trkpt>
      <trkpt lat="46.62506" lon="-1.87357">
        <ele>7</ele>
        <time>2018-01-08T04:18:50Z</time>
      </trkpt>
      <trkpt lat="46.62515" lon="-1.87359">
        <ele>7</ele>
        <time>2018-01-08T04:19:50Z</time>
      </trkpt>
      <trkpt lat="46.62533" lon="-1.87363">
        <ele>7</ele>
        <time>2018-01-08T04:20:50Z</time>
      </trkpt>
      <trkpt lat="46.62552" lon="-1.87366">
        <ele>7</ele>
        <time>2018-01-08T04:21:50Z</time>
      </trkpt>
      <trkpt lat="46.62568" lon="-1.87368">
        <ele>7</ele>
        <time>2018-01-08T04:22:50Z</time>
      </trkpt>
      <trkpt lat="46.62579" lon="-1.87365">
        <ele>8</ele>
        <time>2018-01-08T04:23:50Z</time>
      </trkpt>
      <trkpt lat="46.62586" lon="-1.87364">
        <ele>8</ele>
        <time>2018-01-08T04:24:50Z</time>
      </trkpt>
      <trkpt lat="46.62599" lon="-1.87362">
        <ele>7</ele>
        <time>2018-01-08T04:25:50Z</time>
      </trkpt>
      <trkpt lat="46.62606" lon="-1.87359">
        <ele>7</ele>
        <time>2018-01-08T04:26:50Z</time>
      </trkpt>
      <trkpt lat="46.62618" lon="-1.87353">
        <ele>7</ele>
        <time>2018-01-08T04:27:50Z</time>
      </trkpt>
      <trkpt lat="46.62618" lon="-1.87353">
        <ele>7</ele>
        <time>2018-01-08T04:28:50Z</time>
      </trkpt>
      <trkpt lat="46.62617" lon="-1.87352">
        <ele>7</ele>
        <time>2018-01-08T04:29:50Z</time>
      </trkpt>
      <trkpt lat="46.62617" lon="-1.87351">
        <ele>7</ele>
        <time>2018-01-08T04:30:50Z</time>
      </trkpt>
      <trkpt lat="46.62617" lon="-1.8735">
        <ele>7</ele>
        <time>2018-01-08T04:31:50Z</time>
      </trkpt>
      <trkpt lat="46.62617" lon="-1.87349">
        <ele>7</ele>
        <time>2018-01-08T04:32:50Z</time>
      </trkpt>
      <trkpt lat="46.62617" lon="-1.87348">
        <ele>7</ele>
        <time>2018-01-08T04:33:50Z</time>
      </trkpt>
      <trkpt lat="46.62617" lon="-1.87347">
        <ele>7</ele>
        <time>2018-01-08T04:34:50Z</time>
      </trkpt>
      <trkpt lat="46.62618" lon="-1.87347">
        <ele>7</ele>
        <time>2018-01-08T04:35:50Z</time>
      </trkpt>
      <trkpt lat="46.62618" lon="-1.87346">
        <ele>7</ele>
        <time>2018-01-08T04:36:50Z</time>
      </trkpt>
      <trkpt lat="46.62618" lon="-1.87345">
        <ele>7</ele>
        <time>2018-01-08T04:37:50Z</time>
      </trkpt>
      <trkpt lat="46.62619" lon="-1.87345">
        <ele>7</ele>
        <time>2018-01-08T04:38:50Z</time>
      </trkpt>
      <trkpt lat="46.62619" lon="-1.87344">
        <ele>7</ele>
        <time>2018-01-08T04:39:50Z</time>
      </trkpt>
      <trkpt lat="46.6262" lon="-1.87344">
        <ele>7</ele>
        <time>2018-01-08T04:40:50Z</time>
      </trkpt>
      <trkpt lat="46.6262" lon="-1.87343">
        <ele>7</ele>
        <time>2018-01-08T04:41:50Z</time>
      </trkpt>
      <trkpt lat="46.62621" lon="-1.87343">
        <ele>7</ele>
        <time>2018-01-08T04:42:50Z</time>
      </trkpt>
      <trkpt lat="46.62622" lon="-1.87343">
        <ele>7</ele>
        <time>2018-01-08T04:43:50Z</time>
      </trkpt>
      <trkpt lat="46.62623" lon="-1.87343">
        <ele>7</ele>
        <time>2018-01-08T04:44:50Z</time>
      </trkpt>
      <trkpt lat="46.62624" lon="-1.87343">
        <ele>7</ele>
        <time>2018-01-08T04:45:50Z</time>
      </trkpt>
      <trkpt lat="46.62625" lon="-1.87343">
        <ele>7</ele>
        <time>2018-01-08T04:46:50Z</time>
      </trkpt>
      <trkpt lat="46.62625" lon="-1.87344">
        <ele>7</ele>
        <time>2018-01-08T04:47:50Z</time>
      </trkpt>
      <trkpt lat="46.62626" lon="-1.87344">
        <ele>7</ele>
        <time>2018-01-08T04:48:50Z</time>
      </trkpt>
      <trkpt lat="46.62626" lon="-1.87345">
        <ele>7</ele>
        <time>2018-01-08T04:49:50Z</time>
      </trkpt>
      <trkpt lat="46.62626" lon="-1.87346">
        <ele>7</ele>
        <time>2018-01-08T04:50:50Z</time>
      </trkpt>
      <trkpt lat="46.62627" lon="-1.87346">
        <ele>7</ele>
        <time>2018-01-08T04:51:50Z</time>
      </trkpt>
      <trkpt lat="46.62627" lon="-1.87347">
        <ele>7</ele>
        <time>2018-01-08T04:52:50Z</time>
      </trkpt>
      <trkpt lat="46.62627" lon="-1.87348">
        <ele>7</ele>
        <time>2018-01-08T04:53:50Z</time>
      </trkpt>
      <trkpt lat="46.62627" lon="-1.87349">
        <ele>7</ele>
        <time>2018-01-08T04:54:50Z</time>
      </trkpt>
      <trkpt lat="46.62627" lon="-1.8735">
        <ele>7</ele>
        <time>2018-01-08T04:55:50Z</time>
      </trkpt>
      <trkpt lat="46.62627" lon="-1.87351">
        <ele>7</ele>
        <time>2018-01-08T04:56:50Z</time>
      </trkpt>
      <trkpt lat="46.62627" lon="-1.87352">
        <ele>7</ele>
        <time>2018-01-08T04:57:50Z</time>
      </trkpt>
      <trkpt lat="46.62627" lon="-1.87353">
        <ele>7</ele>
        <time>2018-01-08T04:58:50Z</time>
      </trkpt>
      <trkpt lat="46.62626" lon="-1.87354">
        <ele>7</ele>
        <time>2018-01-08T04:59:50Z</time>
      </trkpt>
      <trkpt lat="46.62635" lon="-1.87358">
        <ele>7</ele>
        <time>2018-01-08T05:00:50Z</time>
      </trkpt>
      <trkpt lat="46.62646" lon="-1.87362">
        <ele>7</ele>
        <time>2018-01-08T05:01:50Z</time>
      </trkpt>
      <trkpt lat="46.62646" lon="-1.87362">
        <ele>7</ele>
        <time>2018-01-08T05:02:50Z</time>
      </trkpt>
      <trkpt lat="46.62658" lon="-1.87364">
        <ele>6</ele>
        <time>2018-01-08T05:03:50Z</time>
      </trkpt>
      <trkpt lat="46.62665" lon="-1.87367">
        <ele>6</ele>
        <time>2018-01-08T05:04:50Z</time>
      </trkpt>
      <trkpt lat="46.62668" lon="-1.87368">
        <ele>6</ele>
        <time>2018-01-08T05:05:50Z</time>
      </trkpt>
      <trkpt lat="46.62679" lon="-1.87374">
        <ele>7</ele>
        <time>2018-01-08T05:06:50Z</time>
      </trkpt>
      <trkpt lat="46.62691" lon="-1.87387">
        <ele>7</ele>
        <time>2018-01-08T05:07:50Z</time>
      </trkpt>
      <trkpt lat="46.62711" lon="-1.87416">
        <ele>8</ele>
        <time>2018-01-08T05:08:50Z</time>
      </trkpt>
      <trkpt lat="46.62713" lon="-1.87419">
        <ele>8</ele>
        <time>2018-01-08T05:09:50Z</time>
      </trkpt>
      <trkpt lat="46.62725" lon="-1.87429">
        <ele>8</ele>
        <time>2018-01-08T05:10:50Z</time>
      </trkpt>
      <trkpt lat="46.62744" lon="-1.87442">
        <ele>9</ele>
        <time>2018-01-08T05:11:50Z</time>
      </trkpt>
      <trkpt lat="46.62763" lon="-1.87455">
        <ele>9</ele>
        <time>2018-01-08T05:12:50Z</time>
      </trkpt>
      <trkpt lat="46.62783" lon="-1.87467">
        <ele>9</ele>
        <time>2018-01-08T05:13:50Z</time>
      </trkpt>
      <trkpt lat="46.62802" lon="-1.87477">
        <ele>9</ele>
        <time>2018-01-08T05:14:50Z</time>
      </trkpt>
      <trkpt lat="46.62821" lon="-1.87488">
        <ele>9</ele>
        <time>2018-01-08T05:15:50Z</time>
      </trkpt>
      <trkpt lat="46.62837" lon="-1.87501">
        <ele>9</ele>
        <time>2018-01-08T05:16:50Z</time>
      </trkpt>
      <trkpt lat="46.62846" lon="-1.87513">
        <ele>9</ele>
        <time>2018-01-08T05:17:50Z</time>
      </trkpt>
      <trkpt lat="46.62856" lon="-1.87526">
        <ele>8</ele>
        <time>2018-01-08T05:18:50Z</time>
      </trkpt>
      <trkpt lat="46.62872" lon="-1.87553">
        <ele>8</ele>
        <time>2018-01-08T05:19:50Z</time>
      </trkpt>
      <trkpt lat="46.62875" lon="-1.87559">
        <ele>8</ele>
        <time>2018-01-08T05:20:50Z</time>
      </trkpt>
      <trkpt lat="46.62886" lon="-1.87578">
        <ele>8</ele>
        <time>2018-01-08T05:21:50Z</time>
      </trkpt>
      <trkpt lat="46.62897" lon="-1.87596">
        <ele>8</ele>
        <time>2018-01-08T05:22:50Z</time>
      </trkpt>
      <trkpt lat="46.62898" lon="-1.87599">
        <ele>8</ele>
        <time>2018-01-08T05:23:50Z</time>
      </trkpt>
      <trkpt lat="46.62903" lon="-1.87611">
        <ele>8</ele>
        <time>2018-01-08T05:24:50Z</time>
      </trkpt>
      <trkpt lat="46.62955" lon="-1.87701">
        <ele>9</ele>
        <time>2018-01-08T05:25:50Z</time>
      </trkpt>
      <trkpt lat="46.62969" lon="-1.87725">
        <ele>9</ele>
        <time>2018-01-08T05:26:50Z</time>
      </trkpt>
      <trkpt lat="46.62975" lon="-1.87736">
        <ele>9</ele>
        <time>2018-01-08T05:27:50Z</time>
      </trkpt>
      <trkpt lat="46.62984" lon="-1.87753">
        <ele>9</ele>
        <time>2018-01-08T05:28:50Z</time>
      </trkpt>
      <trkpt lat="46.62988" lon="-1.87761">
        <ele>10</ele>
        <time>2018-01-08T05:29:50Z</time>
      </trkpt>
      <trkpt lat="46.62989" lon="-1.87763">
        <ele>10</ele>
        <time>2018-01-08T05:30:50Z</time>
      </trkpt>
      <trkpt lat="46.62994" lon="-1.87775">
        <ele>10</ele>
        <time>2018-01-08T05:31:50Z</time>
      </trkpt>
      <trkpt lat="46.63001" lon="-1.87801">
        <ele>10</ele>
        <time>2018-01-08T05:32:50Z</time>
      </trkpt>
      <trkpt lat="46.63013" lon="-1.87838">
        <ele>10</ele>
        <time>2018-01-08T05:33:50Z</time>
      </trkpt>
      <trkpt lat="46.63022" lon="-1.87869">
        <ele>10</ele>
        <time>2018-01-08T05:34:50Z</time>
      </trkpt>
      <trkpt lat="46.63022" lon="-1.87871">
        <ele>10</ele>
        <time>2018-01-08T05:35:50Z</time>
      </trkpt>
      <trkpt lat="46.63032" lon="-1.87907">
        <ele>10</ele>
        <time>2018-01-08T05:36:50Z</time>
      </trkpt>
      <trkpt lat="46.63043" lon="-1.87942">
        <ele>10</ele>
        <time>2018-01-08T05:37:50Z</time>
      </trkpt>
      <trkpt lat="46.6305" lon="-1.87961">
        <ele>10</ele>
        <time>2018-01-08T05:38:50Z</time>
      </trkpt>
      <trkpt lat="46.63059" lon="-1.8798">
        <ele>11</ele>
        <time>2018-01-08T05:39:50Z</time>
      </trkpt>
      <trkpt lat="46.63066" lon="-1.87991">
        <ele>11</ele>
        <time>2018-01-08T05:40:50Z</time>
      </trkpt>
      <trkpt lat="46.63075" lon="-1.88003">
        <ele>12</ele>
        <time>2018-01-08T05:41:50Z</time>
      </trkpt>
      <trkpt lat="46.63085" lon="-1.88018">
        <ele>12</ele>
        <time>2018-01-08T05:42:50Z</time>
      </trkpt>
      <trkpt lat="46.63104" lon="-1.88049">
        <ele>10</ele>
        <time>2018-01-08T05:43:50Z</time>
      </trkpt>
      <trkpt lat="46.63118" lon="-1.88071">
        <ele>9</ele>
        <time>2018-01-08T05:44:50Z</time>
      </trkpt>
      <trkpt lat="46.63126" lon="-1.88085">
        <ele>9</ele>
        <time>2018-01-08T05:45:50Z</time>
      </trkpt>
      <trkpt lat="46.63139" lon="-1.8811">
        <ele>9</ele>
        <time>2018-01-08T05:46:50Z</time>
      </trkpt>
      <trkpt lat="46.63146" lon="-1.88123">
        <ele>9</ele>
        <time>2018-01-08T05:47:50Z</time>
      </trkpt>
      <trkpt lat="46.63146" lon="-1.88123">
        <ele>9</ele>
        <time>2018-01-08T05:48:50Z</time>
      </trkpt>
      <trkpt lat="46.63151" lon="-1.88138">
        <ele>9</ele>
        <time>2018-01-08T05:49:50Z</time>
      </trkpt>
      <trkpt lat="46.63154" lon="-1.88152">
        <ele>9</ele>
        <time>2018-01-08T05:50:50Z</time>
      </trkpt>
      <trkpt lat="46.63157" lon="-1.8817">
        <ele>6</ele>
        <time>2018-01-08T05:51:50Z</time>
      </trkpt>
      <trkpt lat="46.63161" lon="-1.88202">
        <ele>6</ele>
        <time>2018-01-08T05:52:50Z</time>
      </trkpt>
      <trkpt lat="46.63164" lon="-1.8822">
        <ele>6</ele>
        <time>2018-01-08T05:53:50Z</time>
      </trkpt>
      <trkpt lat="46.63168" lon="-1.88249">
        <ele>7</ele>
        <time>2018-01-08T05:54:50Z</time>
      </trkpt>
      <trkpt lat="46.63173" lon="-1.88287">
        <ele>6</ele>
        <time>2018-01-08T05:55:50Z</time>
      </trkpt>
      <trkpt lat="46.63176" lon="-1.88306">
        <ele>6</ele>
        <time>2018-01-08T05:56:50Z</time>
      </trkpt>
      <trkpt lat="46.63183" lon="-1.88351">
        <ele>6</ele>
        <time>2018-01-08T05:57:50Z</time>
      </trkpt>
      <trkpt lat="46.6319" lon="-1.88402">
        <ele>6</ele>
        <time>2018-01-08T05:58:50Z</time>
      </trkpt>
      <trkpt lat="46.63195" lon="-1.88434">
        <ele>6</ele>
        <time>2018-01-08T05:59:50Z</time>
      </trkpt>
      <trkpt lat="46.632" lon="-1.88448">
        <ele>5</ele>
        <time>2018-01-08T06:00:50Z</time>
      </trkpt>
      <trkpt lat="46.63208" lon="-1.88464">
        <ele>5</ele>
        <time>2018-01-08T06:01:50Z</time>
      </trkpt>
      <trkpt lat="46.6322" lon="-1.88488">
        <ele>6</ele>
        <time>2018-01-08T06:02:50Z</time>
      </trkpt>
      <trkpt lat="46.63234" lon="-1.88515">
        <ele>6</ele>
        <time>2018-01-08T06:03:50Z</time>
      </trkpt>
      <trkpt lat="46.63252" lon="-1.88548">
        <ele>6</ele>
        <time>2018-01-08T06:04:50Z</time>
      </trkpt>
      <trkpt lat="46.63263" lon="-1.88567">
        <ele>6</ele>
        <time>2018-01-08T06:05:50Z</time>
      </trkpt>
      <trkpt lat="46.63268" lon="-1.88575">
        <ele>6</ele>
        <time>2018-01-08T06:06:50Z</time>
      </trkpt>
      <trkpt lat="46.63273" lon="-1.88585">
        <ele>6</ele>
        <time>2018-01-08T06:07:50Z</time>
      </trkpt>
      <trkpt lat="46.6328" lon="-1.88599">
        <ele>6</ele>
        <time>2018-01-08T06:08:50Z</time>
      </trkpt>
      <trkpt lat="46.63289" lon="-1.88618">
        <ele>6</ele>
        <time>2018-01-08T06:09:50Z</time>
      </trkpt>
      <trkpt lat="46.63292" lon="-1.88623">
        <ele>6</ele>
        <time>2018-01-08T06:10:50Z</time>
      </trkpt>
      <trkpt lat="46.63303" lon="-1.88642">
        <ele>6</ele>
        <time>2018-01-08T06:11:50Z</time>
      </trkpt>
      <trkpt lat="46.63312" lon="-1.88658">
        <ele>6</ele>
        <time>2018-01-08T06:12:50Z</time>
      </trkpt>
      <trkpt lat="46.63322" lon="-1.8867">
        <ele>7</ele>
        <time>2018-01-08T06:13:50Z</time>
      </trkpt>
      <trkpt lat="46.63344" lon="-1.88693">
        <ele>7</ele>
        <time>2018-01-08T06:14:50Z</time>
      </trkpt>
      <trkpt lat="46.63368" lon="-1.88714">
        <ele>7</ele>
        <time>2018-01-08T06:15:50Z</time>
      </trkpt>
      <trkpt lat="46.63385" lon="-1.8873">
        <ele>7</ele>
        <time>2018-01-08T06:16:50Z</time>
      </trkpt>
      <trkpt lat="46.63396" lon="-1.88741">
        <ele>7</ele>
        <time>2018-01-08T06:17:50Z</time>
      </trkpt>
      <trkpt lat="46.63406" lon="-1.88754">
        <ele>7</ele>
        <time>2018-01-08T06:18:50Z</time>
      </trkpt>
      <trkpt lat="46.63413" lon="-1.88765">
        <ele>7</ele>
        <time>2018-01-08T06:19:50Z</time>
      </trkpt>
      <trkpt lat="46.6342" lon="-1.88781">
        <ele>7</ele>
        <time>2018-01-08T06:20:50Z</time>
      </trkpt>
      <trkpt lat="46.63423" lon="-1.88789">
        <ele>7</ele>
        <time>2018-01-08T06:21:50Z</time>
      </trkpt>
      <trkpt lat="46.63433" lon="-1.88811">
        <ele>7</ele>
        <time>2018-01-08T06:22:50Z</time>
      </trkpt>
      <trkpt lat="46.63442" lon="-1.88833">
        <ele>8</ele>
        <time>2018-01-08T06:23:50Z</time>
      </trkpt>
      <trkpt lat="46.63453" lon="-1.88859">
        <ele>8</ele>
        <time>2018-01-08T06:24:50Z</time>
      </trkpt>
      <trkpt lat="46.63465" lon="-1.88888">
        <ele>8</ele>
        <time>2018-01-08T06:25:50Z</time>
      </trkpt>
      <trkpt lat="46.63479" lon="-1.88922">
        <ele>8</ele>
        <time>2018-01-08T06:26:50Z</time>
      </trkpt>
      <trkpt lat="46.63494" lon="-1.88958">
        <ele>8</ele>
        <time>2018-01-08T06:27:50Z</time>
      </trkpt>
      <trkpt lat="46.63504" lon="-1.88984">
        <ele>7</ele>
        <time>2018-01-08T06:28:50Z</time>
      </trkpt>
      <trkpt lat="46.63518" lon="-1.89017">
        <ele>6</ele>
        <time>2018-01-08T06:29:50Z</time>
      </trkpt>
      <trkpt lat="46.6352" lon="-1.89022">
        <ele>6</ele>
        <time>2018-01-08T06:30:50Z</time>
      </trkpt>
      <trkpt lat="46.63524" lon="-1.89032">
        <ele>6</ele>
        <time>2018-01-08T06:31:50Z</time>
      </trkpt>
      <trkpt lat="46.6353" lon="-1.89043">
        <ele>6</ele>
        <time>2018-01-08T06:32:50Z</time>
      </trkpt>
      <trkpt lat="46.63534" lon="-1.89049">
        <ele>6</ele>
        <time>2018-01-08T06:33:50Z</time>
      </trkpt>
      <trkpt lat="46.63536" lon="-1.89053">
        <ele>6</ele>
        <time>2018-01-08T06:34:50Z</time>
      </trkpt>
      <trkpt lat="46.63543" lon="-1.89061">
        <ele>6</ele>
        <time>2018-01-08T06:35:50Z</time>
      </trkpt>
      <trkpt lat="46.63619" lon="-1.89114">
        <ele>8</ele>
        <time>2018-01-08T06:36:50Z</time>
      </trkpt>
      <trkpt lat="46.63629" lon="-1.89121">
        <ele>8</ele>
        <time>2018-01-08T06:37:50Z</time>
      </trkpt>
      <trkpt lat="46.6363" lon="-1.89123">
        <ele>8</ele>
        <time>2018-01-08T06:38:50Z</time>
      </trkpt>
      <trkpt lat="46.63632" lon="-1.89124">
        <ele>8</ele>
        <time>2018-01-08T06:39:50Z</time>
      </trkpt>
      <trkpt lat="46.63657" lon="-1.89143">
        <ele>9</ele>
        <time>2018-01-08T06:40:50Z</time>
      </trkpt>
      <trkpt lat="46.63686" lon="-1.89162">
        <ele>9</ele>
        <time>2018-01-08T06:41:50Z</time>
      </trkpt>
      <trkpt lat="46.63712" lon="-1.89179">
        <ele>9</ele>
        <time>2018-01-08T06:42:50Z</time>
      </trkpt>
      <trkpt lat="46.63718" lon="-1.89185">
        <ele>8</ele>
        <time>2018-01-08T06:43:50Z</time>
      </trkpt>
      <trkpt lat="46.6374" lon="-1.892">
        <ele>9</ele>
        <time>2018-01-08T06:44:50Z</time>
      </trkpt>
      <trkpt lat="46.63789" lon="-1.89237">
        <ele>8</ele>
        <time>2018-01-08T06:45:50Z</time>
      </trkpt>
      <trkpt lat="46.63802" lon="-1.89252">
        <ele>8</ele>
        <time>2018-01-08T06:46:50Z</time>
      </trkpt>
      <trkpt lat="46.63807" lon="-1.89261">
        <ele>7</ele>
        <time>2018-01-08T06:47:50Z</time>
      </trkpt>
      <trkpt lat="46.63817" lon="-1.89276">
        <ele>7</ele>
        <time>2018-01-08T06:48:50Z</time>
      </trkpt>
      <trkpt lat="46.63831" lon="-1.89294">
        <ele>7</ele>
        <time>2018-01-08T06:49:50Z</time>
      </trkpt>
      <trkpt lat="46.63847" lon="-1.89315">
        <ele>7</ele>
        <time>2018-01-08T06:50:50Z</time>
      </trkpt>
      <trkpt lat="46.63852" lon="-1.89324">
        <ele>7</ele>
        <time>2018-01-08T06:51:50Z</time>
      </trkpt>
      <trkpt lat="46.63865" lon="-1.89341">
        <ele>7</ele>
        <time>2018-01-08T06:52:50Z</time>
      </trkpt>
      <trkpt lat="46.63884" lon="-1.89368">
        <ele>6</ele>
        <time>2018-01-08T06:53:50Z</time>
      </trkpt>
      <trkpt lat="46.63888" lon="-1.89374">
        <ele>6</ele>
        <time>2018-01-08T06:54:50Z</time>
      </trkpt>
      <trkpt lat="46.6391" lon="-1.89405">
        <ele>5</ele>
        <time>2018-01-08T06:55:50Z</time>
      </trkpt>
      <trkpt lat="46.63915" lon="-1.89412">
        <ele>5</ele>
        <time>2018-01-08T06:56:50Z</time>
      </trkpt>
      <trkpt lat="46.63919" lon="-1.89416">
        <ele>5</ele>
        <time>2018-01-08T06:57:50Z</time>
      </trkpt>
      <trkpt lat="46.63925" lon="-1.89422">
        <ele>5</ele>
        <time>2018-01-08T06:58:50Z</time>
      </trkpt>
      <trkpt lat="46.63935" lon="-1.89424">
        <ele>5</ele>
        <time>2018-01-08T06:59:50Z</time>
      </trkpt>
      <trkpt lat="46.6395" lon="-1.89424">
        <ele>6</ele>
        <time>2018-01-08T07:00:50Z</time>
      </trkpt>
      <trkpt lat="46.63967" lon="-1.89421">
        <ele>6</ele>
        <time>2018-01-08T07:01:50Z</time>
      </trkpt>
      <trkpt lat="46.6398" lon="-1.89421">
        <ele>6</ele>
        <time>2018-01-08T07:02:50Z</time>
      </trkpt>
      <trkpt lat="46.63993" lon="-1.8942">
        <ele>7</ele>
        <time>2018-01-08T07:03:50Z</time>
      </trkpt>
      <trkpt lat="46.64001" lon="-1.89419">
        <ele>7</ele>
        <time>2018-01-08T07:04:50Z</time>
      </trkpt>
      <trkpt lat="46.64014" lon="-1.89408">
        <ele>8</ele>
        <time>2018-01-08T07:05:50Z</time>
      </trkpt>
      <trkpt lat="46.64014" lon="-1.89408">
        <ele>8</ele>
        <time>2018-01-08T07:06:50Z</time>
      </trkpt>
      <trkpt lat="46.64032" lon="-1.89371">
        <ele>9</ele>
        <time>2018-01-08T07:07:50Z</time>
      </trkpt>
      <trkpt lat="46.64043" lon="-1.89336">
        <ele>10</ele>
        <time>2018-01-08T07:08:50Z</time>
      </trkpt>
      <trkpt lat="46.64056" lon="-1.89296">
        <ele>10</ele>
        <time>2018-01-08T07:09:50Z</time>
      </trkpt>
      <trkpt lat="46.64061" lon="-1.89283">
        <ele>11</ele>
        <time>2018-01-08T07:10:50Z</time>
      </trkpt>
      <trkpt lat="46.64078" lon="-1.89253">
        <ele>11</ele>
        <time>2018-01-08T07:11:50Z</time>
      </trkpt>
      <trkpt lat="46.64107" lon="-1.892">
        <ele>12</ele>
        <time>2018-01-08T07:12:50Z</time>
      </trkpt>
      <trkpt lat="46.64121" lon="-1.8917">
        <ele>12</ele>
        <time>2018-01-08T07:13:50Z</time>
      </trkpt>
      <trkpt lat="46.64126" lon="-1.8916">
        <ele>13</ele>
        <time>2018-01-08T07:14:50Z</time>
      </trkpt>
      <trkpt lat="46.64133" lon="-1.89149">
        <ele>13</ele>
        <time>2018-01-08T07:15:50Z</time>
      </trkpt>
      <trkpt lat="46.64135" lon="-1.89148">
        <ele>13</ele>
        <time>2018-01-08T07:16:50Z</time>
      </trkpt>
      <trkpt lat="46.64147" lon="-1.89136">
        <ele>13</ele>
        <time>2018-01-08T07:17:50Z</time>
      </trkpt>
      <trkpt lat="46.64161" lon="-1.89123">
        <ele>13</ele>
        <time>2018-01-08T07:18:50Z</time>
      </trkpt>
      <trkpt lat="46.64175" lon="-1.8911">
        <ele>13</ele>
        <time>2018-01-08T07:19:50Z</time>
      </trkpt>
      <trkpt lat="46.64187" lon="-1.89101">
        <ele>13</ele>
        <time>2018-01-08T07:20:50Z</time>
      </trkpt>
      <trkpt lat="46.64188" lon="-1.89101">
        <ele>14</ele>
        <time>2018-01-08T07:21:50Z</time>
      </trkpt>
      <trkpt lat="46.64193" lon="-1.89095">
        <ele>14</ele>
        <time>2018-01-08T07:22:50Z</time>
      </trkpt>
      <trkpt lat="46.64198" lon="-1.89091">
        <ele>14</ele>
        <time>2018-01-08T07:23:50Z</time>
      </trkpt>
      <trkpt lat="46.64204" lon="-1.89084">
        <ele>14</ele>
        <time>2018-01-08T07:24:50Z</time>
      </trkpt>
      <trkpt lat="46.6421" lon="-1.89074">
        <ele>14</ele>
        <time>2018-01-08T07:25:50Z</time>
      </trkpt>
      <trkpt lat="46.64214" lon="-1.89064">
        <ele>14</ele>
        <time>2018-01-08T07:26:50Z</time>
      </trkpt>
      <trkpt lat="46.64217" lon="-1.8905">
        <ele>14</ele>
        <time>2018-01-08T07:27:50Z</time>
      </trkpt>
      <trkpt lat="46.6422" lon="-1.89043">
        <ele>14</ele>
        <time>2018-01-08T07:28:50Z</time>
      </trkpt>
      <trkpt lat="46.6422" lon="-1.89043">
        <ele>14</ele>
        <time>2018-01-08T07:29:50Z</time>
      </trkpt>
      <trkpt lat="46.64223" lon="-1.89041">
        <ele>15</ele>
        <time>2018-01-08T07:30:50Z</time>
      </trkpt>
      <trkpt lat="46.64228" lon="-1.89041">
        <ele>15</ele>
        <time>2018-01-08T07:31:50Z</time>
      </trkpt>
      <trkpt lat="46.64233" lon="-1.89042">
        <ele>15</ele>
        <time>2018-01-08T07:32:50Z</time>
      </trkpt>
      <trkpt lat="46.64238" lon="-1.89043">
        <ele>15</ele>
        <time>2018-01-08T07:33:50Z</time>
      </trkpt>
      <trkpt lat="46.64241" lon="-1.89043">
        <ele>15</ele>
        <time>2018-01-08T07:34:50Z</time>
      </trkpt>
      <trkpt lat="46.64254" lon="-1.89044">
        <ele>15</ele>
        <time>2018-01-08T07:35:50Z</time>
      </trkpt>
      <trkpt lat="46.64266" lon="-1.89045">
        <ele>15</ele>
        <time>2018-01-08T07:36:50Z</time>
      </trkpt>
      <trkpt lat="46.64272" lon="-1.89045">
        <ele>15</ele>
        <time>2018-01-08T07:37:50Z</time>
      </trkpt>
      <trkpt lat="46.64288" lon="-1.89044">
        <ele>15</ele>
        <time>2018-01-08T07:38:50Z</time>
      </trkpt>
      <trkpt lat="46.64302" lon="-1.89042">
        <ele>15</ele>
        <time>2018-01-08T07:39:50Z</time>
      </trkpt>
      <trkpt lat="46.64322" lon="-1.89039">
        <ele>15</ele>
        <time>2018-01-08T07:40:50Z</time>
      </trkpt>
      <trkpt lat="46.64346" lon="-1.89036">
        <ele>15</ele>
        <time>2018-01-08T07:41:50Z</time>
      </trkpt>
      <trkpt lat="46.64363" lon="-1.89032">
        <ele>15</ele>
        <time>2018-01-08T07:42:50Z</time>
      </trkpt>
      <trkpt lat="46.64389" lon="-1.89028">
        <ele>16</ele>
        <time>2018-01-08T07:43:50Z</time>
      </trkpt>
      <trkpt lat="46.64411" lon="-1.89025">
        <ele>16</ele>
        <time>2018-01-08T07:44:50Z</time>
      </trkpt>
      <trkpt lat="46.6442" lon="-1.89024">
        <ele>16</ele>
        <time>2018-01-08T07:45:50Z</time>
      </trkpt>
      <trkpt lat="46.64431" lon="-1.89023">
        <ele>16</ele>
        <time>2018-01-08T07:46:50Z</time>
      </trkpt>
      <trkpt lat="46.64446" lon="-1.89023">
        <ele>16</ele>
        <time>2018-01-08T07:47:50Z</time>
      </trkpt>
      <trkpt lat="46.64463" lon="-1.89023">
        <ele>16</ele>
        <time>2018-01-08T07:48:50Z</time>
      </trkpt>
      <trkpt lat="46.64476" lon="-1.89024">
        <ele>16</ele>
        <time>2018-01-08T07:49:50Z</time>
      </trkpt>
      <trkpt lat="46.64478" lon="-1.89024">
        <ele>16</ele>
        <time>2018-01-08T07:50:50Z</time>
      </trkpt>
      <trkpt lat="46.64492" lon="-1.89026">
        <ele>16</ele>
        <time>2018-01-08T07:51:50Z</time>
      </trkpt>
      <trkpt lat="46.64508" lon="-1.8903">
        <ele>16</ele>
        <time>2018-01-08T07:52:50Z</time>
      </trkpt>
      <trkpt lat="46.64521" lon="-1.89032">
        <ele>16</ele>
        <time>2018-01-08T07:53:50Z</time>
      </trkpt>
      <trkpt lat="46.64531" lon="-1.89032">
        <ele>16</ele>
        <time>2018-01-08T07:54:50Z</time>
      </trkpt>
      <trkpt lat="46.64538" lon="-1.89032">
        <ele>16</ele>
        <time>2018-01-08T07:55:50Z</time>
      </trkpt>
      <trkpt lat="46.6455" lon="-1.8903">
        <ele>16</ele>
        <time>2018-01-08T07:56:50Z</time>
      </trkpt>
      <trkpt lat="46.64567" lon="-1.89029">
        <ele>16</ele>
        <time>2018-01-08T07:57:50Z</time>
      </trkpt>
      <trkpt lat="46.64572" lon="-1.89028">
        <ele>16</ele>
        <time>2018-01-08T07:58:50Z</time>
      </trkpt>
      <trkpt lat="46.64578" lon="-1.89025">
        <ele>16</ele>
        <time>2018-01-08T07:59:50Z</time>
      </trkpt>
      <trkpt lat="46.64592" lon="-1.89011">
        <ele>15</ele>
        <time>2018-01-08T08:00:50Z</time>
      </trkpt>
      <trkpt lat="46.64592" lon="-1.89011">
        <ele>15</ele>
        <time>2018-01-08T08:01:50Z</time>
      </trkpt>
      <trkpt lat="46.64592" lon="-1.8901">
        <ele>15</ele>
        <time>2018-01-08T08:02:50Z</time>
      </trkpt>
      <trkpt lat="46.64592" lon="-1.89009">
        <ele>15</ele>
        <time>2018-01-08T08:03:50Z</time>
      </trkpt>
      <trkpt lat="46.64592" lon="-1.89008">
        <ele>15</ele>
        <time>2018-01-08T08:04:50Z</time>
      </trkpt>
      <trkpt lat="46.64592" lon="-1.89007">
        <ele>15</ele>
        <time>2018-01-08T08:05:50Z</time>
      </trkpt>
      <trkpt lat="46.64592" lon="-1.89006">
        <ele>15</ele>
        <time>2018-01-08T08:06:50Z</time>
      </trkpt>
      <trkpt lat="46.64592" lon="-1.89005">
        <ele>15</ele>
        <time>2018-01-08T08:07:50Z</time>
      </trkpt>
      <trkpt lat="46.64592" lon="-1.89004">
        <ele>15</ele>
        <time>2018-01-08T08:08:50Z</time>
      </trkpt>
      <trkpt lat="46.64593" lon="-1.89003">
        <ele>15</ele>
        <time>2018-01-08T08:09:50Z</time>
      </trkpt>
      <trkpt lat="46.64593" lon="-1.89002">
        <ele>15</ele>
        <time>2018-01-08T08:10:50Z</time>
      </trkpt>
      <trkpt lat="46.64593" lon="-1.89001">
        <ele>15</ele>
        <time>2018-01-08T08:11:50Z</time>
      </trkpt>
      <trkpt lat="46.64594" lon="-1.89001">
        <ele>15</ele>
        <time>2018-01-08T08:12:50Z</time>
      </trkpt>
      <trkpt lat="46.64594" lon="-1.89">
        <ele>15</ele>
        <time>2018-01-08T08:13:50Z</time>
      </trkpt>
      <trkpt lat="46.64595" lon="-1.88999">
        <ele>15</ele>
        <time>2018-01-08T08:14:50Z</time>
      </trkpt>
      <trkpt lat="46.64596" lon="-1.88998">
        <ele>15</ele>
        <time>2018-01-08T08:15:50Z</time>
      </trkpt>
      <trkpt lat="46.64597" lon="-1.88997">
        <ele>15</ele>
        <time>2018-01-08T08:16:50Z</time>
      </trkpt>
      <trkpt lat="46.64598" lon="-1.88997">
        <ele>15</ele>
        <time>2018-01-08T08:17:50Z</time>
      </trkpt>
      <trkpt lat="46.64599" lon="-1.88997">
        <ele>15</ele>
        <time>2018-01-08T08:18:50Z</time>
      </trkpt>
      <trkpt lat="46.64599" lon="-1.88996">
        <ele>15</ele>
        <time>2018-01-08T08:19:50Z</time>
      </trkpt>
      <trkpt lat="46.646" lon="-1.88996">
        <ele>15</ele>
        <time>2018-01-08T08:20:50Z</time>
      </trkpt>
      <trkpt lat="46.64601" lon="-1.88996">
        <ele>15</ele>
        <time>2018-01-08T08:21:50Z</time>
      </trkpt>
      <trkpt lat="46.64601" lon="-1.88997">
        <ele>15</ele>
        <time>2018-01-08T08:22:50Z</time>
      </trkpt>
      <trkpt lat="46.64602" lon="-1.88997">
        <ele>15</ele>
        <time>2018-01-08T08:23:50Z</time>
      </trkpt>
      <trkpt lat="46.64603" lon="-1.88997">
        <ele>15</ele>
        <time>2018-01-08T08:24:50Z</time>
      </trkpt>
      <trkpt lat="46.64604" lon="-1.88997">
        <ele>15</ele>
        <time>2018-01-08T08:25:50Z</time>
      </trkpt>
      <trkpt lat="46.64604" lon="-1.88998">
        <ele>15</ele>
        <time>2018-01-08T08:26:50Z</time>
      </trkpt>
      <trkpt lat="46.64605" lon="-1.88998">
        <ele>15</ele>
        <time>2018-01-08T08:27:50Z</time>
      </trkpt>
      <trkpt lat="46.64605" lon="-1.88999">
        <ele>15</ele>
        <time>2018-01-08T08:28:50Z</time>
      </trkpt>
      <trkpt lat="46.64606" lon="-1.88999">
        <ele>15</ele>
        <time>2018-01-08T08:29:50Z</time>
      </trkpt>
      <trkpt lat="46.64606" lon="-1.89">
        <ele>15</ele>
        <time>2018-01-08T08:30:50Z</time>
      </trkpt>
      <trkpt lat="46.64607" lon="-1.89001">
        <ele>15</ele>
        <time>2018-01-08T08:31:50Z</time>
      </trkpt>
      <trkpt lat="46.64607" lon="-1.89002">
        <ele>15</ele>
        <time>2018-01-08T08:32:50Z</time>
      </trkpt>
      <trkpt lat="46.64608" lon="-1.89003">
        <ele>15</ele>
        <time>2018-01-08T08:33:50Z</time>
      </trkpt>
      <trkpt lat="46.64608" lon="-1.89004">
        <ele>15</ele>
        <time>2018-01-08T08:34:50Z</time>
      </trkpt>
      <trkpt lat="46.64608" lon="-1.89005">
        <ele>15</ele>
        <time>2018-01-08T08:35:50Z</time>
      </trkpt>
      <trkpt lat="46.64608" lon="-1.89006">
        <ele>15</ele>
        <time>2018-01-08T08:36:50Z</time>
      </trkpt>
      <trkpt lat="46.64609" lon="-1.89007">
        <ele>15</ele>
        <time>2018-01-08T08:37:50Z</time>
      </trkpt>
      <trkpt lat="46.64611" lon="-1.89011">
        <ele>16</ele>
        <time>2018-01-08T08:38:50Z</time>
      </trkpt>
      <trkpt lat="46.64613" lon="-1.89013">
        <ele>16</ele>
        <time>2018-01-08T08:39:50Z</time>
      </trkpt>
      <trkpt lat="46.64616" lon="-1.89017">
        <ele>16</ele>
        <time>2018-01-08T08:40:50Z</time>
      </trkpt>
      <trkpt lat="46.64618" lon="-1.89018">
        <ele>16</ele>
        <time>2018-01-08T08:41:50Z</time>
      </trkpt>
      <trkpt lat="46.64619" lon="-1.8902">
        <ele>16</ele>
        <time>2018-01-08T08:42:50Z</time>
      </trkpt>
      <trkpt lat="46.64626" lon="-1.89025">
        <ele>16</ele>
        <time>2018-01-08T08:43:50Z</time>
      </trkpt>
      <trkpt lat="46.64633" lon="-1.89029">
        <ele>16</ele>
        <time>2018-01-08T08:44:50Z</time>
      </trkpt>
      <trkpt lat="46.6464" lon="-1.89033">
        <ele>16</ele>
        <time>2018-01-08T08:45:50Z</time>
      </trkpt>
      <trkpt lat="46.64641" lon="-1.89034">
        <ele>16</ele>
        <time>2018-01-08T08:46:50Z</time>
      </trkpt>
      <trkpt lat="46.64656" lon="-1.89043">
        <ele>16</ele>
        <time>2018-01-08T08:47:50Z</time>
      </trkpt>
      <trkpt lat="46.64658" lon="-1.89044">
        <ele>16</ele>
        <time>2018-01-08T08:48:50Z</time>
      </trkpt>
      <trkpt lat="46.64666" lon="-1.89048">
        <ele>17</ele>
        <time>2018-01-08T08:49:50Z</time>
      </trkpt>
      <trkpt lat="46.64673" lon="-1.89055">
        <ele>17</ele>
        <time>2018-01-08T08:50:50Z</time>
      </trkpt>
      <trkpt lat="46.64692" lon="-1.89065">
        <ele>17</ele>
        <time>2018-01-08T08:51:50Z</time>
      </trkpt>
      <trkpt lat="46.64722" lon="-1.8908">
        <ele>18</ele>
        <time>2018-01-08T08:52:50Z</time>
      </trkpt>
      <trkpt lat="46.64754" lon="-1.89098">
        <ele>18</ele>
        <time>2018-01-08T08:53:50Z</time>
      </trkpt>
      <trkpt lat="46.64788" lon="-1.89116">
        <ele>18</ele>
        <time>2018-01-08T08:54:50Z</time>
      </trkpt>
      <trkpt lat="46.64822" lon="-1.89134">
        <ele>17</ele>
        <time>2018-01-08T08:55:50Z</time>
      </trkpt>
      <trkpt lat="46.6486" lon="-1.89155">
        <ele>17</ele>
        <time>2018-01-08T08:56:50Z</time>
      </trkpt>
      <trkpt lat="46.6489" lon="-1.89171">
        <ele>16</ele>
        <time>2018-01-08T08:57:50Z</time>
      </trkpt>
      <trkpt lat="46.6496" lon="-1.89207">
        <ele>15</ele>
        <time>2018-01-08T08:58:50Z</time>
      </trkpt>
      <trkpt lat="46.65005" lon="-1.89232">
        <ele>14</ele>
        <time>2018-01-08T08:59:50Z</time>
      </trkpt>
      <trkpt lat="46.65045" lon="-1.89253">
        <ele>13</ele>
        <time>2018-01-08T09:00:50Z</time>
      </trkpt>
      <trkpt lat="46.65124" lon="-1.89296">
        <ele>12</ele>
        <time>2018-01-08T09:01:50Z</time>
      </trkpt>
      <trkpt lat="46.65156" lon="-1.89313">
        <ele>11</ele>
        <time>2018-01-08T09:02:50Z</time>
      </trkpt>
      <trkpt lat="46.65193" lon="-1.89334">
        <ele>9</ele>
        <time>2018-01-08T09:03:50Z</time>
      </trkpt>
      <trkpt lat="46.65215" lon="-1.89348">
        <ele>8</ele>
        <time>2018-01-08T09:04:50Z</time>
      </trkpt>
      <trkpt lat="46.65231" lon="-1.89359">
        <ele>7</ele>
        <time>2018-01-08T09:05:50Z</time>
      </trkpt>
      <trkpt lat="46.6525" lon="-1.89376">
        <ele>6</ele>
        <time>2018-01-08T09:06:50Z</time>
      </trkpt>
      <trkpt lat="46.65265" lon="-1.89391">
        <ele>6</ele>
        <time>2018-01-08T09:07:50Z</time>
      </trkpt>
      <trkpt lat="46.65293" lon="-1.8942">
        <ele>6</ele>
        <time>2018-01-08T09:08:50Z</time>
      </trkpt>
      <trkpt lat="46.65301" lon="-1.89425">
        <ele>5</ele>
        <time>2018-01-08T09:09:50Z</time>
      </trkpt>
      <trkpt lat="46.65345" lon="-1.89471">
        <ele>6</ele>
        <time>2018-01-08T09:10:50Z</time>
      </trkpt>
      <trkpt lat="46.65361" lon="-1.89488">
        <ele>6</ele>
        <time>2018-01-08T09:11:50Z</time>
      </trkpt>
      <trkpt lat="46.65369" lon="-1.89496">
        <ele>6</ele>
        <time>2018-01-08T09:12:50Z</time>
      </trkpt>
      <trkpt lat="46.65414" lon="-1.89536">
        <ele>7</ele>
        <time>2018-01-08T09:13:50Z</time>
      </trkpt>
      <trkpt lat="46.65449" lon="-1.89567">
        <ele>7</ele>
        <time>2018-01-08T09:14:50Z</time>
      </trkpt>
      <trkpt lat="46.65489" lon="-1.89598">
        <ele>8</ele>
        <time>2018-01-08T09:15:50Z</time>
      </trkpt>
      <trkpt lat="46.65541" lon="-1.89637">
        <ele>7</ele>
        <time>2018-01-08T09:16:50Z</time>
      </trkpt>
      <trkpt lat="46.65546" lon="-1.89643">
        <ele>7</ele>
        <time>2018-01-08T09:17:50Z</time>
      </trkpt>
      <trkpt lat="46.65631" lon="-1.89698">
        <ele>8</ele>
        <time>2018-01-08T09:18:50Z</time>
      </trkpt>
      <trkpt lat="46.65759" lon="-1.89784">
        <ele>8</ele>
        <time>2018-01-08T09:19:50Z</time>
      </trkpt>
      <trkpt lat="46.65878" lon="-1.8986">
        <ele>7</ele>
        <time>2018-01-08T09:20:50Z</time>
      </trkpt>
      <trkpt lat="46.65944" lon="-1.89901">
        <ele>7</ele>
        <time>2018-01-08T09:21:50Z</time>
      </trkpt>
      <trkpt lat="46.65958" lon="-1.89911">
        <ele>6</ele>
        <time>2018-01-08T09:22:50Z</time>
      </trkpt>
      <trkpt lat="46.65975" lon="-1.89922">
        <ele>7</ele>
        <time>2018-01-08T09:23:50Z</time>
      </trkpt>
      <trkpt lat="46.66028" lon="-1.89956">
        <ele>8</ele>
        <time>2018-01-08T09:24:50Z</time>
      </trkpt>
      <trkpt lat="46.66074" lon="-1.89986">
        <ele>7</ele>
        <time>2018-01-08T09:25:50Z</time>
      </trkpt>
      <trkpt lat="46.6609" lon="-1.89996">
        <ele>7</ele>
        <time>2018-01-08T09:26:50Z</time>
      </trkpt>
      <trkpt lat="46.66116" lon="-1.90011">
        <ele>6</ele>
        <time>2018-01-08T09:27:50Z</time>
      </trkpt>
      <trkpt lat="46.6615" lon="-1.90033">
        <ele>5</ele>
        <time>2018-01-08T09:28:50Z</time>
      </trkpt>
      <trkpt lat="46.66183" lon="-1.90053">
        <ele>4</ele>
        <time>2018-01-08T09:29:50Z</time>
      </trkpt>
      <trkpt lat="46.66205" lon="-1.90067">
        <ele>3</ele>
        <time>2018-01-08T09:30:50Z</time>
      </trkpt>
      <trkpt lat="46.66216" lon="-1.90073">
        <ele>3</ele>
        <time>2018-01-08T09:31:50Z</time>
      </trkpt>
      <trkpt lat="46.66223" lon="-1.90077">
        <ele>3</ele>
        <time>2018-01-08T09:32:50Z</time>
      </trkpt>
      <trkpt lat="46.66229" lon="-1.9008">
        <ele>3</ele>
        <time>2018-01-08T09:33:50Z</time>
      </trkpt>
      <trkpt lat="46.66237" lon="-1.90084">
        <ele>2</ele>
        <time>2018-01-08T09:34:50Z</time>
      </trkpt>
      <trkpt lat="46.66244" lon="-1.90087">
        <ele>2</ele>
        <time>2018-01-08T09:35:50Z</time>
      </trkpt>
      <trkpt lat="46.66251" lon="-1.90089">
        <ele>2</ele>
        <time>2018-01-08T09:36:50Z</time>
      </trkpt>
      <trkpt lat="46.66254" lon="-1.90091">
        <ele>2</ele>
        <time>2018-01-08T09:37:50Z</time>
      </trkpt>
      <trkpt lat="46.66258" lon="-1.90092">
        <ele>2</ele>
        <time>2018-01-08T09:38:50Z</time>
      </trkpt>
      <trkpt lat="46.66265" lon="-1.90094">
        <ele>2</ele>
        <time>2018-01-08T09:39:50Z</time>
      </trkpt>
      <trkpt lat="46.66278" lon="-1.90097">
        <ele>2</ele>
        <time>2018-01-08T09:40:50Z</time>
      </trkpt>
      <trkpt lat="46.66301" lon="-1.90103">
        <ele>1</ele>
        <time>2018-01-08T09:41:50Z</time>
      </trkpt>
      <trkpt lat="46.66328" lon="-1.90109">
        <ele>1</ele>
        <time>2018-01-08T09:42:50Z</time>
      </trkpt>
      <trkpt lat="46.66335" lon="-1.90111">
        <ele>1</ele>
        <time>2018-01-08T09:43:50Z</time>
      </trkpt>
      <trkpt lat="46.66342" lon="-1.90113">
        <ele>1</ele>
        <time>2018-01-08T09:44:50Z</time>
      </trkpt>
      <trkpt lat="46.66354" lon="-1.90116">
        <ele>1</ele>
        <time>2018-01-08T09:45:50Z</time>
      </trkpt>
      <trkpt lat="46.6636" lon="-1.90117">
        <ele>1</ele>
        <time>2018-01-08T09:46:50Z</time>
      </trkpt>
      <trkpt lat="46.66365" lon="-1.90118">
        <ele>1</ele>
        <time>2018-01-08T09:47:50Z</time>
      </trkpt>
      <trkpt lat="46.66457" lon="-1.90141">
        <ele>3</ele>
        <time>2018-01-08T09:48:50Z</time>
      </trkpt>
      <trkpt lat="46.66556" lon="-1.90164">
        <ele>3</ele>
        <time>2018-01-08T09:49:50Z</time>
      </trkpt>
      <trkpt lat="46.66598" lon="-1.90175">
        <ele>4</ele>
        <time>2018-01-08T09:50:50Z</time>
      </trkpt>
      <trkpt lat="46.66644" lon="-1.90186">
        <ele>5</ele>
        <time>2018-01-08T09:51:50Z</time>
      </trkpt>
      <trkpt lat="46.66651" lon="-1.90186">
        <ele>5</ele>
        <time>2018-01-08T09:52:50Z</time>
      </trkpt>
      <trkpt lat="46.66727" lon="-1.90202">
        <ele>6</ele>
        <time>2018-01-08T09:53:50Z</time>
      </trkpt>
      <trkpt lat="46.66748" lon="-1.90207">
        <ele>6</ele>
        <time>2018-01-08T09:54:50Z</time>
      </trkpt>
      <trkpt lat="46.66755" lon="-1.90209">
        <ele>5</ele>
        <time>2018-01-08T09:55:50Z</time>
      </trkpt>
      <trkpt lat="46.66772" lon="-1.90213">
        <ele>5</ele>
        <time>2018-01-08T09:56:50Z</time>
      </trkpt>
      <trkpt lat="46.66799" lon="-1.90219">
        <ele>5</ele>
        <time>2018-01-08T09:57:50Z</time>
      </trkpt>
      <trkpt lat="46.66818" lon="-1.90224">
        <ele>5</ele>
        <time>2018-01-08T09:58:50Z</time>
      </trkpt>
      <trkpt lat="46.66831" lon="-1.90229">
        <ele>5</ele>
        <time>2018-01-08T09:59:50Z</time>
      </trkpt>
      <trkpt lat="46.66842" lon="-1.90233">
        <ele>5</ele>
        <time>2018-01-08T10:00:50Z</time>
      </trkpt>
      <trkpt lat="46.66848" lon="-1.90237">
        <ele>5</ele>
        <time>2018-01-08T10:01:50Z</time>
      </trkpt>
      <trkpt lat="46.66863" lon="-1.90243">
        <ele>5</ele>
        <time>2018-01-08T10:02:50Z</time>
      </trkpt>
      <trkpt lat="46.66868" lon="-1.90245">
        <ele>5</ele>
        <time>2018-01-08T10:03:50Z</time>
      </trkpt>
      <trkpt lat="46.66874" lon="-1.90248">
        <ele>5</ele>
        <time>2018-01-08T10:04:50Z</time>
      </trkpt>
      <trkpt lat="46.66878" lon="-1.90251">
        <ele>5</ele>
        <time>2018-01-08T10:05:50Z</time>
      </trkpt>
      <trkpt lat="46.66883" lon="-1.90253">
        <ele>5</ele>
        <time>2018-01-08T10:06:50Z</time>
      </trkpt>
      <trkpt lat="46.66887" lon="-1.90256">
        <ele>5</ele>
        <time>2018-01-08T10:07:50Z</time>
      </trkpt>
      <trkpt lat="46.66891" lon="-1.90258">
        <ele>5</ele>
        <time>2018-01-08T10:08:50Z</time>
      </trkpt>
      <trkpt lat="46.66895" lon="-1.90261">
        <ele>5</ele>
        <time>2018-01-08T10:09:50Z</time>
      </trkpt>
      <trkpt lat="46.66902" lon="-1.90265">
        <ele>5</ele>
        <time>2018-01-08T10:10:50Z</time>
      </trkpt>
      <trkpt lat="46.66908" lon="-1.90269">
        <ele>5</ele>
        <time>2018-01-08T10:11:50Z</time>
      </trkpt>
      <trkpt lat="46.66913" lon="-1.90272">
        <ele>5</ele>
        <time>2018-01-08T10:12:50Z</time>
      </trkpt>
      <trkpt lat="46.66917" lon="-1.90275">
        <ele>5</ele>
        <time>2018-01-08T10:13:50Z</time>
      </trkpt>
      <trkpt lat="46.66922" lon="-1.90279">
        <ele>5</ele>
        <time>2018-01-08T10:14:50Z</time>
      </trkpt>
      <trkpt lat="46.66926" lon="-1.90283">
        <ele>5</ele>
        <time>2018-01-08T10:15:50Z</time>
      </trkpt>
      <trkpt lat="46.66936" lon="-1.90291">
        <ele>5</ele>
        <time>2018-01-08T10:16:50Z</time>
      </trkpt>
      <trkpt lat="46.66953" lon="-1.90302">
        <ele>5</ele>
        <time>2018-01-08T10:17:50Z</time>
      </trkpt>
      <trkpt lat="46.66954" lon="-1.90303">
        <ele>5</ele>
        <time>2018-01-08T10:18:50Z</time>
      </trkpt>
      <trkpt lat="46.66956" lon="-1.90304">
        <ele>5</ele>
        <time>2018-01-08T10:19:50Z</time>
      </trkpt>
      <trkpt lat="46.66957" lon="-1.90304">
        <ele>5</ele>
        <time>2018-01-08T10:20:50Z</time>
      </trkpt>
      <trkpt lat="46.66957" lon="-1.90305">
        <ele>5</ele>
        <time>2018-01-08T10:21:50Z</time>
      </trkpt>
      <trkpt lat="46.66958" lon="-1.90305">
        <ele>5</ele>
        <time>2018-01-08T10:22:50Z</time>
      </trkpt>
      <trkpt lat="46.66959" lon="-1.90305">
        <ele>5</ele>
        <time>2018-01-08T10:23:50Z</time>
      </trkpt>
      <trkpt lat="46.66962" lon="-1.90306">
        <ele>5</ele>
        <time>2018-01-08T10:24:50Z</time>
      </trkpt>
      <trkpt lat="46.66976" lon="-1.9031">
        <ele>6</ele>
        <time>2018-01-08T10:25:50Z</time>
      </trkpt>
      <trkpt lat="46.66976" lon="-1.9031">
        <ele>6</ele>
        <time>2018-01-08T10:26:50Z</time>
      </trkpt>
      <trkpt lat="46.66976" lon="-1.90309">
        <ele>6</ele>
        <time>2018-01-08T10:27:50Z</time>
      </trkpt>
      <trkpt lat="46.66977" lon="-1.90309">
        <ele>6</ele>
        <time>2018-01-08T10:28:50Z</time>
      </trkpt>
      <trkpt lat="46.66978" lon="-1.90309">
        <ele>6</ele>
        <time>2018-01-08T10:29:50Z</time>
      </trkpt>
      <trkpt lat="46.66978" lon="-1.90308">
        <ele>6</ele>
        <time>2018-01-08T10:30:50Z</time>
      </trkpt>
      <trkpt lat="46.6698" lon="-1.90308">
        <ele>6</ele>
        <time>2018-01-08T10:31:50Z</time>
      </trkpt>
      <trkpt lat="46.66981" lon="-1.90307">
        <ele>6</ele>
        <time>2018-01-08T10:32:50Z</time>
      </trkpt>
      <trkpt lat="46.66982" lon="-1.90307">
        <ele>6</ele>
        <time>2018-01-08T10:33:50Z</time>
      </trkpt>
      <trkpt lat="46.66983" lon="-1.90306">
        <ele>6</ele>
        <time>2018-01-08T10:34:50Z</time>
      </trkpt>
      <trkpt lat="46.66984" lon="-1.90306">
        <ele>6</ele>
        <time>2018-01-08T10:35:50Z</time>
      </trkpt>
      <trkpt lat="46.66986" lon="-1.90306">
        <ele>6</ele>
        <time>2018-01-08T10:36:50Z</time>
      </trkpt>
      <trkpt lat="46.66987" lon="-1.90306">
        <ele>6</ele>
        <time>2018-01-08T10:37:50Z</time>
      </trkpt>
      <trkpt lat="46.66988" lon="-1.90307">
        <ele>6</ele>
        <time>2018-01-08T10:38:50Z</time>
      </trkpt>
      <trkpt lat="46.66989" lon="-1.90307">
        <ele>6</ele>
        <time>2018-01-08T10:39:50Z</time>
      </trkpt>
      <trkpt lat="46.66991" lon="-1.90308">
        <ele>6</ele>
        <time>2018-01-08T10:40:50Z</time>
      </trkpt>
      <trkpt lat="46.66992" lon="-1.90308">
        <ele>6</ele>
        <time>2018-01-08T10:41:50Z</time>
      </trkpt>
      <trkpt lat="46.66993" lon="-1.90309">
        <ele>6</ele>
        <time>2018-01-08T10:42:50Z</time>
      </trkpt>
      <trkpt lat="46.66995" lon="-1.90311">
        <ele>6</ele>
        <time>2018-01-08T10:43:50Z</time>
      </trkpt>
      <trkpt lat="46.66996" lon="-1.90311">
        <ele>6</ele>
        <time>2018-01-08T10:44:50Z</time>
      </trkpt>
      <trkpt lat="46.66996" lon="-1.90312">
        <ele>6</ele>
        <time>2018-01-08T10:45:50Z</time>
      </trkpt>
      <trkpt lat="46.66997" lon="-1.90313">
        <ele>6</ele>
        <time>2018-01-08T10:46:50Z</time>
      </trkpt>
      <trkpt lat="46.66997" lon="-1.90314">
        <ele>6</ele>
        <time>2018-01-08T10:47:50Z</time>
      </trkpt>
      <trkpt lat="46.66998" lon="-1.90315">
        <ele>6</ele>
        <time>2018-01-08T10:48:50Z</time>
      </trkpt>
      <trkpt lat="46.66998" lon="-1.90316">
        <ele>6</ele>
        <time>2018-01-08T10:49:50Z</time>
      </trkpt>
      <trkpt lat="46.66999" lon="-1.90317">
        <ele>6</ele>
        <time>2018-01-08T10:50:50Z</time>
      </trkpt>
      <trkpt lat="46.66999" lon="-1.90318">
        <ele>6</ele>
        <time>2018-01-08T10:51:50Z</time>
      </trkpt>
      <trkpt lat="46.67" lon="-1.90319">
        <ele>6</ele>
        <time>2018-01-08T10:52:50Z</time>
      </trkpt>
      <trkpt lat="46.67001" lon="-1.90321">
        <ele>6</ele>
        <time>2018-01-08T10:53:50Z</time>
      </trkpt>
      <trkpt lat="46.67001" lon="-1.90322">
        <ele>6</ele>
        <time>2018-01-08T10:54:50Z</time>
      </trkpt>
      <trkpt lat="46.67001" lon="-1.90324">
        <ele>6</ele>
        <time>2018-01-08T10:55:50Z</time>
      </trkpt>
      <trkpt lat="46.67002" lon="-1.90326">
        <ele>6</ele>
        <time>2018-01-08T10:56:50Z</time>
      </trkpt>
      <trkpt lat="46.67002" lon="-1.90328">
        <ele>6</ele>
        <time>2018-01-08T10:57:50Z</time>
      </trkpt>
      <trkpt lat="46.67002" lon="-1.9033">
        <ele>6</ele>
        <time>2018-01-08T10:58:50Z</time>
      </trkpt>
      <trkpt lat="46.67002" lon="-1.90332">
        <ele>6</ele>
        <time>2018-01-08T10:59:50Z</time>
      </trkpt>
      <trkpt lat="46.67002" lon="-1.90333">
        <ele>6</ele>
        <time>2018-01-08T11:00:50Z</time>
      </trkpt>
      <trkpt lat="46.67002" lon="-1.90335">
        <ele>6</ele>
        <time>2018-01-08T11:01:50Z</time>
      </trkpt>
      <trkpt lat="46.67001" lon="-1.90337">
        <ele>6</ele>
        <time>2018-01-08T11:02:50Z</time>
      </trkpt>
      <trkpt lat="46.67001" lon="-1.90339">
        <ele>6</ele>
        <time>2018-01-08T11:03:50Z</time>
      </trkpt>
      <trkpt lat="46.67001" lon="-1.9034">
        <ele>6</ele>
        <time>2018-01-08T11:04:50Z</time>
      </trkpt>
      <trkpt lat="46.67001" lon="-1.90341">
        <ele>6</ele>
        <time>2018-01-08T11:05:50Z</time>
      </trkpt>
      <trkpt lat="46.67" lon="-1.90342">
        <ele>6</ele>
        <time>2018-01-08T11:06:50Z</time>
      </trkpt>
      <trkpt lat="46.67" lon="-1.90343">
        <ele>6</ele>
        <time>2018-01-08T11:07:50Z</time>
      </trkpt>
      <trkpt lat="46.67" lon="-1.90344">
        <ele>6</ele>
        <time>2018-01-08T11:08:50Z</time>
      </trkpt>
      <trkpt lat="46.67" lon="-1.90345">
        <ele>6</ele>
        <time>2018-01-08T11:09:50Z</time>
      </trkpt>
      <trkpt lat="46.67" lon="-1.90351">
        <ele>6</ele>
        <time>2018-01-08T11:10:50Z</time>
      </trkpt>
      <trkpt lat="46.67001" lon="-1.90365">
        <ele>6</ele>
        <time>2018-01-08T11:11:50Z</time>
      </trkpt>
      <trkpt lat="46.67001" lon="-1.90368">
        <ele>6</ele>
        <time>2018-01-08T11:12:50Z</time>
      </trkpt>
      <trkpt lat="46.67002" lon="-1.9037">
        <ele>6</ele>
        <time>2018-01-08T11:13:50Z</time>
      </trkpt>
      <trkpt lat="46.67002" lon="-1.90373">
        <ele>6</ele>
        <time>2018-01-08T11:14:50Z</time>
      </trkpt>
      <trkpt lat="46.67003" lon="-1.90375">
        <ele>6</ele>
        <time>2018-01-08T11:15:50Z</time>
      </trkpt>
      <trkpt lat="46.67004" lon="-1.90378">
        <ele>6</ele>
        <time>2018-01-08T11:16:50Z</time>
      </trkpt>
      <trkpt lat="46.67006" lon="-1.9038">
        <ele>6</ele>
        <time>2018-01-08T11:17:50Z</time>
      </trkpt>
      <trkpt lat="46.67007" lon="-1.90383">
        <ele>5</ele>
        <time>2018-01-08T11:18:50Z</time>
      </trkpt>
      <trkpt lat="46.67009" lon="-1.90386">
        <ele>5</ele>
        <time>2018-01-08T11:19:50Z</time>
      </trkpt>
      <trkpt lat="46.67012" lon="-1.9039">
        <ele>5</ele>
        <time>2018-01-08T11:20:50Z</time>
      </trkpt>
      <trkpt lat="46.67021" lon="-1.90401">
        <ele>5</ele>
        <time>2018-01-08T11:21:50Z</time>
      </trkpt>
      <trkpt lat="46.67034" lon="-1.90417">
        <ele>5</ele>
        <time>2018-01-08T11:22:50Z</time>
      </trkpt>
      <trkpt lat="46.67059" lon="-1.90451">
        <ele>5</ele>
        <time>2018-01-08T11:23:50Z</time>
      </trkpt>
      <trkpt lat="46.671" lon="-1.90508">
        <ele>5</ele>
        <time>2018-01-08T11:24:50Z</time>
      </trkpt>
      <trkpt lat="46.67105" lon="-1.90518">
        <ele>5</ele>
        <time>2018-01-08T11:25:50Z</time>
      </trkpt>
      <trkpt lat="46.67166" lon="-1.90604">
        <ele>5</ele>
        <time>2018-01-08T11:26:50Z</time>
      </trkpt>
      <trkpt lat="46.67205" lon="-1.90658">
        <ele>4</ele>
        <time>2018-01-08T11:27:50Z</time>
      </trkpt>
      <trkpt lat="46.67226" lon="-1.90688">
        <ele>4</ele>
        <time>2018-01-08T11:28:50Z</time>
      </trkpt>
      <trkpt lat="46.67255" lon="-1.90729">
        <ele>3</ele>
        <time>2018-01-08T11:29:50Z</time>
      </trkpt>
      <trkpt lat="46.67282" lon="-1.90767">
        <ele>3</ele>
        <time>2018-01-08T11:30:50Z</time>
      </trkpt>
      <trkpt lat="46.67301" lon="-1.90794">
        <ele>2</ele>
        <time>2018-01-08T11:31:50Z</time>
      </trkpt>
      <trkpt lat="46.67313" lon="-1.9081">
        <ele>2</ele>
        <time>2018-01-08T11:32:50Z</time>
      </trkpt>
      <trkpt lat="46.6732" lon="-1.90819">
        <ele>2</ele>
        <time>2018-01-08T11:33:50Z</time>
      </trkpt>
      <trkpt lat="46.67323" lon="-1.90824">
        <ele>2</ele>
        <time>2018-01-08T11:34:50Z</time>
      </trkpt>
      <trkpt lat="46.67327" lon="-1.90829">
        <ele>2</ele>
        <time>2018-01-08T11:35:50Z</time>
      </trkpt>
      <trkpt lat="46.6733" lon="-1.90833">
        <ele>2</ele>
        <time>2018-01-08T11:36:50Z</time>
      </trkpt>
      <trkpt lat="46.67333" lon="-1.90837">
        <ele>2</ele>
        <time>2018-01-08T11:37:50Z</time>
      </trkpt>
      <trkpt lat="46.67336" lon="-1.9084">
        <ele>2</ele>
        <time>2018-01-08T11:38:50Z</time>
      </trkpt>
      <trkpt lat="46.67339" lon="-1.90844">
        <ele>2</ele>
        <time>2018-01-08T11:39:50Z</time>
      </trkpt>
      <trkpt lat="46.67347" lon="-1.90849">
        <ele>2</ele>
        <time>2018-01-08T11:40:50Z</time>
      </trkpt>
      <trkpt lat="46.67361" lon="-1.90864">
        <ele>2</ele>
        <time>2018-01-08T11:41:50Z</time>
      </trkpt>
      <trkpt lat="46.67381" lon="-1.90883">
        <ele>3</ele>
        <time>2018-01-08T11:42:50Z</time>
      </trkpt>
      <trkpt lat="46.67397" lon="-1.90898">
        <ele>3</ele>
        <time>2018-01-08T11:43:50Z</time>
      </trkpt>
      <trkpt lat="46.674" lon="-1.90901">
        <ele>3</ele>
        <time>2018-01-08T11:44:50Z</time>
      </trkpt>
      <trkpt lat="46.67404" lon="-1.90904">
        <ele>3</ele>
        <time>2018-01-08T11:45:50Z</time>
      </trkpt>
      <trkpt lat="46.67406" lon="-1.90905">
        <ele>3</ele>
        <time>2018-01-08T11:46:50Z</time>
      </trkpt>
      <trkpt lat="46.67409" lon="-1.90906">
        <ele>3</ele>
        <time>2018-01-08T11:47:50Z</time>
      </trkpt>
      <trkpt lat="46.67412" lon="-1.90907">
        <ele>3</ele>
        <time>2018-01-08T11:48:50Z</time>
      </trkpt>
      <trkpt lat="46.67414" lon="-1.90908">
        <ele>3</ele>
        <time>2018-01-08T11:49:50Z</time>
      </trkpt>
      <trkpt lat="46.67417" lon="-1.90909">
        <ele>3</ele>
        <time>2018-01-08T11:50:50Z</time>
      </trkpt>
      <trkpt lat="46.67436" lon="-1.90914">
        <ele>3</ele>
        <time>2018-01-08T11:51:50Z</time>
      </trkpt>
      <trkpt lat="46.67436" lon="-1.90914">
        <ele>3</ele>
        <time>2018-01-08T11:52:50Z</time>
      </trkpt>
      <trkpt lat="46.67438" lon="-1.90914">
        <ele>3</ele>
        <time>2018-01-08T11:53:50Z</time>
      </trkpt>
      <trkpt lat="46.6744" lon="-1.90914">
        <ele>3</ele>
        <time>2018-01-08T11:54:50Z</time>
      </trkpt>
      <trkpt lat="46.67441" lon="-1.90914">
        <ele>3</ele>
        <time>2018-01-08T11:55:50Z</time>
      </trkpt>
      <trkpt lat="46.67443" lon="-1.90915">
        <ele>3</ele>
        <time>2018-01-08T11:56:50Z</time>
      </trkpt>
      <trkpt lat="46.67445" lon="-1.90915">
        <ele>3</ele>
        <time>2018-01-08T11:57:50Z</time>
      </trkpt>
      <trkpt lat="46.67446" lon="-1.90916">
        <ele>3</ele>
        <time>2018-01-08T11:58:50Z</time>
      </trkpt>
      <trkpt lat="46.67448" lon="-1.90917">
        <ele>3</ele>
        <time>2018-01-08T11:59:50Z</time>
      </trkpt>
      <trkpt lat="46.6745" lon="-1.90918">
        <ele>3</ele>
        <time>2018-01-08T12:00:50Z</time>
      </trkpt>
      <trkpt lat="46.67451" lon="-1.9092">
        <ele>3</ele>
        <time>2018-01-08T12:01:50Z</time>
      </trkpt>
      <trkpt lat="46.67452" lon="-1.90922">
        <ele>3</ele>
        <time>2018-01-08T12:02:50Z</time>
      </trkpt>
      <trkpt lat="46.67454" lon="-1.90923">
        <ele>3</ele>
        <time>2018-01-08T12:03:50Z</time>
      </trkpt>
      <trkpt lat="46.67455" lon="-1.90925">
        <ele>4</ele>
        <time>2018-01-08T12:04:50Z</time>
      </trkpt>
      <trkpt lat="46.67456" lon="-1.90927">
        <ele>4</ele>
        <time>2018-01-08T12:05:50Z</time>
      </trkpt>
      <trkpt lat="46.67457" lon="-1.9093">
        <ele>4</ele>
        <time>2018-01-08T12:06:50Z</time>
      </trkpt>
      <trkpt lat="46.67458" lon="-1.90933">
        <ele>4</ele>
        <time>2018-01-08T12:07:50Z</time>
      </trkpt>
      <trkpt lat="46.67458" lon="-1.90936">
        <ele>4</ele>
        <time>2018-01-08T12:08:50Z</time>
      </trkpt>
      <trkpt lat="46.67459" lon="-1.90938">
        <ele>4</ele>
        <time>2018-01-08T12:09:50Z</time>
      </trkpt>
      <trkpt lat="46.67459" lon="-1.90941">
        <ele>4</ele>
        <time>2018-01-08T12:10:50Z</time>
      </trkpt>
      <trkpt lat="46.67459" lon="-1.90943">
        <ele>4</ele>
        <time>2018-01-08T12:11:50Z</time>
      </trkpt>
      <trkpt lat="46.67459" lon="-1.90946">
        <ele>4</ele>
        <time>2018-01-08T12:12:50Z</time>
      </trkpt>
      <trkpt lat="46.67459" lon="-1.90948">
        <ele>4</ele>
        <time>2018-01-08T12:13:50Z</time>
      </trkpt>
      <trkpt lat="46.67458" lon="-1.9095">
        <ele>4</ele>
        <time>2018-01-08T12:14:50Z</time>
      </trkpt>
      <trkpt lat="46.67458" lon="-1.90953">
        <ele>4</ele>
        <time>2018-01-08T12:15:50Z</time>
      </trkpt>
      <trkpt lat="46.67457" lon="-1.90955">
        <ele>4</ele>
        <time>2018-01-08T12:16:50Z</time>
      </trkpt>
      <trkpt lat="46.67456" lon="-1.90957">
        <ele>4</ele>
        <time>2018-01-08T12:17:50Z</time>
      </trkpt>
      <trkpt lat="46.67455" lon="-1.9096">
        <ele>4</ele>
        <time>2018-01-08T12:18:50Z</time>
      </trkpt>
      <trkpt lat="46.67455" lon="-1.90961">
        <ele>4</ele>
        <time>2018-01-08T12:19:50Z</time>
      </trkpt>
      <trkpt lat="46.67454" lon="-1.90962">
        <ele>4</ele>
        <time>2018-01-08T12:20:50Z</time>
      </trkpt>
      <trkpt lat="46.67453" lon="-1.90963">
        <ele>4</ele>
        <time>2018-01-08T12:21:50Z</time>
      </trkpt>
      <trkpt lat="46.67453" lon="-1.90964">
        <ele>4</ele>
        <time>2018-01-08T12:22:50Z</time>
      </trkpt>
      <trkpt lat="46.67452" lon="-1.90965">
        <ele>4</ele>
        <time>2018-01-08T12:23:50Z</time>
      </trkpt>
      <trkpt lat="46.67451" lon="-1.90965">
        <ele>4</ele>
        <time>2018-01-08T12:24:50Z</time>
      </trkpt>
      <trkpt lat="46.67451" lon="-1.90966">
        <ele>4</ele>
        <time>2018-01-08T12:25:50Z</time>
      </trkpt>
      <trkpt lat="46.6745" lon="-1.90967">
        <ele>4</ele>
        <time>2018-01-08T12:26:50Z</time>
      </trkpt>
      <trkpt lat="46.6745" lon="-1.90984">
        <ele>4</ele>
        <time>2018-01-08T12:27:50Z</time>
      </trkpt>
      <trkpt lat="46.67451" lon="-1.90994">
        <ele>4</ele>
        <time>2018-01-08T12:28:50Z</time>
      </trkpt>
      <trkpt lat="46.67454" lon="-1.91004">
        <ele>4</ele>
        <time>2018-01-08T12:29:50Z</time>
      </trkpt>
      <trkpt lat="46.67456" lon="-1.9101">
        <ele>4</ele>
        <time>2018-01-08T12:30:50Z</time>
      </trkpt>
      <trkpt lat="46.67469" lon="-1.9103">
        <ele>4</ele>
        <time>2018-01-08T12:31:50Z</time>
      </trkpt>
      <trkpt lat="46.6749" lon="-1.9106">
        <ele>5</ele>
        <time>2018-01-08T12:32:50Z</time>
      </trkpt>
      <trkpt lat="46.67518" lon="-1.91097">
        <ele>5</ele>
        <time>2018-01-08T12:33:50Z</time>
      </trkpt>
      <trkpt lat="46.67546" lon="-1.91137">
        <ele>5</ele>
        <time>2018-01-08T12:34:50Z</time>
      </trkpt>
      <trkpt lat="46.67578" lon="-1.91181">
        <ele>6</ele>
        <time>2018-01-08T12:35:50Z</time>
      </trkpt>
      <trkpt lat="46.67587" lon="-1.91194">
        <ele>6</ele>
        <time>2018-01-08T12:36:50Z</time>
      </trkpt>
      <trkpt lat="46.67612" lon="-1.91228">
        <ele>5</ele>
        <time>2018-01-08T12:37:50Z</time>
      </trkpt>
      <trkpt lat="46.67634" lon="-1.91261">
        <ele>5</ele>
        <time>2018-01-08T12:38:50Z</time>
      </trkpt>
      <trkpt lat="46.67662" lon="-1.91298">
        <ele>5</ele>
        <time>2018-01-08T12:39:50Z</time>
      </trkpt>
      <trkpt lat="46.67704" lon="-1.91358">
        <ele>5</ele>
        <time>2018-01-08T12:40:50Z</time>
      </trkpt>
      <trkpt lat="46.67743" lon="-1.91414">
        <ele>6</ele>
        <time>2018-01-08T12:41:50Z</time>
      </trkpt>
      <trkpt lat="46.67747" lon="-1.9142">
        <ele>6</ele>
        <time>2018-01-08T12:42:50Z</time>
      </trkpt>
      <trkpt lat="46.67783" lon="-1.91471">
        <ele>6</ele>
        <time>2018-01-08T12:43:50Z</time>
      </trkpt>
      <trkpt lat="46.67831" lon="-1.91538">
        <ele>6</ele>
        <time>2018-01-08T12:44:50Z</time>
      </trkpt>
      <trkpt lat="46.6784" lon="-1.91552">
        <ele>6</ele>
        <time>2018-01-08T12:45:50Z</time>
      </trkpt>
      <trkpt lat="46.67864" lon="-1.91583">
        <ele>6</ele>
        <time>2018-01-08T12:46:50Z</time>
      </trkpt>
      <trkpt lat="46.67883" lon="-1.91611">
        <ele>6</ele>
        <time>2018-01-08T12:47:50Z</time>
      </trkpt>
      <trkpt lat="46.67898" lon="-1.91633">
        <ele>7</ele>
        <time>2018-01-08T12:48:50Z</time>
      </trkpt>
      <trkpt lat="46.67928" lon="-1.91675">
        <ele>7</ele>
        <time>2018-01-08T12:49:50Z</time>
      </trkpt>
      <trkpt lat="46.67947" lon="-1.91703">
        <ele>7</ele>
        <time>2018-01-08T12:50:50Z</time>
      </trkpt>
      <trkpt lat="46.67972" lon="-1.91737">
        <ele>7</ele>
        <time>2018-01-08T12:51:50Z</time>
      </trkpt>
      <trkpt lat="46.68" lon="-1.91776">
        <ele>8</ele>
        <time>2018-01-08T12:52:50Z</time>
      </trkpt>
      <trkpt lat="46.68022" lon="-1.91808">
        <ele>8</ele>
        <time>2018-01-08T12:53:50Z</time>
      </trkpt>
      <trkpt lat="46.68033" lon="-1.91825">
        <ele>8</ele>
        <time>2018-01-08T12:54:50Z</time>
      </trkpt>
      <trkpt lat="46.68041" lon="-1.91836">
        <ele>8</ele>
        <time>2018-01-08T12:55:50Z</time>
      </trkpt>
      <trkpt lat="46.68057" lon="-1.91858">
        <ele>8</ele>
        <time>2018-01-08T12:56:50Z</time>
      </trkpt>
      <trkpt lat="46.68083" lon="-1.91897">
        <ele>8</ele>
        <time>2018-01-08T12:57:50Z</time>
      </trkpt>
      <trkpt lat="46.68115" lon="-1.91941">
        <ele>8</ele>
        <time>2018-01-08T12:58:50Z</time>
      </trkpt>
      <trkpt lat="46.68158" lon="-1.92003">
        <ele>8</ele>
        <time>2018-01-08T12:59:50Z</time>
      </trkpt>
      <trkpt lat="46.68174" lon="-1.92025">
        <ele>8</ele>
        <time>2018-01-08T13:00:50Z</time>
      </trkpt>
      <trkpt lat="46.68198" lon="-1.92057">
        <ele>7</ele>
        <time>2018-01-08T13:01:50Z</time>
      </trkpt>
      <trkpt lat="46.68208" lon="-1.92073">
        <ele>7</ele>
        <time>2018-01-08T13:02:50Z</time>
      </trkpt>
      <trkpt lat="46.6822" lon="-1.92091">
        <ele>7</ele>
        <time>2018-01-08T13:03:50Z</time>
      </trkpt>
      <trkpt lat="46.68224" lon="-1.92097">
        <ele>7</ele>
        <time>2018-01-08T13:04:50Z</time>
      </trkpt>
      <trkpt lat="46.68224" lon="-1.92098">
        <ele>7</ele>
        <time>2018-01-08T13:05:50Z</time>
      </trkpt>
      <trkpt lat="46.68227" lon="-1.92103">
        <ele>7</ele>
        <time>2018-01-08T13:06:50Z</time>
      </trkpt>
      <trkpt lat="46.6823" lon="-1.92107">
        <ele>7</ele>
        <time>2018-01-08T13:07:50Z</time>
      </trkpt>
      <trkpt lat="46.68255" lon="-1.9214">
        <ele>7</ele>
        <time>2018-01-08T13:08:50Z</time>
      </trkpt>
      <trkpt lat="46.68267" lon="-1.92157">
        <ele>7</ele>
        <time>2018-01-08T13:09:50Z</time>
      </trkpt>
      <trkpt lat="46.68277" lon="-1.92172">
        <ele>8</ele>
        <time>2018-01-08T13:10:50Z</time>
      </trkpt>
      <trkpt lat="46.68286" lon="-1.92186">
        <ele>8</ele>
        <time>2018-01-08T13:11:50Z</time>
      </trkpt>
      <trkpt lat="46.68291" lon="-1.92193">
        <ele>8</ele>
        <time>2018-01-08T13:12:50Z</time>
      </trkpt>
      <trkpt lat="46.68306" lon="-1.92219">
        <ele>9</ele>
        <time>2018-01-08T13:13:50Z</time>
      </trkpt>
      <trkpt lat="46.6832" lon="-1.92245">
        <ele>9</ele>
        <time>2018-01-08T13:14:50Z</time>
      </trkpt>
      <trkpt lat="46.6833" lon="-1.92261">
        <ele>9</ele>
        <time>2018-01-08T13:15:50Z</time>
      </trkpt>
      <trkpt lat="46.68355" lon="-1.92305">
        <ele>10</ele>
        <time>2018-01-08T13:16:50Z</time>
      </trkpt>
      <trkpt lat="46.6837" lon="-1.92334">
        <ele>10</ele>
        <time>2018-01-08T13:17:50Z</time>
      </trkpt>
      <trkpt lat="46.68377" lon="-1.92346">
        <ele>10</ele>
        <time>2018-01-08T13:18:50Z</time>
      </trkpt>
      <trkpt lat="46.6838" lon="-1.92351">
        <ele>10</ele>
        <time>2018-01-08T13:19:50Z</time>
      </trkpt>
      <trkpt lat="46.68389" lon="-1.92363">
        <ele>10</ele>
        <time>2018-01-08T13:20:50Z</time>
      </trkpt>
      <trkpt lat="46.68403" lon="-1.9238">
        <ele>10</ele>
        <time>2018-01-08T13:21:50Z</time>
      </trkpt>
      <trkpt lat="46.68413" lon="-1.92388">
        <ele>10</ele>
        <time>2018-01-08T13:22:50Z</time>
      </trkpt>
      <trkpt lat="46.68426" lon="-1.92396">
        <ele>10</ele>
        <time>2018-01-08T13:23:50Z</time>
      </trkpt>
      <trkpt lat="46.68435" lon="-1.924">
        <ele>10</ele>
        <time>2018-01-08T13:24:50Z</time>
      </trkpt>
      <trkpt lat="46.68447" lon="-1.92403">
        <ele>10</ele>
        <time>2018-01-08T13:25:50Z</time>
      </trkpt>
      <trkpt lat="46.68454" lon="-1.92404">
        <ele>10</ele>
        <time>2018-01-08T13:26:50Z</time>
      </trkpt>
      <trkpt lat="46.68463" lon="-1.92406">
        <ele>10</ele>
        <time>2018-01-08T13:27:50Z</time>
      </trkpt>
      <trkpt lat="46.68472" lon="-1.92408">
        <ele>10</ele>
        <time>2018-01-08T13:28:50Z</time>
      </trkpt>
      <trkpt lat="46.68481" lon="-1.92411">
        <ele>10</ele>
        <time>2018-01-08T13:29:50Z</time>
      </trkpt>
      <trkpt lat="46.68487" lon="-1.92415">
        <ele>10</ele>
        <time>2018-01-08T13:30:50Z</time>
      </trkpt>
      <trkpt lat="46.68495" lon="-1.9242">
        <ele>10</ele>
        <time>2018-01-08T13:31:50Z</time>
      </trkpt>
      <trkpt lat="46.68505" lon="-1.92428">
        <ele>10</ele>
        <time>2018-01-08T13:32:50Z</time>
      </trkpt>
      <trkpt lat="46.68514" lon="-1.92436">
        <ele>10</ele>
        <time>2018-01-08T13:33:50Z</time>
      </trkpt>
      <trkpt lat="46.68528" lon="-1.9245">
        <ele>10</ele>
        <time>2018-01-08T13:34:50Z</time>
      </trkpt>
      <trkpt lat="46.68532" lon="-1.92456">
        <ele>10</ele>
        <time>2018-01-08T13:35:50Z</time>
      </trkpt>
      <trkpt lat="46.68538" lon="-1.92464">
        <ele>10</ele>
        <time>2018-01-08T13:36:50Z</time>
      </trkpt>
      <trkpt lat="46.68549" lon="-1.92476">
        <ele>10</ele>
        <time>2018-01-08T13:37:50Z</time>
      </trkpt>
      <trkpt lat="46.68567" lon="-1.925">
        <ele>10</ele>
        <time>2018-01-08T13:38:50Z</time>
      </trkpt>
      <trkpt lat="46.68589" lon="-1.92528">
        <ele>10</ele>
        <time>2018-01-08T13:39:50Z</time>
      </trkpt>
      <trkpt lat="46.68594" lon="-1.92534">
        <ele>10</ele>
        <time>2018-01-08T13:40:50Z</time>
      </trkpt>
      <trkpt lat="46.68605" lon="-1.92548">
        <ele>10</ele>
        <time>2018-01-08T13:41:50Z</time>
      </trkpt>
      <trkpt lat="46.68616" lon="-1.92563">
        <ele>10</ele>
        <time>2018-01-08T13:42:50Z</time>
      </trkpt>
      <trkpt lat="46.68625" lon="-1.92575">
        <ele>10</ele>
        <time>2018-01-08T13:43:50Z</time>
      </trkpt>
      <trkpt lat="46.68629" lon="-1.9258">
        <ele>10</ele>
        <time>2018-01-08T13:44:50Z</time>
      </trkpt>
      <trkpt lat="46.68634" lon="-1.92586">
        <ele>10</ele>
        <time>2018-01-08T13:45:50Z</time>
      </trkpt>
      <trkpt lat="46.68635" lon="-1.92588">
        <ele>10</ele>
        <time>2018-01-08T13:46:50Z</time>
      </trkpt>
      <trkpt lat="46.68644" lon="-1.92596">
        <ele>10</ele>
        <time>2018-01-08T13:47:50Z</time>
      </trkpt>
      <trkpt lat="46.68651" lon="-1.92602">
        <ele>10</ele>
        <time>2018-01-08T13:48:50Z</time>
      </trkpt>
      <trkpt lat="46.68669" lon="-1.92615">
        <ele>10</ele>
        <time>2018-01-08T13:49:50Z</time>
      </trkpt>
      <trkpt lat="46.68707" lon="-1.92638">
        <ele>9</ele>
        <time>2018-01-08T13:50:50Z</time>
      </trkpt>
      <trkpt lat="46.68732" lon="-1.92654">
        <ele>8</ele>
        <time>2018-01-08T13:51:50Z</time>
      </trkpt>
      <trkpt lat="46.68733" lon="-1.92654">
        <ele>8</ele>
        <time>2018-01-08T13:52:50Z</time>
      </trkpt>
      <trkpt lat="46.68759" lon="-1.92668">
        <ele>8</ele>
        <time>2018-01-08T13:53:50Z</time>
      </trkpt>
      <trkpt lat="46.6876" lon="-1.92669">
        <ele>8</ele>
        <time>2018-01-08T13:54:50Z</time>
      </trkpt>
      <trkpt lat="46.68776" lon="-1.92676">
        <ele>8</ele>
        <time>2018-01-08T13:55:50Z</time>
      </trkpt>
      <trkpt lat="46.68787" lon="-1.9268">
        <ele>8</ele>
        <time>2018-01-08T13:56:50Z</time>
      </trkpt>
      <trkpt lat="46.68804" lon="-1.92685">
        <ele>7</ele>
        <time>2018-01-08T13:57:50Z</time>
      </trkpt>
      <trkpt lat="46.68817" lon="-1.9269">
        <ele>7</ele>
        <time>2018-01-08T13:58:50Z</time>
      </trkpt>
      <trkpt lat="46.68817" lon="-1.92689">
        <ele>7</ele>
        <time>2018-01-08T13:59:50Z</time>
      </trkpt>
      <trkpt lat="46.68818" lon="-1.92689">
        <ele>7</ele>
        <time>2018-01-08T14:00:50Z</time>
      </trkpt>
      <trkpt lat="46.68818" lon="-1.92688">
        <ele>7</ele>
        <time>2018-01-08T14:01:50Z</time>
      </trkpt>
      <trkpt lat="46.68818" lon="-1.92687">
        <ele>7</ele>
        <time>2018-01-08T14:02:50Z</time>
      </trkpt>
      <trkpt lat="46.68819" lon="-1.92687">
        <ele>7</ele>
        <time>2018-01-08T14:03:50Z</time>
      </trkpt>
      <trkpt lat="46.68819" lon="-1.92686">
        <ele>7</ele>
        <time>2018-01-08T14:04:50Z</time>
      </trkpt>
      <trkpt lat="46.6882" lon="-1.92686">
        <ele>7</ele>
        <time>2018-01-08T14:05:50Z</time>
      </trkpt>
      <trkpt lat="46.6882" lon="-1.92685">
        <ele>7</ele>
        <time>2018-01-08T14:06:50Z</time>
      </trkpt>
      <trkpt lat="46.68821" lon="-1.92685">
        <ele>7</ele>
        <time>2018-01-08T14:07:50Z</time>
      </trkpt>
      <trkpt lat="46.68822" lon="-1.92685">
        <ele>7</ele>
        <time>2018-01-08T14:08:50Z</time>
      </trkpt>
      <trkpt lat="46.68823" lon="-1.92685">
        <ele>7</ele>
        <time>2018-01-08T14:09:50Z</time>
      </trkpt>
      <trkpt lat="46.68824" lon="-1.92685">
        <ele>7</ele>
        <time>2018-01-08T14:10:50Z</time>
      </trkpt>
      <trkpt lat="46.68825" lon="-1.92685">
        <ele>7</ele>
        <time>2018-01-08T14:11:50Z</time>
      </trkpt>
      <trkpt lat="46.68826" lon="-1.92686">
        <ele>7</ele>
        <time>2018-01-08T14:12:50Z</time>
      </trkpt>
      <trkpt lat="46.68827" lon="-1.92686">
        <ele>7</ele>
        <time>2018-01-08T14:13:50Z</time>
      </trkpt>
      <trkpt lat="46.68827" lon="-1.92687">
        <ele>7</ele>
        <time>2018-01-08T14:14:50Z</time>
      </trkpt>
      <trkpt lat="46.68827" lon="-1.92688">
        <ele>7</ele>
        <time>2018-01-08T14:15:50Z</time>
      </trkpt>
      <trkpt lat="46.68828" lon="-1.92688">
        <ele>7</ele>
        <time>2018-01-08T14:16:50Z</time>
      </trkpt>
      <trkpt lat="46.68841" lon="-1.92685">
        <ele>7</ele>
        <time>2018-01-08T14:17:50Z</time>
      </trkpt>
      <trkpt lat="46.68841" lon="-1.92685">
        <ele>7</ele>
        <time>2018-01-08T14:18:50Z</time>
      </trkpt>
      <trkpt lat="46.68841" lon="-1.92684">
        <ele>7</ele>
        <time>2018-01-08T14:19:50Z</time>
      </trkpt>
      <trkpt lat="46.68842" lon="-1.92684">
        <ele>7</ele>
        <time>2018-01-08T14:20:50Z</time>
      </trkpt>
      <trkpt lat="46.68842" lon="-1.92683">
        <ele>7</ele>
        <time>2018-01-08T14:21:50Z</time>
      </trkpt>
      <trkpt lat="46.68843" lon="-1.92682">
        <ele>7</ele>
        <time>2018-01-08T14:22:50Z</time>
      </trkpt>
      <trkpt lat="46.68844" lon="-1.92682">
        <ele>7</ele>
        <time>2018-01-08T14:23:50Z</time>
      </trkpt>
      <trkpt lat="46.68844" lon="-1.92681">
        <ele>7</ele>
        <time>2018-01-08T14:24:50Z</time>
      </trkpt>
      <trkpt lat="46.68845" lon="-1.92681">
        <ele>6</ele>
        <time>2018-01-08T14:25:50Z</time>
      </trkpt>
      <trkpt lat="46.68846" lon="-1.92681">
        <ele>6</ele>
        <time>2018-01-08T14:26:50Z</time>
      </trkpt>
      <trkpt lat="46.68847" lon="-1.92681">
        <ele>6</ele>
        <time>2018-01-08T14:27:50Z</time>
      </trkpt>
      <trkpt lat="46.68848" lon="-1.92681">
        <ele>6</ele>
        <time>2018-01-08T14:28:50Z</time>
      </trkpt>
      <trkpt lat="46.68849" lon="-1.92681">
        <ele>6</ele>
        <time>2018-01-08T14:29:50Z</time>
      </trkpt>
      <trkpt lat="46.68849" lon="-1.92682">
        <ele>6</ele>
        <time>2018-01-08T14:30:50Z</time>
      </trkpt>
      <trkpt lat="46.6885" lon="-1.92682">
        <ele>6</ele>
        <time>2018-01-08T14:31:50Z</time>
      </trkpt>
      <trkpt lat="46.6885" lon="-1.92683">
        <ele>6</ele>
        <time>2018-01-08T14:32:50Z</time>
      </trkpt>
      <trkpt lat="46.68851" lon="-1.92683">
        <ele>6</ele>
        <time>2018-01-08T14:33:50Z</time>
      </trkpt>
      <trkpt lat="46.68851" lon="-1.92684">
        <ele>6</ele>
        <time>2018-01-08T14:34:50Z</time>
      </trkpt>
      <trkpt lat="46.68852" lon="-1.92684">
        <ele>6</ele>
        <time>2018-01-08T14:35:50Z</time>
      </trkpt>
      <trkpt lat="46.68852" lon="-1.92685">
        <ele>6</ele>
        <time>2018-01-08T14:36:50Z</time>
      </trkpt>
      <trkpt lat="46.68852" lon="-1.92686">
        <ele>6</ele>
        <time>2018-01-08T14:37:50Z</time>
      </trkpt>
      <trkpt lat="46.68853" lon="-1.92687">
        <ele>6</ele>
        <time>2018-01-08T14:38:50Z</time>
      </trkpt>
      <trkpt lat="46.68853" lon="-1.92688">
        <ele>6</ele>
        <time>2018-01-08T14:39:50Z</time>
      </trkpt>
      <trkpt lat="46.68853" lon="-1.92689">
        <ele>6</ele>
        <time>2018-01-08T14:40:50Z</time>
      </trkpt>
      <trkpt lat="46.68853" lon="-1.9269">
        <ele>6</ele>
        <time>2018-01-08T14:41:50Z</time>
      </trkpt>
      <trkpt lat="46.68853" lon="-1.92691">
        <ele>6</ele>
        <time>2018-01-08T14:42:50Z</time>
      </trkpt>
      <trkpt lat="46.68853" lon="-1.92692">
        <ele>6</ele>
        <time>2018-01-08T14:43:50Z</time>
      </trkpt>
      <trkpt lat="46.68853" lon="-1.92693">
        <ele>6</ele>
        <time>2018-01-08T14:44:50Z</time>
      </trkpt>
      <trkpt lat="46.68853" lon="-1.92694">
        <ele>6</ele>
        <time>2018-01-08T14:45:50Z</time>
      </trkpt>
      <trkpt lat="46.68853" lon="-1.92695">
        <ele>6</ele>
        <time>2018-01-08T14:46:50Z</time>
      </trkpt>
      <trkpt lat="46.68852" lon="-1.92695">
        <ele>6</ele>
        <time>2018-01-08T14:47:50Z</time>
      </trkpt>
      <trkpt lat="46.68852" lon="-1.92696">
        <ele>6</ele>
        <time>2018-01-08T14:48:50Z</time>
      </trkpt>
      <trkpt lat="46.68852" lon="-1.92697">
        <ele>6</ele>
        <time>2018-01-08T14:49:50Z</time>
      </trkpt>
      <trkpt lat="46.68851" lon="-1.92697">
        <ele>6</ele>
        <time>2018-01-08T14:50:50Z</time>
      </trkpt>
      <trkpt lat="46.68851" lon="-1.92698">
        <ele>6</ele>
        <time>2018-01-08T14:51:50Z</time>
      </trkpt>
      <trkpt lat="46.68859" lon="-1.92704">
        <ele>6</ele>
        <time>2018-01-08T14:52:50Z</time>
      </trkpt>
      <trkpt lat="46.6886" lon="-1.92704">
        <ele>6</ele>
        <time>2018-01-08T14:53:50Z</time>
      </trkpt>
      <trkpt lat="46.68869" lon="-1.92706">
        <ele>5</ele>
        <time>2018-01-08T14:54:50Z</time>
      </trkpt>
      <trkpt lat="46.68881" lon="-1.92711">
        <ele>5</ele>
        <time>2018-01-08T14:55:50Z</time>
      </trkpt>
      <trkpt lat="46.68897" lon="-1.92716">
        <ele>4</ele>
        <time>2018-01-08T14:56:50Z</time>
      </trkpt>
      <trkpt lat="46.68913" lon="-1.92723">
        <ele>4</ele>
        <time>2018-01-08T14:57:50Z</time>
      </trkpt>
      <trkpt lat="46.68926" lon="-1.9273">
        <ele>4</ele>
        <time>2018-01-08T14:58:50Z</time>
      </trkpt>
      <trkpt lat="46.68936" lon="-1.92737">
        <ele>4</ele>
        <time>2018-01-08T14:59:50Z</time>
      </trkpt>
      <trkpt lat="46.68947" lon="-1.92747">
        <ele>4</ele>
        <time>2018-01-08T15:00:50Z</time>
      </trkpt>
      <trkpt lat="46.68955" lon="-1.92755">
        <ele>4</ele>
        <time>2018-01-08T15:01:50Z</time>
      </trkpt>
      <trkpt lat="46.68965" lon="-1.92769">
        <ele>4</ele>
        <time>2018-01-08T15:02:50Z</time>
      </trkpt>
      <trkpt lat="46.68969" lon="-1.92774">
        <ele>4</ele>
        <time>2018-01-08T15:03:50Z</time>
      </trkpt>
      <trkpt lat="46.68977" lon="-1.92784">
        <ele>4</ele>
        <time>2018-01-08T15:04:50Z</time>
      </trkpt>
      <trkpt lat="46.68992" lon="-1.92805">
        <ele>4</ele>
        <time>2018-01-08T15:05:50Z</time>
      </trkpt>
      <trkpt lat="46.68993" lon="-1.92806">
        <ele>4</ele>
        <time>2018-01-08T15:06:50Z</time>
      </trkpt>
      <trkpt lat="46.69014" lon="-1.92836">
        <ele>4</ele>
        <time>2018-01-08T15:07:50Z</time>
      </trkpt>
      <trkpt lat="46.69038" lon="-1.92867">
        <ele>4</ele>
        <time>2018-01-08T15:08:50Z</time>
      </trkpt>
      <trkpt lat="46.69055" lon="-1.9289">
        <ele>4</ele>
        <time>2018-01-08T15:09:50Z</time>
      </trkpt>
      <trkpt lat="46.69068" lon="-1.92907">
        <ele>4</ele>
        <time>2018-01-08T15:10:50Z</time>
      </trkpt>
      <trkpt lat="46.69095" lon="-1.92938">
        <ele>4</ele>
        <time>2018-01-08T15:11:50Z</time>
      </trkpt>
      <trkpt lat="46.69107" lon="-1.92948">
        <ele>4</ele>
        <time>2018-01-08T15:12:50Z</time>
      </trkpt>
      <trkpt lat="46.69133" lon="-1.92971">
        <ele>4</ele>
        <time>2018-01-08T15:13:50Z</time>
      </trkpt>
      <trkpt lat="46.69154" lon="-1.92991">
        <ele>4</ele>
        <time>2018-01-08T15:14:50Z</time>
      </trkpt>
      <trkpt lat="46.6917" lon="-1.93005">
        <ele>4</ele>
        <time>2018-01-08T15:15:50Z</time>
      </trkpt>
      <trkpt lat="46.69175" lon="-1.93009">
        <ele>4</ele>
        <time>2018-01-08T15:16:50Z</time>
      </trkpt>
      <trkpt lat="46.69194" lon="-1.93026">
        <ele>5</ele>
        <time>2018-01-08T15:17:50Z</time>
      </trkpt>
      <trkpt lat="46.69217" lon="-1.93046">
        <ele>5</ele>
        <time>2018-01-08T15:18:50Z</time>
      </trkpt>
      <trkpt lat="46.69224" lon="-1.93053">
        <ele>5</ele>
        <time>2018-01-08T15:19:50Z</time>
      </trkpt>
      <trkpt lat="46.69245" lon="-1.93071">
        <ele>5</ele>
        <time>2018-01-08T15:20:50Z</time>
      </trkpt>
      <trkpt lat="46.69255" lon="-1.9308">
        <ele>5</ele>
        <time>2018-01-08T15:21:50Z</time>
      </trkpt>
      <trkpt lat="46.69269" lon="-1.93094">
        <ele>5</ele>
        <time>2018-01-08T15:22:50Z</time>
      </trkpt>
      <trkpt lat="46.69287" lon="-1.9311">
        <ele>5</ele>
        <time>2018-01-08T15:23:50Z</time>
      </trkpt>
      <trkpt lat="46.69303" lon="-1.93127">
        <ele>5</ele>
        <time>2018-01-08T15:24:50Z</time>
      </trkpt>
      <trkpt lat="46.69314" lon="-1.93136">
        <ele>5</ele>
        <time>2018-01-08T15:25:50Z</time>
      </trkpt>
      <trkpt lat="46.69324" lon="-1.93151">
        <ele>5</ele>
        <time>2018-01-08T15:26:50Z</time>
      </trkpt>
      <trkpt lat="46.69333" lon="-1.93166">
        <ele>5</ele>
        <time>2018-01-08T15:27:50Z</time>
      </trkpt>
      <trkpt lat="46.69341" lon="-1.93186">
        <ele>5</ele>
        <time>2018-01-08T15:28:50Z</time>
      </trkpt>
      <trkpt lat="46.69348" lon="-1.93201">
        <ele>5</ele>
        <time>2018-01-08T15:29:50Z</time>
      </trkpt>
      <trkpt lat="46.69351" lon="-1.93212">
        <ele>5</ele>
        <time>2018-01-08T15:30:50Z</time>
      </trkpt>
      <trkpt lat="46.69355" lon="-1.93224">
        <ele>4</ele>
        <time>2018-01-08T15:31:50Z</time>
      </trkpt>
      <trkpt lat="46.6936" lon="-1.93244">
        <ele>4</ele>
        <time>2018-01-08T15:32:50Z</time>
      </trkpt>
      <trkpt lat="46.69365" lon="-1.93261">
        <ele>4</ele>
        <time>2018-01-08T15:33:50Z</time>
      </trkpt>
      <trkpt lat="46.69368" lon="-1.93273">
        <ele>4</ele>
        <time>2018-01-08T15:34:50Z</time>
      </trkpt>
      <trkpt lat="46.69372" lon="-1.93291">
        <ele>4</ele>
        <time>2018-01-08T15:35:50Z</time>
      </trkpt>
      <trkpt lat="46.69374" lon="-1.93299">
        <ele>4</ele>
        <time>2018-01-08T15:36:50Z</time>
      </trkpt>
      <trkpt lat="46.69376" lon="-1.93304">
        <ele>4</ele>
        <time>2018-01-08T15:37:50Z</time>
      </trkpt>
      <trkpt lat="46.69378" lon="-1.93307">
        <ele>4</ele>
        <time>2018-01-08T15:38:50Z</time>
      </trkpt>
      <trkpt lat="46.69379" lon="-1.93309">
        <ele>4</ele>
        <time>2018-01-08T15:39:50Z</time>
      </trkpt>
      <trkpt lat="46.69384" lon="-1.93312">
        <ele>4</ele>
        <time>2018-01-08T15:40:50Z</time>
      </trkpt>
      <trkpt lat="46.69385" lon="-1.93312">
        <ele>4</ele>
        <time>2018-01-08T15:41:50Z</time>
      </trkpt>
      <trkpt lat="46.69386" lon="-1.93311">
        <ele>4</ele>
        <time>2018-01-08T15:42:50Z</time>
      </trkpt>
      <trkpt lat="46.69387" lon="-1.93311">
        <ele>4</ele>
        <time>2018-01-08T15:43:50Z</time>
      </trkpt>
      <trkpt lat="46.69388" lon="-1.93311">
        <ele>4</ele>
        <time>2018-01-08T15:44:50Z</time>
      </trkpt>
      <trkpt lat="46.69389" lon="-1.93311">
        <ele>4</ele>
        <time>2018-01-08T15:45:50Z</time>
      </trkpt>
      <trkpt lat="46.69389" lon="-1.93312">
        <ele>4</ele>
        <time>2018-01-08T15:46:50Z</time>
      </trkpt>
      <trkpt lat="46.6939" lon="-1.93312">
        <ele>4</ele>
        <time>2018-01-08T15:47:50Z</time>
      </trkpt>
      <trkpt lat="46.69391" lon="-1.93312">
        <ele>4</ele>
        <time>2018-01-08T15:48:50Z</time>
      </trkpt>
      <trkpt lat="46.69391" lon="-1.93313">
        <ele>4</ele>
        <time>2018-01-08T15:49:50Z</time>
      </trkpt>
      <trkpt lat="46.69392" lon="-1.93313">
        <ele>4</ele>
        <time>2018-01-08T15:50:50Z</time>
      </trkpt>
      <trkpt lat="46.69393" lon="-1.93314">
        <ele>4</ele>
        <time>2018-01-08T15:51:50Z</time>
      </trkpt>
      <trkpt lat="46.69393" lon="-1.93315">
        <ele>4</ele>
        <time>2018-01-08T15:52:50Z</time>
      </trkpt>
      <trkpt lat="46.69394" lon="-1.93315">
        <ele>4</ele>
        <time>2018-01-08T15:53:50Z</time>
      </trkpt>
      <trkpt lat="46.69394" lon="-1.93316">
        <ele>4</ele>
        <time>2018-01-08T15:54:50Z</time>
      </trkpt>
      <trkpt lat="46.69395" lon="-1.93317">
        <ele>4</ele>
        <time>2018-01-08T15:55:50Z</time>
      </trkpt>
      <trkpt lat="46.69395" lon="-1.93318">
        <ele>4</ele>
        <time>2018-01-08T15:56:50Z</time>
      </trkpt>
      <trkpt lat="46.69396" lon="-1.93319">
        <ele>4</ele>
        <time>2018-01-08T15:57:50Z</time>
      </trkpt>
      <trkpt lat="46.69396" lon="-1.9332">
        <ele>4</ele>
        <time>2018-01-08T15:58:50Z</time>
      </trkpt>
      <trkpt lat="46.69396" lon="-1.93321">
        <ele>4</ele>
        <time>2018-01-08T15:59:50Z</time>
      </trkpt>
      <trkpt lat="46.69406" lon="-1.93325">
        <ele>4</ele>
        <time>2018-01-08T16:00:50Z</time>
      </trkpt>
      <trkpt lat="46.69416" lon="-1.93331">
        <ele>4</ele>
        <time>2018-01-08T16:01:50Z</time>
      </trkpt>
      <trkpt lat="46.69421" lon="-1.93333">
        <ele>4</ele>
        <time>2018-01-08T16:02:50Z</time>
      </trkpt>
      <trkpt lat="46.69426" lon="-1.93334">
        <ele>4</ele>
        <time>2018-01-08T16:03:50Z</time>
      </trkpt>
      <trkpt lat="46.69431" lon="-1.93336">
        <ele>4</ele>
        <time>2018-01-08T16:04:50Z</time>
      </trkpt>
      <trkpt lat="46.6946" lon="-1.93349">
        <ele>4</ele>
        <time>2018-01-08T16:05:50Z</time>
      </trkpt>
      <trkpt lat="46.69498" lon="-1.93366">
        <ele>4</ele>
        <time>2018-01-08T16:06:50Z</time>
      </trkpt>
      <trkpt lat="46.69503" lon="-1.93368">
        <ele>4</ele>
        <time>2018-01-08T16:07:50Z</time>
      </trkpt>
      <trkpt lat="46.69507" lon="-1.9337">
        <ele>4</ele>
        <time>2018-01-08T16:08:50Z</time>
      </trkpt>
      <trkpt lat="46.69518" lon="-1.93374">
        <ele>4</ele>
        <time>2018-01-08T16:09:50Z</time>
      </trkpt>
      <trkpt lat="46.69551" lon="-1.93388">
        <ele>4</ele>
        <time>2018-01-08T16:10:50Z</time>
      </trkpt>
      <trkpt lat="46.69587" lon="-1.93404">
        <ele>4</ele>
        <time>2018-01-08T16:11:50Z</time>
      </trkpt>
      <trkpt lat="46.69607" lon="-1.93416">
        <ele>4</ele>
        <time>2018-01-08T16:12:50Z</time>
      </trkpt>
      <trkpt lat="46.69617" lon="-1.9342">
        <ele>4</ele>
        <time>2018-01-08T16:13:50Z</time>
      </trkpt>
      <trkpt lat="46.69617" lon="-1.9342">
        <ele>4</ele>
        <time>2018-01-08T16:14:50Z</time>
      </trkpt>
      <trkpt lat="46.69617" lon="-1.93419">
        <ele>4</ele>
        <time>2018-01-08T16:15:50Z</time>
      </trkpt>
      <trkpt lat="46.69617" lon="-1.93418">
        <ele>4</ele>
        <time>2018-01-08T16:16:50Z</time>
      </trkpt>
      <trkpt lat="46.69618" lon="-1.93418">
        <ele>4</ele>
        <time>2018-01-08T16:17:50Z</time>
      </trkpt>
      <trkpt lat="46.69618" lon="-1.93417">
        <ele>4</ele>
        <time>2018-01-08T16:18:50Z</time>
      </trkpt>
      <trkpt lat="46.69618" lon="-1.93416">
        <ele>4</ele>
        <time>2018-01-08T16:19:50Z</time>
      </trkpt>
      <trkpt lat="46.69619" lon="-1.93416">
        <ele>4</ele>
        <time>2018-01-08T16:20:50Z</time>
      </trkpt>
      <trkpt lat="46.69619" lon="-1.93415">
        <ele>4</ele>
        <time>2018-01-08T16:21:50Z</time>
      </trkpt>
      <trkpt lat="46.6962" lon="-1.93415">
        <ele>4</ele>
        <time>2018-01-08T16:22:50Z</time>
      </trkpt>
      <trkpt lat="46.6962" lon="-1.93414">
        <ele>5</ele>
        <time>2018-01-08T16:23:50Z</time>
      </trkpt>
      <trkpt lat="46.69621" lon="-1.93414">
        <ele>5</ele>
        <time>2018-01-08T16:24:50Z</time>
      </trkpt>
      <trkpt lat="46.69621" lon="-1.93413">
        <ele>5</ele>
        <time>2018-01-08T16:25:50Z</time>
      </trkpt>
      <trkpt lat="46.69622" lon="-1.93413">
        <ele>5</ele>
        <time>2018-01-08T16:26:50Z</time>
      </trkpt>
      <trkpt lat="46.69623" lon="-1.93412">
        <ele>5</ele>
        <time>2018-01-08T16:27:50Z</time>
      </trkpt>
      <trkpt lat="46.69624" lon="-1.93412">
        <ele>5</ele>
        <time>2018-01-08T16:28:50Z</time>
      </trkpt>
      <trkpt lat="46.69625" lon="-1.93412">
        <ele>5</ele>
        <time>2018-01-08T16:29:50Z</time>
      </trkpt>
      <trkpt lat="46.69626" lon="-1.93412">
        <ele>5</ele>
        <time>2018-01-08T16:30:50Z</time>
      </trkpt>
      <trkpt lat="46.69627" lon="-1.93412">
        <ele>5</ele>
        <time>2018-01-08T16:31:50Z</time>
      </trkpt>
      <trkpt lat="46.69627" lon="-1.93413">
        <ele>5</ele>
        <time>2018-01-08T16:32:50Z</time>
      </trkpt>
      <trkpt lat="46.69628" lon="-1.93413">
        <ele>5</ele>
        <time>2018-01-08T16:33:50Z</time>
      </trkpt>
      <trkpt lat="46.69629" lon="-1.93413">
        <ele>5</ele>
        <time>2018-01-08T16:34:50Z</time>
      </trkpt>
      <trkpt lat="46.69629" lon="-1.93414">
        <ele>5</ele>
        <time>2018-01-08T16:35:50Z</time>
      </trkpt>
      <trkpt lat="46.6963" lon="-1.93414">
        <ele>5</ele>
        <time>2018-01-08T16:36:50Z</time>
      </trkpt>
      <trkpt lat="46.6963" lon="-1.93415">
        <ele>5</ele>
        <time>2018-01-08T16:37:50Z</time>
      </trkpt>
      <trkpt lat="46.69631" lon="-1.93416">
        <ele>5</ele>
        <time>2018-01-08T16:38:50Z</time>
      </trkpt>
      <trkpt lat="46.69631" lon="-1.93417">
        <ele>5</ele>
        <time>2018-01-08T16:39:50Z</time>
      </trkpt>
      <trkpt lat="46.69632" lon="-1.93417">
        <ele>5</ele>
        <time>2018-01-08T16:40:50Z</time>
      </trkpt>
      <trkpt lat="46.69632" lon="-1.93418">
        <ele>5</ele>
        <time>2018-01-08T16:41:50Z</time>
      </trkpt>
      <trkpt lat="46.69632" lon="-1.93419">
        <ele>5</ele>
        <time>2018-01-08T16:42:50Z</time>
      </trkpt>
      <trkpt lat="46.69633" lon="-1.93419">
        <ele>5</ele>
        <time>2018-01-08T16:43:50Z</time>
      </trkpt>
      <trkpt lat="46.69633" lon="-1.9342">
        <ele>5</ele>
        <time>2018-01-08T16:44:50Z</time>
      </trkpt>
      <trkpt lat="46.69633" lon="-1.93421">
        <ele>5</ele>
        <time>2018-01-08T16:45:50Z</time>
      </trkpt>
      <trkpt lat="46.69633" lon="-1.93422">
        <ele>5</ele>
        <time>2018-01-08T16:46:50Z</time>
      </trkpt>
      <trkpt lat="46.69633" lon="-1.93423">
        <ele>5</ele>
        <time>2018-01-08T16:47:50Z</time>
      </trkpt>
      <trkpt lat="46.69685" lon="-1.93435">
        <ele>5</ele>
        <time>2018-01-08T16:48:50Z</time>
      </trkpt>
      <trkpt lat="46.69697" lon="-1.93436">
        <ele>5</ele>
        <time>2018-01-08T16:49:50Z</time>
      </trkpt>
      <trkpt lat="46.69714" lon="-1.93435">
        <ele>5</ele>
        <time>2018-01-08T16:50:50Z</time>
      </trkpt>
      <trkpt lat="46.69721" lon="-1.93434">
        <ele>5</ele>
        <time>2018-01-08T16:51:50Z</time>
      </trkpt>
      <trkpt lat="46.69759" lon="-1.93424">
        <ele>5</ele>
        <time>2018-01-08T16:52:50Z</time>
      </trkpt>
      <trkpt lat="46.69762" lon="-1.93423">
        <ele>5</ele>
        <time>2018-01-08T16:53:50Z</time>
      </trkpt>
      <trkpt lat="46.69772" lon="-1.9342">
        <ele>5</ele>
        <time>2018-01-08T16:54:50Z</time>
      </trkpt>
      <trkpt lat="46.69776" lon="-1.9342">
        <ele>5</ele>
        <time>2018-01-08T16:55:50Z</time>
      </trkpt>
      <trkpt lat="46.69779" lon="-1.9342">
        <ele>5</ele>
        <time>2018-01-08T16:56:50Z</time>
      </trkpt>
      <trkpt lat="46.69785" lon="-1.93422">
        <ele>5</ele>
        <time>2018-01-08T16:57:50Z</time>
      </trkpt>
      <trkpt lat="46.69785" lon="-1.93421">
        <ele>5</ele>
        <time>2018-01-08T16:58:50Z</time>
      </trkpt>
      <trkpt lat="46.69786" lon="-1.93421">
        <ele>5</ele>
        <time>2018-01-08T16:59:50Z</time>
      </trkpt>
      <trkpt lat="46.69786" lon="-1.9342">
        <ele>5</ele>
        <time>2018-01-08T17:00:50Z</time>
      </trkpt>
      <trkpt lat="46.69786" lon="-1.93419">
        <ele>5</ele>
        <time>2018-01-08T17:01:50Z</time>
      </trkpt>
      <trkpt lat="46.69786" lon="-1.93418">
        <ele>5</ele>
        <time>2018-01-08T17:02:50Z</time>
      </trkpt>
      <trkpt lat="46.69787" lon="-1.93418">
        <ele>5</ele>
        <time>2018-01-08T17:03:50Z</time>
      </trkpt>
      <trkpt lat="46.69787" lon="-1.93417">
        <ele>5</ele>
        <time>2018-01-08T17:04:50Z</time>
      </trkpt>
      <trkpt lat="46.69788" lon="-1.93417">
        <ele>5</ele>
        <time>2018-01-08T17:05:50Z</time>
      </trkpt>
      <trkpt lat="46.69789" lon="-1.93417">
        <ele>5</ele>
        <time>2018-01-08T17:06:50Z</time>
      </trkpt>
      <trkpt lat="46.6979" lon="-1.93417">
        <ele>5</ele>
        <time>2018-01-08T17:07:50Z</time>
      </trkpt>
      <trkpt lat="46.69791" lon="-1.93417">
        <ele>5</ele>
        <time>2018-01-08T17:08:50Z</time>
      </trkpt>
      <trkpt lat="46.69791" lon="-1.93418">
        <ele>5</ele>
        <time>2018-01-08T17:09:50Z</time>
      </trkpt>
      <trkpt lat="46.69792" lon="-1.93418">
        <ele>5</ele>
        <time>2018-01-08T17:10:50Z</time>
      </trkpt>
      <trkpt lat="46.69792" lon="-1.93419">
        <ele>5</ele>
        <time>2018-01-08T17:11:50Z</time>
      </trkpt>
      <trkpt lat="46.69792" lon="-1.9342">
        <ele>5</ele>
        <time>2018-01-08T17:12:50Z</time>
      </trkpt>
      <trkpt lat="46.69793" lon="-1.9342">
        <ele>5</ele>
        <time>2018-01-08T17:13:50Z</time>
      </trkpt>
      <trkpt lat="46.69797" lon="-1.93421">
        <ele>5</ele>
        <time>2018-01-08T17:14:50Z</time>
      </trkpt>
      <trkpt lat="46.69798" lon="-1.93421">
        <ele>5</ele>
        <time>2018-01-08T17:15:50Z</time>
      </trkpt>
      <trkpt lat="46.69806" lon="-1.93419">
        <ele>5</ele>
        <time>2018-01-08T17:16:50Z</time>
      </trkpt>
      <trkpt lat="46.69824" lon="-1.93411">
        <ele>5</ele>
        <time>2018-01-08T17:17:50Z</time>
      </trkpt>
      <trkpt lat="46.69892" lon="-1.93385">
        <ele>5</ele>
        <time>2018-01-08T17:18:50Z</time>
      </trkpt>
      <trkpt lat="46.69898" lon="-1.93383">
        <ele>5</ele>
        <time>2018-01-08T17:19:50Z</time>
      </trkpt>
      <trkpt lat="46.69901" lon="-1.93383">
        <ele>5</ele>
        <time>2018-01-08T17:20:50Z</time>
      </trkpt>
      <trkpt lat="46.69905" lon="-1.93383">
        <ele>4</ele>
        <time>2018-01-08T17:21:50Z</time>
      </trkpt>
    </trkseg>
  </trk>
</gpx>